<?xml version="1.0" encoding="UTF-8" standalone="no" ?>
<gpx xmlns="http://www.topografix.com/GPX/1/1" xmlns:xsi="http://www.w3.org/2001/XMLSchema-instance" xsi:schemaLocation="http://www.topografix.com/GPX/1/1 http://www.topografix.com/GPX/1/1/gpx.xsd" version="1.1" creator="VisuGPX - https://www.visugpx.com">
  <metadata>
    <name>Parcours VTT Longueil 76</name>
    <desc><![CDATA[praticable même un lendemain de pluie]]></desc>
  </metadata>
  <trk>
    <name><![CDATA[VTT 2014 Léon Longueil 25 oct]]></name>
    <trkseg>
      <trkpt lat="49.88643" lon="0.95755">
        <ele>46</ele>
        <time>2014-10-25T07:58:47.000Z</time>
      </trkpt>
      <trkpt lat="49.88649" lon="0.95765">
        <ele>48</ele>
        <time>2014-10-25T07:58:51.000Z</time>
      </trkpt>
      <trkpt lat="49.88652" lon="0.95769">
        <ele>49</ele>
        <time>2014-10-25T07:58:52.000Z</time>
      </trkpt>
      <trkpt lat="49.88659" lon="0.95778">
        <ele>50</ele>
        <time>2014-10-25T07:58:55.000Z</time>
      </trkpt>
      <trkpt lat="49.88661" lon="0.95781">
        <ele>51</ele>
        <time>2014-10-25T07:58:56.000Z</time>
      </trkpt>
      <trkpt lat="49.88668" lon="0.95794">
        <ele>52</ele>
        <time>2014-10-25T07:58:59.000Z</time>
      </trkpt>
      <trkpt lat="49.8867" lon="0.95799">
        <ele>52</ele>
        <time>2014-10-25T07:59:00.000Z</time>
      </trkpt>
      <trkpt lat="49.88676" lon="0.95816">
        <ele>53</ele>
        <time>2014-10-25T07:59:03.000Z</time>
      </trkpt>
      <trkpt lat="49.88677" lon="0.95822">
        <ele>53</ele>
        <time>2014-10-25T07:59:04.000Z</time>
      </trkpt>
      <trkpt lat="49.88681" lon="0.95837">
        <ele>52</ele>
        <time>2014-10-25T07:59:07.000Z</time>
      </trkpt>
      <trkpt lat="49.88682" lon="0.95841">
        <ele>52</ele>
        <time>2014-10-25T07:59:08.000Z</time>
      </trkpt>
      <trkpt lat="49.88685" lon="0.95858">
        <ele>52</ele>
        <time>2014-10-25T07:59:11.000Z</time>
      </trkpt>
      <trkpt lat="49.88686" lon="0.95863">
        <ele>52</ele>
        <time>2014-10-25T07:59:12.000Z</time>
      </trkpt>
      <trkpt lat="49.88689" lon="0.95881">
        <ele>52</ele>
        <time>2014-10-25T07:59:15.000Z</time>
      </trkpt>
      <trkpt lat="49.8869" lon="0.95887">
        <ele>52</ele>
        <time>2014-10-25T07:59:16.000Z</time>
      </trkpt>
      <trkpt lat="49.88691" lon="0.95906">
        <ele>53</ele>
        <time>2014-10-25T07:59:19.000Z</time>
      </trkpt>
      <trkpt lat="49.88691" lon="0.95911">
        <ele>53</ele>
        <time>2014-10-25T07:59:20.000Z</time>
      </trkpt>
      <trkpt lat="49.88692" lon="0.95928">
        <ele>52</ele>
        <time>2014-10-25T07:59:23.000Z</time>
      </trkpt>
      <trkpt lat="49.88693" lon="0.95934">
        <ele>52</ele>
        <time>2014-10-25T07:59:24.000Z</time>
      </trkpt>
      <trkpt lat="49.88694" lon="0.95952">
        <ele>52</ele>
        <time>2014-10-25T07:59:27.000Z</time>
      </trkpt>
      <trkpt lat="49.88695" lon="0.95958">
        <ele>53</ele>
        <time>2014-10-25T07:59:28.000Z</time>
      </trkpt>
      <trkpt lat="49.88695" lon="0.95973">
        <ele>53</ele>
        <time>2014-10-25T07:59:31.000Z</time>
      </trkpt>
      <trkpt lat="49.88696" lon="0.95977">
        <ele>53</ele>
        <time>2014-10-25T07:59:32.000Z</time>
      </trkpt>
      <trkpt lat="49.88694" lon="0.95994">
        <ele>54</ele>
        <time>2014-10-25T07:59:36.000Z</time>
      </trkpt>
      <trkpt lat="49.88694" lon="0.95999">
        <ele>55</ele>
        <time>2014-10-25T07:59:37.000Z</time>
      </trkpt>
      <trkpt lat="49.88696" lon="0.96015">
        <ele>55</ele>
        <time>2014-10-25T07:59:40.000Z</time>
      </trkpt>
      <trkpt lat="49.88697" lon="0.96021">
        <ele>55</ele>
        <time>2014-10-25T07:59:41.000Z</time>
      </trkpt>
      <trkpt lat="49.88703" lon="0.96031">
        <ele>56</ele>
        <time>2014-10-25T07:59:45.000Z</time>
      </trkpt>
      <trkpt lat="49.88704" lon="0.96031">
        <ele>56</ele>
        <time>2014-10-25T07:59:46.000Z</time>
      </trkpt>
      <trkpt lat="49.88712" lon="0.96023">
        <ele>63</ele>
        <time>2014-10-25T08:00:00.000Z</time>
      </trkpt>
      <trkpt lat="49.88714" lon="0.96021">
        <ele>63</ele>
        <time>2014-10-25T08:00:01.000Z</time>
      </trkpt>
      <trkpt lat="49.88722" lon="0.96015">
        <ele>63</ele>
        <time>2014-10-25T08:00:05.000Z</time>
      </trkpt>
      <trkpt lat="49.88724" lon="0.96013">
        <ele>63</ele>
        <time>2014-10-25T08:00:06.000Z</time>
      </trkpt>
      <trkpt lat="49.88734" lon="0.96007">
        <ele>63</ele>
        <time>2014-10-25T08:00:10.000Z</time>
      </trkpt>
      <trkpt lat="49.88737" lon="0.96006">
        <ele>63</ele>
        <time>2014-10-25T08:00:11.000Z</time>
      </trkpt>
      <trkpt lat="49.88748" lon="0.95998">
        <ele>63</ele>
        <time>2014-10-25T08:00:15.000Z</time>
      </trkpt>
      <trkpt lat="49.88751" lon="0.95996">
        <ele>63</ele>
        <time>2014-10-25T08:00:16.000Z</time>
      </trkpt>
      <trkpt lat="49.8876" lon="0.95989">
        <ele>64</ele>
        <time>2014-10-25T08:00:19.000Z</time>
      </trkpt>
      <trkpt lat="49.88763" lon="0.95988">
        <ele>64</ele>
        <time>2014-10-25T08:00:20.000Z</time>
      </trkpt>
      <trkpt lat="49.88775" lon="0.95983">
        <ele>65</ele>
        <time>2014-10-25T08:00:23.000Z</time>
      </trkpt>
      <trkpt lat="49.88779" lon="0.9598">
        <ele>65</ele>
        <time>2014-10-25T08:00:24.000Z</time>
      </trkpt>
      <trkpt lat="49.88789" lon="0.95975">
        <ele>65</ele>
        <time>2014-10-25T08:00:27.000Z</time>
      </trkpt>
      <trkpt lat="49.88793" lon="0.95973">
        <ele>65</ele>
        <time>2014-10-25T08:00:28.000Z</time>
      </trkpt>
      <trkpt lat="49.88803" lon="0.95971">
        <ele>66</ele>
        <time>2014-10-25T08:00:31.000Z</time>
      </trkpt>
      <trkpt lat="49.88805" lon="0.95972">
        <ele>66</ele>
        <time>2014-10-25T08:00:32.000Z</time>
      </trkpt>
      <trkpt lat="49.88812" lon="0.95986">
        <ele>67</ele>
        <time>2014-10-25T08:00:36.000Z</time>
      </trkpt>
      <trkpt lat="49.88814" lon="0.9599">
        <ele>67</ele>
        <time>2014-10-25T08:00:37.000Z</time>
      </trkpt>
      <trkpt lat="49.88822" lon="0.95998">
        <ele>68</ele>
        <time>2014-10-25T08:00:40.000Z</time>
      </trkpt>
      <trkpt lat="49.88826" lon="0.96">
        <ele>68</ele>
        <time>2014-10-25T08:00:41.000Z</time>
      </trkpt>
      <trkpt lat="49.88836" lon="0.96004">
        <ele>68</ele>
        <time>2014-10-25T08:00:44.000Z</time>
      </trkpt>
      <trkpt lat="49.88838" lon="0.96005">
        <ele>67</ele>
        <time>2014-10-25T08:00:45.000Z</time>
      </trkpt>
      <trkpt lat="49.88849" lon="0.96011">
        <ele>63</ele>
        <time>2014-10-25T08:00:49.000Z</time>
      </trkpt>
      <trkpt lat="49.88852" lon="0.96012">
        <ele>61</ele>
        <time>2014-10-25T08:00:50.000Z</time>
      </trkpt>
      <trkpt lat="49.88863" lon="0.96018">
        <ele>56</ele>
        <time>2014-10-25T08:00:54.000Z</time>
      </trkpt>
      <trkpt lat="49.88866" lon="0.96019">
        <ele>55</ele>
        <time>2014-10-25T08:00:55.000Z</time>
      </trkpt>
      <trkpt lat="49.88874" lon="0.96026">
        <ele>52</ele>
        <time>2014-10-25T08:00:58.000Z</time>
      </trkpt>
      <trkpt lat="49.88876" lon="0.9603">
        <ele>51</ele>
        <time>2014-10-25T08:00:59.000Z</time>
      </trkpt>
      <trkpt lat="49.88884" lon="0.96041">
        <ele>49</ele>
        <time>2014-10-25T08:01:02.000Z</time>
      </trkpt>
      <trkpt lat="49.88887" lon="0.96042">
        <ele>48</ele>
        <time>2014-10-25T08:01:03.000Z</time>
      </trkpt>
      <trkpt lat="49.88898" lon="0.96038">
        <ele>47</ele>
        <time>2014-10-25T08:01:06.000Z</time>
      </trkpt>
      <trkpt lat="49.88902" lon="0.96035">
        <ele>47</ele>
        <time>2014-10-25T08:01:07.000Z</time>
      </trkpt>
      <trkpt lat="49.88908" lon="0.9602">
        <ele>47</ele>
        <time>2014-10-25T08:01:10.000Z</time>
      </trkpt>
      <trkpt lat="49.88909" lon="0.96014">
        <ele>48</ele>
        <time>2014-10-25T08:01:11.000Z</time>
      </trkpt>
      <trkpt lat="49.88911" lon="0.96007">
        <ele>48</ele>
        <time>2014-10-25T08:01:12.000Z</time>
      </trkpt>
      <trkpt lat="49.88913" lon="0.96">
        <ele>49</ele>
        <time>2014-10-25T08:01:13.000Z</time>
      </trkpt>
      <trkpt lat="49.88915" lon="0.95994">
        <ele>49</ele>
        <time>2014-10-25T08:01:14.000Z</time>
      </trkpt>
      <trkpt lat="49.88916" lon="0.95987">
        <ele>50</ele>
        <time>2014-10-25T08:01:15.000Z</time>
      </trkpt>
      <trkpt lat="49.88918" lon="0.9598">
        <ele>50</ele>
        <time>2014-10-25T08:01:16.000Z</time>
      </trkpt>
      <trkpt lat="49.88919" lon="0.95974">
        <ele>50</ele>
        <time>2014-10-25T08:01:17.000Z</time>
      </trkpt>
      <trkpt lat="49.88921" lon="0.95967">
        <ele>50</ele>
        <time>2014-10-25T08:01:18.000Z</time>
      </trkpt>
      <trkpt lat="49.88923" lon="0.9596">
        <ele>50</ele>
        <time>2014-10-25T08:01:19.000Z</time>
      </trkpt>
      <trkpt lat="49.88925" lon="0.95953">
        <ele>49</ele>
        <time>2014-10-25T08:01:20.000Z</time>
      </trkpt>
      <trkpt lat="49.88927" lon="0.95946">
        <ele>49</ele>
        <time>2014-10-25T08:01:21.000Z</time>
      </trkpt>
      <trkpt lat="49.88929" lon="0.95938">
        <ele>49</ele>
        <time>2014-10-25T08:01:22.000Z</time>
      </trkpt>
      <trkpt lat="49.88931" lon="0.95931">
        <ele>49</ele>
        <time>2014-10-25T08:01:23.000Z</time>
      </trkpt>
      <trkpt lat="49.88933" lon="0.95924">
        <ele>49</ele>
        <time>2014-10-25T08:01:24.000Z</time>
      </trkpt>
      <trkpt lat="49.88935" lon="0.95916">
        <ele>50</ele>
        <time>2014-10-25T08:01:25.000Z</time>
      </trkpt>
      <trkpt lat="49.88937" lon="0.95909">
        <ele>50</ele>
        <time>2014-10-25T08:01:26.000Z</time>
      </trkpt>
      <trkpt lat="49.8894" lon="0.95901">
        <ele>50</ele>
        <time>2014-10-25T08:01:27.000Z</time>
      </trkpt>
      <trkpt lat="49.88942" lon="0.95894">
        <ele>50</ele>
        <time>2014-10-25T08:01:28.000Z</time>
      </trkpt>
      <trkpt lat="49.88944" lon="0.95886">
        <ele>50</ele>
        <time>2014-10-25T08:01:29.000Z</time>
      </trkpt>
      <trkpt lat="49.88946" lon="0.95879">
        <ele>50</ele>
        <time>2014-10-25T08:01:30.000Z</time>
      </trkpt>
      <trkpt lat="49.88948" lon="0.95872">
        <ele>51</ele>
        <time>2014-10-25T08:01:31.000Z</time>
      </trkpt>
      <trkpt lat="49.8895" lon="0.95865">
        <ele>51</ele>
        <time>2014-10-25T08:01:32.000Z</time>
      </trkpt>
      <trkpt lat="49.88951" lon="0.95859">
        <ele>51</ele>
        <time>2014-10-25T08:01:33.000Z</time>
      </trkpt>
      <trkpt lat="49.88957" lon="0.95842">
        <ele>53</ele>
        <time>2014-10-25T08:01:36.000Z</time>
      </trkpt>
      <trkpt lat="49.88957" lon="0.95837">
        <ele>53</ele>
        <time>2014-10-25T08:01:37.000Z</time>
      </trkpt>
      <trkpt lat="49.88961" lon="0.95821">
        <ele>54</ele>
        <time>2014-10-25T08:01:40.000Z</time>
      </trkpt>
      <trkpt lat="49.88963" lon="0.95814">
        <ele>54</ele>
        <time>2014-10-25T08:01:41.000Z</time>
      </trkpt>
      <trkpt lat="49.88965" lon="0.95807">
        <ele>54</ele>
        <time>2014-10-25T08:01:42.000Z</time>
      </trkpt>
      <trkpt lat="49.88967" lon="0.95801">
        <ele>54</ele>
        <time>2014-10-25T08:01:43.000Z</time>
      </trkpt>
      <trkpt lat="49.88969" lon="0.95794">
        <ele>54</ele>
        <time>2014-10-25T08:01:44.000Z</time>
      </trkpt>
      <trkpt lat="49.8897" lon="0.95787">
        <ele>54</ele>
        <time>2014-10-25T08:01:45.000Z</time>
      </trkpt>
      <trkpt lat="49.88974" lon="0.9577">
        <ele>53</ele>
        <time>2014-10-25T08:01:48.000Z</time>
      </trkpt>
      <trkpt lat="49.88976" lon="0.95765">
        <ele>53</ele>
        <time>2014-10-25T08:01:49.000Z</time>
      </trkpt>
      <trkpt lat="49.8898" lon="0.95745">
        <ele>53</ele>
        <time>2014-10-25T08:01:52.000Z</time>
      </trkpt>
      <trkpt lat="49.88981" lon="0.95738">
        <ele>52</ele>
        <time>2014-10-25T08:01:53.000Z</time>
      </trkpt>
      <trkpt lat="49.88983" lon="0.95731">
        <ele>52</ele>
        <time>2014-10-25T08:01:54.000Z</time>
      </trkpt>
      <trkpt lat="49.88984" lon="0.95724">
        <ele>52</ele>
        <time>2014-10-25T08:01:55.000Z</time>
      </trkpt>
      <trkpt lat="49.88985" lon="0.95717">
        <ele>51</ele>
        <time>2014-10-25T08:01:56.000Z</time>
      </trkpt>
      <trkpt lat="49.88987" lon="0.95709">
        <ele>51</ele>
        <time>2014-10-25T08:01:57.000Z</time>
      </trkpt>
      <trkpt lat="49.88989" lon="0.95702">
        <ele>50</ele>
        <time>2014-10-25T08:01:58.000Z</time>
      </trkpt>
      <trkpt lat="49.8899" lon="0.95694">
        <ele>50</ele>
        <time>2014-10-25T08:01:59.000Z</time>
      </trkpt>
      <trkpt lat="49.88991" lon="0.95686">
        <ele>50</ele>
        <time>2014-10-25T08:02:00.000Z</time>
      </trkpt>
      <trkpt lat="49.88992" lon="0.95678">
        <ele>49</ele>
        <time>2014-10-25T08:02:01.000Z</time>
      </trkpt>
      <trkpt lat="49.88994" lon="0.95671">
        <ele>49</ele>
        <time>2014-10-25T08:02:02.000Z</time>
      </trkpt>
      <trkpt lat="49.88995" lon="0.95664">
        <ele>49</ele>
        <time>2014-10-25T08:02:03.000Z</time>
      </trkpt>
      <trkpt lat="49.88997" lon="0.95657">
        <ele>48</ele>
        <time>2014-10-25T08:02:04.000Z</time>
      </trkpt>
      <trkpt lat="49.89001" lon="0.95637">
        <ele>47</ele>
        <time>2014-10-25T08:02:07.000Z</time>
      </trkpt>
      <trkpt lat="49.89002" lon="0.9563">
        <ele>46</ele>
        <time>2014-10-25T08:02:08.000Z</time>
      </trkpt>
      <trkpt lat="49.89005" lon="0.95624">
        <ele>46</ele>
        <time>2014-10-25T08:02:09.000Z</time>
      </trkpt>
      <trkpt lat="49.89006" lon="0.95617">
        <ele>45</ele>
        <time>2014-10-25T08:02:10.000Z</time>
      </trkpt>
      <trkpt lat="49.89012" lon="0.95599">
        <ele>44</ele>
        <time>2014-10-25T08:02:13.000Z</time>
      </trkpt>
      <trkpt lat="49.89014" lon="0.95592">
        <ele>43</ele>
        <time>2014-10-25T08:02:14.000Z</time>
      </trkpt>
      <trkpt lat="49.89016" lon="0.95585">
        <ele>43</ele>
        <time>2014-10-25T08:02:15.000Z</time>
      </trkpt>
      <trkpt lat="49.89018" lon="0.95579">
        <ele>42</ele>
        <time>2014-10-25T08:02:16.000Z</time>
      </trkpt>
      <trkpt lat="49.89021" lon="0.9556">
        <ele>41</ele>
        <time>2014-10-25T08:02:19.000Z</time>
      </trkpt>
      <trkpt lat="49.89021" lon="0.95553">
        <ele>41</ele>
        <time>2014-10-25T08:02:20.000Z</time>
      </trkpt>
      <trkpt lat="49.8902" lon="0.95535">
        <ele>41</ele>
        <time>2014-10-25T08:02:23.000Z</time>
      </trkpt>
      <trkpt lat="49.8902" lon="0.95529">
        <ele>40</ele>
        <time>2014-10-25T08:02:24.000Z</time>
      </trkpt>
      <trkpt lat="49.89019" lon="0.9551">
        <ele>40</ele>
        <time>2014-10-25T08:02:27.000Z</time>
      </trkpt>
      <trkpt lat="49.89018" lon="0.95504">
        <ele>40</ele>
        <time>2014-10-25T08:02:28.000Z</time>
      </trkpt>
      <trkpt lat="49.89016" lon="0.95486">
        <ele>39</ele>
        <time>2014-10-25T08:02:31.000Z</time>
      </trkpt>
      <trkpt lat="49.89015" lon="0.9548">
        <ele>39</ele>
        <time>2014-10-25T08:02:32.000Z</time>
      </trkpt>
      <trkpt lat="49.89011" lon="0.95463">
        <ele>38</ele>
        <time>2014-10-25T08:02:35.000Z</time>
      </trkpt>
      <trkpt lat="49.8901" lon="0.95457">
        <ele>38</ele>
        <time>2014-10-25T08:02:36.000Z</time>
      </trkpt>
      <trkpt lat="49.89006" lon="0.95439">
        <ele>37</ele>
        <time>2014-10-25T08:02:39.000Z</time>
      </trkpt>
      <trkpt lat="49.89005" lon="0.95433">
        <ele>36</ele>
        <time>2014-10-25T08:02:40.000Z</time>
      </trkpt>
      <trkpt lat="49.89" lon="0.95418">
        <ele>35</ele>
        <time>2014-10-25T08:02:43.000Z</time>
      </trkpt>
      <trkpt lat="49.88999" lon="0.95413">
        <ele>34</ele>
        <time>2014-10-25T08:02:44.000Z</time>
      </trkpt>
      <trkpt lat="49.88995" lon="0.95396">
        <ele>33</ele>
        <time>2014-10-25T08:02:47.000Z</time>
      </trkpt>
      <trkpt lat="49.88994" lon="0.9539">
        <ele>32</ele>
        <time>2014-10-25T08:02:48.000Z</time>
      </trkpt>
      <trkpt lat="49.8899" lon="0.95373">
        <ele>31</ele>
        <time>2014-10-25T08:02:51.000Z</time>
      </trkpt>
      <trkpt lat="49.88989" lon="0.95367">
        <ele>31</ele>
        <time>2014-10-25T08:02:52.000Z</time>
      </trkpt>
      <trkpt lat="49.88987" lon="0.9535">
        <ele>31</ele>
        <time>2014-10-25T08:02:55.000Z</time>
      </trkpt>
      <trkpt lat="49.88988" lon="0.95345">
        <ele>31</ele>
        <time>2014-10-25T08:02:56.000Z</time>
      </trkpt>
      <trkpt lat="49.88997" lon="0.95332">
        <ele>31</ele>
        <time>2014-10-25T08:02:59.000Z</time>
      </trkpt>
      <trkpt lat="49.89002" lon="0.95328">
        <ele>31</ele>
        <time>2014-10-25T08:03:00.000Z</time>
      </trkpt>
      <trkpt lat="49.89006" lon="0.95325">
        <ele>31</ele>
        <time>2014-10-25T08:03:01.000Z</time>
      </trkpt>
      <trkpt lat="49.89011" lon="0.95321">
        <ele>30</ele>
        <time>2014-10-25T08:03:02.000Z</time>
      </trkpt>
      <trkpt lat="49.89017" lon="0.95317">
        <ele>30</ele>
        <time>2014-10-25T08:03:03.000Z</time>
      </trkpt>
      <trkpt lat="49.89023" lon="0.95313">
        <ele>30</ele>
        <time>2014-10-25T08:03:04.000Z</time>
      </trkpt>
      <trkpt lat="49.89029" lon="0.95308">
        <ele>29</ele>
        <time>2014-10-25T08:03:05.000Z</time>
      </trkpt>
      <trkpt lat="49.89034" lon="0.95303">
        <ele>29</ele>
        <time>2014-10-25T08:03:06.000Z</time>
      </trkpt>
      <trkpt lat="49.8904" lon="0.95297">
        <ele>28</ele>
        <time>2014-10-25T08:03:07.000Z</time>
      </trkpt>
      <trkpt lat="49.89046" lon="0.95293">
        <ele>28</ele>
        <time>2014-10-25T08:03:08.000Z</time>
      </trkpt>
      <trkpt lat="49.89052" lon="0.95289">
        <ele>27</ele>
        <time>2014-10-25T08:03:09.000Z</time>
      </trkpt>
      <trkpt lat="49.89058" lon="0.95284">
        <ele>27</ele>
        <time>2014-10-25T08:03:10.000Z</time>
      </trkpt>
      <trkpt lat="49.89064" lon="0.95279">
        <ele>27</ele>
        <time>2014-10-25T08:03:11.000Z</time>
      </trkpt>
      <trkpt lat="49.89071" lon="0.95273">
        <ele>27</ele>
        <time>2014-10-25T08:03:12.000Z</time>
      </trkpt>
      <trkpt lat="49.89077" lon="0.95267">
        <ele>27</ele>
        <time>2014-10-25T08:03:13.000Z</time>
      </trkpt>
      <trkpt lat="49.89083" lon="0.95261">
        <ele>26</ele>
        <time>2014-10-25T08:03:14.000Z</time>
      </trkpt>
      <trkpt lat="49.89089" lon="0.95255">
        <ele>26</ele>
        <time>2014-10-25T08:03:15.000Z</time>
      </trkpt>
      <trkpt lat="49.89095" lon="0.95249">
        <ele>26</ele>
        <time>2014-10-25T08:03:16.000Z</time>
      </trkpt>
      <trkpt lat="49.89101" lon="0.95243">
        <ele>26</ele>
        <time>2014-10-25T08:03:17.000Z</time>
      </trkpt>
      <trkpt lat="49.89107" lon="0.95237">
        <ele>26</ele>
        <time>2014-10-25T08:03:18.000Z</time>
      </trkpt>
      <trkpt lat="49.89113" lon="0.95231">
        <ele>26</ele>
        <time>2014-10-25T08:03:19.000Z</time>
      </trkpt>
      <trkpt lat="49.89118" lon="0.95225">
        <ele>26</ele>
        <time>2014-10-25T08:03:20.000Z</time>
      </trkpt>
      <trkpt lat="49.89123" lon="0.95219">
        <ele>25</ele>
        <time>2014-10-25T08:03:21.000Z</time>
      </trkpt>
      <trkpt lat="49.89129" lon="0.95213">
        <ele>25</ele>
        <time>2014-10-25T08:03:22.000Z</time>
      </trkpt>
      <trkpt lat="49.89134" lon="0.95207">
        <ele>25</ele>
        <time>2014-10-25T08:03:23.000Z</time>
      </trkpt>
      <trkpt lat="49.89139" lon="0.95202">
        <ele>25</ele>
        <time>2014-10-25T08:03:24.000Z</time>
      </trkpt>
      <trkpt lat="49.89145" lon="0.95196">
        <ele>25</ele>
        <time>2014-10-25T08:03:25.000Z</time>
      </trkpt>
      <trkpt lat="49.8915" lon="0.95191">
        <ele>25</ele>
        <time>2014-10-25T08:03:26.000Z</time>
      </trkpt>
      <trkpt lat="49.89156" lon="0.95186">
        <ele>25</ele>
        <time>2014-10-25T08:03:27.000Z</time>
      </trkpt>
      <trkpt lat="49.89161" lon="0.95181">
        <ele>25</ele>
        <time>2014-10-25T08:03:28.000Z</time>
      </trkpt>
      <trkpt lat="49.89166" lon="0.95175">
        <ele>25</ele>
        <time>2014-10-25T08:03:29.000Z</time>
      </trkpt>
      <trkpt lat="49.89171" lon="0.95171">
        <ele>25</ele>
        <time>2014-10-25T08:03:30.000Z</time>
      </trkpt>
      <trkpt lat="49.89176" lon="0.95166">
        <ele>25</ele>
        <time>2014-10-25T08:03:31.000Z</time>
      </trkpt>
      <trkpt lat="49.89181" lon="0.95161">
        <ele>24</ele>
        <time>2014-10-25T08:03:32.000Z</time>
      </trkpt>
      <trkpt lat="49.89185" lon="0.95157">
        <ele>24</ele>
        <time>2014-10-25T08:03:33.000Z</time>
      </trkpt>
      <trkpt lat="49.8919" lon="0.95152">
        <ele>24</ele>
        <time>2014-10-25T08:03:34.000Z</time>
      </trkpt>
      <trkpt lat="49.89195" lon="0.95148">
        <ele>23</ele>
        <time>2014-10-25T08:03:35.000Z</time>
      </trkpt>
      <trkpt lat="49.89199" lon="0.95143">
        <ele>23</ele>
        <time>2014-10-25T08:03:36.000Z</time>
      </trkpt>
      <trkpt lat="49.89204" lon="0.95139">
        <ele>23</ele>
        <time>2014-10-25T08:03:37.000Z</time>
      </trkpt>
      <trkpt lat="49.89209" lon="0.95135">
        <ele>23</ele>
        <time>2014-10-25T08:03:38.000Z</time>
      </trkpt>
      <trkpt lat="49.89214" lon="0.95131">
        <ele>23</ele>
        <time>2014-10-25T08:03:39.000Z</time>
      </trkpt>
      <trkpt lat="49.89218" lon="0.95127">
        <ele>22</ele>
        <time>2014-10-25T08:03:40.000Z</time>
      </trkpt>
      <trkpt lat="49.89222" lon="0.95123">
        <ele>22</ele>
        <time>2014-10-25T08:03:41.000Z</time>
      </trkpt>
      <trkpt lat="49.8923" lon="0.95109">
        <ele>23</ele>
        <time>2014-10-25T08:03:44.000Z</time>
      </trkpt>
      <trkpt lat="49.8923" lon="0.95104">
        <ele>23</ele>
        <time>2014-10-25T08:03:45.000Z</time>
      </trkpt>
      <trkpt lat="49.89228" lon="0.95087">
        <ele>23</ele>
        <time>2014-10-25T08:03:48.000Z</time>
      </trkpt>
      <trkpt lat="49.89227" lon="0.9508">
        <ele>23</ele>
        <time>2014-10-25T08:03:49.000Z</time>
      </trkpt>
      <trkpt lat="49.89225" lon="0.95072">
        <ele>23</ele>
        <time>2014-10-25T08:03:50.000Z</time>
      </trkpt>
      <trkpt lat="49.89223" lon="0.95066">
        <ele>23</ele>
        <time>2014-10-25T08:03:51.000Z</time>
      </trkpt>
      <trkpt lat="49.89221" lon="0.95058">
        <ele>23</ele>
        <time>2014-10-25T08:03:52.000Z</time>
      </trkpt>
      <trkpt lat="49.89219" lon="0.95051">
        <ele>23</ele>
        <time>2014-10-25T08:03:53.000Z</time>
      </trkpt>
      <trkpt lat="49.89217" lon="0.95045">
        <ele>23</ele>
        <time>2014-10-25T08:03:54.000Z</time>
      </trkpt>
      <trkpt lat="49.89215" lon="0.95038">
        <ele>23</ele>
        <time>2014-10-25T08:03:55.000Z</time>
      </trkpt>
      <trkpt lat="49.89214" lon="0.95031">
        <ele>23</ele>
        <time>2014-10-25T08:03:56.000Z</time>
      </trkpt>
      <trkpt lat="49.89211" lon="0.95024">
        <ele>22</ele>
        <time>2014-10-25T08:03:57.000Z</time>
      </trkpt>
      <trkpt lat="49.89209" lon="0.95018">
        <ele>22</ele>
        <time>2014-10-25T08:03:58.000Z</time>
      </trkpt>
      <trkpt lat="49.89206" lon="0.95005">
        <ele>21</ele>
        <time>2014-10-25T08:04:00.000Z</time>
      </trkpt>
      <trkpt lat="49.89204" lon="0.94997">
        <ele>21</ele>
        <time>2014-10-25T08:04:01.000Z</time>
      </trkpt>
      <trkpt lat="49.89202" lon="0.9499">
        <ele>20</ele>
        <time>2014-10-25T08:04:02.000Z</time>
      </trkpt>
      <trkpt lat="49.892" lon="0.94982">
        <ele>20</ele>
        <time>2014-10-25T08:04:03.000Z</time>
      </trkpt>
      <trkpt lat="49.89199" lon="0.94975">
        <ele>20</ele>
        <time>2014-10-25T08:04:04.000Z</time>
      </trkpt>
      <trkpt lat="49.89197" lon="0.94968">
        <ele>21</ele>
        <time>2014-10-25T08:04:05.000Z</time>
      </trkpt>
      <trkpt lat="49.89196" lon="0.9496">
        <ele>21</ele>
        <time>2014-10-25T08:04:06.000Z</time>
      </trkpt>
      <trkpt lat="49.89195" lon="0.94953">
        <ele>21</ele>
        <time>2014-10-25T08:04:07.000Z</time>
      </trkpt>
      <trkpt lat="49.89195" lon="0.94945">
        <ele>21</ele>
        <time>2014-10-25T08:04:08.000Z</time>
      </trkpt>
      <trkpt lat="49.89194" lon="0.94936">
        <ele>21</ele>
        <time>2014-10-25T08:04:09.000Z</time>
      </trkpt>
      <trkpt lat="49.89194" lon="0.94928">
        <ele>21</ele>
        <time>2014-10-25T08:04:10.000Z</time>
      </trkpt>
      <trkpt lat="49.89194" lon="0.94921">
        <ele>21</ele>
        <time>2014-10-25T08:04:11.000Z</time>
      </trkpt>
      <trkpt lat="49.89195" lon="0.94912">
        <ele>22</ele>
        <time>2014-10-25T08:04:12.000Z</time>
      </trkpt>
      <trkpt lat="49.89195" lon="0.94904">
        <ele>22</ele>
        <time>2014-10-25T08:04:13.000Z</time>
      </trkpt>
      <trkpt lat="49.89196" lon="0.94894">
        <ele>22</ele>
        <time>2014-10-25T08:04:14.000Z</time>
      </trkpt>
      <trkpt lat="49.89197" lon="0.94885">
        <ele>22</ele>
        <time>2014-10-25T08:04:15.000Z</time>
      </trkpt>
      <trkpt lat="49.89199" lon="0.94877">
        <ele>22</ele>
        <time>2014-10-25T08:04:16.000Z</time>
      </trkpt>
      <trkpt lat="49.892" lon="0.94868">
        <ele>22</ele>
        <time>2014-10-25T08:04:17.000Z</time>
      </trkpt>
      <trkpt lat="49.89202" lon="0.9486">
        <ele>22</ele>
        <time>2014-10-25T08:04:18.000Z</time>
      </trkpt>
      <trkpt lat="49.89204" lon="0.94852">
        <ele>22</ele>
        <time>2014-10-25T08:04:19.000Z</time>
      </trkpt>
      <trkpt lat="49.89206" lon="0.94843">
        <ele>22</ele>
        <time>2014-10-25T08:04:20.000Z</time>
      </trkpt>
      <trkpt lat="49.89208" lon="0.94836">
        <ele>22</ele>
        <time>2014-10-25T08:04:21.000Z</time>
      </trkpt>
      <trkpt lat="49.8921" lon="0.94828">
        <ele>22</ele>
        <time>2014-10-25T08:04:22.000Z</time>
      </trkpt>
      <trkpt lat="49.89212" lon="0.94821">
        <ele>22</ele>
        <time>2014-10-25T08:04:23.000Z</time>
      </trkpt>
      <trkpt lat="49.89215" lon="0.94814">
        <ele>22</ele>
        <time>2014-10-25T08:04:24.000Z</time>
      </trkpt>
      <trkpt lat="49.89217" lon="0.94807">
        <ele>22</ele>
        <time>2014-10-25T08:04:25.000Z</time>
      </trkpt>
      <trkpt lat="49.8922" lon="0.948">
        <ele>22</ele>
        <time>2014-10-25T08:04:26.000Z</time>
      </trkpt>
      <trkpt lat="49.89223" lon="0.94793">
        <ele>22</ele>
        <time>2014-10-25T08:04:27.000Z</time>
      </trkpt>
      <trkpt lat="49.89226" lon="0.94786">
        <ele>21</ele>
        <time>2014-10-25T08:04:28.000Z</time>
      </trkpt>
      <trkpt lat="49.89229" lon="0.94779">
        <ele>21</ele>
        <time>2014-10-25T08:04:29.000Z</time>
      </trkpt>
      <trkpt lat="49.89232" lon="0.94772">
        <ele>21</ele>
        <time>2014-10-25T08:04:30.000Z</time>
      </trkpt>
      <trkpt lat="49.89235" lon="0.94766">
        <ele>21</ele>
        <time>2014-10-25T08:04:31.000Z</time>
      </trkpt>
      <trkpt lat="49.89238" lon="0.9476">
        <ele>21</ele>
        <time>2014-10-25T08:04:32.000Z</time>
      </trkpt>
      <trkpt lat="49.89242" lon="0.94753">
        <ele>20</ele>
        <time>2014-10-25T08:04:33.000Z</time>
      </trkpt>
      <trkpt lat="49.89245" lon="0.94747">
        <ele>20</ele>
        <time>2014-10-25T08:04:34.000Z</time>
      </trkpt>
      <trkpt lat="49.89249" lon="0.94742">
        <ele>20</ele>
        <time>2014-10-25T08:04:35.000Z</time>
      </trkpt>
      <trkpt lat="49.89252" lon="0.94736">
        <ele>19</ele>
        <time>2014-10-25T08:04:36.000Z</time>
      </trkpt>
      <trkpt lat="49.89255" lon="0.94731">
        <ele>19</ele>
        <time>2014-10-25T08:04:37.000Z</time>
      </trkpt>
      <trkpt lat="49.89258" lon="0.94725">
        <ele>18</ele>
        <time>2014-10-25T08:04:38.000Z</time>
      </trkpt>
      <trkpt lat="49.89262" lon="0.9472">
        <ele>18</ele>
        <time>2014-10-25T08:04:39.000Z</time>
      </trkpt>
      <trkpt lat="49.89265" lon="0.94714">
        <ele>18</ele>
        <time>2014-10-25T08:04:40.000Z</time>
      </trkpt>
      <trkpt lat="49.89269" lon="0.94709">
        <ele>17</ele>
        <time>2014-10-25T08:04:41.000Z</time>
      </trkpt>
      <trkpt lat="49.89272" lon="0.94703">
        <ele>17</ele>
        <time>2014-10-25T08:04:42.000Z</time>
      </trkpt>
      <trkpt lat="49.89276" lon="0.94698">
        <ele>17</ele>
        <time>2014-10-25T08:04:43.000Z</time>
      </trkpt>
      <trkpt lat="49.8928" lon="0.94693">
        <ele>16</ele>
        <time>2014-10-25T08:04:44.000Z</time>
      </trkpt>
      <trkpt lat="49.89283" lon="0.94687">
        <ele>16</ele>
        <time>2014-10-25T08:04:45.000Z</time>
      </trkpt>
      <trkpt lat="49.89287" lon="0.94682">
        <ele>16</ele>
        <time>2014-10-25T08:04:46.000Z</time>
      </trkpt>
      <trkpt lat="49.89291" lon="0.94677">
        <ele>16</ele>
        <time>2014-10-25T08:04:47.000Z</time>
      </trkpt>
      <trkpt lat="49.89294" lon="0.94672">
        <ele>15</ele>
        <time>2014-10-25T08:04:48.000Z</time>
      </trkpt>
      <trkpt lat="49.89298" lon="0.94666">
        <ele>15</ele>
        <time>2014-10-25T08:04:49.000Z</time>
      </trkpt>
      <trkpt lat="49.893" lon="0.94662">
        <ele>15</ele>
        <time>2014-10-25T08:04:50.000Z</time>
      </trkpt>
      <trkpt lat="49.89309" lon="0.94648">
        <ele>15</ele>
        <time>2014-10-25T08:04:53.000Z</time>
      </trkpt>
      <trkpt lat="49.89312" lon="0.94643">
        <ele>14</ele>
        <time>2014-10-25T08:04:54.000Z</time>
      </trkpt>
      <trkpt lat="49.89322" lon="0.94628">
        <ele>14</ele>
        <time>2014-10-25T08:04:57.000Z</time>
      </trkpt>
      <trkpt lat="49.89325" lon="0.94624">
        <ele>14</ele>
        <time>2014-10-25T08:04:58.000Z</time>
      </trkpt>
      <trkpt lat="49.89335" lon="0.9461">
        <ele>13</ele>
        <time>2014-10-25T08:05:01.000Z</time>
      </trkpt>
      <trkpt lat="49.89338" lon="0.94606">
        <ele>13</ele>
        <time>2014-10-25T08:05:02.000Z</time>
      </trkpt>
      <trkpt lat="49.89346" lon="0.94595">
        <ele>13</ele>
        <time>2014-10-25T08:05:05.000Z</time>
      </trkpt>
      <trkpt lat="49.89349" lon="0.94592">
        <ele>12</ele>
        <time>2014-10-25T08:05:06.000Z</time>
      </trkpt>
      <trkpt lat="49.89356" lon="0.94584">
        <ele>12</ele>
        <time>2014-10-25T08:05:09.000Z</time>
      </trkpt>
      <trkpt lat="49.89358" lon="0.94582">
        <ele>12</ele>
        <time>2014-10-25T08:05:10.000Z</time>
      </trkpt>
      <trkpt lat="49.8937" lon="0.94577">
        <ele>12</ele>
        <time>2014-10-25T08:05:14.000Z</time>
      </trkpt>
      <trkpt lat="49.89373" lon="0.94577">
        <ele>12</ele>
        <time>2014-10-25T08:05:15.000Z</time>
      </trkpt>
      <trkpt lat="49.89383" lon="0.94577">
        <ele>13</ele>
        <time>2014-10-25T08:05:18.000Z</time>
      </trkpt>
      <trkpt lat="49.89386" lon="0.94576">
        <ele>13</ele>
        <time>2014-10-25T08:05:19.000Z</time>
      </trkpt>
      <trkpt lat="49.89396" lon="0.94574">
        <ele>15</ele>
        <time>2014-10-25T08:05:22.000Z</time>
      </trkpt>
      <trkpt lat="49.89399" lon="0.94573">
        <ele>15</ele>
        <time>2014-10-25T08:05:23.000Z</time>
      </trkpt>
      <trkpt lat="49.89411" lon="0.94568">
        <ele>16</ele>
        <time>2014-10-25T08:05:26.000Z</time>
      </trkpt>
      <trkpt lat="49.89415" lon="0.94566">
        <ele>16</ele>
        <time>2014-10-25T08:05:27.000Z</time>
      </trkpt>
      <trkpt lat="49.89426" lon="0.94561">
        <ele>17</ele>
        <time>2014-10-25T08:05:30.000Z</time>
      </trkpt>
      <trkpt lat="49.89429" lon="0.94558">
        <ele>17</ele>
        <time>2014-10-25T08:05:31.000Z</time>
      </trkpt>
      <trkpt lat="49.89439" lon="0.94549">
        <ele>16</ele>
        <time>2014-10-25T08:05:34.000Z</time>
      </trkpt>
      <trkpt lat="49.89443" lon="0.94546">
        <ele>16</ele>
        <time>2014-10-25T08:05:35.000Z</time>
      </trkpt>
      <trkpt lat="49.89448" lon="0.94543">
        <ele>16</ele>
        <time>2014-10-25T08:05:36.000Z</time>
      </trkpt>
      <trkpt lat="49.89452" lon="0.9454">
        <ele>16</ele>
        <time>2014-10-25T08:05:37.000Z</time>
      </trkpt>
      <trkpt lat="49.89456" lon="0.94536">
        <ele>16</ele>
        <time>2014-10-25T08:05:38.000Z</time>
      </trkpt>
      <trkpt lat="49.8946" lon="0.94533">
        <ele>17</ele>
        <time>2014-10-25T08:05:39.000Z</time>
      </trkpt>
      <trkpt lat="49.89464" lon="0.9453">
        <ele>17</ele>
        <time>2014-10-25T08:05:40.000Z</time>
      </trkpt>
      <trkpt lat="49.89468" lon="0.94525">
        <ele>18</ele>
        <time>2014-10-25T08:05:41.000Z</time>
      </trkpt>
      <trkpt lat="49.89472" lon="0.94521">
        <ele>18</ele>
        <time>2014-10-25T08:05:42.000Z</time>
      </trkpt>
      <trkpt lat="49.89476" lon="0.94517">
        <ele>19</ele>
        <time>2014-10-25T08:05:43.000Z</time>
      </trkpt>
      <trkpt lat="49.89481" lon="0.94513">
        <ele>19</ele>
        <time>2014-10-25T08:05:44.000Z</time>
      </trkpt>
      <trkpt lat="49.89484" lon="0.94509">
        <ele>20</ele>
        <time>2014-10-25T08:05:45.000Z</time>
      </trkpt>
      <trkpt lat="49.89496" lon="0.945">
        <ele>21</ele>
        <time>2014-10-25T08:05:48.000Z</time>
      </trkpt>
      <trkpt lat="49.89499" lon="0.94497">
        <ele>21</ele>
        <time>2014-10-25T08:05:49.000Z</time>
      </trkpt>
      <trkpt lat="49.89509" lon="0.94489">
        <ele>21</ele>
        <time>2014-10-25T08:05:52.000Z</time>
      </trkpt>
      <trkpt lat="49.89513" lon="0.94487">
        <ele>21</ele>
        <time>2014-10-25T08:05:53.000Z</time>
      </trkpt>
      <trkpt lat="49.89523" lon="0.94479">
        <ele>21</ele>
        <time>2014-10-25T08:05:56.000Z</time>
      </trkpt>
      <trkpt lat="49.89527" lon="0.94476">
        <ele>21</ele>
        <time>2014-10-25T08:05:57.000Z</time>
      </trkpt>
      <trkpt lat="49.89537" lon="0.94468">
        <ele>20</ele>
        <time>2014-10-25T08:06:00.000Z</time>
      </trkpt>
      <trkpt lat="49.89541" lon="0.94465">
        <ele>20</ele>
        <time>2014-10-25T08:06:01.000Z</time>
      </trkpt>
      <trkpt lat="49.89548" lon="0.9445">
        <ele>20</ele>
        <time>2014-10-25T08:06:04.000Z</time>
      </trkpt>
      <trkpt lat="49.8955" lon="0.94445">
        <ele>19</ele>
        <time>2014-10-25T08:06:05.000Z</time>
      </trkpt>
      <trkpt lat="49.89547" lon="0.94426">
        <ele>18</ele>
        <time>2014-10-25T08:06:08.000Z</time>
      </trkpt>
      <trkpt lat="49.89546" lon="0.94419">
        <ele>18</ele>
        <time>2014-10-25T08:06:09.000Z</time>
      </trkpt>
      <trkpt lat="49.89546" lon="0.944">
        <ele>17</ele>
        <time>2014-10-25T08:06:12.000Z</time>
      </trkpt>
      <trkpt lat="49.89547" lon="0.94394">
        <ele>16</ele>
        <time>2014-10-25T08:06:13.000Z</time>
      </trkpt>
      <trkpt lat="49.89553" lon="0.9438">
        <ele>15</ele>
        <time>2014-10-25T08:06:16.000Z</time>
      </trkpt>
      <trkpt lat="49.89556" lon="0.94375">
        <ele>15</ele>
        <time>2014-10-25T08:06:17.000Z</time>
      </trkpt>
      <trkpt lat="49.89564" lon="0.94365">
        <ele>16</ele>
        <time>2014-10-25T08:06:20.000Z</time>
      </trkpt>
      <trkpt lat="49.89568" lon="0.94361">
        <ele>16</ele>
        <time>2014-10-25T08:06:21.000Z</time>
      </trkpt>
      <trkpt lat="49.89576" lon="0.94348">
        <ele>18</ele>
        <time>2014-10-25T08:06:24.000Z</time>
      </trkpt>
      <trkpt lat="49.89579" lon="0.94344">
        <ele>18</ele>
        <time>2014-10-25T08:06:25.000Z</time>
      </trkpt>
      <trkpt lat="49.8959" lon="0.94331">
        <ele>19</ele>
        <time>2014-10-25T08:06:28.000Z</time>
      </trkpt>
      <trkpt lat="49.89594" lon="0.94327">
        <ele>19</ele>
        <time>2014-10-25T08:06:29.000Z</time>
      </trkpt>
      <trkpt lat="49.89598" lon="0.94323">
        <ele>19</ele>
        <time>2014-10-25T08:06:30.000Z</time>
      </trkpt>
      <trkpt lat="49.89602" lon="0.94319">
        <ele>19</ele>
        <time>2014-10-25T08:06:31.000Z</time>
      </trkpt>
      <trkpt lat="49.89605" lon="0.94315">
        <ele>19</ele>
        <time>2014-10-25T08:06:32.000Z</time>
      </trkpt>
      <trkpt lat="49.89615" lon="0.94301">
        <ele>19</ele>
        <time>2014-10-25T08:06:35.000Z</time>
      </trkpt>
      <trkpt lat="49.89617" lon="0.94297">
        <ele>18</ele>
        <time>2014-10-25T08:06:36.000Z</time>
      </trkpt>
      <trkpt lat="49.89626" lon="0.94285">
        <ele>17</ele>
        <time>2014-10-25T08:06:39.000Z</time>
      </trkpt>
      <trkpt lat="49.89629" lon="0.94282">
        <ele>16</ele>
        <time>2014-10-25T08:06:40.000Z</time>
      </trkpt>
      <trkpt lat="49.89637" lon="0.94273">
        <ele>15</ele>
        <time>2014-10-25T08:06:43.000Z</time>
      </trkpt>
      <trkpt lat="49.8964" lon="0.94269">
        <ele>15</ele>
        <time>2014-10-25T08:06:44.000Z</time>
      </trkpt>
      <trkpt lat="49.89649" lon="0.94256">
        <ele>14</ele>
        <time>2014-10-25T08:06:48.000Z</time>
      </trkpt>
      <trkpt lat="49.89651" lon="0.94253">
        <ele>14</ele>
        <time>2014-10-25T08:06:49.000Z</time>
      </trkpt>
      <trkpt lat="49.89658" lon="0.94243">
        <ele>13</ele>
        <time>2014-10-25T08:06:52.000Z</time>
      </trkpt>
      <trkpt lat="49.8966" lon="0.9424">
        <ele>13</ele>
        <time>2014-10-25T08:06:53.000Z</time>
      </trkpt>
      <trkpt lat="49.89667" lon="0.94229">
        <ele>13</ele>
        <time>2014-10-25T08:06:56.000Z</time>
      </trkpt>
      <trkpt lat="49.8967" lon="0.94225">
        <ele>12</ele>
        <time>2014-10-25T08:06:57.000Z</time>
      </trkpt>
      <trkpt lat="49.89676" lon="0.94215">
        <ele>11</ele>
        <time>2014-10-25T08:07:00.000Z</time>
      </trkpt>
      <trkpt lat="49.89678" lon="0.94212">
        <ele>10</ele>
        <time>2014-10-25T08:07:01.000Z</time>
      </trkpt>
      <trkpt lat="49.89686" lon="0.942">
        <ele>10</ele>
        <time>2014-10-25T08:07:04.000Z</time>
      </trkpt>
      <trkpt lat="49.89689" lon="0.94197">
        <ele>10</ele>
        <time>2014-10-25T08:07:05.000Z</time>
      </trkpt>
      <trkpt lat="49.89698" lon="0.94186">
        <ele>10</ele>
        <time>2014-10-25T08:07:08.000Z</time>
      </trkpt>
      <trkpt lat="49.89701" lon="0.94182">
        <ele>10</ele>
        <time>2014-10-25T08:07:09.000Z</time>
      </trkpt>
      <trkpt lat="49.89708" lon="0.94174">
        <ele>10</ele>
        <time>2014-10-25T08:07:11.000Z</time>
      </trkpt>
      <trkpt lat="49.89711" lon="0.94169">
        <ele>10</ele>
        <time>2014-10-25T08:07:12.000Z</time>
      </trkpt>
      <trkpt lat="49.89715" lon="0.94164">
        <ele>10</ele>
        <time>2014-10-25T08:07:13.000Z</time>
      </trkpt>
      <trkpt lat="49.89724" lon="0.94151">
        <ele>10</ele>
        <time>2014-10-25T08:07:16.000Z</time>
      </trkpt>
      <trkpt lat="49.89728" lon="0.94147">
        <ele>11</ele>
        <time>2014-10-25T08:07:17.000Z</time>
      </trkpt>
      <trkpt lat="49.89732" lon="0.94142">
        <ele>11</ele>
        <time>2014-10-25T08:07:18.000Z</time>
      </trkpt>
      <trkpt lat="49.89735" lon="0.94137">
        <ele>11</ele>
        <time>2014-10-25T08:07:19.000Z</time>
      </trkpt>
      <trkpt lat="49.89739" lon="0.94133">
        <ele>11</ele>
        <time>2014-10-25T08:07:20.000Z</time>
      </trkpt>
      <trkpt lat="49.89746" lon="0.94124">
        <ele>11</ele>
        <time>2014-10-25T08:07:22.000Z</time>
      </trkpt>
      <trkpt lat="49.89749" lon="0.94119">
        <ele>11</ele>
        <time>2014-10-25T08:07:23.000Z</time>
      </trkpt>
      <trkpt lat="49.89759" lon="0.94106">
        <ele>12</ele>
        <time>2014-10-25T08:07:26.000Z</time>
      </trkpt>
      <trkpt lat="49.89763" lon="0.94103">
        <ele>12</ele>
        <time>2014-10-25T08:07:27.000Z</time>
      </trkpt>
      <trkpt lat="49.89772" lon="0.94095">
        <ele>11</ele>
        <time>2014-10-25T08:07:30.000Z</time>
      </trkpt>
      <trkpt lat="49.89775" lon="0.94093">
        <ele>11</ele>
        <time>2014-10-25T08:07:31.000Z</time>
      </trkpt>
      <trkpt lat="49.89783" lon="0.94086">
        <ele>12</ele>
        <time>2014-10-25T08:07:34.000Z</time>
      </trkpt>
      <trkpt lat="49.89786" lon="0.94085">
        <ele>12</ele>
        <time>2014-10-25T08:07:35.000Z</time>
      </trkpt>
      <trkpt lat="49.89795" lon="0.94084">
        <ele>12</ele>
        <time>2014-10-25T08:07:38.000Z</time>
      </trkpt>
      <trkpt lat="49.89798" lon="0.94083">
        <ele>12</ele>
        <time>2014-10-25T08:07:39.000Z</time>
      </trkpt>
      <trkpt lat="49.89809" lon="0.94079">
        <ele>14</ele>
        <time>2014-10-25T08:07:43.000Z</time>
      </trkpt>
      <trkpt lat="49.89813" lon="0.94077">
        <ele>14</ele>
        <time>2014-10-25T08:07:44.000Z</time>
      </trkpt>
      <trkpt lat="49.89824" lon="0.9407">
        <ele>15</ele>
        <time>2014-10-25T08:07:47.000Z</time>
      </trkpt>
      <trkpt lat="49.89827" lon="0.94068">
        <ele>15</ele>
        <time>2014-10-25T08:07:48.000Z</time>
      </trkpt>
      <trkpt lat="49.89836" lon="0.94062">
        <ele>16</ele>
        <time>2014-10-25T08:07:50.000Z</time>
      </trkpt>
      <trkpt lat="49.8984" lon="0.9406">
        <ele>16</ele>
        <time>2014-10-25T08:07:51.000Z</time>
      </trkpt>
      <trkpt lat="49.89845" lon="0.94057">
        <ele>16</ele>
        <time>2014-10-25T08:07:52.000Z</time>
      </trkpt>
      <trkpt lat="49.8985" lon="0.94054">
        <ele>16</ele>
        <time>2014-10-25T08:07:53.000Z</time>
      </trkpt>
      <trkpt lat="49.89854" lon="0.94052">
        <ele>16</ele>
        <time>2014-10-25T08:07:54.000Z</time>
      </trkpt>
      <trkpt lat="49.89867" lon="0.94046">
        <ele>16</ele>
        <time>2014-10-25T08:07:57.000Z</time>
      </trkpt>
      <trkpt lat="49.89871" lon="0.94044">
        <ele>17</ele>
        <time>2014-10-25T08:07:58.000Z</time>
      </trkpt>
      <trkpt lat="49.89883" lon="0.94036">
        <ele>18</ele>
        <time>2014-10-25T08:08:01.000Z</time>
      </trkpt>
      <trkpt lat="49.89887" lon="0.94034">
        <ele>18</ele>
        <time>2014-10-25T08:08:02.000Z</time>
      </trkpt>
      <trkpt lat="49.89898" lon="0.94026">
        <ele>19</ele>
        <time>2014-10-25T08:08:05.000Z</time>
      </trkpt>
      <trkpt lat="49.89901" lon="0.94023">
        <ele>19</ele>
        <time>2014-10-25T08:08:06.000Z</time>
      </trkpt>
      <trkpt lat="49.89912" lon="0.94013">
        <ele>19</ele>
        <time>2014-10-25T08:08:09.000Z</time>
      </trkpt>
      <trkpt lat="49.89916" lon="0.94009">
        <ele>19</ele>
        <time>2014-10-25T08:08:10.000Z</time>
      </trkpt>
      <trkpt lat="49.89926" lon="0.93999">
        <ele>18</ele>
        <time>2014-10-25T08:08:13.000Z</time>
      </trkpt>
      <trkpt lat="49.8993" lon="0.93996">
        <ele>18</ele>
        <time>2014-10-25T08:08:14.000Z</time>
      </trkpt>
      <trkpt lat="49.8994" lon="0.93988">
        <ele>17</ele>
        <time>2014-10-25T08:08:17.000Z</time>
      </trkpt>
      <trkpt lat="49.89944" lon="0.93986">
        <ele>17</ele>
        <time>2014-10-25T08:08:18.000Z</time>
      </trkpt>
      <trkpt lat="49.89955" lon="0.93979">
        <ele>16</ele>
        <time>2014-10-25T08:08:21.000Z</time>
      </trkpt>
      <trkpt lat="49.89959" lon="0.93977">
        <ele>16</ele>
        <time>2014-10-25T08:08:22.000Z</time>
      </trkpt>
      <trkpt lat="49.89969" lon="0.93967">
        <ele>16</ele>
        <time>2014-10-25T08:08:25.000Z</time>
      </trkpt>
      <trkpt lat="49.89973" lon="0.93964">
        <ele>16</ele>
        <time>2014-10-25T08:08:26.000Z</time>
      </trkpt>
      <trkpt lat="49.89982" lon="0.9395">
        <ele>16</ele>
        <time>2014-10-25T08:08:29.000Z</time>
      </trkpt>
      <trkpt lat="49.89984" lon="0.93945">
        <ele>16</ele>
        <time>2014-10-25T08:08:30.000Z</time>
      </trkpt>
      <trkpt lat="49.89993" lon="0.93931">
        <ele>16</ele>
        <time>2014-10-25T08:08:33.000Z</time>
      </trkpt>
      <trkpt lat="49.89996" lon="0.93926">
        <ele>16</ele>
        <time>2014-10-25T08:08:34.000Z</time>
      </trkpt>
      <trkpt lat="49.9" lon="0.93921">
        <ele>16</ele>
        <time>2014-10-25T08:08:35.000Z</time>
      </trkpt>
      <trkpt lat="49.90003" lon="0.93916">
        <ele>16</ele>
        <time>2014-10-25T08:08:36.000Z</time>
      </trkpt>
      <trkpt lat="49.90011" lon="0.93902">
        <ele>15</ele>
        <time>2014-10-25T08:08:39.000Z</time>
      </trkpt>
      <trkpt lat="49.90014" lon="0.93897">
        <ele>15</ele>
        <time>2014-10-25T08:08:40.000Z</time>
      </trkpt>
      <trkpt lat="49.90024" lon="0.93884">
        <ele>15</ele>
        <time>2014-10-25T08:08:43.000Z</time>
      </trkpt>
      <trkpt lat="49.90028" lon="0.9388">
        <ele>15</ele>
        <time>2014-10-25T08:08:44.000Z</time>
      </trkpt>
      <trkpt lat="49.90037" lon="0.93871">
        <ele>14</ele>
        <time>2014-10-25T08:08:47.000Z</time>
      </trkpt>
      <trkpt lat="49.90041" lon="0.93869">
        <ele>14</ele>
        <time>2014-10-25T08:08:48.000Z</time>
      </trkpt>
      <trkpt lat="49.90053" lon="0.93861">
        <ele>14</ele>
        <time>2014-10-25T08:08:51.000Z</time>
      </trkpt>
      <trkpt lat="49.90057" lon="0.93859">
        <ele>14</ele>
        <time>2014-10-25T08:08:52.000Z</time>
      </trkpt>
      <trkpt lat="49.90061" lon="0.93856">
        <ele>13</ele>
        <time>2014-10-25T08:08:53.000Z</time>
      </trkpt>
      <trkpt lat="49.90066" lon="0.93854">
        <ele>13</ele>
        <time>2014-10-25T08:08:54.000Z</time>
      </trkpt>
      <trkpt lat="49.9007" lon="0.93852">
        <ele>13</ele>
        <time>2014-10-25T08:08:55.000Z</time>
      </trkpt>
      <trkpt lat="49.90075" lon="0.93849">
        <ele>13</ele>
        <time>2014-10-25T08:08:56.000Z</time>
      </trkpt>
      <trkpt lat="49.90079" lon="0.93847">
        <ele>13</ele>
        <time>2014-10-25T08:08:57.000Z</time>
      </trkpt>
      <trkpt lat="49.90083" lon="0.93845">
        <ele>13</ele>
        <time>2014-10-25T08:08:58.000Z</time>
      </trkpt>
      <trkpt lat="49.90088" lon="0.93843">
        <ele>13</ele>
        <time>2014-10-25T08:08:59.000Z</time>
      </trkpt>
      <trkpt lat="49.90101" lon="0.9384">
        <ele>12</ele>
        <time>2014-10-25T08:09:02.000Z</time>
      </trkpt>
      <trkpt lat="49.90105" lon="0.93839">
        <ele>12</ele>
        <time>2014-10-25T08:09:03.000Z</time>
      </trkpt>
      <trkpt lat="49.90117" lon="0.93836">
        <ele>12</ele>
        <time>2014-10-25T08:09:06.000Z</time>
      </trkpt>
      <trkpt lat="49.90122" lon="0.93835">
        <ele>12</ele>
        <time>2014-10-25T08:09:07.000Z</time>
      </trkpt>
      <trkpt lat="49.90134" lon="0.93829">
        <ele>12</ele>
        <time>2014-10-25T08:09:10.000Z</time>
      </trkpt>
      <trkpt lat="49.90138" lon="0.93827">
        <ele>12</ele>
        <time>2014-10-25T08:09:11.000Z</time>
      </trkpt>
      <trkpt lat="49.90151" lon="0.93822">
        <ele>13</ele>
        <time>2014-10-25T08:09:14.000Z</time>
      </trkpt>
      <trkpt lat="49.90154" lon="0.93821">
        <ele>13</ele>
        <time>2014-10-25T08:09:15.000Z</time>
      </trkpt>
      <trkpt lat="49.90167" lon="0.93814">
        <ele>14</ele>
        <time>2014-10-25T08:09:18.000Z</time>
      </trkpt>
      <trkpt lat="49.9017" lon="0.93811">
        <ele>14</ele>
        <time>2014-10-25T08:09:19.000Z</time>
      </trkpt>
      <trkpt lat="49.90182" lon="0.93805">
        <ele>14</ele>
        <time>2014-10-25T08:09:22.000Z</time>
      </trkpt>
      <trkpt lat="49.90186" lon="0.93803">
        <ele>15</ele>
        <time>2014-10-25T08:09:23.000Z</time>
      </trkpt>
      <trkpt lat="49.90198" lon="0.93796">
        <ele>15</ele>
        <time>2014-10-25T08:09:26.000Z</time>
      </trkpt>
      <trkpt lat="49.90203" lon="0.93794">
        <ele>15</ele>
        <time>2014-10-25T08:09:27.000Z</time>
      </trkpt>
      <trkpt lat="49.90215" lon="0.93787">
        <ele>16</ele>
        <time>2014-10-25T08:09:30.000Z</time>
      </trkpt>
      <trkpt lat="49.90219" lon="0.93785">
        <ele>17</ele>
        <time>2014-10-25T08:09:31.000Z</time>
      </trkpt>
      <trkpt lat="49.90231" lon="0.93777">
        <ele>18</ele>
        <time>2014-10-25T08:09:34.000Z</time>
      </trkpt>
      <trkpt lat="49.90235" lon="0.93774">
        <ele>18</ele>
        <time>2014-10-25T08:09:35.000Z</time>
      </trkpt>
      <trkpt lat="49.90246" lon="0.93765">
        <ele>19</ele>
        <time>2014-10-25T08:09:38.000Z</time>
      </trkpt>
      <trkpt lat="49.9025" lon="0.93762">
        <ele>19</ele>
        <time>2014-10-25T08:09:39.000Z</time>
      </trkpt>
      <trkpt lat="49.90261" lon="0.93752">
        <ele>20</ele>
        <time>2014-10-25T08:09:42.000Z</time>
      </trkpt>
      <trkpt lat="49.90265" lon="0.93749">
        <ele>20</ele>
        <time>2014-10-25T08:09:43.000Z</time>
      </trkpt>
      <trkpt lat="49.90277" lon="0.93739">
        <ele>20</ele>
        <time>2014-10-25T08:09:46.000Z</time>
      </trkpt>
      <trkpt lat="49.90281" lon="0.93736">
        <ele>19</ele>
        <time>2014-10-25T08:09:47.000Z</time>
      </trkpt>
      <trkpt lat="49.90292" lon="0.93726">
        <ele>19</ele>
        <time>2014-10-25T08:09:50.000Z</time>
      </trkpt>
      <trkpt lat="49.90296" lon="0.93722">
        <ele>19</ele>
        <time>2014-10-25T08:09:51.000Z</time>
      </trkpt>
      <trkpt lat="49.90307" lon="0.93711">
        <ele>18</ele>
        <time>2014-10-25T08:09:54.000Z</time>
      </trkpt>
      <trkpt lat="49.90311" lon="0.93708">
        <ele>18</ele>
        <time>2014-10-25T08:09:55.000Z</time>
      </trkpt>
      <trkpt lat="49.90314" lon="0.93704">
        <ele>18</ele>
        <time>2014-10-25T08:09:56.000Z</time>
      </trkpt>
      <trkpt lat="49.90322" lon="0.93696">
        <ele>18</ele>
        <time>2014-10-25T08:09:58.000Z</time>
      </trkpt>
      <trkpt lat="49.90325" lon="0.93692">
        <ele>18</ele>
        <time>2014-10-25T08:09:59.000Z</time>
      </trkpt>
      <trkpt lat="49.90337" lon="0.93683">
        <ele>17</ele>
        <time>2014-10-25T08:10:02.000Z</time>
      </trkpt>
      <trkpt lat="49.90341" lon="0.9368">
        <ele>17</ele>
        <time>2014-10-25T08:10:03.000Z</time>
      </trkpt>
      <trkpt lat="49.90349" lon="0.93673">
        <ele>17</ele>
        <time>2014-10-25T08:10:05.000Z</time>
      </trkpt>
      <trkpt lat="49.90353" lon="0.93669">
        <ele>16</ele>
        <time>2014-10-25T08:10:06.000Z</time>
      </trkpt>
      <trkpt lat="49.90357" lon="0.93666">
        <ele>16</ele>
        <time>2014-10-25T08:10:07.000Z</time>
      </trkpt>
      <trkpt lat="49.90361" lon="0.93663">
        <ele>16</ele>
        <time>2014-10-25T08:10:08.000Z</time>
      </trkpt>
      <trkpt lat="49.90366" lon="0.9366">
        <ele>15</ele>
        <time>2014-10-25T08:10:09.000Z</time>
      </trkpt>
      <trkpt lat="49.90371" lon="0.93656">
        <ele>15</ele>
        <time>2014-10-25T08:10:10.000Z</time>
      </trkpt>
      <trkpt lat="49.90375" lon="0.93653">
        <ele>15</ele>
        <time>2014-10-25T08:10:11.000Z</time>
      </trkpt>
      <trkpt lat="49.90379" lon="0.9365">
        <ele>14</ele>
        <time>2014-10-25T08:10:12.000Z</time>
      </trkpt>
      <trkpt lat="49.90383" lon="0.93646">
        <ele>14</ele>
        <time>2014-10-25T08:10:13.000Z</time>
      </trkpt>
      <trkpt lat="49.90387" lon="0.93642">
        <ele>14</ele>
        <time>2014-10-25T08:10:14.000Z</time>
      </trkpt>
      <trkpt lat="49.90391" lon="0.93639">
        <ele>14</ele>
        <time>2014-10-25T08:10:15.000Z</time>
      </trkpt>
      <trkpt lat="49.90395" lon="0.93636">
        <ele>14</ele>
        <time>2014-10-25T08:10:16.000Z</time>
      </trkpt>
      <trkpt lat="49.904" lon="0.93633">
        <ele>13</ele>
        <time>2014-10-25T08:10:17.000Z</time>
      </trkpt>
      <trkpt lat="49.90403" lon="0.9363">
        <ele>13</ele>
        <time>2014-10-25T08:10:18.000Z</time>
      </trkpt>
      <trkpt lat="49.90408" lon="0.93626">
        <ele>13</ele>
        <time>2014-10-25T08:10:19.000Z</time>
      </trkpt>
      <trkpt lat="49.90412" lon="0.93623">
        <ele>13</ele>
        <time>2014-10-25T08:10:20.000Z</time>
      </trkpt>
      <trkpt lat="49.90416" lon="0.9362">
        <ele>13</ele>
        <time>2014-10-25T08:10:21.000Z</time>
      </trkpt>
      <trkpt lat="49.90421" lon="0.93617">
        <ele>12</ele>
        <time>2014-10-25T08:10:22.000Z</time>
      </trkpt>
      <trkpt lat="49.90425" lon="0.93614">
        <ele>12</ele>
        <time>2014-10-25T08:10:23.000Z</time>
      </trkpt>
      <trkpt lat="49.9043" lon="0.93611">
        <ele>12</ele>
        <time>2014-10-25T08:10:24.000Z</time>
      </trkpt>
      <trkpt lat="49.90434" lon="0.93609">
        <ele>12</ele>
        <time>2014-10-25T08:10:25.000Z</time>
      </trkpt>
      <trkpt lat="49.90439" lon="0.93606">
        <ele>12</ele>
        <time>2014-10-25T08:10:26.000Z</time>
      </trkpt>
      <trkpt lat="49.90443" lon="0.93603">
        <ele>12</ele>
        <time>2014-10-25T08:10:27.000Z</time>
      </trkpt>
      <trkpt lat="49.90448" lon="0.93599">
        <ele>12</ele>
        <time>2014-10-25T08:10:28.000Z</time>
      </trkpt>
      <trkpt lat="49.90452" lon="0.93596">
        <ele>12</ele>
        <time>2014-10-25T08:10:29.000Z</time>
      </trkpt>
      <trkpt lat="49.90456" lon="0.93593">
        <ele>12</ele>
        <time>2014-10-25T08:10:30.000Z</time>
      </trkpt>
      <trkpt lat="49.9046" lon="0.9359">
        <ele>12</ele>
        <time>2014-10-25T08:10:31.000Z</time>
      </trkpt>
      <trkpt lat="49.90464" lon="0.93586">
        <ele>12</ele>
        <time>2014-10-25T08:10:32.000Z</time>
      </trkpt>
      <trkpt lat="49.90468" lon="0.93583">
        <ele>12</ele>
        <time>2014-10-25T08:10:33.000Z</time>
      </trkpt>
      <trkpt lat="49.90472" lon="0.9358">
        <ele>13</ele>
        <time>2014-10-25T08:10:34.000Z</time>
      </trkpt>
      <trkpt lat="49.90476" lon="0.93576">
        <ele>13</ele>
        <time>2014-10-25T08:10:35.000Z</time>
      </trkpt>
      <trkpt lat="49.9048" lon="0.93573">
        <ele>13</ele>
        <time>2014-10-25T08:10:36.000Z</time>
      </trkpt>
      <trkpt lat="49.90491" lon="0.93562">
        <ele>13</ele>
        <time>2014-10-25T08:10:39.000Z</time>
      </trkpt>
      <trkpt lat="49.90495" lon="0.93557">
        <ele>13</ele>
        <time>2014-10-25T08:10:40.000Z</time>
      </trkpt>
      <trkpt lat="49.90499" lon="0.93552">
        <ele>13</ele>
        <time>2014-10-25T08:10:41.000Z</time>
      </trkpt>
      <trkpt lat="49.90502" lon="0.93547">
        <ele>14</ele>
        <time>2014-10-25T08:10:42.000Z</time>
      </trkpt>
      <trkpt lat="49.90506" lon="0.93542">
        <ele>14</ele>
        <time>2014-10-25T08:10:43.000Z</time>
      </trkpt>
      <trkpt lat="49.9051" lon="0.93537">
        <ele>13</ele>
        <time>2014-10-25T08:10:44.000Z</time>
      </trkpt>
      <trkpt lat="49.90513" lon="0.93532">
        <ele>13</ele>
        <time>2014-10-25T08:10:45.000Z</time>
      </trkpt>
      <trkpt lat="49.90517" lon="0.93527">
        <ele>13</ele>
        <time>2014-10-25T08:10:46.000Z</time>
      </trkpt>
      <trkpt lat="49.9052" lon="0.93522">
        <ele>13</ele>
        <time>2014-10-25T08:10:47.000Z</time>
      </trkpt>
      <trkpt lat="49.90524" lon="0.93518">
        <ele>13</ele>
        <time>2014-10-25T08:10:48.000Z</time>
      </trkpt>
      <trkpt lat="49.90528" lon="0.93513">
        <ele>13</ele>
        <time>2014-10-25T08:10:49.000Z</time>
      </trkpt>
      <trkpt lat="49.90532" lon="0.93509">
        <ele>14</ele>
        <time>2014-10-25T08:10:50.000Z</time>
      </trkpt>
      <trkpt lat="49.90536" lon="0.93504">
        <ele>14</ele>
        <time>2014-10-25T08:10:51.000Z</time>
      </trkpt>
      <trkpt lat="49.9054" lon="0.93501">
        <ele>14</ele>
        <time>2014-10-25T08:10:52.000Z</time>
      </trkpt>
      <trkpt lat="49.90544" lon="0.93496">
        <ele>14</ele>
        <time>2014-10-25T08:10:53.000Z</time>
      </trkpt>
      <trkpt lat="49.90548" lon="0.93492">
        <ele>14</ele>
        <time>2014-10-25T08:10:54.000Z</time>
      </trkpt>
      <trkpt lat="49.90552" lon="0.93488">
        <ele>14</ele>
        <time>2014-10-25T08:10:55.000Z</time>
      </trkpt>
      <trkpt lat="49.90556" lon="0.93483">
        <ele>15</ele>
        <time>2014-10-25T08:10:56.000Z</time>
      </trkpt>
      <trkpt lat="49.9056" lon="0.93479">
        <ele>15</ele>
        <time>2014-10-25T08:10:57.000Z</time>
      </trkpt>
      <trkpt lat="49.90564" lon="0.93474">
        <ele>15</ele>
        <time>2014-10-25T08:10:58.000Z</time>
      </trkpt>
      <trkpt lat="49.90568" lon="0.93469">
        <ele>16</ele>
        <time>2014-10-25T08:10:59.000Z</time>
      </trkpt>
      <trkpt lat="49.90572" lon="0.93464">
        <ele>16</ele>
        <time>2014-10-25T08:11:00.000Z</time>
      </trkpt>
      <trkpt lat="49.90577" lon="0.93458">
        <ele>16</ele>
        <time>2014-10-25T08:11:01.000Z</time>
      </trkpt>
      <trkpt lat="49.90581" lon="0.93453">
        <ele>16</ele>
        <time>2014-10-25T08:11:02.000Z</time>
      </trkpt>
      <trkpt lat="49.90585" lon="0.93447">
        <ele>16</ele>
        <time>2014-10-25T08:11:03.000Z</time>
      </trkpt>
      <trkpt lat="49.90589" lon="0.93442">
        <ele>16</ele>
        <time>2014-10-25T08:11:04.000Z</time>
      </trkpt>
      <trkpt lat="49.90593" lon="0.93435">
        <ele>16</ele>
        <time>2014-10-25T08:11:05.000Z</time>
      </trkpt>
      <trkpt lat="49.90598" lon="0.9343">
        <ele>16</ele>
        <time>2014-10-25T08:11:06.000Z</time>
      </trkpt>
      <trkpt lat="49.90602" lon="0.93423">
        <ele>16</ele>
        <time>2014-10-25T08:11:07.000Z</time>
      </trkpt>
      <trkpt lat="49.90606" lon="0.93417">
        <ele>16</ele>
        <time>2014-10-25T08:11:08.000Z</time>
      </trkpt>
      <trkpt lat="49.9061" lon="0.93412">
        <ele>16</ele>
        <time>2014-10-25T08:11:09.000Z</time>
      </trkpt>
      <trkpt lat="49.90614" lon="0.93406">
        <ele>16</ele>
        <time>2014-10-25T08:11:10.000Z</time>
      </trkpt>
      <trkpt lat="49.90618" lon="0.93399">
        <ele>16</ele>
        <time>2014-10-25T08:11:11.000Z</time>
      </trkpt>
      <trkpt lat="49.90621" lon="0.93393">
        <ele>16</ele>
        <time>2014-10-25T08:11:12.000Z</time>
      </trkpt>
      <trkpt lat="49.90625" lon="0.93386">
        <ele>16</ele>
        <time>2014-10-25T08:11:13.000Z</time>
      </trkpt>
      <trkpt lat="49.90629" lon="0.93379">
        <ele>16</ele>
        <time>2014-10-25T08:11:14.000Z</time>
      </trkpt>
      <trkpt lat="49.90633" lon="0.93373">
        <ele>16</ele>
        <time>2014-10-25T08:11:15.000Z</time>
      </trkpt>
      <trkpt lat="49.90637" lon="0.93366">
        <ele>16</ele>
        <time>2014-10-25T08:11:16.000Z</time>
      </trkpt>
      <trkpt lat="49.90641" lon="0.9336">
        <ele>17</ele>
        <time>2014-10-25T08:11:17.000Z</time>
      </trkpt>
      <trkpt lat="49.90645" lon="0.93355">
        <ele>17</ele>
        <time>2014-10-25T08:11:18.000Z</time>
      </trkpt>
      <trkpt lat="49.90649" lon="0.93349">
        <ele>17</ele>
        <time>2014-10-25T08:11:19.000Z</time>
      </trkpt>
      <trkpt lat="49.90653" lon="0.93344">
        <ele>17</ele>
        <time>2014-10-25T08:11:20.000Z</time>
      </trkpt>
      <trkpt lat="49.90658" lon="0.93339">
        <ele>17</ele>
        <time>2014-10-25T08:11:21.000Z</time>
      </trkpt>
      <trkpt lat="49.90663" lon="0.93334">
        <ele>17</ele>
        <time>2014-10-25T08:11:22.000Z</time>
      </trkpt>
      <trkpt lat="49.90668" lon="0.93329">
        <ele>17</ele>
        <time>2014-10-25T08:11:23.000Z</time>
      </trkpt>
      <trkpt lat="49.90673" lon="0.93324">
        <ele>17</ele>
        <time>2014-10-25T08:11:24.000Z</time>
      </trkpt>
      <trkpt lat="49.90678" lon="0.93319">
        <ele>17</ele>
        <time>2014-10-25T08:11:25.000Z</time>
      </trkpt>
      <trkpt lat="49.90683" lon="0.93315">
        <ele>16</ele>
        <time>2014-10-25T08:11:26.000Z</time>
      </trkpt>
      <trkpt lat="49.90688" lon="0.93311">
        <ele>16</ele>
        <time>2014-10-25T08:11:27.000Z</time>
      </trkpt>
      <trkpt lat="49.90693" lon="0.93307">
        <ele>16</ele>
        <time>2014-10-25T08:11:28.000Z</time>
      </trkpt>
      <trkpt lat="49.90697" lon="0.93303">
        <ele>16</ele>
        <time>2014-10-25T08:11:29.000Z</time>
      </trkpt>
      <trkpt lat="49.90702" lon="0.93299">
        <ele>16</ele>
        <time>2014-10-25T08:11:30.000Z</time>
      </trkpt>
      <trkpt lat="49.90707" lon="0.93296">
        <ele>16</ele>
        <time>2014-10-25T08:11:31.000Z</time>
      </trkpt>
      <trkpt lat="49.90711" lon="0.93293">
        <ele>16</ele>
        <time>2014-10-25T08:11:32.000Z</time>
      </trkpt>
      <trkpt lat="49.90722" lon="0.93285">
        <ele>16</ele>
        <time>2014-10-25T08:11:35.000Z</time>
      </trkpt>
      <trkpt lat="49.90725" lon="0.93283">
        <ele>16</ele>
        <time>2014-10-25T08:11:36.000Z</time>
      </trkpt>
      <trkpt lat="49.90735" lon="0.93292">
        <ele>17</ele>
        <time>2014-10-25T08:11:41.000Z</time>
      </trkpt>
      <trkpt lat="49.90736" lon="0.93298">
        <ele>17</ele>
        <time>2014-10-25T08:11:42.000Z</time>
      </trkpt>
      <trkpt lat="49.90742" lon="0.93317">
        <ele>17</ele>
        <time>2014-10-25T08:11:45.000Z</time>
      </trkpt>
      <trkpt lat="49.90744" lon="0.93324">
        <ele>17</ele>
        <time>2014-10-25T08:11:46.000Z</time>
      </trkpt>
      <trkpt lat="49.90746" lon="0.93331">
        <ele>17</ele>
        <time>2014-10-25T08:11:47.000Z</time>
      </trkpt>
      <trkpt lat="49.90748" lon="0.93338">
        <ele>17</ele>
        <time>2014-10-25T08:11:48.000Z</time>
      </trkpt>
      <trkpt lat="49.90749" lon="0.93345">
        <ele>17</ele>
        <time>2014-10-25T08:11:49.000Z</time>
      </trkpt>
      <trkpt lat="49.90751" lon="0.93353">
        <ele>17</ele>
        <time>2014-10-25T08:11:50.000Z</time>
      </trkpt>
      <trkpt lat="49.90753" lon="0.9336">
        <ele>17</ele>
        <time>2014-10-25T08:11:51.000Z</time>
      </trkpt>
      <trkpt lat="49.90755" lon="0.93367">
        <ele>17</ele>
        <time>2014-10-25T08:11:52.000Z</time>
      </trkpt>
      <trkpt lat="49.90757" lon="0.93374">
        <ele>17</ele>
        <time>2014-10-25T08:11:53.000Z</time>
      </trkpt>
      <trkpt lat="49.90759" lon="0.93382">
        <ele>17</ele>
        <time>2014-10-25T08:11:54.000Z</time>
      </trkpt>
      <trkpt lat="49.9076" lon="0.9339">
        <ele>17</ele>
        <time>2014-10-25T08:11:55.000Z</time>
      </trkpt>
      <trkpt lat="49.90762" lon="0.93398">
        <ele>17</ele>
        <time>2014-10-25T08:11:56.000Z</time>
      </trkpt>
      <trkpt lat="49.90763" lon="0.93405">
        <ele>17</ele>
        <time>2014-10-25T08:11:57.000Z</time>
      </trkpt>
      <trkpt lat="49.90765" lon="0.93413">
        <ele>17</ele>
        <time>2014-10-25T08:11:58.000Z</time>
      </trkpt>
      <trkpt lat="49.90766" lon="0.93421">
        <ele>17</ele>
        <time>2014-10-25T08:11:59.000Z</time>
      </trkpt>
      <trkpt lat="49.90768" lon="0.93429">
        <ele>17</ele>
        <time>2014-10-25T08:12:00.000Z</time>
      </trkpt>
      <trkpt lat="49.9077" lon="0.93437">
        <ele>17</ele>
        <time>2014-10-25T08:12:01.000Z</time>
      </trkpt>
      <trkpt lat="49.90771" lon="0.93445">
        <ele>17</ele>
        <time>2014-10-25T08:12:02.000Z</time>
      </trkpt>
      <trkpt lat="49.90773" lon="0.93453">
        <ele>17</ele>
        <time>2014-10-25T08:12:03.000Z</time>
      </trkpt>
      <trkpt lat="49.90775" lon="0.93461">
        <ele>17</ele>
        <time>2014-10-25T08:12:04.000Z</time>
      </trkpt>
      <trkpt lat="49.90777" lon="0.93469">
        <ele>17</ele>
        <time>2014-10-25T08:12:05.000Z</time>
      </trkpt>
      <trkpt lat="49.90778" lon="0.93477">
        <ele>17</ele>
        <time>2014-10-25T08:12:06.000Z</time>
      </trkpt>
      <trkpt lat="49.9078" lon="0.93485">
        <ele>17</ele>
        <time>2014-10-25T08:12:07.000Z</time>
      </trkpt>
      <trkpt lat="49.90782" lon="0.93493">
        <ele>17</ele>
        <time>2014-10-25T08:12:08.000Z</time>
      </trkpt>
      <trkpt lat="49.90783" lon="0.935">
        <ele>17</ele>
        <time>2014-10-25T08:12:09.000Z</time>
      </trkpt>
      <trkpt lat="49.90785" lon="0.93508">
        <ele>17</ele>
        <time>2014-10-25T08:12:10.000Z</time>
      </trkpt>
      <trkpt lat="49.90786" lon="0.93515">
        <ele>17</ele>
        <time>2014-10-25T08:12:11.000Z</time>
      </trkpt>
      <trkpt lat="49.90788" lon="0.93523">
        <ele>17</ele>
        <time>2014-10-25T08:12:12.000Z</time>
      </trkpt>
      <trkpt lat="49.90789" lon="0.9353">
        <ele>17</ele>
        <time>2014-10-25T08:12:13.000Z</time>
      </trkpt>
      <trkpt lat="49.90791" lon="0.93538">
        <ele>18</ele>
        <time>2014-10-25T08:12:14.000Z</time>
      </trkpt>
      <trkpt lat="49.90793" lon="0.93545">
        <ele>18</ele>
        <time>2014-10-25T08:12:15.000Z</time>
      </trkpt>
      <trkpt lat="49.90794" lon="0.93552">
        <ele>18</ele>
        <time>2014-10-25T08:12:16.000Z</time>
      </trkpt>
      <trkpt lat="49.90796" lon="0.93559">
        <ele>18</ele>
        <time>2014-10-25T08:12:17.000Z</time>
      </trkpt>
      <trkpt lat="49.90797" lon="0.93567">
        <ele>18</ele>
        <time>2014-10-25T08:12:18.000Z</time>
      </trkpt>
      <trkpt lat="49.90799" lon="0.93574">
        <ele>18</ele>
        <time>2014-10-25T08:12:19.000Z</time>
      </trkpt>
      <trkpt lat="49.908" lon="0.93581">
        <ele>18</ele>
        <time>2014-10-25T08:12:20.000Z</time>
      </trkpt>
      <trkpt lat="49.90802" lon="0.93588">
        <ele>18</ele>
        <time>2014-10-25T08:12:21.000Z</time>
      </trkpt>
      <trkpt lat="49.90803" lon="0.93595">
        <ele>18</ele>
        <time>2014-10-25T08:12:22.000Z</time>
      </trkpt>
      <trkpt lat="49.90805" lon="0.93602">
        <ele>19</ele>
        <time>2014-10-25T08:12:23.000Z</time>
      </trkpt>
      <trkpt lat="49.90806" lon="0.93608">
        <ele>19</ele>
        <time>2014-10-25T08:12:24.000Z</time>
      </trkpt>
      <trkpt lat="49.90808" lon="0.93615">
        <ele>19</ele>
        <time>2014-10-25T08:12:25.000Z</time>
      </trkpt>
      <trkpt lat="49.90811" lon="0.93635">
        <ele>19</ele>
        <time>2014-10-25T08:12:28.000Z</time>
      </trkpt>
      <trkpt lat="49.90813" lon="0.93641">
        <ele>19</ele>
        <time>2014-10-25T08:12:29.000Z</time>
      </trkpt>
      <trkpt lat="49.90817" lon="0.9366">
        <ele>19</ele>
        <time>2014-10-25T08:12:32.000Z</time>
      </trkpt>
      <trkpt lat="49.90817" lon="0.93666">
        <ele>20</ele>
        <time>2014-10-25T08:12:33.000Z</time>
      </trkpt>
      <trkpt lat="49.90814" lon="0.93681">
        <ele>20</ele>
        <time>2014-10-25T08:12:36.000Z</time>
      </trkpt>
      <trkpt lat="49.90813" lon="0.93685">
        <ele>21</ele>
        <time>2014-10-25T08:12:37.000Z</time>
      </trkpt>
      <trkpt lat="49.90809" lon="0.93699">
        <ele>21</ele>
        <time>2014-10-25T08:12:40.000Z</time>
      </trkpt>
      <trkpt lat="49.90808" lon="0.93703">
        <ele>22</ele>
        <time>2014-10-25T08:12:41.000Z</time>
      </trkpt>
      <trkpt lat="49.90805" lon="0.93717">
        <ele>23</ele>
        <time>2014-10-25T08:12:44.000Z</time>
      </trkpt>
      <trkpt lat="49.90805" lon="0.93721">
        <ele>23</ele>
        <time>2014-10-25T08:12:45.000Z</time>
      </trkpt>
      <trkpt lat="49.90801" lon="0.93734">
        <ele>24</ele>
        <time>2014-10-25T08:12:49.000Z</time>
      </trkpt>
      <trkpt lat="49.908" lon="0.93738">
        <ele>24</ele>
        <time>2014-10-25T08:12:50.000Z</time>
      </trkpt>
      <trkpt lat="49.90796" lon="0.9375">
        <ele>26</ele>
        <time>2014-10-25T08:12:54.000Z</time>
      </trkpt>
      <trkpt lat="49.90795" lon="0.93754">
        <ele>26</ele>
        <time>2014-10-25T08:12:55.000Z</time>
      </trkpt>
      <trkpt lat="49.90791" lon="0.93769">
        <ele>27</ele>
        <time>2014-10-25T08:13:00.000Z</time>
      </trkpt>
      <trkpt lat="49.9079" lon="0.93771">
        <ele>28</ele>
        <time>2014-10-25T08:13:01.000Z</time>
      </trkpt>
      <trkpt lat="49.90785" lon="0.93785">
        <ele>29</ele>
        <time>2014-10-25T08:13:06.000Z</time>
      </trkpt>
      <trkpt lat="49.90784" lon="0.93787">
        <ele>29</ele>
        <time>2014-10-25T08:13:07.000Z</time>
      </trkpt>
      <trkpt lat="49.9078" lon="0.93801">
        <ele>31</ele>
        <time>2014-10-25T08:13:12.000Z</time>
      </trkpt>
      <trkpt lat="49.90779" lon="0.93804">
        <ele>31</ele>
        <time>2014-10-25T08:13:13.000Z</time>
      </trkpt>
      <trkpt lat="49.90775" lon="0.93818">
        <ele>32</ele>
        <time>2014-10-25T08:13:18.000Z</time>
      </trkpt>
      <trkpt lat="49.90775" lon="0.93821">
        <ele>33</ele>
        <time>2014-10-25T08:13:19.000Z</time>
      </trkpt>
      <trkpt lat="49.90775" lon="0.93837">
        <ele>34</ele>
        <time>2014-10-25T08:13:24.000Z</time>
      </trkpt>
      <trkpt lat="49.90776" lon="0.9384">
        <ele>34</ele>
        <time>2014-10-25T08:13:25.000Z</time>
      </trkpt>
      <trkpt lat="49.90778" lon="0.93853">
        <ele>35</ele>
        <time>2014-10-25T08:13:30.000Z</time>
      </trkpt>
      <trkpt lat="49.90779" lon="0.93856">
        <ele>36</ele>
        <time>2014-10-25T08:13:31.000Z</time>
      </trkpt>
      <trkpt lat="49.90781" lon="0.9387">
        <ele>37</ele>
        <time>2014-10-25T08:13:36.000Z</time>
      </trkpt>
      <trkpt lat="49.90782" lon="0.93873">
        <ele>37</ele>
        <time>2014-10-25T08:13:37.000Z</time>
      </trkpt>
      <trkpt lat="49.90784" lon="0.93888">
        <ele>38</ele>
        <time>2014-10-25T08:13:40.000Z</time>
      </trkpt>
      <trkpt lat="49.90785" lon="0.93891">
        <ele>38</ele>
        <time>2014-10-25T08:13:41.000Z</time>
      </trkpt>
      <trkpt lat="49.90788" lon="0.93907">
        <ele>39</ele>
        <time>2014-10-25T08:13:46.000Z</time>
      </trkpt>
      <trkpt lat="49.90788" lon="0.93911">
        <ele>39</ele>
        <time>2014-10-25T08:13:47.000Z</time>
      </trkpt>
      <trkpt lat="49.9079" lon="0.93927">
        <ele>39</ele>
        <time>2014-10-25T08:13:52.000Z</time>
      </trkpt>
      <trkpt lat="49.90791" lon="0.9393">
        <ele>38</ele>
        <time>2014-10-25T08:13:53.000Z</time>
      </trkpt>
      <trkpt lat="49.90793" lon="0.93944">
        <ele>38</ele>
        <time>2014-10-25T08:13:57.000Z</time>
      </trkpt>
      <trkpt lat="49.90793" lon="0.93948">
        <ele>37</ele>
        <time>2014-10-25T08:13:58.000Z</time>
      </trkpt>
      <trkpt lat="49.90796" lon="0.93964">
        <ele>36</ele>
        <time>2014-10-25T08:14:03.000Z</time>
      </trkpt>
      <trkpt lat="49.90796" lon="0.93968">
        <ele>34</ele>
        <time>2014-10-25T08:14:04.000Z</time>
      </trkpt>
      <trkpt lat="49.90798" lon="0.93984">
        <ele>34</ele>
        <time>2014-10-25T08:14:09.000Z</time>
      </trkpt>
      <trkpt lat="49.90798" lon="0.93987">
        <ele>34</ele>
        <time>2014-10-25T08:14:10.000Z</time>
      </trkpt>
      <trkpt lat="49.908" lon="0.94003">
        <ele>35</ele>
        <time>2014-10-25T08:14:15.000Z</time>
      </trkpt>
      <trkpt lat="49.908" lon="0.94006">
        <ele>35</ele>
        <time>2014-10-25T08:14:16.000Z</time>
      </trkpt>
      <trkpt lat="49.90802" lon="0.9402">
        <ele>36</ele>
        <time>2014-10-25T08:14:21.000Z</time>
      </trkpt>
      <trkpt lat="49.90803" lon="0.94023">
        <ele>36</ele>
        <time>2014-10-25T08:14:22.000Z</time>
      </trkpt>
      <trkpt lat="49.90805" lon="0.94038">
        <ele>37</ele>
        <time>2014-10-25T08:14:27.000Z</time>
      </trkpt>
      <trkpt lat="49.90806" lon="0.94041">
        <ele>38</ele>
        <time>2014-10-25T08:14:28.000Z</time>
      </trkpt>
      <trkpt lat="49.90807" lon="0.94055">
        <ele>39</ele>
        <time>2014-10-25T08:14:33.000Z</time>
      </trkpt>
      <trkpt lat="49.90808" lon="0.94058">
        <ele>39</ele>
        <time>2014-10-25T08:14:34.000Z</time>
      </trkpt>
      <trkpt lat="49.9081" lon="0.94072">
        <ele>40</ele>
        <time>2014-10-25T08:14:39.000Z</time>
      </trkpt>
      <trkpt lat="49.9081" lon="0.94075">
        <ele>40</ele>
        <time>2014-10-25T08:14:40.000Z</time>
      </trkpt>
      <trkpt lat="49.90813" lon="0.9409">
        <ele>40</ele>
        <time>2014-10-25T08:14:46.000Z</time>
      </trkpt>
      <trkpt lat="49.90814" lon="0.94092">
        <ele>40</ele>
        <time>2014-10-25T08:14:47.000Z</time>
      </trkpt>
      <trkpt lat="49.90817" lon="0.94107">
        <ele>41</ele>
        <time>2014-10-25T08:14:53.000Z</time>
      </trkpt>
      <trkpt lat="49.90817" lon="0.9411">
        <ele>41</ele>
        <time>2014-10-25T08:14:54.000Z</time>
      </trkpt>
      <trkpt lat="49.90818" lon="0.94125">
        <ele>42</ele>
        <time>2014-10-25T08:15:00.000Z</time>
      </trkpt>
      <trkpt lat="49.90818" lon="0.94128">
        <ele>42</ele>
        <time>2014-10-25T08:15:01.000Z</time>
      </trkpt>
      <trkpt lat="49.90819" lon="0.94143">
        <ele>43</ele>
        <time>2014-10-25T08:15:06.000Z</time>
      </trkpt>
      <trkpt lat="49.90819" lon="0.94146">
        <ele>43</ele>
        <time>2014-10-25T08:15:07.000Z</time>
      </trkpt>
      <trkpt lat="49.90819" lon="0.94161">
        <ele>44</ele>
        <time>2014-10-25T08:15:13.000Z</time>
      </trkpt>
      <trkpt lat="49.9082" lon="0.94162">
        <ele>44</ele>
        <time>2014-10-25T08:15:14.000Z</time>
      </trkpt>
      <trkpt lat="49.90818" lon="0.94176">
        <ele>46</ele>
        <time>2014-10-25T08:16:37.000Z</time>
      </trkpt>
      <trkpt lat="49.90818" lon="0.94177">
        <ele>46</ele>
        <time>2014-10-25T08:16:38.000Z</time>
      </trkpt>
      <trkpt lat="49.9082" lon="0.94193">
        <ele>46</ele>
        <time>2014-10-25T08:16:44.000Z</time>
      </trkpt>
      <trkpt lat="49.9082" lon="0.94195">
        <ele>46</ele>
        <time>2014-10-25T08:16:45.000Z</time>
      </trkpt>
      <trkpt lat="49.90824" lon="0.94209">
        <ele>46</ele>
        <time>2014-10-25T08:16:50.000Z</time>
      </trkpt>
      <trkpt lat="49.90825" lon="0.94212">
        <ele>46</ele>
        <time>2014-10-25T08:16:51.000Z</time>
      </trkpt>
      <trkpt lat="49.90829" lon="0.94226">
        <ele>46</ele>
        <time>2014-10-25T08:16:55.000Z</time>
      </trkpt>
      <trkpt lat="49.90829" lon="0.9423">
        <ele>46</ele>
        <time>2014-10-25T08:16:56.000Z</time>
      </trkpt>
      <trkpt lat="49.90833" lon="0.94245">
        <ele>46</ele>
        <time>2014-10-25T08:17:00.000Z</time>
      </trkpt>
      <trkpt lat="49.90834" lon="0.9425">
        <ele>46</ele>
        <time>2014-10-25T08:17:01.000Z</time>
      </trkpt>
      <trkpt lat="49.90836" lon="0.94267">
        <ele>45</ele>
        <time>2014-10-25T08:17:04.000Z</time>
      </trkpt>
      <trkpt lat="49.90836" lon="0.94273">
        <ele>45</ele>
        <time>2014-10-25T08:17:05.000Z</time>
      </trkpt>
      <trkpt lat="49.90839" lon="0.94293">
        <ele>44</ele>
        <time>2014-10-25T08:17:08.000Z</time>
      </trkpt>
      <trkpt lat="49.9084" lon="0.94299">
        <ele>44</ele>
        <time>2014-10-25T08:17:09.000Z</time>
      </trkpt>
      <trkpt lat="49.90844" lon="0.94313">
        <ele>44</ele>
        <time>2014-10-25T08:17:11.000Z</time>
      </trkpt>
      <trkpt lat="49.90845" lon="0.9432">
        <ele>43</ele>
        <time>2014-10-25T08:17:12.000Z</time>
      </trkpt>
      <trkpt lat="49.90846" lon="0.94328">
        <ele>43</ele>
        <time>2014-10-25T08:17:13.000Z</time>
      </trkpt>
      <trkpt lat="49.90847" lon="0.94336">
        <ele>43</ele>
        <time>2014-10-25T08:17:14.000Z</time>
      </trkpt>
      <trkpt lat="49.90848" lon="0.94344">
        <ele>42</ele>
        <time>2014-10-25T08:17:15.000Z</time>
      </trkpt>
      <trkpt lat="49.90848" lon="0.94353">
        <ele>42</ele>
        <time>2014-10-25T08:17:16.000Z</time>
      </trkpt>
      <trkpt lat="49.90848" lon="0.94361">
        <ele>42</ele>
        <time>2014-10-25T08:17:17.000Z</time>
      </trkpt>
      <trkpt lat="49.90848" lon="0.9437">
        <ele>41</ele>
        <time>2014-10-25T08:17:18.000Z</time>
      </trkpt>
      <trkpt lat="49.90848" lon="0.9438">
        <ele>41</ele>
        <time>2014-10-25T08:17:19.000Z</time>
      </trkpt>
      <trkpt lat="49.90848" lon="0.94389">
        <ele>41</ele>
        <time>2014-10-25T08:17:20.000Z</time>
      </trkpt>
      <trkpt lat="49.90848" lon="0.94399">
        <ele>40</ele>
        <time>2014-10-25T08:17:21.000Z</time>
      </trkpt>
      <trkpt lat="49.90847" lon="0.94409">
        <ele>40</ele>
        <time>2014-10-25T08:17:22.000Z</time>
      </trkpt>
      <trkpt lat="49.90847" lon="0.94419">
        <ele>40</ele>
        <time>2014-10-25T08:17:23.000Z</time>
      </trkpt>
      <trkpt lat="49.90846" lon="0.94428">
        <ele>39</ele>
        <time>2014-10-25T08:17:24.000Z</time>
      </trkpt>
      <trkpt lat="49.90846" lon="0.94436">
        <ele>39</ele>
        <time>2014-10-25T08:17:25.000Z</time>
      </trkpt>
      <trkpt lat="49.90846" lon="0.94443">
        <ele>39</ele>
        <time>2014-10-25T08:17:26.000Z</time>
      </trkpt>
      <trkpt lat="49.90847" lon="0.9445">
        <ele>40</ele>
        <time>2014-10-25T08:17:27.000Z</time>
      </trkpt>
      <trkpt lat="49.9085" lon="0.94467">
        <ele>40</ele>
        <time>2014-10-25T08:17:30.000Z</time>
      </trkpt>
      <trkpt lat="49.9085" lon="0.9447">
        <ele>40</ele>
        <time>2014-10-25T08:17:31.000Z</time>
      </trkpt>
      <trkpt lat="49.90854" lon="0.94487">
        <ele>42</ele>
        <time>2014-10-25T08:17:35.000Z</time>
      </trkpt>
      <trkpt lat="49.90856" lon="0.94492">
        <ele>43</ele>
        <time>2014-10-25T08:17:36.000Z</time>
      </trkpt>
      <trkpt lat="49.90862" lon="0.94504">
        <ele>44</ele>
        <time>2014-10-25T08:17:38.000Z</time>
      </trkpt>
      <trkpt lat="49.90865" lon="0.94511">
        <ele>45</ele>
        <time>2014-10-25T08:17:39.000Z</time>
      </trkpt>
      <trkpt lat="49.90868" lon="0.94517">
        <ele>45</ele>
        <time>2014-10-25T08:17:40.000Z</time>
      </trkpt>
      <trkpt lat="49.90871" lon="0.94524">
        <ele>46</ele>
        <time>2014-10-25T08:17:41.000Z</time>
      </trkpt>
      <trkpt lat="49.90874" lon="0.9453">
        <ele>47</ele>
        <time>2014-10-25T08:17:42.000Z</time>
      </trkpt>
      <trkpt lat="49.90877" lon="0.94535">
        <ele>47</ele>
        <time>2014-10-25T08:17:43.000Z</time>
      </trkpt>
      <trkpt lat="49.90883" lon="0.94552">
        <ele>48</ele>
        <time>2014-10-25T08:17:46.000Z</time>
      </trkpt>
      <trkpt lat="49.90885" lon="0.94557">
        <ele>48</ele>
        <time>2014-10-25T08:17:47.000Z</time>
      </trkpt>
      <trkpt lat="49.90892" lon="0.94575">
        <ele>49</ele>
        <time>2014-10-25T08:17:50.000Z</time>
      </trkpt>
      <trkpt lat="49.90894" lon="0.94581">
        <ele>49</ele>
        <time>2014-10-25T08:17:51.000Z</time>
      </trkpt>
      <trkpt lat="49.909" lon="0.94593">
        <ele>49</ele>
        <time>2014-10-25T08:17:53.000Z</time>
      </trkpt>
      <trkpt lat="49.90902" lon="0.94599">
        <ele>48</ele>
        <time>2014-10-25T08:17:54.000Z</time>
      </trkpt>
      <trkpt lat="49.90905" lon="0.94606">
        <ele>48</ele>
        <time>2014-10-25T08:17:55.000Z</time>
      </trkpt>
      <trkpt lat="49.90907" lon="0.94613">
        <ele>48</ele>
        <time>2014-10-25T08:17:56.000Z</time>
      </trkpt>
      <trkpt lat="49.90908" lon="0.94619">
        <ele>48</ele>
        <time>2014-10-25T08:17:57.000Z</time>
      </trkpt>
      <trkpt lat="49.9091" lon="0.94626">
        <ele>47</ele>
        <time>2014-10-25T08:17:58.000Z</time>
      </trkpt>
      <trkpt lat="49.90912" lon="0.94633">
        <ele>47</ele>
        <time>2014-10-25T08:17:59.000Z</time>
      </trkpt>
      <trkpt lat="49.90913" lon="0.9464">
        <ele>47</ele>
        <time>2014-10-25T08:18:00.000Z</time>
      </trkpt>
      <trkpt lat="49.90914" lon="0.94648">
        <ele>47</ele>
        <time>2014-10-25T08:18:01.000Z</time>
      </trkpt>
      <trkpt lat="49.90915" lon="0.94655">
        <ele>46</ele>
        <time>2014-10-25T08:18:02.000Z</time>
      </trkpt>
      <trkpt lat="49.90916" lon="0.94662">
        <ele>46</ele>
        <time>2014-10-25T08:18:03.000Z</time>
      </trkpt>
      <trkpt lat="49.90916" lon="0.94678">
        <ele>46</ele>
        <time>2014-10-25T08:18:06.000Z</time>
      </trkpt>
      <trkpt lat="49.90916" lon="0.94682">
        <ele>46</ele>
        <time>2014-10-25T08:18:07.000Z</time>
      </trkpt>
      <trkpt lat="49.9091" lon="0.94695">
        <ele>46</ele>
        <time>2014-10-25T08:18:10.000Z</time>
      </trkpt>
      <trkpt lat="49.90908" lon="0.947">
        <ele>46</ele>
        <time>2014-10-25T08:18:11.000Z</time>
      </trkpt>
      <trkpt lat="49.90908" lon="0.94715">
        <ele>46</ele>
        <time>2014-10-25T08:18:14.000Z</time>
      </trkpt>
      <trkpt lat="49.90908" lon="0.9472">
        <ele>46</ele>
        <time>2014-10-25T08:18:15.000Z</time>
      </trkpt>
      <trkpt lat="49.90909" lon="0.94735">
        <ele>46</ele>
        <time>2014-10-25T08:18:18.000Z</time>
      </trkpt>
      <trkpt lat="49.90909" lon="0.9474">
        <ele>46</ele>
        <time>2014-10-25T08:18:19.000Z</time>
      </trkpt>
      <trkpt lat="49.9091" lon="0.94754">
        <ele>46</ele>
        <time>2014-10-25T08:18:22.000Z</time>
      </trkpt>
      <trkpt lat="49.90909" lon="0.94759">
        <ele>46</ele>
        <time>2014-10-25T08:18:23.000Z</time>
      </trkpt>
      <trkpt lat="49.9091" lon="0.94777">
        <ele>46</ele>
        <time>2014-10-25T08:18:27.000Z</time>
      </trkpt>
      <trkpt lat="49.9091" lon="0.94781">
        <ele>46</ele>
        <time>2014-10-25T08:18:28.000Z</time>
      </trkpt>
      <trkpt lat="49.9091" lon="0.94798">
        <ele>47</ele>
        <time>2014-10-25T08:18:32.000Z</time>
      </trkpt>
      <trkpt lat="49.9091" lon="0.94802">
        <ele>47</ele>
        <time>2014-10-25T08:18:33.000Z</time>
      </trkpt>
      <trkpt lat="49.9091" lon="0.94817">
        <ele>49</ele>
        <time>2014-10-25T08:18:37.000Z</time>
      </trkpt>
      <trkpt lat="49.9091" lon="0.94821">
        <ele>49</ele>
        <time>2014-10-25T08:18:38.000Z</time>
      </trkpt>
      <trkpt lat="49.9091" lon="0.94838">
        <ele>51</ele>
        <time>2014-10-25T08:18:43.000Z</time>
      </trkpt>
      <trkpt lat="49.9091" lon="0.94841">
        <ele>51</ele>
        <time>2014-10-25T08:18:44.000Z</time>
      </trkpt>
      <trkpt lat="49.90908" lon="0.94855">
        <ele>58</ele>
        <time>2014-10-25T08:18:52.000Z</time>
      </trkpt>
      <trkpt lat="49.90908" lon="0.94857">
        <ele>59</ele>
        <time>2014-10-25T08:18:53.000Z</time>
      </trkpt>
      <trkpt lat="49.90907" lon="0.94873">
        <ele>65</ele>
        <time>2014-10-25T08:19:00.000Z</time>
      </trkpt>
      <trkpt lat="49.90907" lon="0.94877">
        <ele>65</ele>
        <time>2014-10-25T08:19:01.000Z</time>
      </trkpt>
      <trkpt lat="49.90908" lon="0.94893">
        <ele>64</ele>
        <time>2014-10-25T08:19:06.000Z</time>
      </trkpt>
      <trkpt lat="49.90908" lon="0.94895">
        <ele>64</ele>
        <time>2014-10-25T08:19:07.000Z</time>
      </trkpt>
      <trkpt lat="49.90909" lon="0.94912">
        <ele>64</ele>
        <time>2014-10-25T08:19:13.000Z</time>
      </trkpt>
      <trkpt lat="49.90909" lon="0.94914">
        <ele>64</ele>
        <time>2014-10-25T08:19:14.000Z</time>
      </trkpt>
      <trkpt lat="49.90907" lon="0.94929">
        <ele>64</ele>
        <time>2014-10-25T08:19:20.000Z</time>
      </trkpt>
      <trkpt lat="49.90908" lon="0.94932">
        <ele>64</ele>
        <time>2014-10-25T08:19:21.000Z</time>
      </trkpt>
      <trkpt lat="49.90908" lon="0.94946">
        <ele>66</ele>
        <time>2014-10-25T08:19:26.000Z</time>
      </trkpt>
      <trkpt lat="49.90909" lon="0.94948">
        <ele>66</ele>
        <time>2014-10-25T08:19:27.000Z</time>
      </trkpt>
      <trkpt lat="49.90908" lon="0.94965">
        <ele>70</ele>
        <time>2014-10-25T08:19:33.000Z</time>
      </trkpt>
      <trkpt lat="49.90909" lon="0.94968">
        <ele>71</ele>
        <time>2014-10-25T08:19:34.000Z</time>
      </trkpt>
      <trkpt lat="49.90909" lon="0.94985">
        <ele>72</ele>
        <time>2014-10-25T08:19:40.000Z</time>
      </trkpt>
      <trkpt lat="49.9091" lon="0.94988">
        <ele>73</ele>
        <time>2014-10-25T08:19:41.000Z</time>
      </trkpt>
      <trkpt lat="49.9091" lon="0.95003">
        <ele>73</ele>
        <time>2014-10-25T08:19:46.000Z</time>
      </trkpt>
      <trkpt lat="49.9091" lon="0.95005">
        <ele>73</ele>
        <time>2014-10-25T08:19:47.000Z</time>
      </trkpt>
      <trkpt lat="49.90911" lon="0.9502">
        <ele>72</ele>
        <time>2014-10-25T08:19:52.000Z</time>
      </trkpt>
      <trkpt lat="49.90911" lon="0.95022">
        <ele>72</ele>
        <time>2014-10-25T08:19:53.000Z</time>
      </trkpt>
      <trkpt lat="49.90912" lon="0.95038">
        <ele>71</ele>
        <time>2014-10-25T08:19:58.000Z</time>
      </trkpt>
      <trkpt lat="49.90912" lon="0.9504">
        <ele>70</ele>
        <time>2014-10-25T08:19:59.000Z</time>
      </trkpt>
      <trkpt lat="49.90912" lon="0.95057">
        <ele>70</ele>
        <time>2014-10-25T08:20:05.000Z</time>
      </trkpt>
      <trkpt lat="49.90912" lon="0.9506">
        <ele>70</ele>
        <time>2014-10-25T08:20:06.000Z</time>
      </trkpt>
      <trkpt lat="49.90911" lon="0.95075">
        <ele>75</ele>
        <time>2014-10-25T08:20:12.000Z</time>
      </trkpt>
      <trkpt lat="49.90911" lon="0.95078">
        <ele>76</ele>
        <time>2014-10-25T08:20:13.000Z</time>
      </trkpt>
      <trkpt lat="49.9091" lon="0.95093">
        <ele>78</ele>
        <time>2014-10-25T08:20:18.000Z</time>
      </trkpt>
      <trkpt lat="49.9091" lon="0.95096">
        <ele>79</ele>
        <time>2014-10-25T08:20:19.000Z</time>
      </trkpt>
      <trkpt lat="49.90911" lon="0.95112">
        <ele>79</ele>
        <time>2014-10-25T08:20:24.000Z</time>
      </trkpt>
      <trkpt lat="49.90911" lon="0.95116">
        <ele>79</ele>
        <time>2014-10-25T08:20:25.000Z</time>
      </trkpt>
      <trkpt lat="49.9091" lon="0.95131">
        <ele>77</ele>
        <time>2014-10-25T08:20:30.000Z</time>
      </trkpt>
      <trkpt lat="49.9091" lon="0.95134">
        <ele>76</ele>
        <time>2014-10-25T08:20:31.000Z</time>
      </trkpt>
      <trkpt lat="49.90909" lon="0.9515">
        <ele>74</ele>
        <time>2014-10-25T08:20:36.000Z</time>
      </trkpt>
      <trkpt lat="49.90908" lon="0.95154">
        <ele>74</ele>
        <time>2014-10-25T08:20:37.000Z</time>
      </trkpt>
      <trkpt lat="49.90909" lon="0.9517">
        <ele>72</ele>
        <time>2014-10-25T08:20:42.000Z</time>
      </trkpt>
      <trkpt lat="49.90909" lon="0.95173">
        <ele>72</ele>
        <time>2014-10-25T08:20:43.000Z</time>
      </trkpt>
      <trkpt lat="49.90909" lon="0.95188">
        <ele>72</ele>
        <time>2014-10-25T08:20:47.000Z</time>
      </trkpt>
      <trkpt lat="49.90909" lon="0.95192">
        <ele>72</ele>
        <time>2014-10-25T08:20:48.000Z</time>
      </trkpt>
      <trkpt lat="49.9091" lon="0.95209">
        <ele>72</ele>
        <time>2014-10-25T08:20:52.000Z</time>
      </trkpt>
      <trkpt lat="49.9091" lon="0.95214">
        <ele>72</ele>
        <time>2014-10-25T08:20:53.000Z</time>
      </trkpt>
      <trkpt lat="49.90912" lon="0.95232">
        <ele>72</ele>
        <time>2014-10-25T08:20:57.000Z</time>
      </trkpt>
      <trkpt lat="49.90912" lon="0.95236">
        <ele>72</ele>
        <time>2014-10-25T08:20:58.000Z</time>
      </trkpt>
      <trkpt lat="49.90913" lon="0.95251">
        <ele>73</ele>
        <time>2014-10-25T08:21:01.000Z</time>
      </trkpt>
      <trkpt lat="49.90913" lon="0.95256">
        <ele>74</ele>
        <time>2014-10-25T08:21:02.000Z</time>
      </trkpt>
      <trkpt lat="49.90916" lon="0.95271">
        <ele>75</ele>
        <time>2014-10-25T08:21:05.000Z</time>
      </trkpt>
      <trkpt lat="49.90917" lon="0.95276">
        <ele>75</ele>
        <time>2014-10-25T08:21:06.000Z</time>
      </trkpt>
      <trkpt lat="49.9092" lon="0.95294">
        <ele>77</ele>
        <time>2014-10-25T08:21:09.000Z</time>
      </trkpt>
      <trkpt lat="49.90921" lon="0.95301">
        <ele>77</ele>
        <time>2014-10-25T08:21:10.000Z</time>
      </trkpt>
      <trkpt lat="49.90923" lon="0.95319">
        <ele>79</ele>
        <time>2014-10-25T08:21:13.000Z</time>
      </trkpt>
      <trkpt lat="49.90924" lon="0.95324">
        <ele>79</ele>
        <time>2014-10-25T08:21:14.000Z</time>
      </trkpt>
      <trkpt lat="49.90928" lon="0.95341">
        <ele>80</ele>
        <time>2014-10-25T08:21:17.000Z</time>
      </trkpt>
      <trkpt lat="49.90928" lon="0.95347">
        <ele>80</ele>
        <time>2014-10-25T08:21:18.000Z</time>
      </trkpt>
      <trkpt lat="49.90929" lon="0.95363">
        <ele>81</ele>
        <time>2014-10-25T08:21:21.000Z</time>
      </trkpt>
      <trkpt lat="49.90931" lon="0.95369">
        <ele>81</ele>
        <time>2014-10-25T08:21:22.000Z</time>
      </trkpt>
      <trkpt lat="49.90933" lon="0.95388">
        <ele>82</ele>
        <time>2014-10-25T08:21:25.000Z</time>
      </trkpt>
      <trkpt lat="49.90934" lon="0.95395">
        <ele>82</ele>
        <time>2014-10-25T08:21:26.000Z</time>
      </trkpt>
      <trkpt lat="49.90938" lon="0.95413">
        <ele>82</ele>
        <time>2014-10-25T08:21:29.000Z</time>
      </trkpt>
      <trkpt lat="49.90939" lon="0.95418">
        <ele>82</ele>
        <time>2014-10-25T08:21:30.000Z</time>
      </trkpt>
      <trkpt lat="49.90942" lon="0.95436">
        <ele>83</ele>
        <time>2014-10-25T08:21:33.000Z</time>
      </trkpt>
      <trkpt lat="49.90943" lon="0.95443">
        <ele>83</ele>
        <time>2014-10-25T08:21:34.000Z</time>
      </trkpt>
      <trkpt lat="49.90947" lon="0.95461">
        <ele>83</ele>
        <time>2014-10-25T08:21:37.000Z</time>
      </trkpt>
      <trkpt lat="49.90947" lon="0.95467">
        <ele>83</ele>
        <time>2014-10-25T08:21:38.000Z</time>
      </trkpt>
      <trkpt lat="49.90949" lon="0.95485">
        <ele>81</ele>
        <time>2014-10-25T08:21:41.000Z</time>
      </trkpt>
      <trkpt lat="49.9095" lon="0.9549">
        <ele>81</ele>
        <time>2014-10-25T08:21:42.000Z</time>
      </trkpt>
      <trkpt lat="49.90952" lon="0.95506">
        <ele>80</ele>
        <time>2014-10-25T08:21:45.000Z</time>
      </trkpt>
      <trkpt lat="49.90953" lon="0.9551">
        <ele>80</ele>
        <time>2014-10-25T08:21:46.000Z</time>
      </trkpt>
      <trkpt lat="49.90953" lon="0.95527">
        <ele>80</ele>
        <time>2014-10-25T08:21:51.000Z</time>
      </trkpt>
      <trkpt lat="49.90953" lon="0.95531">
        <ele>80</ele>
        <time>2014-10-25T08:21:52.000Z</time>
      </trkpt>
      <trkpt lat="49.90954" lon="0.95548">
        <ele>79</ele>
        <time>2014-10-25T08:21:56.000Z</time>
      </trkpt>
      <trkpt lat="49.90955" lon="0.9555">
        <ele>79</ele>
        <time>2014-10-25T08:21:57.000Z</time>
      </trkpt>
      <trkpt lat="49.90961" lon="0.95562">
        <ele>81</ele>
        <time>2014-10-25T08:22:03.000Z</time>
      </trkpt>
      <trkpt lat="49.90962" lon="0.95564">
        <ele>82</ele>
        <time>2014-10-25T08:22:04.000Z</time>
      </trkpt>
      <trkpt lat="49.90968" lon="0.95577">
        <ele>85</ele>
        <time>2014-10-25T08:22:09.000Z</time>
      </trkpt>
      <trkpt lat="49.9097" lon="0.95579">
        <ele>85</ele>
        <time>2014-10-25T08:22:10.000Z</time>
      </trkpt>
      <trkpt lat="49.90976" lon="0.95589">
        <ele>86</ele>
        <time>2014-10-25T08:22:13.000Z</time>
      </trkpt>
      <trkpt lat="49.90979" lon="0.95593">
        <ele>86</ele>
        <time>2014-10-25T08:22:14.000Z</time>
      </trkpt>
      <trkpt lat="49.90987" lon="0.95601">
        <ele>86</ele>
        <time>2014-10-25T08:22:17.000Z</time>
      </trkpt>
      <trkpt lat="49.9099" lon="0.95603">
        <ele>86</ele>
        <time>2014-10-25T08:22:18.000Z</time>
      </trkpt>
      <trkpt lat="49.90997" lon="0.95614">
        <ele>88</ele>
        <time>2014-10-25T08:22:22.000Z</time>
      </trkpt>
      <trkpt lat="49.90999" lon="0.95617">
        <ele>88</ele>
        <time>2014-10-25T08:22:23.000Z</time>
      </trkpt>
      <trkpt lat="49.91007" lon="0.95627">
        <ele>88</ele>
        <time>2014-10-25T08:22:27.000Z</time>
      </trkpt>
      <trkpt lat="49.91009" lon="0.9563">
        <ele>88</ele>
        <time>2014-10-25T08:22:28.000Z</time>
      </trkpt>
      <trkpt lat="49.91016" lon="0.95641">
        <ele>89</ele>
        <time>2014-10-25T08:22:32.000Z</time>
      </trkpt>
      <trkpt lat="49.91019" lon="0.95644">
        <ele>90</ele>
        <time>2014-10-25T08:22:33.000Z</time>
      </trkpt>
      <trkpt lat="49.91027" lon="0.95655">
        <ele>91</ele>
        <time>2014-10-25T08:22:36.000Z</time>
      </trkpt>
      <trkpt lat="49.9103" lon="0.95658">
        <ele>91</ele>
        <time>2014-10-25T08:22:37.000Z</time>
      </trkpt>
      <trkpt lat="49.91037" lon="0.9567">
        <ele>92</ele>
        <time>2014-10-25T08:22:40.000Z</time>
      </trkpt>
      <trkpt lat="49.9104" lon="0.95675">
        <ele>93</ele>
        <time>2014-10-25T08:22:41.000Z</time>
      </trkpt>
      <trkpt lat="49.91047" lon="0.95685">
        <ele>94</ele>
        <time>2014-10-25T08:22:43.000Z</time>
      </trkpt>
      <trkpt lat="49.91051" lon="0.95689">
        <ele>95</ele>
        <time>2014-10-25T08:22:44.000Z</time>
      </trkpt>
      <trkpt lat="49.91055" lon="0.95695">
        <ele>95</ele>
        <time>2014-10-25T08:22:45.000Z</time>
      </trkpt>
      <trkpt lat="49.9106" lon="0.957">
        <ele>96</ele>
        <time>2014-10-25T08:22:46.000Z</time>
      </trkpt>
      <trkpt lat="49.91064" lon="0.95706">
        <ele>96</ele>
        <time>2014-10-25T08:22:47.000Z</time>
      </trkpt>
      <trkpt lat="49.91069" lon="0.95712">
        <ele>96</ele>
        <time>2014-10-25T08:22:48.000Z</time>
      </trkpt>
      <trkpt lat="49.91073" lon="0.95717">
        <ele>96</ele>
        <time>2014-10-25T08:22:49.000Z</time>
      </trkpt>
      <trkpt lat="49.91077" lon="0.95722">
        <ele>95</ele>
        <time>2014-10-25T08:22:50.000Z</time>
      </trkpt>
      <trkpt lat="49.91081" lon="0.95727">
        <ele>95</ele>
        <time>2014-10-25T08:22:51.000Z</time>
      </trkpt>
      <trkpt lat="49.91084" lon="0.95733">
        <ele>95</ele>
        <time>2014-10-25T08:22:52.000Z</time>
      </trkpt>
      <trkpt lat="49.91087" lon="0.95739">
        <ele>95</ele>
        <time>2014-10-25T08:22:53.000Z</time>
      </trkpt>
      <trkpt lat="49.9109" lon="0.95745">
        <ele>95</ele>
        <time>2014-10-25T08:22:54.000Z</time>
      </trkpt>
      <trkpt lat="49.91097" lon="0.9576">
        <ele>94</ele>
        <time>2014-10-25T08:22:57.000Z</time>
      </trkpt>
      <trkpt lat="49.91097" lon="0.95765">
        <ele>94</ele>
        <time>2014-10-25T08:22:58.000Z</time>
      </trkpt>
      <trkpt lat="49.91101" lon="0.95782">
        <ele>95</ele>
        <time>2014-10-25T08:23:01.000Z</time>
      </trkpt>
      <trkpt lat="49.91102" lon="0.95787">
        <ele>96</ele>
        <time>2014-10-25T08:23:02.000Z</time>
      </trkpt>
      <trkpt lat="49.91107" lon="0.95802">
        <ele>98</ele>
        <time>2014-10-25T08:23:05.000Z</time>
      </trkpt>
      <trkpt lat="49.91109" lon="0.95807">
        <ele>98</ele>
        <time>2014-10-25T08:23:06.000Z</time>
      </trkpt>
      <trkpt lat="49.91116" lon="0.95825">
        <ele>98</ele>
        <time>2014-10-25T08:23:09.000Z</time>
      </trkpt>
      <trkpt lat="49.91118" lon="0.9583">
        <ele>98</ele>
        <time>2014-10-25T08:23:10.000Z</time>
      </trkpt>
      <trkpt lat="49.91122" lon="0.95844">
        <ele>96</ele>
        <time>2014-10-25T08:23:13.000Z</time>
      </trkpt>
      <trkpt lat="49.91123" lon="0.95848">
        <ele>95</ele>
        <time>2014-10-25T08:23:14.000Z</time>
      </trkpt>
      <trkpt lat="49.9113" lon="0.95861">
        <ele>93</ele>
        <time>2014-10-25T08:23:17.000Z</time>
      </trkpt>
      <trkpt lat="49.91132" lon="0.95864">
        <ele>92</ele>
        <time>2014-10-25T08:23:18.000Z</time>
      </trkpt>
      <trkpt lat="49.91137" lon="0.9588">
        <ele>89</ele>
        <time>2014-10-25T08:23:23.000Z</time>
      </trkpt>
      <trkpt lat="49.91137" lon="0.95884">
        <ele>89</ele>
        <time>2014-10-25T08:23:24.000Z</time>
      </trkpt>
      <trkpt lat="49.91144" lon="0.95896">
        <ele>88</ele>
        <time>2014-10-25T08:23:28.000Z</time>
      </trkpt>
      <trkpt lat="49.91144" lon="0.95898">
        <ele>88</ele>
        <time>2014-10-25T08:23:29.000Z</time>
      </trkpt>
      <trkpt lat="49.91147" lon="0.95913">
        <ele>87</ele>
        <time>2014-10-25T08:23:33.000Z</time>
      </trkpt>
      <trkpt lat="49.91148" lon="0.95917">
        <ele>87</ele>
        <time>2014-10-25T08:23:34.000Z</time>
      </trkpt>
      <trkpt lat="49.91151" lon="0.95931">
        <ele>86</ele>
        <time>2014-10-25T08:23:38.000Z</time>
      </trkpt>
      <trkpt lat="49.91152" lon="0.95934">
        <ele>86</ele>
        <time>2014-10-25T08:23:39.000Z</time>
      </trkpt>
      <trkpt lat="49.9116" lon="0.95947">
        <ele>83</ele>
        <time>2014-10-25T08:23:44.000Z</time>
      </trkpt>
      <trkpt lat="49.91161" lon="0.9595">
        <ele>82</ele>
        <time>2014-10-25T08:23:45.000Z</time>
      </trkpt>
      <trkpt lat="49.91164" lon="0.95965">
        <ele>81</ele>
        <time>2014-10-25T08:23:49.000Z</time>
      </trkpt>
      <trkpt lat="49.91166" lon="0.95968">
        <ele>82</ele>
        <time>2014-10-25T08:23:50.000Z</time>
      </trkpt>
      <trkpt lat="49.91171" lon="0.95982">
        <ele>83</ele>
        <time>2014-10-25T08:23:54.000Z</time>
      </trkpt>
      <trkpt lat="49.91171" lon="0.95986">
        <ele>84</ele>
        <time>2014-10-25T08:23:55.000Z</time>
      </trkpt>
      <trkpt lat="49.91176" lon="0.95997">
        <ele>87</ele>
        <time>2014-10-25T08:23:59.000Z</time>
      </trkpt>
      <trkpt lat="49.91177" lon="0.96001">
        <ele>88</ele>
        <time>2014-10-25T08:24:00.000Z</time>
      </trkpt>
      <trkpt lat="49.91182" lon="0.96013">
        <ele>90</ele>
        <time>2014-10-25T08:24:04.000Z</time>
      </trkpt>
      <trkpt lat="49.91183" lon="0.96016">
        <ele>90</ele>
        <time>2014-10-25T08:24:05.000Z</time>
      </trkpt>
      <trkpt lat="49.91189" lon="0.96031">
        <ele>91</ele>
        <time>2014-10-25T08:24:09.000Z</time>
      </trkpt>
      <trkpt lat="49.91191" lon="0.96037">
        <ele>91</ele>
        <time>2014-10-25T08:24:10.000Z</time>
      </trkpt>
      <trkpt lat="49.91197" lon="0.96053">
        <ele>89</ele>
        <time>2014-10-25T08:24:13.000Z</time>
      </trkpt>
      <trkpt lat="49.912" lon="0.9606">
        <ele>89</ele>
        <time>2014-10-25T08:24:14.000Z</time>
      </trkpt>
      <trkpt lat="49.91203" lon="0.96065">
        <ele>88</ele>
        <time>2014-10-25T08:24:15.000Z</time>
      </trkpt>
      <trkpt lat="49.91205" lon="0.96071">
        <ele>88</ele>
        <time>2014-10-25T08:24:16.000Z</time>
      </trkpt>
      <trkpt lat="49.91208" lon="0.96077">
        <ele>87</ele>
        <time>2014-10-25T08:24:17.000Z</time>
      </trkpt>
      <trkpt lat="49.91211" lon="0.96083">
        <ele>87</ele>
        <time>2014-10-25T08:24:18.000Z</time>
      </trkpt>
      <trkpt lat="49.91214" lon="0.96089">
        <ele>86</ele>
        <time>2014-10-25T08:24:19.000Z</time>
      </trkpt>
      <trkpt lat="49.91217" lon="0.96095">
        <ele>86</ele>
        <time>2014-10-25T08:24:20.000Z</time>
      </trkpt>
      <trkpt lat="49.9122" lon="0.96101">
        <ele>85</ele>
        <time>2014-10-25T08:24:21.000Z</time>
      </trkpt>
      <trkpt lat="49.91223" lon="0.96107">
        <ele>85</ele>
        <time>2014-10-25T08:24:22.000Z</time>
      </trkpt>
      <trkpt lat="49.91225" lon="0.96113">
        <ele>84</ele>
        <time>2014-10-25T08:24:23.000Z</time>
      </trkpt>
      <trkpt lat="49.91228" lon="0.96119">
        <ele>84</ele>
        <time>2014-10-25T08:24:24.000Z</time>
      </trkpt>
      <trkpt lat="49.91231" lon="0.96126">
        <ele>84</ele>
        <time>2014-10-25T08:24:25.000Z</time>
      </trkpt>
      <trkpt lat="49.91234" lon="0.96132">
        <ele>83</ele>
        <time>2014-10-25T08:24:26.000Z</time>
      </trkpt>
      <trkpt lat="49.91237" lon="0.96138">
        <ele>83</ele>
        <time>2014-10-25T08:24:27.000Z</time>
      </trkpt>
      <trkpt lat="49.9124" lon="0.96145">
        <ele>83</ele>
        <time>2014-10-25T08:24:28.000Z</time>
      </trkpt>
      <trkpt lat="49.91243" lon="0.96152">
        <ele>82</ele>
        <time>2014-10-25T08:24:29.000Z</time>
      </trkpt>
      <trkpt lat="49.91245" lon="0.96157">
        <ele>82</ele>
        <time>2014-10-25T08:24:30.000Z</time>
      </trkpt>
      <trkpt lat="49.91252" lon="0.96175">
        <ele>82</ele>
        <time>2014-10-25T08:24:33.000Z</time>
      </trkpt>
      <trkpt lat="49.91255" lon="0.9618">
        <ele>81</ele>
        <time>2014-10-25T08:24:34.000Z</time>
      </trkpt>
      <trkpt lat="49.91261" lon="0.96197">
        <ele>81</ele>
        <time>2014-10-25T08:24:37.000Z</time>
      </trkpt>
      <trkpt lat="49.91262" lon="0.96201">
        <ele>81</ele>
        <time>2014-10-25T08:24:38.000Z</time>
      </trkpt>
      <trkpt lat="49.91258" lon="0.96214">
        <ele>83</ele>
        <time>2014-10-25T08:24:44.000Z</time>
      </trkpt>
      <trkpt lat="49.91255" lon="0.96216">
        <ele>83</ele>
        <time>2014-10-25T08:24:45.000Z</time>
      </trkpt>
      <trkpt lat="49.91247" lon="0.96222">
        <ele>85</ele>
        <time>2014-10-25T08:24:48.000Z</time>
      </trkpt>
      <trkpt lat="49.91244" lon="0.96225">
        <ele>85</ele>
        <time>2014-10-25T08:24:49.000Z</time>
      </trkpt>
      <trkpt lat="49.91233" lon="0.96233">
        <ele>87</ele>
        <time>2014-10-25T08:24:52.000Z</time>
      </trkpt>
      <trkpt lat="49.9123" lon="0.96236">
        <ele>88</ele>
        <time>2014-10-25T08:24:53.000Z</time>
      </trkpt>
      <trkpt lat="49.91219" lon="0.96243">
        <ele>90</ele>
        <time>2014-10-25T08:24:56.000Z</time>
      </trkpt>
      <trkpt lat="49.91215" lon="0.96245">
        <ele>91</ele>
        <time>2014-10-25T08:24:57.000Z</time>
      </trkpt>
      <trkpt lat="49.91206" lon="0.9625">
        <ele>92</ele>
        <time>2014-10-25T08:24:59.000Z</time>
      </trkpt>
      <trkpt lat="49.91202" lon="0.96252">
        <ele>92</ele>
        <time>2014-10-25T08:25:00.000Z</time>
      </trkpt>
      <trkpt lat="49.91191" lon="0.9626">
        <ele>94</ele>
        <time>2014-10-25T08:25:03.000Z</time>
      </trkpt>
      <trkpt lat="49.91187" lon="0.96263">
        <ele>94</ele>
        <time>2014-10-25T08:25:04.000Z</time>
      </trkpt>
      <trkpt lat="49.91174" lon="0.9627">
        <ele>96</ele>
        <time>2014-10-25T08:25:07.000Z</time>
      </trkpt>
      <trkpt lat="49.9117" lon="0.96273">
        <ele>97</ele>
        <time>2014-10-25T08:25:08.000Z</time>
      </trkpt>
      <trkpt lat="49.91158" lon="0.9628">
        <ele>99</ele>
        <time>2014-10-25T08:25:11.000Z</time>
      </trkpt>
      <trkpt lat="49.91154" lon="0.96282">
        <ele>99</ele>
        <time>2014-10-25T08:25:12.000Z</time>
      </trkpt>
      <trkpt lat="49.91149" lon="0.96285">
        <ele>100</ele>
        <time>2014-10-25T08:25:13.000Z</time>
      </trkpt>
      <trkpt lat="49.91138" lon="0.96291">
        <ele>100</ele>
        <time>2014-10-25T08:25:14.000Z</time>
      </trkpt>
      <trkpt lat="49.91134" lon="0.96294">
        <ele>101</ele>
        <time>2014-10-25T08:25:15.000Z</time>
      </trkpt>
      <trkpt lat="49.91129" lon="0.96296">
        <ele>101</ele>
        <time>2014-10-25T08:25:16.000Z</time>
      </trkpt>
      <trkpt lat="49.91125" lon="0.96299">
        <ele>101</ele>
        <time>2014-10-25T08:25:17.000Z</time>
      </trkpt>
      <trkpt lat="49.91121" lon="0.96302">
        <ele>102</ele>
        <time>2014-10-25T08:25:18.000Z</time>
      </trkpt>
      <trkpt lat="49.91108" lon="0.96309">
        <ele>97</ele>
        <time>2014-10-25T08:25:21.000Z</time>
      </trkpt>
      <trkpt lat="49.91103" lon="0.96311">
        <ele>95</ele>
        <time>2014-10-25T08:25:22.000Z</time>
      </trkpt>
      <trkpt lat="49.91096" lon="0.96314">
        <ele>96</ele>
        <time>2014-10-25T08:25:23.000Z</time>
      </trkpt>
      <trkpt lat="49.91091" lon="0.96316">
        <ele>96</ele>
        <time>2014-10-25T08:25:24.000Z</time>
      </trkpt>
      <trkpt lat="49.91087" lon="0.96319">
        <ele>95</ele>
        <time>2014-10-25T08:25:25.000Z</time>
      </trkpt>
      <trkpt lat="49.91082" lon="0.96322">
        <ele>94</ele>
        <time>2014-10-25T08:25:26.000Z</time>
      </trkpt>
      <trkpt lat="49.91077" lon="0.96324">
        <ele>93</ele>
        <time>2014-10-25T08:25:27.000Z</time>
      </trkpt>
      <trkpt lat="49.91072" lon="0.96326">
        <ele>94</ele>
        <time>2014-10-25T08:25:28.000Z</time>
      </trkpt>
      <trkpt lat="49.91068" lon="0.9633">
        <ele>93</ele>
        <time>2014-10-25T08:25:29.000Z</time>
      </trkpt>
      <trkpt lat="49.91064" lon="0.96343">
        <ele>92</ele>
        <time>2014-10-25T08:25:32.000Z</time>
      </trkpt>
      <trkpt lat="49.91065" lon="0.96346">
        <ele>91</ele>
        <time>2014-10-25T08:25:33.000Z</time>
      </trkpt>
      <trkpt lat="49.91074" lon="0.96357">
        <ele>90</ele>
        <time>2014-10-25T08:25:36.000Z</time>
      </trkpt>
      <trkpt lat="49.91078" lon="0.96362">
        <ele>89</ele>
        <time>2014-10-25T08:25:37.000Z</time>
      </trkpt>
      <trkpt lat="49.91082" lon="0.96368">
        <ele>89</ele>
        <time>2014-10-25T08:25:38.000Z</time>
      </trkpt>
      <trkpt lat="49.91086" lon="0.96374">
        <ele>87</ele>
        <time>2014-10-25T08:25:39.000Z</time>
      </trkpt>
      <trkpt lat="49.9109" lon="0.96379">
        <ele>88</ele>
        <time>2014-10-25T08:25:40.000Z</time>
      </trkpt>
      <trkpt lat="49.91094" lon="0.96384">
        <ele>87</ele>
        <time>2014-10-25T08:25:41.000Z</time>
      </trkpt>
      <trkpt lat="49.91097" lon="0.96388">
        <ele>87</ele>
        <time>2014-10-25T08:25:42.000Z</time>
      </trkpt>
      <trkpt lat="49.91104" lon="0.96397">
        <ele>85</ele>
        <time>2014-10-25T08:25:44.000Z</time>
      </trkpt>
      <trkpt lat="49.91108" lon="0.96401">
        <ele>86</ele>
        <time>2014-10-25T08:25:45.000Z</time>
      </trkpt>
      <trkpt lat="49.91118" lon="0.96412">
        <ele>86</ele>
        <time>2014-10-25T08:25:48.000Z</time>
      </trkpt>
      <trkpt lat="49.91121" lon="0.96417">
        <ele>86</ele>
        <time>2014-10-25T08:25:49.000Z</time>
      </trkpt>
      <trkpt lat="49.91127" lon="0.96427">
        <ele>86</ele>
        <time>2014-10-25T08:25:51.000Z</time>
      </trkpt>
      <trkpt lat="49.9113" lon="0.96432">
        <ele>86</ele>
        <time>2014-10-25T08:25:52.000Z</time>
      </trkpt>
      <trkpt lat="49.91133" lon="0.96438">
        <ele>86</ele>
        <time>2014-10-25T08:25:53.000Z</time>
      </trkpt>
      <trkpt lat="49.91135" lon="0.96444">
        <ele>87</ele>
        <time>2014-10-25T08:25:54.000Z</time>
      </trkpt>
      <trkpt lat="49.91138" lon="0.96451">
        <ele>87</ele>
        <time>2014-10-25T08:25:55.000Z</time>
      </trkpt>
      <trkpt lat="49.91141" lon="0.96457">
        <ele>87</ele>
        <time>2014-10-25T08:25:56.000Z</time>
      </trkpt>
      <trkpt lat="49.91144" lon="0.96463">
        <ele>87</ele>
        <time>2014-10-25T08:25:57.000Z</time>
      </trkpt>
      <trkpt lat="49.91147" lon="0.96468">
        <ele>87</ele>
        <time>2014-10-25T08:25:58.000Z</time>
      </trkpt>
      <trkpt lat="49.91149" lon="0.96475">
        <ele>86</ele>
        <time>2014-10-25T08:25:59.000Z</time>
      </trkpt>
      <trkpt lat="49.91153" lon="0.96481">
        <ele>86</ele>
        <time>2014-10-25T08:26:00.000Z</time>
      </trkpt>
      <trkpt lat="49.91156" lon="0.96488">
        <ele>85</ele>
        <time>2014-10-25T08:26:01.000Z</time>
      </trkpt>
      <trkpt lat="49.91159" lon="0.96495">
        <ele>85</ele>
        <time>2014-10-25T08:26:02.000Z</time>
      </trkpt>
      <trkpt lat="49.91163" lon="0.96501">
        <ele>84</ele>
        <time>2014-10-25T08:26:03.000Z</time>
      </trkpt>
      <trkpt lat="49.91166" lon="0.96506">
        <ele>84</ele>
        <time>2014-10-25T08:26:04.000Z</time>
      </trkpt>
      <trkpt lat="49.91169" lon="0.96512">
        <ele>84</ele>
        <time>2014-10-25T08:26:05.000Z</time>
      </trkpt>
      <trkpt lat="49.91172" lon="0.96519">
        <ele>84</ele>
        <time>2014-10-25T08:26:06.000Z</time>
      </trkpt>
      <trkpt lat="49.91174" lon="0.96524">
        <ele>84</ele>
        <time>2014-10-25T08:26:07.000Z</time>
      </trkpt>
      <trkpt lat="49.91177" lon="0.9653">
        <ele>84</ele>
        <time>2014-10-25T08:26:08.000Z</time>
      </trkpt>
      <trkpt lat="49.9118" lon="0.96536">
        <ele>84</ele>
        <time>2014-10-25T08:26:09.000Z</time>
      </trkpt>
      <trkpt lat="49.91182" lon="0.96542">
        <ele>84</ele>
        <time>2014-10-25T08:26:10.000Z</time>
      </trkpt>
      <trkpt lat="49.91185" lon="0.96548">
        <ele>83</ele>
        <time>2014-10-25T08:26:11.000Z</time>
      </trkpt>
      <trkpt lat="49.91188" lon="0.96554">
        <ele>83</ele>
        <time>2014-10-25T08:26:12.000Z</time>
      </trkpt>
      <trkpt lat="49.91192" lon="0.96559">
        <ele>83</ele>
        <time>2014-10-25T08:26:13.000Z</time>
      </trkpt>
      <trkpt lat="49.91196" lon="0.96564">
        <ele>83</ele>
        <time>2014-10-25T08:26:14.000Z</time>
      </trkpt>
      <trkpt lat="49.912" lon="0.96568">
        <ele>83</ele>
        <time>2014-10-25T08:26:15.000Z</time>
      </trkpt>
      <trkpt lat="49.91205" lon="0.96572">
        <ele>83</ele>
        <time>2014-10-25T08:26:16.000Z</time>
      </trkpt>
      <trkpt lat="49.91209" lon="0.96575">
        <ele>83</ele>
        <time>2014-10-25T08:26:17.000Z</time>
      </trkpt>
      <trkpt lat="49.91213" lon="0.96577">
        <ele>83</ele>
        <time>2014-10-25T08:26:18.000Z</time>
      </trkpt>
      <trkpt lat="49.91222" lon="0.96583">
        <ele>83</ele>
        <time>2014-10-25T08:26:20.000Z</time>
      </trkpt>
      <trkpt lat="49.91227" lon="0.96584">
        <ele>83</ele>
        <time>2014-10-25T08:26:21.000Z</time>
      </trkpt>
      <trkpt lat="49.91238" lon="0.96588">
        <ele>84</ele>
        <time>2014-10-25T08:26:24.000Z</time>
      </trkpt>
      <trkpt lat="49.91242" lon="0.96589">
        <ele>83</ele>
        <time>2014-10-25T08:26:25.000Z</time>
      </trkpt>
      <trkpt lat="49.91251" lon="0.96592">
        <ele>83</ele>
        <time>2014-10-25T08:26:27.000Z</time>
      </trkpt>
      <trkpt lat="49.91255" lon="0.96593">
        <ele>83</ele>
        <time>2014-10-25T08:26:28.000Z</time>
      </trkpt>
      <trkpt lat="49.9126" lon="0.96594">
        <ele>83</ele>
        <time>2014-10-25T08:26:29.000Z</time>
      </trkpt>
      <trkpt lat="49.91272" lon="0.96597">
        <ele>83</ele>
        <time>2014-10-25T08:26:32.000Z</time>
      </trkpt>
      <trkpt lat="49.91277" lon="0.96597">
        <ele>83</ele>
        <time>2014-10-25T08:26:33.000Z</time>
      </trkpt>
      <trkpt lat="49.91287" lon="0.96599">
        <ele>85</ele>
        <time>2014-10-25T08:26:36.000Z</time>
      </trkpt>
      <trkpt lat="49.91291" lon="0.966">
        <ele>86</ele>
        <time>2014-10-25T08:26:37.000Z</time>
      </trkpt>
      <trkpt lat="49.91301" lon="0.96602">
        <ele>87</ele>
        <time>2014-10-25T08:26:39.000Z</time>
      </trkpt>
      <trkpt lat="49.91306" lon="0.96602">
        <ele>88</ele>
        <time>2014-10-25T08:26:40.000Z</time>
      </trkpt>
      <trkpt lat="49.91312" lon="0.96603">
        <ele>88</ele>
        <time>2014-10-25T08:26:41.000Z</time>
      </trkpt>
      <trkpt lat="49.91317" lon="0.96604">
        <ele>89</ele>
        <time>2014-10-25T08:26:42.000Z</time>
      </trkpt>
      <trkpt lat="49.91321" lon="0.96606">
        <ele>89</ele>
        <time>2014-10-25T08:26:43.000Z</time>
      </trkpt>
      <trkpt lat="49.91326" lon="0.96607">
        <ele>90</ele>
        <time>2014-10-25T08:26:44.000Z</time>
      </trkpt>
      <trkpt lat="49.91332" lon="0.96607">
        <ele>90</ele>
        <time>2014-10-25T08:26:45.000Z</time>
      </trkpt>
      <trkpt lat="49.91336" lon="0.96606">
        <ele>90</ele>
        <time>2014-10-25T08:26:46.000Z</time>
      </trkpt>
      <trkpt lat="49.91341" lon="0.96605">
        <ele>91</ele>
        <time>2014-10-25T08:26:47.000Z</time>
      </trkpt>
      <trkpt lat="49.91346" lon="0.96604">
        <ele>91</ele>
        <time>2014-10-25T08:26:48.000Z</time>
      </trkpt>
      <trkpt lat="49.91359" lon="0.966">
        <ele>90</ele>
        <time>2014-10-25T08:26:51.000Z</time>
      </trkpt>
      <trkpt lat="49.91365" lon="0.966">
        <ele>90</ele>
        <time>2014-10-25T08:26:52.000Z</time>
      </trkpt>
      <trkpt lat="49.9137" lon="0.966">
        <ele>90</ele>
        <time>2014-10-25T08:26:53.000Z</time>
      </trkpt>
      <trkpt lat="49.91374" lon="0.966">
        <ele>91</ele>
        <time>2014-10-25T08:26:54.000Z</time>
      </trkpt>
      <trkpt lat="49.91379" lon="0.96599">
        <ele>91</ele>
        <time>2014-10-25T08:26:55.000Z</time>
      </trkpt>
      <trkpt lat="49.91384" lon="0.96598">
        <ele>92</ele>
        <time>2014-10-25T08:26:56.000Z</time>
      </trkpt>
      <trkpt lat="49.91388" lon="0.96599">
        <ele>93</ele>
        <time>2014-10-25T08:26:57.000Z</time>
      </trkpt>
      <trkpt lat="49.91399" lon="0.96602">
        <ele>95</ele>
        <time>2014-10-25T08:27:00.000Z</time>
      </trkpt>
      <trkpt lat="49.91402" lon="0.96607">
        <ele>95</ele>
        <time>2014-10-25T08:27:01.000Z</time>
      </trkpt>
      <trkpt lat="49.9141" lon="0.96619">
        <ele>95</ele>
        <time>2014-10-25T08:27:04.000Z</time>
      </trkpt>
      <trkpt lat="49.91412" lon="0.96624">
        <ele>95</ele>
        <time>2014-10-25T08:27:05.000Z</time>
      </trkpt>
      <trkpt lat="49.9142" lon="0.96641">
        <ele>94</ele>
        <time>2014-10-25T08:27:08.000Z</time>
      </trkpt>
      <trkpt lat="49.91423" lon="0.96647">
        <ele>93</ele>
        <time>2014-10-25T08:27:09.000Z</time>
      </trkpt>
      <trkpt lat="49.91427" lon="0.96655">
        <ele>93</ele>
        <time>2014-10-25T08:27:10.000Z</time>
      </trkpt>
      <trkpt lat="49.9143" lon="0.96662">
        <ele>93</ele>
        <time>2014-10-25T08:27:11.000Z</time>
      </trkpt>
      <trkpt lat="49.91435" lon="0.9667">
        <ele>92</ele>
        <time>2014-10-25T08:27:12.000Z</time>
      </trkpt>
      <trkpt lat="49.9144" lon="0.96677">
        <ele>92</ele>
        <time>2014-10-25T08:27:13.000Z</time>
      </trkpt>
      <trkpt lat="49.91444" lon="0.96685">
        <ele>92</ele>
        <time>2014-10-25T08:27:14.000Z</time>
      </trkpt>
      <trkpt lat="49.91449" lon="0.96692">
        <ele>92</ele>
        <time>2014-10-25T08:27:15.000Z</time>
      </trkpt>
      <trkpt lat="49.91453" lon="0.96698">
        <ele>92</ele>
        <time>2014-10-25T08:27:16.000Z</time>
      </trkpt>
      <trkpt lat="49.91457" lon="0.96705">
        <ele>92</ele>
        <time>2014-10-25T08:27:17.000Z</time>
      </trkpt>
      <trkpt lat="49.9146" lon="0.96712">
        <ele>93</ele>
        <time>2014-10-25T08:27:18.000Z</time>
      </trkpt>
      <trkpt lat="49.91464" lon="0.96718">
        <ele>93</ele>
        <time>2014-10-25T08:27:19.000Z</time>
      </trkpt>
      <trkpt lat="49.91467" lon="0.96725">
        <ele>94</ele>
        <time>2014-10-25T08:27:20.000Z</time>
      </trkpt>
      <trkpt lat="49.9147" lon="0.96731">
        <ele>94</ele>
        <time>2014-10-25T08:27:21.000Z</time>
      </trkpt>
      <trkpt lat="49.91473" lon="0.96736">
        <ele>94</ele>
        <time>2014-10-25T08:27:22.000Z</time>
      </trkpt>
      <trkpt lat="49.91476" lon="0.96741">
        <ele>93</ele>
        <time>2014-10-25T08:27:23.000Z</time>
      </trkpt>
      <trkpt lat="49.91479" lon="0.96748">
        <ele>93</ele>
        <time>2014-10-25T08:27:24.000Z</time>
      </trkpt>
      <trkpt lat="49.91483" lon="0.96753">
        <ele>93</ele>
        <time>2014-10-25T08:27:25.000Z</time>
      </trkpt>
      <trkpt lat="49.91487" lon="0.96759">
        <ele>92</ele>
        <time>2014-10-25T08:27:26.000Z</time>
      </trkpt>
      <trkpt lat="49.91491" lon="0.96765">
        <ele>92</ele>
        <time>2014-10-25T08:27:27.000Z</time>
      </trkpt>
      <trkpt lat="49.91496" lon="0.9677">
        <ele>91</ele>
        <time>2014-10-25T08:27:28.000Z</time>
      </trkpt>
      <trkpt lat="49.91501" lon="0.96775">
        <ele>90</ele>
        <time>2014-10-25T08:27:29.000Z</time>
      </trkpt>
      <trkpt lat="49.91504" lon="0.96778">
        <ele>89</ele>
        <time>2014-10-25T08:27:30.000Z</time>
      </trkpt>
      <trkpt lat="49.91509" lon="0.96781">
        <ele>88</ele>
        <time>2014-10-25T08:27:31.000Z</time>
      </trkpt>
      <trkpt lat="49.91513" lon="0.96784">
        <ele>87</ele>
        <time>2014-10-25T08:27:32.000Z</time>
      </trkpt>
      <trkpt lat="49.91518" lon="0.96789">
        <ele>86</ele>
        <time>2014-10-25T08:27:33.000Z</time>
      </trkpt>
      <trkpt lat="49.91521" lon="0.96795">
        <ele>85</ele>
        <time>2014-10-25T08:27:34.000Z</time>
      </trkpt>
      <trkpt lat="49.91523" lon="0.96801">
        <ele>84</ele>
        <time>2014-10-25T08:27:35.000Z</time>
      </trkpt>
      <trkpt lat="49.91526" lon="0.96821">
        <ele>82</ele>
        <time>2014-10-25T08:27:38.000Z</time>
      </trkpt>
      <trkpt lat="49.91525" lon="0.96828">
        <ele>82</ele>
        <time>2014-10-25T08:27:39.000Z</time>
      </trkpt>
      <trkpt lat="49.91518" lon="0.96843">
        <ele>83</ele>
        <time>2014-10-25T08:27:42.000Z</time>
      </trkpt>
      <trkpt lat="49.91515" lon="0.96844">
        <ele>83</ele>
        <time>2014-10-25T08:27:43.000Z</time>
      </trkpt>
      <trkpt lat="49.91501" lon="0.96846">
        <ele>82</ele>
        <time>2014-10-25T08:27:46.000Z</time>
      </trkpt>
      <trkpt lat="49.91496" lon="0.96846">
        <ele>82</ele>
        <time>2014-10-25T08:27:47.000Z</time>
      </trkpt>
      <trkpt lat="49.91491" lon="0.96846">
        <ele>82</ele>
        <time>2014-10-25T08:27:48.000Z</time>
      </trkpt>
      <trkpt lat="49.9148" lon="0.96847">
        <ele>82</ele>
        <time>2014-10-25T08:27:51.000Z</time>
      </trkpt>
      <trkpt lat="49.91477" lon="0.96847">
        <ele>82</ele>
        <time>2014-10-25T08:27:52.000Z</time>
      </trkpt>
      <trkpt lat="49.91468" lon="0.96851">
        <ele>83</ele>
        <time>2014-10-25T08:28:05.000Z</time>
      </trkpt>
      <trkpt lat="49.91468" lon="0.96851">
        <ele>83</ele>
        <time>2014-10-25T08:28:06.000Z</time>
      </trkpt>
      <trkpt lat="49.91458" lon="0.96854">
        <ele>84</ele>
        <time>2014-10-25T08:28:11.000Z</time>
      </trkpt>
      <trkpt lat="49.91457" lon="0.96854">
        <ele>84</ele>
        <time>2014-10-25T08:28:12.000Z</time>
      </trkpt>
      <trkpt lat="49.91448" lon="0.96855">
        <ele>86</ele>
        <time>2014-10-25T08:28:19.000Z</time>
      </trkpt>
      <trkpt lat="49.91446" lon="0.96855">
        <ele>86</ele>
        <time>2014-10-25T08:28:20.000Z</time>
      </trkpt>
      <trkpt lat="49.91437" lon="0.96857">
        <ele>86</ele>
        <time>2014-10-25T08:28:24.000Z</time>
      </trkpt>
      <trkpt lat="49.91435" lon="0.96857">
        <ele>86</ele>
        <time>2014-10-25T08:28:25.000Z</time>
      </trkpt>
      <trkpt lat="49.91424" lon="0.96864">
        <ele>84</ele>
        <time>2014-10-25T08:28:29.000Z</time>
      </trkpt>
      <trkpt lat="49.91422" lon="0.96866">
        <ele>83</ele>
        <time>2014-10-25T08:28:30.000Z</time>
      </trkpt>
      <trkpt lat="49.91413" lon="0.96877">
        <ele>78</ele>
        <time>2014-10-25T08:28:35.000Z</time>
      </trkpt>
      <trkpt lat="49.91411" lon="0.96879">
        <ele>77</ele>
        <time>2014-10-25T08:28:36.000Z</time>
      </trkpt>
      <trkpt lat="49.91403" lon="0.96885">
        <ele>74</ele>
        <time>2014-10-25T08:28:39.000Z</time>
      </trkpt>
      <trkpt lat="49.914" lon="0.96887">
        <ele>73</ele>
        <time>2014-10-25T08:28:40.000Z</time>
      </trkpt>
      <trkpt lat="49.9139" lon="0.96893">
        <ele>73</ele>
        <time>2014-10-25T08:28:43.000Z</time>
      </trkpt>
      <trkpt lat="49.91387" lon="0.96896">
        <ele>73</ele>
        <time>2014-10-25T08:28:44.000Z</time>
      </trkpt>
      <trkpt lat="49.91386" lon="0.96911">
        <ele>74</ele>
        <time>2014-10-25T08:28:52.000Z</time>
      </trkpt>
      <trkpt lat="49.91387" lon="0.96913">
        <ele>74</ele>
        <time>2014-10-25T08:28:53.000Z</time>
      </trkpt>
      <trkpt lat="49.91396" lon="0.96921">
        <ele>77</ele>
        <time>2014-10-25T08:28:59.000Z</time>
      </trkpt>
      <trkpt lat="49.91399" lon="0.96923">
        <ele>78</ele>
        <time>2014-10-25T08:29:00.000Z</time>
      </trkpt>
      <trkpt lat="49.91408" lon="0.96928">
        <ele>78</ele>
        <time>2014-10-25T08:29:04.000Z</time>
      </trkpt>
      <trkpt lat="49.91411" lon="0.96929">
        <ele>78</ele>
        <time>2014-10-25T08:29:05.000Z</time>
      </trkpt>
      <trkpt lat="49.91421" lon="0.96934">
        <ele>76</ele>
        <time>2014-10-25T08:29:10.000Z</time>
      </trkpt>
      <trkpt lat="49.91423" lon="0.96935">
        <ele>76</ele>
        <time>2014-10-25T08:29:11.000Z</time>
      </trkpt>
      <trkpt lat="49.91435" lon="0.96939">
        <ele>74</ele>
        <time>2014-10-25T08:29:15.000Z</time>
      </trkpt>
      <trkpt lat="49.91439" lon="0.96939">
        <ele>74</ele>
        <time>2014-10-25T08:29:16.000Z</time>
      </trkpt>
      <trkpt lat="49.91451" lon="0.96941">
        <ele>72</ele>
        <time>2014-10-25T08:29:19.000Z</time>
      </trkpt>
      <trkpt lat="49.91455" lon="0.96941">
        <ele>71</ele>
        <time>2014-10-25T08:29:20.000Z</time>
      </trkpt>
      <trkpt lat="49.91466" lon="0.96943">
        <ele>68</ele>
        <time>2014-10-25T08:29:23.000Z</time>
      </trkpt>
      <trkpt lat="49.9147" lon="0.96944">
        <ele>67</ele>
        <time>2014-10-25T08:29:24.000Z</time>
      </trkpt>
      <trkpt lat="49.91483" lon="0.96947">
        <ele>65</ele>
        <time>2014-10-25T08:29:27.000Z</time>
      </trkpt>
      <trkpt lat="49.91487" lon="0.96948">
        <ele>65</ele>
        <time>2014-10-25T08:29:28.000Z</time>
      </trkpt>
      <trkpt lat="49.91497" lon="0.96952">
        <ele>64</ele>
        <time>2014-10-25T08:29:31.000Z</time>
      </trkpt>
      <trkpt lat="49.91501" lon="0.96953">
        <ele>64</ele>
        <time>2014-10-25T08:29:32.000Z</time>
      </trkpt>
      <trkpt lat="49.9151" lon="0.96958">
        <ele>64</ele>
        <time>2014-10-25T08:29:36.000Z</time>
      </trkpt>
      <trkpt lat="49.91512" lon="0.96958">
        <ele>64</ele>
        <time>2014-10-25T08:29:37.000Z</time>
      </trkpt>
      <trkpt lat="49.91524" lon="0.96965">
        <ele>64</ele>
        <time>2014-10-25T08:29:41.000Z</time>
      </trkpt>
      <trkpt lat="49.91528" lon="0.96968">
        <ele>63</ele>
        <time>2014-10-25T08:29:42.000Z</time>
      </trkpt>
      <trkpt lat="49.91532" lon="0.96969">
        <ele>63</ele>
        <time>2014-10-25T08:29:43.000Z</time>
      </trkpt>
      <trkpt lat="49.91537" lon="0.9697">
        <ele>62</ele>
        <time>2014-10-25T08:29:44.000Z</time>
      </trkpt>
      <trkpt lat="49.91548" lon="0.96977">
        <ele>61</ele>
        <time>2014-10-25T08:29:47.000Z</time>
      </trkpt>
      <trkpt lat="49.91552" lon="0.9698">
        <ele>61</ele>
        <time>2014-10-25T08:29:48.000Z</time>
      </trkpt>
      <trkpt lat="49.91562" lon="0.96984">
        <ele>61</ele>
        <time>2014-10-25T08:29:53.000Z</time>
      </trkpt>
      <trkpt lat="49.91563" lon="0.96985">
        <ele>61</ele>
        <time>2014-10-25T08:29:54.000Z</time>
      </trkpt>
      <trkpt lat="49.91572" lon="0.96993">
        <ele>63</ele>
        <time>2014-10-25T08:29:58.000Z</time>
      </trkpt>
      <trkpt lat="49.91575" lon="0.96995">
        <ele>63</ele>
        <time>2014-10-25T08:29:59.000Z</time>
      </trkpt>
      <trkpt lat="49.91586" lon="0.97001">
        <ele>64</ele>
        <time>2014-10-25T08:30:02.000Z</time>
      </trkpt>
      <trkpt lat="49.9159" lon="0.97004">
        <ele>64</ele>
        <time>2014-10-25T08:30:03.000Z</time>
      </trkpt>
      <trkpt lat="49.91601" lon="0.97011">
        <ele>64</ele>
        <time>2014-10-25T08:30:06.000Z</time>
      </trkpt>
      <trkpt lat="49.91605" lon="0.97014">
        <ele>64</ele>
        <time>2014-10-25T08:30:07.000Z</time>
      </trkpt>
      <trkpt lat="49.91609" lon="0.97017">
        <ele>64</ele>
        <time>2014-10-25T08:30:08.000Z</time>
      </trkpt>
      <trkpt lat="49.91618" lon="0.97022">
        <ele>66</ele>
        <time>2014-10-25T08:30:11.000Z</time>
      </trkpt>
      <trkpt lat="49.9162" lon="0.97025">
        <ele>67</ele>
        <time>2014-10-25T08:30:12.000Z</time>
      </trkpt>
      <trkpt lat="49.91629" lon="0.97035">
        <ele>70</ele>
        <time>2014-10-25T08:30:16.000Z</time>
      </trkpt>
      <trkpt lat="49.91631" lon="0.97037">
        <ele>70</ele>
        <time>2014-10-25T08:30:17.000Z</time>
      </trkpt>
      <trkpt lat="49.91639" lon="0.97047">
        <ele>71</ele>
        <time>2014-10-25T08:30:22.000Z</time>
      </trkpt>
      <trkpt lat="49.91639" lon="0.9705">
        <ele>70</ele>
        <time>2014-10-25T08:30:23.000Z</time>
      </trkpt>
      <trkpt lat="49.91644" lon="0.97066">
        <ele>63</ele>
        <time>2014-10-25T08:30:29.000Z</time>
      </trkpt>
      <trkpt lat="49.91645" lon="0.97069">
        <ele>62</ele>
        <time>2014-10-25T08:30:30.000Z</time>
      </trkpt>
      <trkpt lat="49.91644" lon="0.97084">
        <ele>58</ele>
        <time>2014-10-25T08:30:35.000Z</time>
      </trkpt>
      <trkpt lat="49.91643" lon="0.97085">
        <ele>57</ele>
        <time>2014-10-25T08:30:36.000Z</time>
      </trkpt>
      <trkpt lat="49.91634" lon="0.97092">
        <ele>55</ele>
        <time>2014-10-25T08:30:44.000Z</time>
      </trkpt>
      <trkpt lat="49.91633" lon="0.97093">
        <ele>55</ele>
        <time>2014-10-25T08:30:45.000Z</time>
      </trkpt>
      <trkpt lat="49.91623" lon="0.97095">
        <ele>54</ele>
        <time>2014-10-25T08:30:52.000Z</time>
      </trkpt>
      <trkpt lat="49.91621" lon="0.97095">
        <ele>54</ele>
        <time>2014-10-25T08:30:53.000Z</time>
      </trkpt>
      <trkpt lat="49.91612" lon="0.97097">
        <ele>54</ele>
        <time>2014-10-25T08:30:58.000Z</time>
      </trkpt>
      <trkpt lat="49.9161" lon="0.97098">
        <ele>54</ele>
        <time>2014-10-25T08:30:59.000Z</time>
      </trkpt>
      <trkpt lat="49.91604" lon="0.97108">
        <ele>57</ele>
        <time>2014-10-25T08:31:14.000Z</time>
      </trkpt>
      <trkpt lat="49.91604" lon="0.9711">
        <ele>57</ele>
        <time>2014-10-25T08:31:15.000Z</time>
      </trkpt>
      <trkpt lat="49.91603" lon="0.97126">
        <ele>57</ele>
        <time>2014-10-25T08:31:20.000Z</time>
      </trkpt>
      <trkpt lat="49.91603" lon="0.9713">
        <ele>56</ele>
        <time>2014-10-25T08:31:21.000Z</time>
      </trkpt>
      <trkpt lat="49.91603" lon="0.97146">
        <ele>57</ele>
        <time>2014-10-25T08:31:25.000Z</time>
      </trkpt>
      <trkpt lat="49.91603" lon="0.97151">
        <ele>57</ele>
        <time>2014-10-25T08:31:26.000Z</time>
      </trkpt>
      <trkpt lat="49.91604" lon="0.97168">
        <ele>58</ele>
        <time>2014-10-25T08:31:30.000Z</time>
      </trkpt>
      <trkpt lat="49.91604" lon="0.97172">
        <ele>58</ele>
        <time>2014-10-25T08:31:31.000Z</time>
      </trkpt>
      <trkpt lat="49.91606" lon="0.97188">
        <ele>59</ele>
        <time>2014-10-25T08:31:35.000Z</time>
      </trkpt>
      <trkpt lat="49.91607" lon="0.97192">
        <ele>59</ele>
        <time>2014-10-25T08:31:36.000Z</time>
      </trkpt>
      <trkpt lat="49.91609" lon="0.97207">
        <ele>58</ele>
        <time>2014-10-25T08:31:40.000Z</time>
      </trkpt>
      <trkpt lat="49.9161" lon="0.97211">
        <ele>58</ele>
        <time>2014-10-25T08:31:41.000Z</time>
      </trkpt>
      <trkpt lat="49.91612" lon="0.97227">
        <ele>58</ele>
        <time>2014-10-25T08:31:45.000Z</time>
      </trkpt>
      <trkpt lat="49.91612" lon="0.9723">
        <ele>58</ele>
        <time>2014-10-25T08:31:46.000Z</time>
      </trkpt>
      <trkpt lat="49.91615" lon="0.97247">
        <ele>59</ele>
        <time>2014-10-25T08:31:51.000Z</time>
      </trkpt>
      <trkpt lat="49.91615" lon="0.97251">
        <ele>59</ele>
        <time>2014-10-25T08:31:52.000Z</time>
      </trkpt>
      <trkpt lat="49.91619" lon="0.97264">
        <ele>59</ele>
        <time>2014-10-25T08:31:57.000Z</time>
      </trkpt>
      <trkpt lat="49.91621" lon="0.97264">
        <ele>59</ele>
        <time>2014-10-25T08:31:58.000Z</time>
      </trkpt>
      <trkpt lat="49.91631" lon="0.97261">
        <ele>59</ele>
        <time>2014-10-25T08:32:01.000Z</time>
      </trkpt>
      <trkpt lat="49.91635" lon="0.97259">
        <ele>59</ele>
        <time>2014-10-25T08:32:02.000Z</time>
      </trkpt>
      <trkpt lat="49.91641" lon="0.97256">
        <ele>59</ele>
        <time>2014-10-25T08:32:03.000Z</time>
      </trkpt>
      <trkpt lat="49.91645" lon="0.97254">
        <ele>59</ele>
        <time>2014-10-25T08:32:04.000Z</time>
      </trkpt>
      <trkpt lat="49.9165" lon="0.97253">
        <ele>59</ele>
        <time>2014-10-25T08:32:05.000Z</time>
      </trkpt>
      <trkpt lat="49.9166" lon="0.97256">
        <ele>59</ele>
        <time>2014-10-25T08:32:08.000Z</time>
      </trkpt>
      <trkpt lat="49.91662" lon="0.97261">
        <ele>60</ele>
        <time>2014-10-25T08:32:09.000Z</time>
      </trkpt>
      <trkpt lat="49.91663" lon="0.97277">
        <ele>60</ele>
        <time>2014-10-25T08:32:12.000Z</time>
      </trkpt>
      <trkpt lat="49.91663" lon="0.97283">
        <ele>60</ele>
        <time>2014-10-25T08:32:13.000Z</time>
      </trkpt>
      <trkpt lat="49.91666" lon="0.97301">
        <ele>60</ele>
        <time>2014-10-25T08:32:16.000Z</time>
      </trkpt>
      <trkpt lat="49.91667" lon="0.97307">
        <ele>60</ele>
        <time>2014-10-25T08:32:17.000Z</time>
      </trkpt>
      <trkpt lat="49.91669" lon="0.97321">
        <ele>60</ele>
        <time>2014-10-25T08:32:19.000Z</time>
      </trkpt>
      <trkpt lat="49.91671" lon="0.97329">
        <ele>60</ele>
        <time>2014-10-25T08:32:20.000Z</time>
      </trkpt>
      <trkpt lat="49.91672" lon="0.97337">
        <ele>61</ele>
        <time>2014-10-25T08:32:21.000Z</time>
      </trkpt>
      <trkpt lat="49.91674" lon="0.97344">
        <ele>61</ele>
        <time>2014-10-25T08:32:22.000Z</time>
      </trkpt>
      <trkpt lat="49.91675" lon="0.97351">
        <ele>61</ele>
        <time>2014-10-25T08:32:23.000Z</time>
      </trkpt>
      <trkpt lat="49.91676" lon="0.97358">
        <ele>61</ele>
        <time>2014-10-25T08:32:24.000Z</time>
      </trkpt>
      <trkpt lat="49.91678" lon="0.97365">
        <ele>60</ele>
        <time>2014-10-25T08:32:25.000Z</time>
      </trkpt>
      <trkpt lat="49.91682" lon="0.97385">
        <ele>59</ele>
        <time>2014-10-25T08:32:28.000Z</time>
      </trkpt>
      <trkpt lat="49.91683" lon="0.97392">
        <ele>58</ele>
        <time>2014-10-25T08:32:29.000Z</time>
      </trkpt>
      <trkpt lat="49.91684" lon="0.974">
        <ele>57</ele>
        <time>2014-10-25T08:32:30.000Z</time>
      </trkpt>
      <trkpt lat="49.91684" lon="0.97408">
        <ele>56</ele>
        <time>2014-10-25T08:32:31.000Z</time>
      </trkpt>
      <trkpt lat="49.91685" lon="0.97415">
        <ele>55</ele>
        <time>2014-10-25T08:32:32.000Z</time>
      </trkpt>
      <trkpt lat="49.91684" lon="0.97433">
        <ele>53</ele>
        <time>2014-10-25T08:32:35.000Z</time>
      </trkpt>
      <trkpt lat="49.91684" lon="0.97439">
        <ele>52</ele>
        <time>2014-10-25T08:32:36.000Z</time>
      </trkpt>
      <trkpt lat="49.91679" lon="0.97452">
        <ele>51</ele>
        <time>2014-10-25T08:32:40.000Z</time>
      </trkpt>
      <trkpt lat="49.91677" lon="0.97454">
        <ele>51</ele>
        <time>2014-10-25T08:32:41.000Z</time>
      </trkpt>
      <trkpt lat="49.91665" lon="0.97459">
        <ele>51</ele>
        <time>2014-10-25T08:32:45.000Z</time>
      </trkpt>
      <trkpt lat="49.91663" lon="0.9746">
        <ele>51</ele>
        <time>2014-10-25T08:32:46.000Z</time>
      </trkpt>
      <trkpt lat="49.91651" lon="0.97466">
        <ele>51</ele>
        <time>2014-10-25T08:32:50.000Z</time>
      </trkpt>
      <trkpt lat="49.91647" lon="0.97467">
        <ele>51</ele>
        <time>2014-10-25T08:32:51.000Z</time>
      </trkpt>
      <trkpt lat="49.91635" lon="0.97469">
        <ele>53</ele>
        <time>2014-10-25T08:32:54.000Z</time>
      </trkpt>
      <trkpt lat="49.91633" lon="0.97471">
        <ele>53</ele>
        <time>2014-10-25T08:32:55.000Z</time>
      </trkpt>
      <trkpt lat="49.91623" lon="0.97475">
        <ele>55</ele>
        <time>2014-10-25T08:32:58.000Z</time>
      </trkpt>
      <trkpt lat="49.9162" lon="0.97476">
        <ele>56</ele>
        <time>2014-10-25T08:32:59.000Z</time>
      </trkpt>
      <trkpt lat="49.9161" lon="0.97478">
        <ele>57</ele>
        <time>2014-10-25T08:33:02.000Z</time>
      </trkpt>
      <trkpt lat="49.91606" lon="0.97479">
        <ele>57</ele>
        <time>2014-10-25T08:33:03.000Z</time>
      </trkpt>
      <trkpt lat="49.91597" lon="0.97482">
        <ele>58</ele>
        <time>2014-10-25T08:33:06.000Z</time>
      </trkpt>
      <trkpt lat="49.91595" lon="0.97483">
        <ele>58</ele>
        <time>2014-10-25T08:33:07.000Z</time>
      </trkpt>
      <trkpt lat="49.91586" lon="0.97487">
        <ele>59</ele>
        <time>2014-10-25T08:33:10.000Z</time>
      </trkpt>
      <trkpt lat="49.91583" lon="0.97489">
        <ele>59</ele>
        <time>2014-10-25T08:33:11.000Z</time>
      </trkpt>
      <trkpt lat="49.91571" lon="0.97495">
        <ele>61</ele>
        <time>2014-10-25T08:33:14.000Z</time>
      </trkpt>
      <trkpt lat="49.91568" lon="0.97498">
        <ele>61</ele>
        <time>2014-10-25T08:33:15.000Z</time>
      </trkpt>
      <trkpt lat="49.91555" lon="0.97503">
        <ele>63</ele>
        <time>2014-10-25T08:33:18.000Z</time>
      </trkpt>
      <trkpt lat="49.91551" lon="0.97504">
        <ele>63</ele>
        <time>2014-10-25T08:33:19.000Z</time>
      </trkpt>
      <trkpt lat="49.91538" lon="0.97506">
        <ele>64</ele>
        <time>2014-10-25T08:33:22.000Z</time>
      </trkpt>
      <trkpt lat="49.91535" lon="0.97507">
        <ele>65</ele>
        <time>2014-10-25T08:33:23.000Z</time>
      </trkpt>
      <trkpt lat="49.91523" lon="0.9751">
        <ele>68</ele>
        <time>2014-10-25T08:33:27.000Z</time>
      </trkpt>
      <trkpt lat="49.9152" lon="0.97511">
        <ele>69</ele>
        <time>2014-10-25T08:33:28.000Z</time>
      </trkpt>
      <trkpt lat="49.9151" lon="0.97516">
        <ele>73</ele>
        <time>2014-10-25T08:33:32.000Z</time>
      </trkpt>
      <trkpt lat="49.91509" lon="0.97518">
        <ele>74</ele>
        <time>2014-10-25T08:33:33.000Z</time>
      </trkpt>
      <trkpt lat="49.915" lon="0.97526">
        <ele>77</ele>
        <time>2014-10-25T08:33:38.000Z</time>
      </trkpt>
      <trkpt lat="49.91499" lon="0.97526">
        <ele>76</ele>
        <time>2014-10-25T08:33:39.000Z</time>
      </trkpt>
      <trkpt lat="49.9149" lon="0.97537">
        <ele>64</ele>
        <time>2014-10-25T08:33:58.000Z</time>
      </trkpt>
      <trkpt lat="49.9149" lon="0.97539">
        <ele>64</ele>
        <time>2014-10-25T08:33:59.000Z</time>
      </trkpt>
      <trkpt lat="49.91485" lon="0.97553">
        <ele>67</ele>
        <time>2014-10-25T08:34:05.000Z</time>
      </trkpt>
      <trkpt lat="49.91485" lon="0.97556">
        <ele>68</ele>
        <time>2014-10-25T08:34:06.000Z</time>
      </trkpt>
      <trkpt lat="49.91478" lon="0.97566">
        <ele>75</ele>
        <time>2014-10-25T08:34:11.000Z</time>
      </trkpt>
      <trkpt lat="49.91476" lon="0.97568">
        <ele>77</ele>
        <time>2014-10-25T08:34:12.000Z</time>
      </trkpt>
      <trkpt lat="49.91471" lon="0.97581">
        <ele>83</ele>
        <time>2014-10-25T08:34:18.000Z</time>
      </trkpt>
      <trkpt lat="49.91472" lon="0.97584">
        <ele>84</ele>
        <time>2014-10-25T08:34:19.000Z</time>
      </trkpt>
      <trkpt lat="49.91471" lon="0.97599">
        <ele>80</ele>
        <time>2014-10-25T08:34:25.000Z</time>
      </trkpt>
      <trkpt lat="49.9147" lon="0.97601">
        <ele>78</ele>
        <time>2014-10-25T08:34:26.000Z</time>
      </trkpt>
      <trkpt lat="49.91467" lon="0.97615">
        <ele>74</ele>
        <time>2014-10-25T08:34:33.000Z</time>
      </trkpt>
      <trkpt lat="49.91466" lon="0.97617">
        <ele>74</ele>
        <time>2014-10-25T08:34:34.000Z</time>
      </trkpt>
      <trkpt lat="49.91461" lon="0.97628">
        <ele>80</ele>
        <time>2014-10-25T08:34:46.000Z</time>
      </trkpt>
      <trkpt lat="49.91451" lon="0.97636">
        <ele>89</ele>
        <time>2014-10-25T08:34:59.000Z</time>
      </trkpt>
      <trkpt lat="49.91447" lon="0.97643">
        <ele>89</ele>
        <time>2014-10-25T08:35:01.000Z</time>
      </trkpt>
      <trkpt lat="49.9144" lon="0.97653">
        <ele>87</ele>
        <time>2014-10-25T08:35:08.000Z</time>
      </trkpt>
      <trkpt lat="49.91439" lon="0.97655">
        <ele>87</ele>
        <time>2014-10-25T08:35:09.000Z</time>
      </trkpt>
      <trkpt lat="49.91439" lon="0.9767">
        <ele>83</ele>
        <time>2014-10-25T08:35:21.000Z</time>
      </trkpt>
      <trkpt lat="49.9144" lon="0.97672">
        <ele>83</ele>
        <time>2014-10-25T08:35:22.000Z</time>
      </trkpt>
      <trkpt lat="49.91438" lon="0.97685">
        <ele>83</ele>
        <time>2014-10-25T08:35:29.000Z</time>
      </trkpt>
      <trkpt lat="49.91438" lon="0.97687">
        <ele>83</ele>
        <time>2014-10-25T08:35:30.000Z</time>
      </trkpt>
      <trkpt lat="49.91434" lon="0.977">
        <ele>81</ele>
        <time>2014-10-25T08:35:39.000Z</time>
      </trkpt>
      <trkpt lat="49.91434" lon="0.97701">
        <ele>81</ele>
        <time>2014-10-25T08:35:40.000Z</time>
      </trkpt>
      <trkpt lat="49.91436" lon="0.97716">
        <ele>81</ele>
        <time>2014-10-25T08:36:05.000Z</time>
      </trkpt>
      <trkpt lat="49.91438" lon="0.97717">
        <ele>82</ele>
        <time>2014-10-25T08:36:06.000Z</time>
      </trkpt>
      <trkpt lat="49.91441" lon="0.97731">
        <ele>89</ele>
        <time>2014-10-25T08:36:16.000Z</time>
      </trkpt>
      <trkpt lat="49.91441" lon="0.97732">
        <ele>89</ele>
        <time>2014-10-25T08:36:17.000Z</time>
      </trkpt>
      <trkpt lat="49.91437" lon="0.97745">
        <ele>90</ele>
        <time>2014-10-25T08:36:32.000Z</time>
      </trkpt>
      <trkpt lat="49.91437" lon="0.97747">
        <ele>90</ele>
        <time>2014-10-25T08:36:33.000Z</time>
      </trkpt>
      <trkpt lat="49.91432" lon="0.97759">
        <ele>89</ele>
        <time>2014-10-25T08:36:41.000Z</time>
      </trkpt>
      <trkpt lat="49.91431" lon="0.9776">
        <ele>89</ele>
        <time>2014-10-25T08:36:42.000Z</time>
      </trkpt>
      <trkpt lat="49.91424" lon="0.97771">
        <ele>91</ele>
        <time>2014-10-25T08:36:49.000Z</time>
      </trkpt>
      <trkpt lat="49.91422" lon="0.97772">
        <ele>91</ele>
        <time>2014-10-25T08:36:50.000Z</time>
      </trkpt>
      <trkpt lat="49.91415" lon="0.97783">
        <ele>93</ele>
        <time>2014-10-25T08:36:57.000Z</time>
      </trkpt>
      <trkpt lat="49.91414" lon="0.97785">
        <ele>94</ele>
        <time>2014-10-25T08:36:58.000Z</time>
      </trkpt>
      <trkpt lat="49.91408" lon="0.97796">
        <ele>95</ele>
        <time>2014-10-25T08:37:04.000Z</time>
      </trkpt>
      <trkpt lat="49.91407" lon="0.97799">
        <ele>95</ele>
        <time>2014-10-25T08:37:05.000Z</time>
      </trkpt>
      <trkpt lat="49.914" lon="0.97809">
        <ele>98</ele>
        <time>2014-10-25T08:37:11.000Z</time>
      </trkpt>
      <trkpt lat="49.91399" lon="0.97811">
        <ele>99</ele>
        <time>2014-10-25T08:37:12.000Z</time>
      </trkpt>
      <trkpt lat="49.91388" lon="0.97814">
        <ele>98</ele>
        <time>2014-10-25T08:37:17.000Z</time>
      </trkpt>
      <trkpt lat="49.91385" lon="0.97815">
        <ele>98</ele>
        <time>2014-10-25T08:37:18.000Z</time>
      </trkpt>
      <trkpt lat="49.91374" lon="0.97817">
        <ele>96</ele>
        <time>2014-10-25T08:37:22.000Z</time>
      </trkpt>
      <trkpt lat="49.91372" lon="0.97818">
        <ele>95</ele>
        <time>2014-10-25T08:37:23.000Z</time>
      </trkpt>
      <trkpt lat="49.91361" lon="0.9782">
        <ele>93</ele>
        <time>2014-10-25T08:37:27.000Z</time>
      </trkpt>
      <trkpt lat="49.91358" lon="0.97821">
        <ele>93</ele>
        <time>2014-10-25T08:37:28.000Z</time>
      </trkpt>
      <trkpt lat="49.91348" lon="0.97823">
        <ele>92</ele>
        <time>2014-10-25T08:37:33.000Z</time>
      </trkpt>
      <trkpt lat="49.91346" lon="0.97823">
        <ele>92</ele>
        <time>2014-10-25T08:37:34.000Z</time>
      </trkpt>
      <trkpt lat="49.91337" lon="0.97826">
        <ele>92</ele>
        <time>2014-10-25T08:37:44.000Z</time>
      </trkpt>
      <trkpt lat="49.91336" lon="0.97826">
        <ele>92</ele>
        <time>2014-10-25T08:37:45.000Z</time>
      </trkpt>
      <trkpt lat="49.91327" lon="0.97829">
        <ele>91</ele>
        <time>2014-10-25T08:37:56.000Z</time>
      </trkpt>
      <trkpt lat="49.91326" lon="0.97829">
        <ele>91</ele>
        <time>2014-10-25T08:37:57.000Z</time>
      </trkpt>
      <trkpt lat="49.91325" lon="0.97846">
        <ele>90</ele>
        <time>2014-10-25T08:38:04.000Z</time>
      </trkpt>
      <trkpt lat="49.91325" lon="0.9785">
        <ele>90</ele>
        <time>2014-10-25T08:38:05.000Z</time>
      </trkpt>
      <trkpt lat="49.91325" lon="0.97868">
        <ele>88</ele>
        <time>2014-10-25T08:38:09.000Z</time>
      </trkpt>
      <trkpt lat="49.91326" lon="0.97872">
        <ele>88</ele>
        <time>2014-10-25T08:38:10.000Z</time>
      </trkpt>
      <trkpt lat="49.91326" lon="0.97887">
        <ele>87</ele>
        <time>2014-10-25T08:38:13.000Z</time>
      </trkpt>
      <trkpt lat="49.91325" lon="0.97892">
        <ele>87</ele>
        <time>2014-10-25T08:38:14.000Z</time>
      </trkpt>
      <trkpt lat="49.91324" lon="0.97908">
        <ele>86</ele>
        <time>2014-10-25T08:38:17.000Z</time>
      </trkpt>
      <trkpt lat="49.91324" lon="0.97913">
        <ele>86</ele>
        <time>2014-10-25T08:38:18.000Z</time>
      </trkpt>
      <trkpt lat="49.91322" lon="0.97929">
        <ele>85</ele>
        <time>2014-10-25T08:38:21.000Z</time>
      </trkpt>
      <trkpt lat="49.91321" lon="0.97933">
        <ele>85</ele>
        <time>2014-10-25T08:38:22.000Z</time>
      </trkpt>
      <trkpt lat="49.9132" lon="0.97949">
        <ele>85</ele>
        <time>2014-10-25T08:38:25.000Z</time>
      </trkpt>
      <trkpt lat="49.9132" lon="0.97955">
        <ele>85</ele>
        <time>2014-10-25T08:38:26.000Z</time>
      </trkpt>
      <trkpt lat="49.91321" lon="0.97972">
        <ele>84</ele>
        <time>2014-10-25T08:38:29.000Z</time>
      </trkpt>
      <trkpt lat="49.91321" lon="0.97978">
        <ele>84</ele>
        <time>2014-10-25T08:38:30.000Z</time>
      </trkpt>
      <trkpt lat="49.91324" lon="0.97997">
        <ele>83</ele>
        <time>2014-10-25T08:38:33.000Z</time>
      </trkpt>
      <trkpt lat="49.91325" lon="0.98003">
        <ele>83</ele>
        <time>2014-10-25T08:38:34.000Z</time>
      </trkpt>
      <trkpt lat="49.91328" lon="0.98022">
        <ele>81</ele>
        <time>2014-10-25T08:38:37.000Z</time>
      </trkpt>
      <trkpt lat="49.91329" lon="0.98029">
        <ele>81</ele>
        <time>2014-10-25T08:38:38.000Z</time>
      </trkpt>
      <trkpt lat="49.9133" lon="0.9805">
        <ele>80</ele>
        <time>2014-10-25T08:38:41.000Z</time>
      </trkpt>
      <trkpt lat="49.9133" lon="0.98057">
        <ele>80</ele>
        <time>2014-10-25T08:38:42.000Z</time>
      </trkpt>
      <trkpt lat="49.9133" lon="0.98064">
        <ele>80</ele>
        <time>2014-10-25T08:38:43.000Z</time>
      </trkpt>
      <trkpt lat="49.9133" lon="0.98071">
        <ele>80</ele>
        <time>2014-10-25T08:38:44.000Z</time>
      </trkpt>
      <trkpt lat="49.9133" lon="0.98079">
        <ele>80</ele>
        <time>2014-10-25T08:38:45.000Z</time>
      </trkpt>
      <trkpt lat="49.91329" lon="0.98086">
        <ele>80</ele>
        <time>2014-10-25T08:38:46.000Z</time>
      </trkpt>
      <trkpt lat="49.91329" lon="0.98093">
        <ele>80</ele>
        <time>2014-10-25T08:38:47.000Z</time>
      </trkpt>
      <trkpt lat="49.91331" lon="0.98109">
        <ele>79</ele>
        <time>2014-10-25T08:38:50.000Z</time>
      </trkpt>
      <trkpt lat="49.91332" lon="0.98113">
        <ele>79</ele>
        <time>2014-10-25T08:38:51.000Z</time>
      </trkpt>
      <trkpt lat="49.91339" lon="0.98122">
        <ele>79</ele>
        <time>2014-10-25T08:38:54.000Z</time>
      </trkpt>
      <trkpt lat="49.91342" lon="0.98124">
        <ele>80</ele>
        <time>2014-10-25T08:38:55.000Z</time>
      </trkpt>
      <trkpt lat="49.91354" lon="0.98128">
        <ele>81</ele>
        <time>2014-10-25T08:38:58.000Z</time>
      </trkpt>
      <trkpt lat="49.91358" lon="0.9813">
        <ele>81</ele>
        <time>2014-10-25T08:38:59.000Z</time>
      </trkpt>
      <trkpt lat="49.91369" lon="0.98134">
        <ele>83</ele>
        <time>2014-10-25T08:39:02.000Z</time>
      </trkpt>
      <trkpt lat="49.91373" lon="0.98135">
        <ele>83</ele>
        <time>2014-10-25T08:39:03.000Z</time>
      </trkpt>
      <trkpt lat="49.91384" lon="0.98138">
        <ele>84</ele>
        <time>2014-10-25T08:39:06.000Z</time>
      </trkpt>
      <trkpt lat="49.9139" lon="0.98139">
        <ele>85</ele>
        <time>2014-10-25T08:39:07.000Z</time>
      </trkpt>
      <trkpt lat="49.91394" lon="0.98139">
        <ele>85</ele>
        <time>2014-10-25T08:39:08.000Z</time>
      </trkpt>
      <trkpt lat="49.91399" lon="0.98139">
        <ele>85</ele>
        <time>2014-10-25T08:39:09.000Z</time>
      </trkpt>
      <trkpt lat="49.91404" lon="0.98139">
        <ele>86</ele>
        <time>2014-10-25T08:39:10.000Z</time>
      </trkpt>
      <trkpt lat="49.91409" lon="0.98139">
        <ele>86</ele>
        <time>2014-10-25T08:39:11.000Z</time>
      </trkpt>
      <trkpt lat="49.91422" lon="0.9814">
        <ele>87</ele>
        <time>2014-10-25T08:39:14.000Z</time>
      </trkpt>
      <trkpt lat="49.91427" lon="0.98141">
        <ele>87</ele>
        <time>2014-10-25T08:39:15.000Z</time>
      </trkpt>
      <trkpt lat="49.91431" lon="0.98141">
        <ele>87</ele>
        <time>2014-10-25T08:39:16.000Z</time>
      </trkpt>
      <trkpt lat="49.91436" lon="0.98141">
        <ele>88</ele>
        <time>2014-10-25T08:39:17.000Z</time>
      </trkpt>
      <trkpt lat="49.91441" lon="0.98141">
        <ele>88</ele>
        <time>2014-10-25T08:39:18.000Z</time>
      </trkpt>
      <trkpt lat="49.91446" lon="0.98141">
        <ele>88</ele>
        <time>2014-10-25T08:39:19.000Z</time>
      </trkpt>
      <trkpt lat="49.91457" lon="0.98142">
        <ele>89</ele>
        <time>2014-10-25T08:39:22.000Z</time>
      </trkpt>
      <trkpt lat="49.91461" lon="0.98142">
        <ele>89</ele>
        <time>2014-10-25T08:39:23.000Z</time>
      </trkpt>
      <trkpt lat="49.91474" lon="0.98142">
        <ele>89</ele>
        <time>2014-10-25T08:39:26.000Z</time>
      </trkpt>
      <trkpt lat="49.91478" lon="0.98142">
        <ele>89</ele>
        <time>2014-10-25T08:39:27.000Z</time>
      </trkpt>
      <trkpt lat="49.9149" lon="0.98143">
        <ele>88</ele>
        <time>2014-10-25T08:39:30.000Z</time>
      </trkpt>
      <trkpt lat="49.91494" lon="0.98144">
        <ele>88</ele>
        <time>2014-10-25T08:39:31.000Z</time>
      </trkpt>
      <trkpt lat="49.91505" lon="0.98151">
        <ele>88</ele>
        <time>2014-10-25T08:39:34.000Z</time>
      </trkpt>
      <trkpt lat="49.91509" lon="0.98154">
        <ele>88</ele>
        <time>2014-10-25T08:39:35.000Z</time>
      </trkpt>
      <trkpt lat="49.91513" lon="0.98158">
        <ele>87</ele>
        <time>2014-10-25T08:39:36.000Z</time>
      </trkpt>
      <trkpt lat="49.91517" lon="0.98161">
        <ele>87</ele>
        <time>2014-10-25T08:39:37.000Z</time>
      </trkpt>
      <trkpt lat="49.91522" lon="0.98165">
        <ele>87</ele>
        <time>2014-10-25T08:39:38.000Z</time>
      </trkpt>
      <trkpt lat="49.91526" lon="0.98169">
        <ele>87</ele>
        <time>2014-10-25T08:39:39.000Z</time>
      </trkpt>
      <trkpt lat="49.91532" lon="0.98173">
        <ele>87</ele>
        <time>2014-10-25T08:39:40.000Z</time>
      </trkpt>
      <trkpt lat="49.91537" lon="0.98178">
        <ele>87</ele>
        <time>2014-10-25T08:39:41.000Z</time>
      </trkpt>
      <trkpt lat="49.91542" lon="0.98181">
        <ele>87</ele>
        <time>2014-10-25T08:39:42.000Z</time>
      </trkpt>
      <trkpt lat="49.91547" lon="0.98185">
        <ele>87</ele>
        <time>2014-10-25T08:39:43.000Z</time>
      </trkpt>
      <trkpt lat="49.91551" lon="0.98187">
        <ele>87</ele>
        <time>2014-10-25T08:39:44.000Z</time>
      </trkpt>
      <trkpt lat="49.91555" lon="0.9819">
        <ele>87</ele>
        <time>2014-10-25T08:39:45.000Z</time>
      </trkpt>
      <trkpt lat="49.91559" lon="0.98192">
        <ele>87</ele>
        <time>2014-10-25T08:39:46.000Z</time>
      </trkpt>
      <trkpt lat="49.9157" lon="0.98196">
        <ele>87</ele>
        <time>2014-10-25T08:39:49.000Z</time>
      </trkpt>
      <trkpt lat="49.91573" lon="0.98199">
        <ele>86</ele>
        <time>2014-10-25T08:39:50.000Z</time>
      </trkpt>
      <trkpt lat="49.91581" lon="0.9821">
        <ele>86</ele>
        <time>2014-10-25T08:39:53.000Z</time>
      </trkpt>
      <trkpt lat="49.91583" lon="0.98215">
        <ele>86</ele>
        <time>2014-10-25T08:39:54.000Z</time>
      </trkpt>
      <trkpt lat="49.91585" lon="0.98222">
        <ele>86</ele>
        <time>2014-10-25T08:39:55.000Z</time>
      </trkpt>
      <trkpt lat="49.91587" lon="0.98229">
        <ele>85</ele>
        <time>2014-10-25T08:39:56.000Z</time>
      </trkpt>
      <trkpt lat="49.91588" lon="0.98236">
        <ele>85</ele>
        <time>2014-10-25T08:39:57.000Z</time>
      </trkpt>
      <trkpt lat="49.91589" lon="0.98244">
        <ele>84</ele>
        <time>2014-10-25T08:39:58.000Z</time>
      </trkpt>
      <trkpt lat="49.9159" lon="0.98252">
        <ele>83</ele>
        <time>2014-10-25T08:39:59.000Z</time>
      </trkpt>
      <trkpt lat="49.91591" lon="0.98261">
        <ele>82</ele>
        <time>2014-10-25T08:40:00.000Z</time>
      </trkpt>
      <trkpt lat="49.91592" lon="0.9827">
        <ele>81</ele>
        <time>2014-10-25T08:40:01.000Z</time>
      </trkpt>
      <trkpt lat="49.91593" lon="0.98278">
        <ele>79</ele>
        <time>2014-10-25T08:40:02.000Z</time>
      </trkpt>
      <trkpt lat="49.91594" lon="0.98287">
        <ele>78</ele>
        <time>2014-10-25T08:40:03.000Z</time>
      </trkpt>
      <trkpt lat="49.91596" lon="0.98295">
        <ele>77</ele>
        <time>2014-10-25T08:40:04.000Z</time>
      </trkpt>
      <trkpt lat="49.91597" lon="0.98303">
        <ele>75</ele>
        <time>2014-10-25T08:40:05.000Z</time>
      </trkpt>
      <trkpt lat="49.91598" lon="0.98311">
        <ele>74</ele>
        <time>2014-10-25T08:40:06.000Z</time>
      </trkpt>
      <trkpt lat="49.91599" lon="0.98318">
        <ele>73</ele>
        <time>2014-10-25T08:40:07.000Z</time>
      </trkpt>
      <trkpt lat="49.916" lon="0.98325">
        <ele>71</ele>
        <time>2014-10-25T08:40:08.000Z</time>
      </trkpt>
      <trkpt lat="49.91601" lon="0.98333">
        <ele>71</ele>
        <time>2014-10-25T08:40:09.000Z</time>
      </trkpt>
      <trkpt lat="49.91603" lon="0.98339">
        <ele>70</ele>
        <time>2014-10-25T08:40:10.000Z</time>
      </trkpt>
      <trkpt lat="49.91606" lon="0.98345">
        <ele>69</ele>
        <time>2014-10-25T08:40:11.000Z</time>
      </trkpt>
      <trkpt lat="49.9161" lon="0.98363">
        <ele>68</ele>
        <time>2014-10-25T08:40:14.000Z</time>
      </trkpt>
      <trkpt lat="49.91612" lon="0.9837">
        <ele>67</ele>
        <time>2014-10-25T08:40:15.000Z</time>
      </trkpt>
      <trkpt lat="49.91612" lon="0.98377">
        <ele>65</ele>
        <time>2014-10-25T08:40:16.000Z</time>
      </trkpt>
      <trkpt lat="49.91616" lon="0.98396">
        <ele>62</ele>
        <time>2014-10-25T08:40:19.000Z</time>
      </trkpt>
      <trkpt lat="49.91617" lon="0.98402">
        <ele>61</ele>
        <time>2014-10-25T08:40:20.000Z</time>
      </trkpt>
      <trkpt lat="49.91619" lon="0.98417">
        <ele>59</ele>
        <time>2014-10-25T08:40:23.000Z</time>
      </trkpt>
      <trkpt lat="49.91621" lon="0.98422">
        <ele>59</ele>
        <time>2014-10-25T08:40:24.000Z</time>
      </trkpt>
      <trkpt lat="49.91623" lon="0.98439">
        <ele>58</ele>
        <time>2014-10-25T08:40:27.000Z</time>
      </trkpt>
      <trkpt lat="49.91624" lon="0.98445">
        <ele>57</ele>
        <time>2014-10-25T08:40:28.000Z</time>
      </trkpt>
      <trkpt lat="49.91627" lon="0.98465">
        <ele>55</ele>
        <time>2014-10-25T08:40:31.000Z</time>
      </trkpt>
      <trkpt lat="49.91628" lon="0.9847">
        <ele>55</ele>
        <time>2014-10-25T08:40:32.000Z</time>
      </trkpt>
      <trkpt lat="49.91633" lon="0.98488">
        <ele>52</ele>
        <time>2014-10-25T08:40:35.000Z</time>
      </trkpt>
      <trkpt lat="49.91635" lon="0.98494">
        <ele>51</ele>
        <time>2014-10-25T08:40:36.000Z</time>
      </trkpt>
      <trkpt lat="49.91637" lon="0.985">
        <ele>50</ele>
        <time>2014-10-25T08:40:37.000Z</time>
      </trkpt>
      <trkpt lat="49.91639" lon="0.98506">
        <ele>49</ele>
        <time>2014-10-25T08:40:38.000Z</time>
      </trkpt>
      <trkpt lat="49.91642" lon="0.98512">
        <ele>48</ele>
        <time>2014-10-25T08:40:39.000Z</time>
      </trkpt>
      <trkpt lat="49.91644" lon="0.98518">
        <ele>47</ele>
        <time>2014-10-25T08:40:40.000Z</time>
      </trkpt>
      <trkpt lat="49.9165" lon="0.98533">
        <ele>45</ele>
        <time>2014-10-25T08:40:43.000Z</time>
      </trkpt>
      <trkpt lat="49.91652" lon="0.98536">
        <ele>44</ele>
        <time>2014-10-25T08:40:44.000Z</time>
      </trkpt>
      <trkpt lat="49.91657" lon="0.98548">
        <ele>42</ele>
        <time>2014-10-25T08:40:47.000Z</time>
      </trkpt>
      <trkpt lat="49.91659" lon="0.98553">
        <ele>41</ele>
        <time>2014-10-25T08:40:48.000Z</time>
      </trkpt>
      <trkpt lat="49.91665" lon="0.98565">
        <ele>39</ele>
        <time>2014-10-25T08:40:51.000Z</time>
      </trkpt>
      <trkpt lat="49.91667" lon="0.98569">
        <ele>38</ele>
        <time>2014-10-25T08:40:52.000Z</time>
      </trkpt>
      <trkpt lat="49.91673" lon="0.9858">
        <ele>36</ele>
        <time>2014-10-25T08:40:55.000Z</time>
      </trkpt>
      <trkpt lat="49.91674" lon="0.98583">
        <ele>36</ele>
        <time>2014-10-25T08:40:56.000Z</time>
      </trkpt>
      <trkpt lat="49.91681" lon="0.98595">
        <ele>34</ele>
        <time>2014-10-25T08:41:00.000Z</time>
      </trkpt>
      <trkpt lat="49.91682" lon="0.98598">
        <ele>34</ele>
        <time>2014-10-25T08:41:01.000Z</time>
      </trkpt>
      <trkpt lat="49.91688" lon="0.98611">
        <ele>32</ele>
        <time>2014-10-25T08:41:05.000Z</time>
      </trkpt>
      <trkpt lat="49.9169" lon="0.98615">
        <ele>32</ele>
        <time>2014-10-25T08:41:06.000Z</time>
      </trkpt>
      <trkpt lat="49.91693" lon="0.98631">
        <ele>30</ele>
        <time>2014-10-25T08:41:11.000Z</time>
      </trkpt>
      <trkpt lat="49.91693" lon="0.98636">
        <ele>30</ele>
        <time>2014-10-25T08:41:12.000Z</time>
      </trkpt>
      <trkpt lat="49.91686" lon="0.98648">
        <ele>29</ele>
        <time>2014-10-25T08:41:16.000Z</time>
      </trkpt>
      <trkpt lat="49.91683" lon="0.98652">
        <ele>29</ele>
        <time>2014-10-25T08:41:17.000Z</time>
      </trkpt>
      <trkpt lat="49.91674" lon="0.98657">
        <ele>30</ele>
        <time>2014-10-25T08:41:20.000Z</time>
      </trkpt>
      <trkpt lat="49.91671" lon="0.98657">
        <ele>30</ele>
        <time>2014-10-25T08:41:21.000Z</time>
      </trkpt>
      <trkpt lat="49.91661" lon="0.98653">
        <ele>32</ele>
        <time>2014-10-25T08:41:25.000Z</time>
      </trkpt>
      <trkpt lat="49.91657" lon="0.98652">
        <ele>32</ele>
        <time>2014-10-25T08:41:26.000Z</time>
      </trkpt>
      <trkpt lat="49.91647" lon="0.98648">
        <ele>34</ele>
        <time>2014-10-25T08:41:29.000Z</time>
      </trkpt>
      <trkpt lat="49.91642" lon="0.98647">
        <ele>34</ele>
        <time>2014-10-25T08:41:30.000Z</time>
      </trkpt>
      <trkpt lat="49.91633" lon="0.98643">
        <ele>36</ele>
        <time>2014-10-25T08:41:33.000Z</time>
      </trkpt>
      <trkpt lat="49.9163" lon="0.98641">
        <ele>37</ele>
        <time>2014-10-25T08:41:34.000Z</time>
      </trkpt>
      <trkpt lat="49.9162" lon="0.98638">
        <ele>38</ele>
        <time>2014-10-25T08:41:37.000Z</time>
      </trkpt>
      <trkpt lat="49.91617" lon="0.98636">
        <ele>39</ele>
        <time>2014-10-25T08:41:38.000Z</time>
      </trkpt>
      <trkpt lat="49.91608" lon="0.9863">
        <ele>40</ele>
        <time>2014-10-25T08:41:41.000Z</time>
      </trkpt>
      <trkpt lat="49.91605" lon="0.98626">
        <ele>41</ele>
        <time>2014-10-25T08:41:42.000Z</time>
      </trkpt>
      <trkpt lat="49.91596" lon="0.98617">
        <ele>42</ele>
        <time>2014-10-25T08:41:45.000Z</time>
      </trkpt>
      <trkpt lat="49.91593" lon="0.98614">
        <ele>43</ele>
        <time>2014-10-25T08:41:46.000Z</time>
      </trkpt>
      <trkpt lat="49.91583" lon="0.98607">
        <ele>44</ele>
        <time>2014-10-25T08:41:49.000Z</time>
      </trkpt>
      <trkpt lat="49.9158" lon="0.98604">
        <ele>44</ele>
        <time>2014-10-25T08:41:50.000Z</time>
      </trkpt>
      <trkpt lat="49.91571" lon="0.98597">
        <ele>46</ele>
        <time>2014-10-25T08:41:53.000Z</time>
      </trkpt>
      <trkpt lat="49.91568" lon="0.98595">
        <ele>46</ele>
        <time>2014-10-25T08:41:54.000Z</time>
      </trkpt>
      <trkpt lat="49.91559" lon="0.98588">
        <ele>47</ele>
        <time>2014-10-25T08:41:58.000Z</time>
      </trkpt>
      <trkpt lat="49.91556" lon="0.98587">
        <ele>48</ele>
        <time>2014-10-25T08:41:59.000Z</time>
      </trkpt>
      <trkpt lat="49.91546" lon="0.98581">
        <ele>48</ele>
        <time>2014-10-25T08:42:03.000Z</time>
      </trkpt>
      <trkpt lat="49.91543" lon="0.98579">
        <ele>48</ele>
        <time>2014-10-25T08:42:04.000Z</time>
      </trkpt>
      <trkpt lat="49.91532" lon="0.98572">
        <ele>49</ele>
        <time>2014-10-25T08:42:08.000Z</time>
      </trkpt>
      <trkpt lat="49.9153" lon="0.9857">
        <ele>49</ele>
        <time>2014-10-25T08:42:09.000Z</time>
      </trkpt>
      <trkpt lat="49.91519" lon="0.98564">
        <ele>50</ele>
        <time>2014-10-25T08:42:13.000Z</time>
      </trkpt>
      <trkpt lat="49.91518" lon="0.98563">
        <ele>50</ele>
        <time>2014-10-25T08:42:14.000Z</time>
      </trkpt>
      <trkpt lat="49.91509" lon="0.98561">
        <ele>52</ele>
        <time>2014-10-25T08:42:22.000Z</time>
      </trkpt>
      <trkpt lat="49.91509" lon="0.98563">
        <ele>52</ele>
        <time>2014-10-25T08:42:23.000Z</time>
      </trkpt>
      <trkpt lat="49.9151" lon="0.98577">
        <ele>55</ele>
        <time>2014-10-25T08:42:33.000Z</time>
      </trkpt>
      <trkpt lat="49.91509" lon="0.98579">
        <ele>55</ele>
        <time>2014-10-25T08:42:34.000Z</time>
      </trkpt>
      <trkpt lat="49.9151" lon="0.98597">
        <ele>65</ele>
        <time>2014-10-25T08:42:53.000Z</time>
      </trkpt>
      <trkpt lat="49.9151" lon="0.98598">
        <ele>65</ele>
        <time>2014-10-25T08:42:54.000Z</time>
      </trkpt>
      <trkpt lat="49.91513" lon="0.98612">
        <ele>66</ele>
        <time>2014-10-25T08:43:00.000Z</time>
      </trkpt>
      <trkpt lat="49.91513" lon="0.98615">
        <ele>66</ele>
        <time>2014-10-25T08:43:01.000Z</time>
      </trkpt>
      <trkpt lat="49.91516" lon="0.9863">
        <ele>64</ele>
        <time>2014-10-25T08:43:07.000Z</time>
      </trkpt>
      <trkpt lat="49.91516" lon="0.98633">
        <ele>64</ele>
        <time>2014-10-25T08:43:08.000Z</time>
      </trkpt>
      <trkpt lat="49.91515" lon="0.98647">
        <ele>64</ele>
        <time>2014-10-25T08:43:14.000Z</time>
      </trkpt>
      <trkpt lat="49.91515" lon="0.98649">
        <ele>65</ele>
        <time>2014-10-25T08:43:15.000Z</time>
      </trkpt>
      <trkpt lat="49.91513" lon="0.98663">
        <ele>70</ele>
        <time>2014-10-25T08:43:24.000Z</time>
      </trkpt>
      <trkpt lat="49.91512" lon="0.98663">
        <ele>70</ele>
        <time>2014-10-25T08:43:25.000Z</time>
      </trkpt>
      <trkpt lat="49.91502" lon="0.98663">
        <ele>73</ele>
        <time>2014-10-25T08:43:31.000Z</time>
      </trkpt>
      <trkpt lat="49.915" lon="0.98663">
        <ele>74</ele>
        <time>2014-10-25T08:43:32.000Z</time>
      </trkpt>
      <trkpt lat="49.91491" lon="0.98664">
        <ele>78</ele>
        <time>2014-10-25T08:43:39.000Z</time>
      </trkpt>
      <trkpt lat="49.91489" lon="0.98664">
        <ele>78</ele>
        <time>2014-10-25T08:43:40.000Z</time>
      </trkpt>
      <trkpt lat="49.9148" lon="0.98663">
        <ele>77</ele>
        <time>2014-10-25T08:43:45.000Z</time>
      </trkpt>
      <trkpt lat="49.91477" lon="0.98663">
        <ele>77</ele>
        <time>2014-10-25T08:43:46.000Z</time>
      </trkpt>
      <trkpt lat="49.91468" lon="0.98661">
        <ele>77</ele>
        <time>2014-10-25T08:43:51.000Z</time>
      </trkpt>
      <trkpt lat="49.91466" lon="0.98661">
        <ele>77</ele>
        <time>2014-10-25T08:43:52.000Z</time>
      </trkpt>
      <trkpt lat="49.91457" lon="0.98659">
        <ele>77</ele>
        <time>2014-10-25T08:43:58.000Z</time>
      </trkpt>
      <trkpt lat="49.91456" lon="0.98659">
        <ele>77</ele>
        <time>2014-10-25T08:43:59.000Z</time>
      </trkpt>
      <trkpt lat="49.91446" lon="0.98657">
        <ele>80</ele>
        <time>2014-10-25T08:44:06.000Z</time>
      </trkpt>
      <trkpt lat="49.91446" lon="0.98657">
        <ele>81</ele>
        <time>2014-10-25T08:44:07.000Z</time>
      </trkpt>
      <trkpt lat="49.91436" lon="0.98653">
        <ele>82</ele>
        <time>2014-10-25T08:44:14.000Z</time>
      </trkpt>
      <trkpt lat="49.91434" lon="0.98653">
        <ele>82</ele>
        <time>2014-10-25T08:44:15.000Z</time>
      </trkpt>
      <trkpt lat="49.91424" lon="0.98651">
        <ele>81</ele>
        <time>2014-10-25T08:44:22.000Z</time>
      </trkpt>
      <trkpt lat="49.91423" lon="0.98651">
        <ele>81</ele>
        <time>2014-10-25T08:44:23.000Z</time>
      </trkpt>
      <trkpt lat="49.91416" lon="0.9866">
        <ele>78</ele>
        <time>2014-10-25T08:44:37.000Z</time>
      </trkpt>
      <trkpt lat="49.91415" lon="0.98663">
        <ele>77</ele>
        <time>2014-10-25T08:44:38.000Z</time>
      </trkpt>
      <trkpt lat="49.91415" lon="0.98678">
        <ele>75</ele>
        <time>2014-10-25T08:44:42.000Z</time>
      </trkpt>
      <trkpt lat="49.91415" lon="0.98683">
        <ele>74</ele>
        <time>2014-10-25T08:44:43.000Z</time>
      </trkpt>
      <trkpt lat="49.91417" lon="0.98701">
        <ele>72</ele>
        <time>2014-10-25T08:44:47.000Z</time>
      </trkpt>
      <trkpt lat="49.91419" lon="0.98707">
        <ele>71</ele>
        <time>2014-10-25T08:44:48.000Z</time>
      </trkpt>
      <trkpt lat="49.91424" lon="0.98722">
        <ele>70</ele>
        <time>2014-10-25T08:44:51.000Z</time>
      </trkpt>
      <trkpt lat="49.91425" lon="0.98727">
        <ele>70</ele>
        <time>2014-10-25T08:44:52.000Z</time>
      </trkpt>
      <trkpt lat="49.91429" lon="0.98745">
        <ele>70</ele>
        <time>2014-10-25T08:44:55.000Z</time>
      </trkpt>
      <trkpt lat="49.91431" lon="0.98751">
        <ele>70</ele>
        <time>2014-10-25T08:44:56.000Z</time>
      </trkpt>
      <trkpt lat="49.91433" lon="0.98765">
        <ele>72</ele>
        <time>2014-10-25T08:44:59.000Z</time>
      </trkpt>
      <trkpt lat="49.91435" lon="0.98771">
        <ele>72</ele>
        <time>2014-10-25T08:45:00.000Z</time>
      </trkpt>
      <trkpt lat="49.91439" lon="0.98784">
        <ele>72</ele>
        <time>2014-10-25T08:45:03.000Z</time>
      </trkpt>
      <trkpt lat="49.9144" lon="0.98788">
        <ele>72</ele>
        <time>2014-10-25T08:45:04.000Z</time>
      </trkpt>
      <trkpt lat="49.91443" lon="0.98804">
        <ele>66</ele>
        <time>2014-10-25T08:45:16.000Z</time>
      </trkpt>
      <trkpt lat="49.91444" lon="0.98805">
        <ele>65</ele>
        <time>2014-10-25T08:45:17.000Z</time>
      </trkpt>
      <trkpt lat="49.91452" lon="0.98812">
        <ele>63</ele>
        <time>2014-10-25T08:45:27.000Z</time>
      </trkpt>
      <trkpt lat="49.91452" lon="0.98812">
        <ele>63</ele>
        <time>2014-10-25T08:45:28.000Z</time>
      </trkpt>
      <trkpt lat="49.91461" lon="0.98826">
        <ele>71</ele>
        <time>2014-10-25T08:45:43.000Z</time>
      </trkpt>
      <trkpt lat="49.91462" lon="0.98827">
        <ele>72</ele>
        <time>2014-10-25T08:45:44.000Z</time>
      </trkpt>
      <trkpt lat="49.91471" lon="0.98832">
        <ele>71</ele>
        <time>2014-10-25T08:45:55.000Z</time>
      </trkpt>
      <trkpt lat="49.91471" lon="0.98832">
        <ele>71</ele>
        <time>2014-10-25T08:45:56.000Z</time>
      </trkpt>
      <trkpt lat="49.91464" lon="0.98842">
        <ele>63</ele>
        <time>2014-10-25T08:46:21.000Z</time>
      </trkpt>
      <trkpt lat="49.91463" lon="0.98844">
        <ele>63</ele>
        <time>2014-10-25T08:46:22.000Z</time>
      </trkpt>
      <trkpt lat="49.91465" lon="0.98859">
        <ele>62</ele>
        <time>2014-10-25T08:46:28.000Z</time>
      </trkpt>
      <trkpt lat="49.91465" lon="0.98859">
        <ele>62</ele>
        <time>2014-10-25T08:46:29.000Z</time>
      </trkpt>
      <trkpt lat="49.91466" lon="0.98874">
        <ele>63</ele>
        <time>2014-10-25T08:46:37.000Z</time>
      </trkpt>
      <trkpt lat="49.91467" lon="0.98875">
        <ele>64</ele>
        <time>2014-10-25T08:46:38.000Z</time>
      </trkpt>
      <trkpt lat="49.91467" lon="0.9889">
        <ele>59</ele>
        <time>2014-10-25T08:46:50.000Z</time>
      </trkpt>
      <trkpt lat="49.91468" lon="0.98892">
        <ele>59</ele>
        <time>2014-10-25T08:46:51.000Z</time>
      </trkpt>
      <trkpt lat="49.91463" lon="0.98907">
        <ele>60</ele>
        <time>2014-10-25T08:46:58.000Z</time>
      </trkpt>
      <trkpt lat="49.91462" lon="0.9891">
        <ele>61</ele>
        <time>2014-10-25T08:46:59.000Z</time>
      </trkpt>
      <trkpt lat="49.91456" lon="0.9892">
        <ele>61</ele>
        <time>2014-10-25T08:47:03.000Z</time>
      </trkpt>
      <trkpt lat="49.91454" lon="0.98923">
        <ele>61</ele>
        <time>2014-10-25T08:47:04.000Z</time>
      </trkpt>
      <trkpt lat="49.91447" lon="0.98934">
        <ele>62</ele>
        <time>2014-10-25T08:47:08.000Z</time>
      </trkpt>
      <trkpt lat="49.91446" lon="0.98936">
        <ele>62</ele>
        <time>2014-10-25T08:47:09.000Z</time>
      </trkpt>
      <trkpt lat="49.9144" lon="0.98948">
        <ele>62</ele>
        <time>2014-10-25T08:47:13.000Z</time>
      </trkpt>
      <trkpt lat="49.91439" lon="0.98951">
        <ele>61</ele>
        <time>2014-10-25T08:47:14.000Z</time>
      </trkpt>
      <trkpt lat="49.91439" lon="0.98967">
        <ele>60</ele>
        <time>2014-10-25T08:47:19.000Z</time>
      </trkpt>
      <trkpt lat="49.91441" lon="0.98971">
        <ele>60</ele>
        <time>2014-10-25T08:47:20.000Z</time>
      </trkpt>
      <trkpt lat="49.91442" lon="0.98985">
        <ele>62</ele>
        <time>2014-10-25T08:47:24.000Z</time>
      </trkpt>
      <trkpt lat="49.91442" lon="0.98989">
        <ele>63</ele>
        <time>2014-10-25T08:47:25.000Z</time>
      </trkpt>
      <trkpt lat="49.91435" lon="0.98999">
        <ele>71</ele>
        <time>2014-10-25T08:47:31.000Z</time>
      </trkpt>
      <trkpt lat="49.91435" lon="0.99001">
        <ele>72</ele>
        <time>2014-10-25T08:47:32.000Z</time>
      </trkpt>
      <trkpt lat="49.91429" lon="0.99014">
        <ele>81</ele>
        <time>2014-10-25T08:47:38.000Z</time>
      </trkpt>
      <trkpt lat="49.91429" lon="0.99017">
        <ele>82</ele>
        <time>2014-10-25T08:47:39.000Z</time>
      </trkpt>
      <trkpt lat="49.91424" lon="0.99031">
        <ele>88</ele>
        <time>2014-10-25T08:47:45.000Z</time>
      </trkpt>
      <trkpt lat="49.91423" lon="0.99033">
        <ele>88</ele>
        <time>2014-10-25T08:47:46.000Z</time>
      </trkpt>
      <trkpt lat="49.91413" lon="0.9904">
        <ele>90</ele>
        <time>2014-10-25T08:47:50.000Z</time>
      </trkpt>
      <trkpt lat="49.91412" lon="0.99041">
        <ele>90</ele>
        <time>2014-10-25T08:47:51.000Z</time>
      </trkpt>
      <trkpt lat="49.91406" lon="0.99054">
        <ele>91</ele>
        <time>2014-10-25T08:47:59.000Z</time>
      </trkpt>
      <trkpt lat="49.91406" lon="0.99056">
        <ele>91</ele>
        <time>2014-10-25T08:48:00.000Z</time>
      </trkpt>
      <trkpt lat="49.91406" lon="0.99071">
        <ele>90</ele>
        <time>2014-10-25T08:48:06.000Z</time>
      </trkpt>
      <trkpt lat="49.91406" lon="0.99074">
        <ele>90</ele>
        <time>2014-10-25T08:48:07.000Z</time>
      </trkpt>
      <trkpt lat="49.91407" lon="0.99088">
        <ele>85</ele>
        <time>2014-10-25T08:48:12.000Z</time>
      </trkpt>
      <trkpt lat="49.91408" lon="0.9909">
        <ele>84</ele>
        <time>2014-10-25T08:48:13.000Z</time>
      </trkpt>
      <trkpt lat="49.91414" lon="0.99103">
        <ele>80</ele>
        <time>2014-10-25T08:48:17.000Z</time>
      </trkpt>
      <trkpt lat="49.91414" lon="0.99106">
        <ele>79</ele>
        <time>2014-10-25T08:48:18.000Z</time>
      </trkpt>
      <trkpt lat="49.91411" lon="0.99119">
        <ele>75</ele>
        <time>2014-10-25T08:48:23.000Z</time>
      </trkpt>
      <trkpt lat="49.9141" lon="0.99122">
        <ele>74</ele>
        <time>2014-10-25T08:48:24.000Z</time>
      </trkpt>
      <trkpt lat="49.91404" lon="0.99133">
        <ele>72</ele>
        <time>2014-10-25T08:48:29.000Z</time>
      </trkpt>
      <trkpt lat="49.91403" lon="0.99136">
        <ele>71</ele>
        <time>2014-10-25T08:48:30.000Z</time>
      </trkpt>
      <trkpt lat="49.91398" lon="0.99149">
        <ele>71</ele>
        <time>2014-10-25T08:48:35.000Z</time>
      </trkpt>
      <trkpt lat="49.91396" lon="0.99151">
        <ele>71</ele>
        <time>2014-10-25T08:48:36.000Z</time>
      </trkpt>
      <trkpt lat="49.91388" lon="0.99163">
        <ele>70</ele>
        <time>2014-10-25T08:48:41.000Z</time>
      </trkpt>
      <trkpt lat="49.91386" lon="0.99165">
        <ele>70</ele>
        <time>2014-10-25T08:48:42.000Z</time>
      </trkpt>
      <trkpt lat="49.91376" lon="0.99172">
        <ele>70</ele>
        <time>2014-10-25T08:48:45.000Z</time>
      </trkpt>
      <trkpt lat="49.91372" lon="0.99175">
        <ele>70</ele>
        <time>2014-10-25T08:48:46.000Z</time>
      </trkpt>
      <trkpt lat="49.91361" lon="0.99181">
        <ele>71</ele>
        <time>2014-10-25T08:48:49.000Z</time>
      </trkpt>
      <trkpt lat="49.91357" lon="0.99183">
        <ele>72</ele>
        <time>2014-10-25T08:48:50.000Z</time>
      </trkpt>
      <trkpt lat="49.91347" lon="0.99191">
        <ele>73</ele>
        <time>2014-10-25T08:48:53.000Z</time>
      </trkpt>
      <trkpt lat="49.91344" lon="0.99194">
        <ele>74</ele>
        <time>2014-10-25T08:48:54.000Z</time>
      </trkpt>
      <trkpt lat="49.91337" lon="0.99205">
        <ele>77</ele>
        <time>2014-10-25T08:48:58.000Z</time>
      </trkpt>
      <trkpt lat="49.91334" lon="0.99207">
        <ele>78</ele>
        <time>2014-10-25T08:48:59.000Z</time>
      </trkpt>
      <trkpt lat="49.91324" lon="0.99215">
        <ele>80</ele>
        <time>2014-10-25T08:49:02.000Z</time>
      </trkpt>
      <trkpt lat="49.9132" lon="0.99218">
        <ele>81</ele>
        <time>2014-10-25T08:49:03.000Z</time>
      </trkpt>
      <trkpt lat="49.9131" lon="0.99227">
        <ele>82</ele>
        <time>2014-10-25T08:49:06.000Z</time>
      </trkpt>
      <trkpt lat="49.91307" lon="0.9923">
        <ele>83</ele>
        <time>2014-10-25T08:49:07.000Z</time>
      </trkpt>
      <trkpt lat="49.91299" lon="0.99242">
        <ele>85</ele>
        <time>2014-10-25T08:49:11.000Z</time>
      </trkpt>
      <trkpt lat="49.91297" lon="0.99246">
        <ele>85</ele>
        <time>2014-10-25T08:49:12.000Z</time>
      </trkpt>
      <trkpt lat="49.91287" lon="0.99256">
        <ele>88</ele>
        <time>2014-10-25T08:49:16.000Z</time>
      </trkpt>
      <trkpt lat="49.91283" lon="0.99259">
        <ele>89</ele>
        <time>2014-10-25T08:49:17.000Z</time>
      </trkpt>
      <trkpt lat="49.91279" lon="0.99261">
        <ele>89</ele>
        <time>2014-10-25T08:49:18.000Z</time>
      </trkpt>
      <trkpt lat="49.91271" lon="0.99267">
        <ele>91</ele>
        <time>2014-10-25T08:49:20.000Z</time>
      </trkpt>
      <trkpt lat="49.91267" lon="0.9927">
        <ele>92</ele>
        <time>2014-10-25T08:49:21.000Z</time>
      </trkpt>
      <trkpt lat="49.91258" lon="0.99278">
        <ele>93</ele>
        <time>2014-10-25T08:49:24.000Z</time>
      </trkpt>
      <trkpt lat="49.91255" lon="0.9928">
        <ele>93</ele>
        <time>2014-10-25T08:49:25.000Z</time>
      </trkpt>
      <trkpt lat="49.91246" lon="0.99285">
        <ele>96</ele>
        <time>2014-10-25T08:49:29.000Z</time>
      </trkpt>
      <trkpt lat="49.91243" lon="0.99286">
        <ele>96</ele>
        <time>2014-10-25T08:49:30.000Z</time>
      </trkpt>
      <trkpt lat="49.91233" lon="0.99288">
        <ele>96</ele>
        <time>2014-10-25T08:49:34.000Z</time>
      </trkpt>
      <trkpt lat="49.91231" lon="0.99289">
        <ele>96</ele>
        <time>2014-10-25T08:49:35.000Z</time>
      </trkpt>
      <trkpt lat="49.9122" lon="0.99295">
        <ele>92</ele>
        <time>2014-10-25T08:49:40.000Z</time>
      </trkpt>
      <trkpt lat="49.91218" lon="0.99296">
        <ele>92</ele>
        <time>2014-10-25T08:49:41.000Z</time>
      </trkpt>
      <trkpt lat="49.91207" lon="0.993">
        <ele>89</ele>
        <time>2014-10-25T08:49:45.000Z</time>
      </trkpt>
      <trkpt lat="49.91205" lon="0.99302">
        <ele>88</ele>
        <time>2014-10-25T08:49:46.000Z</time>
      </trkpt>
      <trkpt lat="49.91196" lon="0.99309">
        <ele>87</ele>
        <time>2014-10-25T08:49:50.000Z</time>
      </trkpt>
      <trkpt lat="49.91193" lon="0.9931">
        <ele>87</ele>
        <time>2014-10-25T08:49:51.000Z</time>
      </trkpt>
      <trkpt lat="49.91185" lon="0.99317">
        <ele>87</ele>
        <time>2014-10-25T08:50:01.000Z</time>
      </trkpt>
      <trkpt lat="49.91185" lon="0.99317">
        <ele>87</ele>
        <time>2014-10-25T08:50:02.000Z</time>
      </trkpt>
      <trkpt lat="49.91178" lon="0.99328">
        <ele>88</ele>
        <time>2014-10-25T08:50:14.000Z</time>
      </trkpt>
      <trkpt lat="49.91177" lon="0.99331">
        <ele>88</ele>
        <time>2014-10-25T08:50:15.000Z</time>
      </trkpt>
      <trkpt lat="49.91182" lon="0.99343">
        <ele>88</ele>
        <time>2014-10-25T08:50:22.000Z</time>
      </trkpt>
      <trkpt lat="49.91183" lon="0.99344">
        <ele>88</ele>
        <time>2014-10-25T08:50:23.000Z</time>
      </trkpt>
      <trkpt lat="49.9119" lon="0.99353">
        <ele>88</ele>
        <time>2014-10-25T08:50:29.000Z</time>
      </trkpt>
      <trkpt lat="49.91192" lon="0.99356">
        <ele>88</ele>
        <time>2014-10-25T08:50:30.000Z</time>
      </trkpt>
      <trkpt lat="49.91202" lon="0.99364">
        <ele>88</ele>
        <time>2014-10-25T08:50:34.000Z</time>
      </trkpt>
      <trkpt lat="49.91205" lon="0.99365">
        <ele>88</ele>
        <time>2014-10-25T08:50:35.000Z</time>
      </trkpt>
      <trkpt lat="49.91214" lon="0.99372">
        <ele>88</ele>
        <time>2014-10-25T08:50:39.000Z</time>
      </trkpt>
      <trkpt lat="49.91217" lon="0.99373">
        <ele>88</ele>
        <time>2014-10-25T08:50:40.000Z</time>
      </trkpt>
      <trkpt lat="49.91227" lon="0.99383">
        <ele>88</ele>
        <time>2014-10-25T08:50:44.000Z</time>
      </trkpt>
      <trkpt lat="49.91231" lon="0.99386">
        <ele>89</ele>
        <time>2014-10-25T08:50:45.000Z</time>
      </trkpt>
      <trkpt lat="49.9124" lon="0.99395">
        <ele>89</ele>
        <time>2014-10-25T08:50:48.000Z</time>
      </trkpt>
      <trkpt lat="49.91243" lon="0.99398">
        <ele>89</ele>
        <time>2014-10-25T08:50:49.000Z</time>
      </trkpt>
      <trkpt lat="49.91252" lon="0.99407">
        <ele>90</ele>
        <time>2014-10-25T08:50:52.000Z</time>
      </trkpt>
      <trkpt lat="49.91255" lon="0.9941">
        <ele>90</ele>
        <time>2014-10-25T08:50:53.000Z</time>
      </trkpt>
      <trkpt lat="49.91264" lon="0.99422">
        <ele>92</ele>
        <time>2014-10-25T08:50:57.000Z</time>
      </trkpt>
      <trkpt lat="49.91267" lon="0.99426">
        <ele>92</ele>
        <time>2014-10-25T08:50:58.000Z</time>
      </trkpt>
      <trkpt lat="49.91274" lon="0.99438">
        <ele>93</ele>
        <time>2014-10-25T08:51:02.000Z</time>
      </trkpt>
      <trkpt lat="49.91276" lon="0.99442">
        <ele>93</ele>
        <time>2014-10-25T08:51:03.000Z</time>
      </trkpt>
      <trkpt lat="49.91285" lon="0.99455">
        <ele>94</ele>
        <time>2014-10-25T08:51:06.000Z</time>
      </trkpt>
      <trkpt lat="49.91288" lon="0.9946">
        <ele>94</ele>
        <time>2014-10-25T08:51:07.000Z</time>
      </trkpt>
      <trkpt lat="49.91296" lon="0.99476">
        <ele>95</ele>
        <time>2014-10-25T08:51:10.000Z</time>
      </trkpt>
      <trkpt lat="49.91298" lon="0.9948">
        <ele>95</ele>
        <time>2014-10-25T08:51:11.000Z</time>
      </trkpt>
      <trkpt lat="49.91303" lon="0.99492">
        <ele>96</ele>
        <time>2014-10-25T08:51:14.000Z</time>
      </trkpt>
      <trkpt lat="49.91305" lon="0.99497">
        <ele>96</ele>
        <time>2014-10-25T08:51:15.000Z</time>
      </trkpt>
      <trkpt lat="49.91312" lon="0.99511">
        <ele>96</ele>
        <time>2014-10-25T08:51:18.000Z</time>
      </trkpt>
      <trkpt lat="49.91314" lon="0.99515">
        <ele>96</ele>
        <time>2014-10-25T08:51:19.000Z</time>
      </trkpt>
      <trkpt lat="49.9132" lon="0.99529">
        <ele>96</ele>
        <time>2014-10-25T08:51:22.000Z</time>
      </trkpt>
      <trkpt lat="49.91322" lon="0.99534">
        <ele>96</ele>
        <time>2014-10-25T08:51:23.000Z</time>
      </trkpt>
      <trkpt lat="49.91328" lon="0.99548">
        <ele>96</ele>
        <time>2014-10-25T08:51:26.000Z</time>
      </trkpt>
      <trkpt lat="49.9133" lon="0.99553">
        <ele>96</ele>
        <time>2014-10-25T08:51:27.000Z</time>
      </trkpt>
      <trkpt lat="49.91338" lon="0.99567">
        <ele>97</ele>
        <time>2014-10-25T08:51:30.000Z</time>
      </trkpt>
      <trkpt lat="49.91342" lon="0.99572">
        <ele>97</ele>
        <time>2014-10-25T08:51:31.000Z</time>
      </trkpt>
      <trkpt lat="49.9135" lon="0.99587">
        <ele>99</ele>
        <time>2014-10-25T08:51:34.000Z</time>
      </trkpt>
      <trkpt lat="49.91353" lon="0.99593">
        <ele>99</ele>
        <time>2014-10-25T08:51:35.000Z</time>
      </trkpt>
      <trkpt lat="49.91357" lon="0.99599">
        <ele>100</ele>
        <time>2014-10-25T08:51:36.000Z</time>
      </trkpt>
      <trkpt lat="49.91361" lon="0.99605">
        <ele>100</ele>
        <time>2014-10-25T08:51:37.000Z</time>
      </trkpt>
      <trkpt lat="49.91364" lon="0.9961">
        <ele>101</ele>
        <time>2014-10-25T08:51:38.000Z</time>
      </trkpt>
      <trkpt lat="49.91367" lon="0.99616">
        <ele>101</ele>
        <time>2014-10-25T08:51:39.000Z</time>
      </trkpt>
      <trkpt lat="49.9137" lon="0.99622">
        <ele>101</ele>
        <time>2014-10-25T08:51:40.000Z</time>
      </trkpt>
      <trkpt lat="49.91373" lon="0.99628">
        <ele>101</ele>
        <time>2014-10-25T08:51:41.000Z</time>
      </trkpt>
      <trkpt lat="49.91375" lon="0.99635">
        <ele>101</ele>
        <time>2014-10-25T08:51:42.000Z</time>
      </trkpt>
      <trkpt lat="49.91378" lon="0.99654">
        <ele>100</ele>
        <time>2014-10-25T08:51:45.000Z</time>
      </trkpt>
      <trkpt lat="49.91381" lon="0.99661">
        <ele>100</ele>
        <time>2014-10-25T08:51:46.000Z</time>
      </trkpt>
      <trkpt lat="49.91384" lon="0.99668">
        <ele>99</ele>
        <time>2014-10-25T08:51:47.000Z</time>
      </trkpt>
      <trkpt lat="49.91387" lon="0.99675">
        <ele>99</ele>
        <time>2014-10-25T08:51:48.000Z</time>
      </trkpt>
      <trkpt lat="49.9139" lon="0.99682">
        <ele>98</ele>
        <time>2014-10-25T08:51:49.000Z</time>
      </trkpt>
      <trkpt lat="49.91393" lon="0.99689">
        <ele>98</ele>
        <time>2014-10-25T08:51:50.000Z</time>
      </trkpt>
      <trkpt lat="49.91395" lon="0.99695">
        <ele>98</ele>
        <time>2014-10-25T08:51:51.000Z</time>
      </trkpt>
      <trkpt lat="49.91397" lon="0.99702">
        <ele>98</ele>
        <time>2014-10-25T08:51:52.000Z</time>
      </trkpt>
      <trkpt lat="49.91399" lon="0.99708">
        <ele>98</ele>
        <time>2014-10-25T08:51:53.000Z</time>
      </trkpt>
      <trkpt lat="49.91402" lon="0.99715">
        <ele>98</ele>
        <time>2014-10-25T08:51:54.000Z</time>
      </trkpt>
      <trkpt lat="49.91406" lon="0.99722">
        <ele>98</ele>
        <time>2014-10-25T08:51:55.000Z</time>
      </trkpt>
      <trkpt lat="49.91409" lon="0.9973">
        <ele>97</ele>
        <time>2014-10-25T08:51:56.000Z</time>
      </trkpt>
      <trkpt lat="49.91412" lon="0.99738">
        <ele>97</ele>
        <time>2014-10-25T08:51:57.000Z</time>
      </trkpt>
      <trkpt lat="49.91414" lon="0.99745">
        <ele>97</ele>
        <time>2014-10-25T08:51:58.000Z</time>
      </trkpt>
      <trkpt lat="49.91417" lon="0.99752">
        <ele>97</ele>
        <time>2014-10-25T08:51:59.000Z</time>
      </trkpt>
      <trkpt lat="49.91418" lon="0.99759">
        <ele>96</ele>
        <time>2014-10-25T08:52:00.000Z</time>
      </trkpt>
      <trkpt lat="49.9142" lon="0.99766">
        <ele>96</ele>
        <time>2014-10-25T08:52:01.000Z</time>
      </trkpt>
      <trkpt lat="49.91423" lon="0.99773">
        <ele>96</ele>
        <time>2014-10-25T08:52:02.000Z</time>
      </trkpt>
      <trkpt lat="49.91425" lon="0.9978">
        <ele>96</ele>
        <time>2014-10-25T08:52:03.000Z</time>
      </trkpt>
      <trkpt lat="49.91427" lon="0.99787">
        <ele>96</ele>
        <time>2014-10-25T08:52:04.000Z</time>
      </trkpt>
      <trkpt lat="49.9143" lon="0.99794">
        <ele>97</ele>
        <time>2014-10-25T08:52:05.000Z</time>
      </trkpt>
      <trkpt lat="49.91434" lon="0.99802">
        <ele>97</ele>
        <time>2014-10-25T08:52:06.000Z</time>
      </trkpt>
      <trkpt lat="49.91438" lon="0.99809">
        <ele>98</ele>
        <time>2014-10-25T08:52:07.000Z</time>
      </trkpt>
      <trkpt lat="49.91441" lon="0.99815">
        <ele>98</ele>
        <time>2014-10-25T08:52:08.000Z</time>
      </trkpt>
      <trkpt lat="49.91443" lon="0.9982">
        <ele>98</ele>
        <time>2014-10-25T08:52:09.000Z</time>
      </trkpt>
      <trkpt lat="49.91447" lon="0.99834">
        <ele>99</ele>
        <time>2014-10-25T08:52:13.000Z</time>
      </trkpt>
      <trkpt lat="49.91447" lon="0.99837">
        <ele>99</ele>
        <time>2014-10-25T08:52:14.000Z</time>
      </trkpt>
      <trkpt lat="49.91446" lon="0.99853">
        <ele>97</ele>
        <time>2014-10-25T08:52:18.000Z</time>
      </trkpt>
      <trkpt lat="49.91446" lon="0.99857">
        <ele>97</ele>
        <time>2014-10-25T08:52:19.000Z</time>
      </trkpt>
      <trkpt lat="49.91447" lon="0.99873">
        <ele>96</ele>
        <time>2014-10-25T08:52:22.000Z</time>
      </trkpt>
      <trkpt lat="49.91448" lon="0.99878">
        <ele>96</ele>
        <time>2014-10-25T08:52:23.000Z</time>
      </trkpt>
      <trkpt lat="49.91451" lon="0.99893">
        <ele>96</ele>
        <time>2014-10-25T08:52:26.000Z</time>
      </trkpt>
      <trkpt lat="49.91452" lon="0.99899">
        <ele>96</ele>
        <time>2014-10-25T08:52:27.000Z</time>
      </trkpt>
      <trkpt lat="49.91455" lon="0.99917">
        <ele>95</ele>
        <time>2014-10-25T08:52:30.000Z</time>
      </trkpt>
      <trkpt lat="49.91457" lon="0.99924">
        <ele>95</ele>
        <time>2014-10-25T08:52:31.000Z</time>
      </trkpt>
      <trkpt lat="49.91458" lon="0.99931">
        <ele>94</ele>
        <time>2014-10-25T08:52:32.000Z</time>
      </trkpt>
      <trkpt lat="49.9146" lon="0.99937">
        <ele>94</ele>
        <time>2014-10-25T08:52:33.000Z</time>
      </trkpt>
      <trkpt lat="49.91466" lon="0.99955">
        <ele>93</ele>
        <time>2014-10-25T08:52:36.000Z</time>
      </trkpt>
      <trkpt lat="49.91467" lon="0.99963">
        <ele>93</ele>
        <time>2014-10-25T08:52:37.000Z</time>
      </trkpt>
      <trkpt lat="49.91467" lon="0.9997">
        <ele>93</ele>
        <time>2014-10-25T08:52:38.000Z</time>
      </trkpt>
      <trkpt lat="49.91472" lon="0.9999">
        <ele>93</ele>
        <time>2014-10-25T08:52:41.000Z</time>
      </trkpt>
      <trkpt lat="49.91475" lon="0.99998">
        <ele>93</ele>
        <time>2014-10-25T08:52:42.000Z</time>
      </trkpt>
      <trkpt lat="49.91478" lon="1.00005">
        <ele>93</ele>
        <time>2014-10-25T08:52:43.000Z</time>
      </trkpt>
      <trkpt lat="49.91481" lon="1.00012">
        <ele>93</ele>
        <time>2014-10-25T08:52:44.000Z</time>
      </trkpt>
      <trkpt lat="49.91484" lon="1.0002">
        <ele>93</ele>
        <time>2014-10-25T08:52:45.000Z</time>
      </trkpt>
      <trkpt lat="49.91486" lon="1.00026">
        <ele>93</ele>
        <time>2014-10-25T08:52:46.000Z</time>
      </trkpt>
      <trkpt lat="49.91489" lon="1.00033">
        <ele>93</ele>
        <time>2014-10-25T08:52:47.000Z</time>
      </trkpt>
      <trkpt lat="49.91492" lon="1.0004">
        <ele>93</ele>
        <time>2014-10-25T08:52:48.000Z</time>
      </trkpt>
      <trkpt lat="49.91494" lon="1.00047">
        <ele>93</ele>
        <time>2014-10-25T08:52:49.000Z</time>
      </trkpt>
      <trkpt lat="49.91497" lon="1.00065">
        <ele>93</ele>
        <time>2014-10-25T08:52:52.000Z</time>
      </trkpt>
      <trkpt lat="49.91498" lon="1.00069">
        <ele>92</ele>
        <time>2014-10-25T08:52:53.000Z</time>
      </trkpt>
      <trkpt lat="49.91502" lon="1.00086">
        <ele>90</ele>
        <time>2014-10-25T08:52:57.000Z</time>
      </trkpt>
      <trkpt lat="49.91502" lon="1.0009">
        <ele>90</ele>
        <time>2014-10-25T08:52:58.000Z</time>
      </trkpt>
      <trkpt lat="49.91501" lon="1.00106">
        <ele>88</ele>
        <time>2014-10-25T08:53:03.000Z</time>
      </trkpt>
      <trkpt lat="49.91501" lon="1.00109">
        <ele>88</ele>
        <time>2014-10-25T08:53:04.000Z</time>
      </trkpt>
      <trkpt lat="49.91498" lon="1.00124">
        <ele>88</ele>
        <time>2014-10-25T08:53:08.000Z</time>
      </trkpt>
      <trkpt lat="49.91496" lon="1.00128">
        <ele>88</ele>
        <time>2014-10-25T08:53:09.000Z</time>
      </trkpt>
      <trkpt lat="49.91491" lon="1.00142">
        <ele>88</ele>
        <time>2014-10-25T08:53:12.000Z</time>
      </trkpt>
      <trkpt lat="49.91487" lon="1.00147">
        <ele>87</ele>
        <time>2014-10-25T08:53:13.000Z</time>
      </trkpt>
      <trkpt lat="49.91486" lon="1.00161">
        <ele>87</ele>
        <time>2014-10-25T08:53:16.000Z</time>
      </trkpt>
      <trkpt lat="49.91487" lon="1.00167">
        <ele>86</ele>
        <time>2014-10-25T08:53:17.000Z</time>
      </trkpt>
      <trkpt lat="49.91494" lon="1.00183">
        <ele>86</ele>
        <time>2014-10-25T08:53:20.000Z</time>
      </trkpt>
      <trkpt lat="49.91497" lon="1.00189">
        <ele>86</ele>
        <time>2014-10-25T08:53:21.000Z</time>
      </trkpt>
      <trkpt lat="49.91501" lon="1.00194">
        <ele>86</ele>
        <time>2014-10-25T08:53:22.000Z</time>
      </trkpt>
      <trkpt lat="49.91503" lon="1.002">
        <ele>85</ele>
        <time>2014-10-25T08:53:23.000Z</time>
      </trkpt>
      <trkpt lat="49.91506" lon="1.00207">
        <ele>85</ele>
        <time>2014-10-25T08:53:24.000Z</time>
      </trkpt>
      <trkpt lat="49.91508" lon="1.00214">
        <ele>85</ele>
        <time>2014-10-25T08:53:25.000Z</time>
      </trkpt>
      <trkpt lat="49.9151" lon="1.0022">
        <ele>84</ele>
        <time>2014-10-25T08:53:26.000Z</time>
      </trkpt>
      <trkpt lat="49.91512" lon="1.00227">
        <ele>84</ele>
        <time>2014-10-25T08:53:27.000Z</time>
      </trkpt>
      <trkpt lat="49.91514" lon="1.00234">
        <ele>84</ele>
        <time>2014-10-25T08:53:28.000Z</time>
      </trkpt>
      <trkpt lat="49.91516" lon="1.00249">
        <ele>83</ele>
        <time>2014-10-25T08:53:31.000Z</time>
      </trkpt>
      <trkpt lat="49.91517" lon="1.00255">
        <ele>83</ele>
        <time>2014-10-25T08:53:32.000Z</time>
      </trkpt>
      <trkpt lat="49.9152" lon="1.0027">
        <ele>81</ele>
        <time>2014-10-25T08:53:35.000Z</time>
      </trkpt>
      <trkpt lat="49.91522" lon="1.00275">
        <ele>81</ele>
        <time>2014-10-25T08:53:36.000Z</time>
      </trkpt>
      <trkpt lat="49.91524" lon="1.00291">
        <ele>79</ele>
        <time>2014-10-25T08:53:40.000Z</time>
      </trkpt>
      <trkpt lat="49.91524" lon="1.00295">
        <ele>78</ele>
        <time>2014-10-25T08:53:41.000Z</time>
      </trkpt>
      <trkpt lat="49.91523" lon="1.00311">
        <ele>76</ele>
        <time>2014-10-25T08:53:45.000Z</time>
      </trkpt>
      <trkpt lat="49.91523" lon="1.00315">
        <ele>75</ele>
        <time>2014-10-25T08:53:46.000Z</time>
      </trkpt>
      <trkpt lat="49.91521" lon="1.0033">
        <ele>70</ele>
        <time>2014-10-25T08:53:51.000Z</time>
      </trkpt>
      <trkpt lat="49.91521" lon="1.00333">
        <ele>69</ele>
        <time>2014-10-25T08:53:52.000Z</time>
      </trkpt>
      <trkpt lat="49.91518" lon="1.00348">
        <ele>65</ele>
        <time>2014-10-25T08:53:57.000Z</time>
      </trkpt>
      <trkpt lat="49.91518" lon="1.00351">
        <ele>64</ele>
        <time>2014-10-25T08:53:58.000Z</time>
      </trkpt>
      <trkpt lat="49.91516" lon="1.00369">
        <ele>61</ele>
        <time>2014-10-25T08:54:03.000Z</time>
      </trkpt>
      <trkpt lat="49.91515" lon="1.00373">
        <ele>60</ele>
        <time>2014-10-25T08:54:04.000Z</time>
      </trkpt>
      <trkpt lat="49.91512" lon="1.0039">
        <ele>58</ele>
        <time>2014-10-25T08:54:08.000Z</time>
      </trkpt>
      <trkpt lat="49.91512" lon="1.00395">
        <ele>58</ele>
        <time>2014-10-25T08:54:09.000Z</time>
      </trkpt>
      <trkpt lat="49.91511" lon="1.00411">
        <ele>57</ele>
        <time>2014-10-25T08:54:12.000Z</time>
      </trkpt>
      <trkpt lat="49.91511" lon="1.00416">
        <ele>57</ele>
        <time>2014-10-25T08:54:13.000Z</time>
      </trkpt>
      <trkpt lat="49.9151" lon="1.00431">
        <ele>57</ele>
        <time>2014-10-25T08:54:16.000Z</time>
      </trkpt>
      <trkpt lat="49.9151" lon="1.00435">
        <ele>57</ele>
        <time>2014-10-25T08:54:17.000Z</time>
      </trkpt>
      <trkpt lat="49.91509" lon="1.00453">
        <ele>57</ele>
        <time>2014-10-25T08:54:21.000Z</time>
      </trkpt>
      <trkpt lat="49.91509" lon="1.00458">
        <ele>56</ele>
        <time>2014-10-25T08:54:22.000Z</time>
      </trkpt>
      <trkpt lat="49.91508" lon="1.00472">
        <ele>55</ele>
        <time>2014-10-25T08:54:25.000Z</time>
      </trkpt>
      <trkpt lat="49.91508" lon="1.00478">
        <ele>54</ele>
        <time>2014-10-25T08:54:26.000Z</time>
      </trkpt>
      <trkpt lat="49.91508" lon="1.00492">
        <ele>52</ele>
        <time>2014-10-25T08:54:30.000Z</time>
      </trkpt>
      <trkpt lat="49.91508" lon="1.00496">
        <ele>52</ele>
        <time>2014-10-25T08:54:31.000Z</time>
      </trkpt>
      <trkpt lat="49.9151" lon="1.0051">
        <ele>45</ele>
        <time>2014-10-25T08:54:56.000Z</time>
      </trkpt>
      <trkpt lat="49.9151" lon="1.00513">
        <ele>45</ele>
        <time>2014-10-25T08:54:57.000Z</time>
      </trkpt>
      <trkpt lat="49.91511" lon="1.00527">
        <ele>44</ele>
        <time>2014-10-25T08:55:03.000Z</time>
      </trkpt>
      <trkpt lat="49.91511" lon="1.00529">
        <ele>44</ele>
        <time>2014-10-25T08:55:04.000Z</time>
      </trkpt>
      <trkpt lat="49.91512" lon="1.00545">
        <ele>41</ele>
        <time>2014-10-25T08:55:13.000Z</time>
      </trkpt>
      <trkpt lat="49.91512" lon="1.00547">
        <ele>40</ele>
        <time>2014-10-25T08:55:14.000Z</time>
      </trkpt>
      <trkpt lat="49.9151" lon="1.0056">
        <ele>38</ele>
        <time>2014-10-25T08:55:20.000Z</time>
      </trkpt>
      <trkpt lat="49.9151" lon="1.00563">
        <ele>38</ele>
        <time>2014-10-25T08:55:21.000Z</time>
      </trkpt>
      <trkpt lat="49.91508" lon="1.00578">
        <ele>37</ele>
        <time>2014-10-25T08:55:25.000Z</time>
      </trkpt>
      <trkpt lat="49.91507" lon="1.00583">
        <ele>36</ele>
        <time>2014-10-25T08:55:26.000Z</time>
      </trkpt>
      <trkpt lat="49.91508" lon="1.00599">
        <ele>36</ele>
        <time>2014-10-25T08:55:31.000Z</time>
      </trkpt>
      <trkpt lat="49.9151" lon="1.00604">
        <ele>35</ele>
        <time>2014-10-25T08:55:32.000Z</time>
      </trkpt>
      <trkpt lat="49.91515" lon="1.00618">
        <ele>35</ele>
        <time>2014-10-25T08:55:35.000Z</time>
      </trkpt>
      <trkpt lat="49.91517" lon="1.00623">
        <ele>35</ele>
        <time>2014-10-25T08:55:36.000Z</time>
      </trkpt>
      <trkpt lat="49.91522" lon="1.00637">
        <ele>35</ele>
        <time>2014-10-25T08:55:39.000Z</time>
      </trkpt>
      <trkpt lat="49.91524" lon="1.00641">
        <ele>35</ele>
        <time>2014-10-25T08:55:40.000Z</time>
      </trkpt>
      <trkpt lat="49.9153" lon="1.00653">
        <ele>35</ele>
        <time>2014-10-25T08:55:44.000Z</time>
      </trkpt>
      <trkpt lat="49.91532" lon="1.00656">
        <ele>35</ele>
        <time>2014-10-25T08:55:45.000Z</time>
      </trkpt>
      <trkpt lat="49.91537" lon="1.00669">
        <ele>35</ele>
        <time>2014-10-25T08:55:48.000Z</time>
      </trkpt>
      <trkpt lat="49.91539" lon="1.00673">
        <ele>35</ele>
        <time>2014-10-25T08:55:49.000Z</time>
      </trkpt>
      <trkpt lat="49.91543" lon="1.00687">
        <ele>35</ele>
        <time>2014-10-25T08:55:55.000Z</time>
      </trkpt>
      <trkpt lat="49.91543" lon="1.00691">
        <ele>35</ele>
        <time>2014-10-25T08:55:56.000Z</time>
      </trkpt>
      <trkpt lat="49.91547" lon="1.00708">
        <ele>34</ele>
        <time>2014-10-25T08:56:00.000Z</time>
      </trkpt>
      <trkpt lat="49.91548" lon="1.00714">
        <ele>33</ele>
        <time>2014-10-25T08:56:01.000Z</time>
      </trkpt>
      <trkpt lat="49.91549" lon="1.0073">
        <ele>33</ele>
        <time>2014-10-25T08:56:04.000Z</time>
      </trkpt>
      <trkpt lat="49.91547" lon="1.00735">
        <ele>33</ele>
        <time>2014-10-25T08:56:05.000Z</time>
      </trkpt>
      <trkpt lat="49.91542" lon="1.00748">
        <ele>34</ele>
        <time>2014-10-25T08:56:08.000Z</time>
      </trkpt>
      <trkpt lat="49.91541" lon="1.00751">
        <ele>35</ele>
        <time>2014-10-25T08:56:09.000Z</time>
      </trkpt>
      <trkpt lat="49.91531" lon="1.00759">
        <ele>36</ele>
        <time>2014-10-25T08:56:13.000Z</time>
      </trkpt>
      <trkpt lat="49.91527" lon="1.0076">
        <ele>36</ele>
        <time>2014-10-25T08:56:14.000Z</time>
      </trkpt>
      <trkpt lat="49.91516" lon="1.00763">
        <ele>37</ele>
        <time>2014-10-25T08:56:17.000Z</time>
      </trkpt>
      <trkpt lat="49.91512" lon="1.00763">
        <ele>38</ele>
        <time>2014-10-25T08:56:18.000Z</time>
      </trkpt>
      <trkpt lat="49.91502" lon="1.00764">
        <ele>38</ele>
        <time>2014-10-25T08:56:21.000Z</time>
      </trkpt>
      <trkpt lat="49.91499" lon="1.00764">
        <ele>38</ele>
        <time>2014-10-25T08:56:22.000Z</time>
      </trkpt>
      <trkpt lat="49.91488" lon="1.00764">
        <ele>39</ele>
        <time>2014-10-25T08:56:25.000Z</time>
      </trkpt>
      <trkpt lat="49.91485" lon="1.00765">
        <ele>40</ele>
        <time>2014-10-25T08:56:26.000Z</time>
      </trkpt>
      <trkpt lat="49.91472" lon="1.00769">
        <ele>41</ele>
        <time>2014-10-25T08:56:29.000Z</time>
      </trkpt>
      <trkpt lat="49.91467" lon="1.00772">
        <ele>42</ele>
        <time>2014-10-25T08:56:30.000Z</time>
      </trkpt>
      <trkpt lat="49.91464" lon="1.00775">
        <ele>42</ele>
        <time>2014-10-25T08:56:31.000Z</time>
      </trkpt>
      <trkpt lat="49.91459" lon="1.00779">
        <ele>43</ele>
        <time>2014-10-25T08:56:32.000Z</time>
      </trkpt>
      <trkpt lat="49.91456" lon="1.00782">
        <ele>44</ele>
        <time>2014-10-25T08:56:33.000Z</time>
      </trkpt>
      <trkpt lat="49.91451" lon="1.00785">
        <ele>45</ele>
        <time>2014-10-25T08:56:34.000Z</time>
      </trkpt>
      <trkpt lat="49.91446" lon="1.00787">
        <ele>46</ele>
        <time>2014-10-25T08:56:35.000Z</time>
      </trkpt>
      <trkpt lat="49.91441" lon="1.00789">
        <ele>47</ele>
        <time>2014-10-25T08:56:36.000Z</time>
      </trkpt>
      <trkpt lat="49.91437" lon="1.00791">
        <ele>48</ele>
        <time>2014-10-25T08:56:37.000Z</time>
      </trkpt>
      <trkpt lat="49.91432" lon="1.00793">
        <ele>49</ele>
        <time>2014-10-25T08:56:38.000Z</time>
      </trkpt>
      <trkpt lat="49.91428" lon="1.00796">
        <ele>50</ele>
        <time>2014-10-25T08:56:39.000Z</time>
      </trkpt>
      <trkpt lat="49.91423" lon="1.00798">
        <ele>52</ele>
        <time>2014-10-25T08:56:40.000Z</time>
      </trkpt>
      <trkpt lat="49.91419" lon="1.008">
        <ele>53</ele>
        <time>2014-10-25T08:56:41.000Z</time>
      </trkpt>
      <trkpt lat="49.91409" lon="1.00805">
        <ele>57</ele>
        <time>2014-10-25T08:56:44.000Z</time>
      </trkpt>
      <trkpt lat="49.91407" lon="1.00806">
        <ele>58</ele>
        <time>2014-10-25T08:56:45.000Z</time>
      </trkpt>
      <trkpt lat="49.91398" lon="1.00807">
        <ele>62</ele>
        <time>2014-10-25T08:56:50.000Z</time>
      </trkpt>
      <trkpt lat="49.91396" lon="1.00807">
        <ele>62</ele>
        <time>2014-10-25T08:56:51.000Z</time>
      </trkpt>
      <trkpt lat="49.91384" lon="1.00808">
        <ele>61</ele>
        <time>2014-10-25T08:56:56.000Z</time>
      </trkpt>
      <trkpt lat="49.91383" lon="1.00808">
        <ele>61</ele>
        <time>2014-10-25T08:56:57.000Z</time>
      </trkpt>
      <trkpt lat="49.91372" lon="1.00807">
        <ele>60</ele>
        <time>2014-10-25T08:57:01.000Z</time>
      </trkpt>
      <trkpt lat="49.9137" lon="1.00808">
        <ele>59</ele>
        <time>2014-10-25T08:57:02.000Z</time>
      </trkpt>
      <trkpt lat="49.91359" lon="1.00807">
        <ele>59</ele>
        <time>2014-10-25T08:57:06.000Z</time>
      </trkpt>
      <trkpt lat="49.91356" lon="1.00807">
        <ele>59</ele>
        <time>2014-10-25T08:57:07.000Z</time>
      </trkpt>
      <trkpt lat="49.91353" lon="1.0082">
        <ele>57</ele>
        <time>2014-10-25T08:57:17.000Z</time>
      </trkpt>
      <trkpt lat="49.91354" lon="1.00824">
        <ele>57</ele>
        <time>2014-10-25T08:57:18.000Z</time>
      </trkpt>
      <trkpt lat="49.91362" lon="1.00845">
        <ele>53</ele>
        <time>2014-10-25T08:57:25.000Z</time>
      </trkpt>
      <trkpt lat="49.91363" lon="1.00849">
        <ele>52</ele>
        <time>2014-10-25T08:57:26.000Z</time>
      </trkpt>
      <trkpt lat="49.91362" lon="1.00865">
        <ele>49</ele>
        <time>2014-10-25T08:57:31.000Z</time>
      </trkpt>
      <trkpt lat="49.91361" lon="1.00868">
        <ele>48</ele>
        <time>2014-10-25T08:57:32.000Z</time>
      </trkpt>
      <trkpt lat="49.91353" lon="1.00877">
        <ele>45</ele>
        <time>2014-10-25T08:57:36.000Z</time>
      </trkpt>
      <trkpt lat="49.91351" lon="1.00878">
        <ele>44</ele>
        <time>2014-10-25T08:57:37.000Z</time>
      </trkpt>
      <trkpt lat="49.91342" lon="1.00888">
        <ele>43</ele>
        <time>2014-10-25T08:57:41.000Z</time>
      </trkpt>
      <trkpt lat="49.91341" lon="1.0089">
        <ele>43</ele>
        <time>2014-10-25T08:57:42.000Z</time>
      </trkpt>
      <trkpt lat="49.91335" lon="1.00901">
        <ele>45</ele>
        <time>2014-10-25T08:57:46.000Z</time>
      </trkpt>
      <trkpt lat="49.91335" lon="1.00904">
        <ele>46</ele>
        <time>2014-10-25T08:57:47.000Z</time>
      </trkpt>
      <trkpt lat="49.91328" lon="1.00916">
        <ele>49</ele>
        <time>2014-10-25T08:57:52.000Z</time>
      </trkpt>
      <trkpt lat="49.91325" lon="1.00918">
        <ele>50</ele>
        <time>2014-10-25T08:57:53.000Z</time>
      </trkpt>
      <trkpt lat="49.91317" lon="1.00928">
        <ele>49</ele>
        <time>2014-10-25T08:57:57.000Z</time>
      </trkpt>
      <trkpt lat="49.91316" lon="1.0093">
        <ele>49</ele>
        <time>2014-10-25T08:57:58.000Z</time>
      </trkpt>
      <trkpt lat="49.91308" lon="1.00941">
        <ele>49</ele>
        <time>2014-10-25T08:58:02.000Z</time>
      </trkpt>
      <trkpt lat="49.91307" lon="1.00944">
        <ele>50</ele>
        <time>2014-10-25T08:58:03.000Z</time>
      </trkpt>
      <trkpt lat="49.91298" lon="1.00954">
        <ele>54</ele>
        <time>2014-10-25T08:58:08.000Z</time>
      </trkpt>
      <trkpt lat="49.91296" lon="1.00956">
        <ele>55</ele>
        <time>2014-10-25T08:58:09.000Z</time>
      </trkpt>
      <trkpt lat="49.91291" lon="1.00967">
        <ele>58</ele>
        <time>2014-10-25T08:58:14.000Z</time>
      </trkpt>
      <trkpt lat="49.9129" lon="1.00968">
        <ele>59</ele>
        <time>2014-10-25T08:58:15.000Z</time>
      </trkpt>
      <trkpt lat="49.91285" lon="1.00981">
        <ele>62</ele>
        <time>2014-10-25T08:58:20.000Z</time>
      </trkpt>
      <trkpt lat="49.91284" lon="1.00984">
        <ele>63</ele>
        <time>2014-10-25T08:58:21.000Z</time>
      </trkpt>
      <trkpt lat="49.91276" lon="1.00993">
        <ele>68</ele>
        <time>2014-10-25T08:58:26.000Z</time>
      </trkpt>
      <trkpt lat="49.91275" lon="1.00993">
        <ele>69</ele>
        <time>2014-10-25T08:58:27.000Z</time>
      </trkpt>
      <trkpt lat="49.91269" lon="1.01004">
        <ele>71</ele>
        <time>2014-10-25T08:58:38.000Z</time>
      </trkpt>
      <trkpt lat="49.91268" lon="1.01004">
        <ele>70</ele>
        <time>2014-10-25T08:58:39.000Z</time>
      </trkpt>
      <trkpt lat="49.9126" lon="1.01014">
        <ele>62</ele>
        <time>2014-10-25T08:58:50.000Z</time>
      </trkpt>
      <trkpt lat="49.91259" lon="1.01015">
        <ele>61</ele>
        <time>2014-10-25T08:58:51.000Z</time>
      </trkpt>
      <trkpt lat="49.91258" lon="1.01031">
        <ele>56</ele>
        <time>2014-10-25T08:59:01.000Z</time>
      </trkpt>
      <trkpt lat="49.91256" lon="1.01032">
        <ele>56</ele>
        <time>2014-10-25T08:59:02.000Z</time>
      </trkpt>
      <trkpt lat="49.91247" lon="1.01038">
        <ele>56</ele>
        <time>2014-10-25T08:59:08.000Z</time>
      </trkpt>
      <trkpt lat="49.91245" lon="1.0104">
        <ele>56</ele>
        <time>2014-10-25T08:59:09.000Z</time>
      </trkpt>
      <trkpt lat="49.91237" lon="1.01049">
        <ele>56</ele>
        <time>2014-10-25T08:59:14.000Z</time>
      </trkpt>
      <trkpt lat="49.91235" lon="1.01051">
        <ele>56</ele>
        <time>2014-10-25T08:59:15.000Z</time>
      </trkpt>
      <trkpt lat="49.91229" lon="1.01062">
        <ele>59</ele>
        <time>2014-10-25T08:59:22.000Z</time>
      </trkpt>
      <trkpt lat="49.91227" lon="1.01064">
        <ele>59</ele>
        <time>2014-10-25T08:59:23.000Z</time>
      </trkpt>
      <trkpt lat="49.91223" lon="1.01077">
        <ele>57</ele>
        <time>2014-10-25T08:59:31.000Z</time>
      </trkpt>
      <trkpt lat="49.91221" lon="1.01078">
        <ele>57</ele>
        <time>2014-10-25T08:59:32.000Z</time>
      </trkpt>
      <trkpt lat="49.91214" lon="1.01088">
        <ele>59</ele>
        <time>2014-10-25T08:59:40.000Z</time>
      </trkpt>
      <trkpt lat="49.91214" lon="1.0109">
        <ele>60</ele>
        <time>2014-10-25T08:59:41.000Z</time>
      </trkpt>
      <trkpt lat="49.91206" lon="1.01098">
        <ele>63</ele>
        <time>2014-10-25T08:59:47.000Z</time>
      </trkpt>
      <trkpt lat="49.91205" lon="1.01099">
        <ele>63</ele>
        <time>2014-10-25T08:59:48.000Z</time>
      </trkpt>
      <trkpt lat="49.91196" lon="1.01106">
        <ele>65</ele>
        <time>2014-10-25T08:59:53.000Z</time>
      </trkpt>
      <trkpt lat="49.91195" lon="1.01107">
        <ele>65</ele>
        <time>2014-10-25T08:59:54.000Z</time>
      </trkpt>
      <trkpt lat="49.91189" lon="1.01119">
        <ele>66</ele>
        <time>2014-10-25T09:00:01.000Z</time>
      </trkpt>
      <trkpt lat="49.91188" lon="1.0112">
        <ele>67</ele>
        <time>2014-10-25T09:00:02.000Z</time>
      </trkpt>
      <trkpt lat="49.91178" lon="1.01129">
        <ele>73</ele>
        <time>2014-10-25T09:00:08.000Z</time>
      </trkpt>
      <trkpt lat="49.91177" lon="1.01131">
        <ele>74</ele>
        <time>2014-10-25T09:00:09.000Z</time>
      </trkpt>
      <trkpt lat="49.91168" lon="1.01136">
        <ele>77</ele>
        <time>2014-10-25T09:00:13.000Z</time>
      </trkpt>
      <trkpt lat="49.91167" lon="1.01137">
        <ele>78</ele>
        <time>2014-10-25T09:00:14.000Z</time>
      </trkpt>
      <trkpt lat="49.91159" lon="1.01145">
        <ele>82</ele>
        <time>2014-10-25T09:00:21.000Z</time>
      </trkpt>
      <trkpt lat="49.91158" lon="1.01146">
        <ele>82</ele>
        <time>2014-10-25T09:00:22.000Z</time>
      </trkpt>
      <trkpt lat="49.91149" lon="1.01153">
        <ele>83</ele>
        <time>2014-10-25T09:00:27.000Z</time>
      </trkpt>
      <trkpt lat="49.91147" lon="1.01155">
        <ele>83</ele>
        <time>2014-10-25T09:00:28.000Z</time>
      </trkpt>
      <trkpt lat="49.9114" lon="1.01165">
        <ele>81</ele>
        <time>2014-10-25T09:00:32.000Z</time>
      </trkpt>
      <trkpt lat="49.91139" lon="1.01167">
        <ele>81</ele>
        <time>2014-10-25T09:00:33.000Z</time>
      </trkpt>
      <trkpt lat="49.91132" lon="1.01175">
        <ele>80</ele>
        <time>2014-10-25T09:00:37.000Z</time>
      </trkpt>
      <trkpt lat="49.9113" lon="1.01177">
        <ele>80</ele>
        <time>2014-10-25T09:00:38.000Z</time>
      </trkpt>
      <trkpt lat="49.91124" lon="1.01187">
        <ele>80</ele>
        <time>2014-10-25T09:00:44.000Z</time>
      </trkpt>
      <trkpt lat="49.91123" lon="1.01189">
        <ele>80</ele>
        <time>2014-10-25T09:00:45.000Z</time>
      </trkpt>
      <trkpt lat="49.91116" lon="1.012">
        <ele>77</ele>
        <time>2014-10-25T09:00:51.000Z</time>
      </trkpt>
      <trkpt lat="49.91116" lon="1.01201">
        <ele>77</ele>
        <time>2014-10-25T09:00:52.000Z</time>
      </trkpt>
      <trkpt lat="49.9111" lon="1.01214">
        <ele>82</ele>
        <time>2014-10-25T09:01:00.000Z</time>
      </trkpt>
      <trkpt lat="49.91108" lon="1.01215">
        <ele>83</ele>
        <time>2014-10-25T09:01:01.000Z</time>
      </trkpt>
      <trkpt lat="49.91099" lon="1.01219">
        <ele>87</ele>
        <time>2014-10-25T09:01:04.000Z</time>
      </trkpt>
      <trkpt lat="49.91097" lon="1.01221">
        <ele>87</ele>
        <time>2014-10-25T09:01:05.000Z</time>
      </trkpt>
      <trkpt lat="49.91089" lon="1.01228">
        <ele>89</ele>
        <time>2014-10-25T09:01:10.000Z</time>
      </trkpt>
      <trkpt lat="49.91087" lon="1.01229">
        <ele>89</ele>
        <time>2014-10-25T09:01:11.000Z</time>
      </trkpt>
      <trkpt lat="49.91078" lon="1.01236">
        <ele>90</ele>
        <time>2014-10-25T09:01:17.000Z</time>
      </trkpt>
      <trkpt lat="49.91078" lon="1.01236">
        <ele>90</ele>
        <time>2014-10-25T09:01:18.000Z</time>
      </trkpt>
      <trkpt lat="49.9107" lon="1.01245">
        <ele>90</ele>
        <time>2014-10-25T09:01:27.000Z</time>
      </trkpt>
      <trkpt lat="49.9107" lon="1.01247">
        <ele>90</ele>
        <time>2014-10-25T09:01:28.000Z</time>
      </trkpt>
      <trkpt lat="49.91069" lon="1.01262">
        <ele>91</ele>
        <time>2014-10-25T09:01:37.000Z</time>
      </trkpt>
      <trkpt lat="49.91071" lon="1.01264">
        <ele>91</ele>
        <time>2014-10-25T09:01:38.000Z</time>
      </trkpt>
      <trkpt lat="49.91073" lon="1.01279">
        <ele>89</ele>
        <time>2014-10-25T09:01:47.000Z</time>
      </trkpt>
      <trkpt lat="49.91073" lon="1.01282">
        <ele>89</ele>
        <time>2014-10-25T09:01:48.000Z</time>
      </trkpt>
      <trkpt lat="49.91074" lon="1.01298">
        <ele>89</ele>
        <time>2014-10-25T09:01:55.000Z</time>
      </trkpt>
      <trkpt lat="49.91074" lon="1.013">
        <ele>89</ele>
        <time>2014-10-25T09:01:56.000Z</time>
      </trkpt>
      <trkpt lat="49.91077" lon="1.01314">
        <ele>89</ele>
        <time>2014-10-25T09:02:01.000Z</time>
      </trkpt>
      <trkpt lat="49.91077" lon="1.01317">
        <ele>89</ele>
        <time>2014-10-25T09:02:02.000Z</time>
      </trkpt>
      <trkpt lat="49.91082" lon="1.0133">
        <ele>91</ele>
        <time>2014-10-25T09:02:07.000Z</time>
      </trkpt>
      <trkpt lat="49.91081" lon="1.01333">
        <ele>91</ele>
        <time>2014-10-25T09:02:08.000Z</time>
      </trkpt>
      <trkpt lat="49.91073" lon="1.01343">
        <ele>91</ele>
        <time>2014-10-25T09:02:14.000Z</time>
      </trkpt>
      <trkpt lat="49.91073" lon="1.01343">
        <ele>91</ele>
        <time>2014-10-25T09:02:15.000Z</time>
      </trkpt>
      <trkpt lat="49.91065" lon="1.01353">
        <ele>86</ele>
        <time>2014-10-25T09:02:29.000Z</time>
      </trkpt>
      <trkpt lat="49.91065" lon="1.01354">
        <ele>86</ele>
        <time>2014-10-25T09:02:30.000Z</time>
      </trkpt>
      <trkpt lat="49.91072" lon="1.01367">
        <ele>86</ele>
        <time>2014-10-25T09:03:48.000Z</time>
      </trkpt>
      <trkpt lat="49.91075" lon="1.01368">
        <ele>86</ele>
        <time>2014-10-25T09:03:49.000Z</time>
      </trkpt>
      <trkpt lat="49.91084" lon="1.01373">
        <ele>86</ele>
        <time>2014-10-25T09:03:52.000Z</time>
      </trkpt>
      <trkpt lat="49.91087" lon="1.01375">
        <ele>86</ele>
        <time>2014-10-25T09:03:53.000Z</time>
      </trkpt>
      <trkpt lat="49.91096" lon="1.0138">
        <ele>86</ele>
        <time>2014-10-25T09:03:56.000Z</time>
      </trkpt>
      <trkpt lat="49.91098" lon="1.01381">
        <ele>86</ele>
        <time>2014-10-25T09:03:57.000Z</time>
      </trkpt>
      <trkpt lat="49.91109" lon="1.01387">
        <ele>86</ele>
        <time>2014-10-25T09:04:01.000Z</time>
      </trkpt>
      <trkpt lat="49.91112" lon="1.0139">
        <ele>86</ele>
        <time>2014-10-25T09:04:02.000Z</time>
      </trkpt>
      <trkpt lat="49.9112" lon="1.01395">
        <ele>87</ele>
        <time>2014-10-25T09:04:05.000Z</time>
      </trkpt>
      <trkpt lat="49.91123" lon="1.01398">
        <ele>87</ele>
        <time>2014-10-25T09:04:06.000Z</time>
      </trkpt>
      <trkpt lat="49.91131" lon="1.01405">
        <ele>88</ele>
        <time>2014-10-25T09:04:09.000Z</time>
      </trkpt>
      <trkpt lat="49.91133" lon="1.01408">
        <ele>88</ele>
        <time>2014-10-25T09:04:10.000Z</time>
      </trkpt>
      <trkpt lat="49.91142" lon="1.01419">
        <ele>89</ele>
        <time>2014-10-25T09:04:14.000Z</time>
      </trkpt>
      <trkpt lat="49.91144" lon="1.01421">
        <ele>89</ele>
        <time>2014-10-25T09:04:15.000Z</time>
      </trkpt>
      <trkpt lat="49.91153" lon="1.01431">
        <ele>90</ele>
        <time>2014-10-25T09:04:19.000Z</time>
      </trkpt>
      <trkpt lat="49.91155" lon="1.01434">
        <ele>91</ele>
        <time>2014-10-25T09:04:20.000Z</time>
      </trkpt>
      <trkpt lat="49.91162" lon="1.01448">
        <ele>92</ele>
        <time>2014-10-25T09:04:24.000Z</time>
      </trkpt>
      <trkpt lat="49.91163" lon="1.01452">
        <ele>93</ele>
        <time>2014-10-25T09:04:25.000Z</time>
      </trkpt>
      <trkpt lat="49.9117" lon="1.01468">
        <ele>94</ele>
        <time>2014-10-25T09:04:29.000Z</time>
      </trkpt>
      <trkpt lat="49.91172" lon="1.01472">
        <ele>94</ele>
        <time>2014-10-25T09:04:30.000Z</time>
      </trkpt>
      <trkpt lat="49.91178" lon="1.01485">
        <ele>96</ele>
        <time>2014-10-25T09:04:33.000Z</time>
      </trkpt>
      <trkpt lat="49.91181" lon="1.0149">
        <ele>96</ele>
        <time>2014-10-25T09:04:34.000Z</time>
      </trkpt>
      <trkpt lat="49.91188" lon="1.01504">
        <ele>96</ele>
        <time>2014-10-25T09:04:37.000Z</time>
      </trkpt>
      <trkpt lat="49.9119" lon="1.01509">
        <ele>96</ele>
        <time>2014-10-25T09:04:38.000Z</time>
      </trkpt>
      <trkpt lat="49.91196" lon="1.01524">
        <ele>96</ele>
        <time>2014-10-25T09:04:41.000Z</time>
      </trkpt>
      <trkpt lat="49.912" lon="1.01529">
        <ele>95</ele>
        <time>2014-10-25T09:04:42.000Z</time>
      </trkpt>
      <trkpt lat="49.91203" lon="1.01535">
        <ele>95</ele>
        <time>2014-10-25T09:04:43.000Z</time>
      </trkpt>
      <trkpt lat="49.91206" lon="1.0154">
        <ele>94</ele>
        <time>2014-10-25T09:04:44.000Z</time>
      </trkpt>
      <trkpt lat="49.91209" lon="1.01545">
        <ele>94</ele>
        <time>2014-10-25T09:04:45.000Z</time>
      </trkpt>
      <trkpt lat="49.91213" lon="1.0155">
        <ele>94</ele>
        <time>2014-10-25T09:04:46.000Z</time>
      </trkpt>
      <trkpt lat="49.91216" lon="1.01556">
        <ele>94</ele>
        <time>2014-10-25T09:04:47.000Z</time>
      </trkpt>
      <trkpt lat="49.91219" lon="1.01562">
        <ele>94</ele>
        <time>2014-10-25T09:04:48.000Z</time>
      </trkpt>
      <trkpt lat="49.91222" lon="1.01567">
        <ele>94</ele>
        <time>2014-10-25T09:04:49.000Z</time>
      </trkpt>
      <trkpt lat="49.91225" lon="1.01572">
        <ele>94</ele>
        <time>2014-10-25T09:04:50.000Z</time>
      </trkpt>
      <trkpt lat="49.91229" lon="1.01578">
        <ele>94</ele>
        <time>2014-10-25T09:04:51.000Z</time>
      </trkpt>
      <trkpt lat="49.91232" lon="1.01584">
        <ele>94</ele>
        <time>2014-10-25T09:04:52.000Z</time>
      </trkpt>
      <trkpt lat="49.91235" lon="1.0159">
        <ele>93</ele>
        <time>2014-10-25T09:04:53.000Z</time>
      </trkpt>
      <trkpt lat="49.91239" lon="1.01595">
        <ele>93</ele>
        <time>2014-10-25T09:04:54.000Z</time>
      </trkpt>
      <trkpt lat="49.91242" lon="1.016">
        <ele>93</ele>
        <time>2014-10-25T09:04:55.000Z</time>
      </trkpt>
      <trkpt lat="49.91245" lon="1.01606">
        <ele>93</ele>
        <time>2014-10-25T09:04:56.000Z</time>
      </trkpt>
      <trkpt lat="49.91248" lon="1.01612">
        <ele>93</ele>
        <time>2014-10-25T09:04:57.000Z</time>
      </trkpt>
      <trkpt lat="49.91252" lon="1.01618">
        <ele>92</ele>
        <time>2014-10-25T09:04:58.000Z</time>
      </trkpt>
      <trkpt lat="49.91256" lon="1.01623">
        <ele>92</ele>
        <time>2014-10-25T09:04:59.000Z</time>
      </trkpt>
      <trkpt lat="49.91259" lon="1.01629">
        <ele>92</ele>
        <time>2014-10-25T09:05:00.000Z</time>
      </trkpt>
      <trkpt lat="49.91263" lon="1.01634">
        <ele>91</ele>
        <time>2014-10-25T09:05:01.000Z</time>
      </trkpt>
      <trkpt lat="49.91266" lon="1.0164">
        <ele>91</ele>
        <time>2014-10-25T09:05:02.000Z</time>
      </trkpt>
      <trkpt lat="49.91269" lon="1.01645">
        <ele>90</ele>
        <time>2014-10-25T09:05:03.000Z</time>
      </trkpt>
      <trkpt lat="49.91275" lon="1.01659">
        <ele>89</ele>
        <time>2014-10-25T09:05:06.000Z</time>
      </trkpt>
      <trkpt lat="49.91277" lon="1.01665">
        <ele>88</ele>
        <time>2014-10-25T09:05:07.000Z</time>
      </trkpt>
      <trkpt lat="49.91281" lon="1.01679">
        <ele>86</ele>
        <time>2014-10-25T09:05:11.000Z</time>
      </trkpt>
      <trkpt lat="49.91282" lon="1.01681">
        <ele>85</ele>
        <time>2014-10-25T09:05:12.000Z</time>
      </trkpt>
      <trkpt lat="49.91289" lon="1.01693">
        <ele>84</ele>
        <time>2014-10-25T09:05:16.000Z</time>
      </trkpt>
      <trkpt lat="49.9129" lon="1.01695">
        <ele>84</ele>
        <time>2014-10-25T09:05:17.000Z</time>
      </trkpt>
      <trkpt lat="49.91296" lon="1.0171">
        <ele>84</ele>
        <time>2014-10-25T09:05:23.000Z</time>
      </trkpt>
      <trkpt lat="49.91297" lon="1.01713">
        <ele>84</ele>
        <time>2014-10-25T09:05:24.000Z</time>
      </trkpt>
      <trkpt lat="49.91307" lon="1.0172">
        <ele>83</ele>
        <time>2014-10-25T09:05:31.000Z</time>
      </trkpt>
      <trkpt lat="49.91309" lon="1.01723">
        <ele>83</ele>
        <time>2014-10-25T09:05:32.000Z</time>
      </trkpt>
      <trkpt lat="49.91318" lon="1.01736">
        <ele>81</ele>
        <time>2014-10-25T09:05:36.000Z</time>
      </trkpt>
      <trkpt lat="49.9132" lon="1.01739">
        <ele>80</ele>
        <time>2014-10-25T09:05:37.000Z</time>
      </trkpt>
      <trkpt lat="49.91328" lon="1.01748">
        <ele>79</ele>
        <time>2014-10-25T09:05:40.000Z</time>
      </trkpt>
      <trkpt lat="49.9133" lon="1.01751">
        <ele>78</ele>
        <time>2014-10-25T09:05:41.000Z</time>
      </trkpt>
      <trkpt lat="49.91338" lon="1.0176">
        <ele>77</ele>
        <time>2014-10-25T09:05:44.000Z</time>
      </trkpt>
      <trkpt lat="49.9134" lon="1.01762">
        <ele>76</ele>
        <time>2014-10-25T09:05:45.000Z</time>
      </trkpt>
      <trkpt lat="49.91348" lon="1.01774">
        <ele>73</ele>
        <time>2014-10-25T09:05:49.000Z</time>
      </trkpt>
      <trkpt lat="49.91349" lon="1.01778">
        <ele>72</ele>
        <time>2014-10-25T09:05:50.000Z</time>
      </trkpt>
      <trkpt lat="49.91354" lon="1.0179">
        <ele>69</ele>
        <time>2014-10-25T09:05:53.000Z</time>
      </trkpt>
      <trkpt lat="49.91355" lon="1.01795">
        <ele>68</ele>
        <time>2014-10-25T09:05:54.000Z</time>
      </trkpt>
      <trkpt lat="49.91361" lon="1.01811">
        <ele>64</ele>
        <time>2014-10-25T09:05:57.000Z</time>
      </trkpt>
      <trkpt lat="49.91362" lon="1.01817">
        <ele>63</ele>
        <time>2014-10-25T09:05:58.000Z</time>
      </trkpt>
      <trkpt lat="49.91366" lon="1.01834">
        <ele>60</ele>
        <time>2014-10-25T09:06:01.000Z</time>
      </trkpt>
      <trkpt lat="49.91367" lon="1.01839">
        <ele>59</ele>
        <time>2014-10-25T09:06:02.000Z</time>
      </trkpt>
      <trkpt lat="49.91371" lon="1.01857">
        <ele>55</ele>
        <time>2014-10-25T09:06:05.000Z</time>
      </trkpt>
      <trkpt lat="49.91372" lon="1.01864">
        <ele>54</ele>
        <time>2014-10-25T09:06:06.000Z</time>
      </trkpt>
      <trkpt lat="49.91373" lon="1.01872">
        <ele>53</ele>
        <time>2014-10-25T09:06:07.000Z</time>
      </trkpt>
      <trkpt lat="49.91375" lon="1.01879">
        <ele>52</ele>
        <time>2014-10-25T09:06:08.000Z</time>
      </trkpt>
      <trkpt lat="49.91376" lon="1.01886">
        <ele>51</ele>
        <time>2014-10-25T09:06:09.000Z</time>
      </trkpt>
      <trkpt lat="49.91377" lon="1.01892">
        <ele>50</ele>
        <time>2014-10-25T09:06:10.000Z</time>
      </trkpt>
      <trkpt lat="49.9138" lon="1.0191">
        <ele>46</ele>
        <time>2014-10-25T09:06:13.000Z</time>
      </trkpt>
      <trkpt lat="49.91381" lon="1.01914">
        <ele>45</ele>
        <time>2014-10-25T09:06:14.000Z</time>
      </trkpt>
      <trkpt lat="49.91383" lon="1.01928">
        <ele>41</ele>
        <time>2014-10-25T09:06:31.000Z</time>
      </trkpt>
      <trkpt lat="49.91383" lon="1.01928">
        <ele>42</ele>
        <time>2014-10-25T09:06:32.000Z</time>
      </trkpt>
      <trkpt lat="49.91386" lon="1.01945">
        <ele>42</ele>
        <time>2014-10-25T09:06:38.000Z</time>
      </trkpt>
      <trkpt lat="49.91386" lon="1.01951">
        <ele>41</ele>
        <time>2014-10-25T09:06:39.000Z</time>
      </trkpt>
      <trkpt lat="49.91379" lon="1.01963">
        <ele>40</ele>
        <time>2014-10-25T09:06:45.000Z</time>
      </trkpt>
      <trkpt lat="49.91376" lon="1.01964">
        <ele>40</ele>
        <time>2014-10-25T09:06:46.000Z</time>
      </trkpt>
      <trkpt lat="49.91366" lon="1.01966">
        <ele>40</ele>
        <time>2014-10-25T09:06:49.000Z</time>
      </trkpt>
      <trkpt lat="49.91363" lon="1.01967">
        <ele>40</ele>
        <time>2014-10-25T09:06:50.000Z</time>
      </trkpt>
      <trkpt lat="49.91353" lon="1.0197">
        <ele>40</ele>
        <time>2014-10-25T09:06:53.000Z</time>
      </trkpt>
      <trkpt lat="49.9135" lon="1.01971">
        <ele>40</ele>
        <time>2014-10-25T09:06:54.000Z</time>
      </trkpt>
      <trkpt lat="49.91338" lon="1.01976">
        <ele>41</ele>
        <time>2014-10-25T09:06:57.000Z</time>
      </trkpt>
      <trkpt lat="49.91334" lon="1.01977">
        <ele>41</ele>
        <time>2014-10-25T09:06:58.000Z</time>
      </trkpt>
      <trkpt lat="49.91322" lon="1.01979">
        <ele>42</ele>
        <time>2014-10-25T09:07:01.000Z</time>
      </trkpt>
      <trkpt lat="49.91318" lon="1.0198">
        <ele>42</ele>
        <time>2014-10-25T09:07:02.000Z</time>
      </trkpt>
      <trkpt lat="49.91306" lon="1.01985">
        <ele>43</ele>
        <time>2014-10-25T09:07:05.000Z</time>
      </trkpt>
      <trkpt lat="49.91302" lon="1.01987">
        <ele>44</ele>
        <time>2014-10-25T09:07:06.000Z</time>
      </trkpt>
      <trkpt lat="49.9129" lon="1.01993">
        <ele>44</ele>
        <time>2014-10-25T09:07:09.000Z</time>
      </trkpt>
      <trkpt lat="49.91286" lon="1.01995">
        <ele>44</ele>
        <time>2014-10-25T09:07:10.000Z</time>
      </trkpt>
      <trkpt lat="49.91274" lon="1.02003">
        <ele>44</ele>
        <time>2014-10-25T09:07:13.000Z</time>
      </trkpt>
      <trkpt lat="49.9127" lon="1.02005">
        <ele>45</ele>
        <time>2014-10-25T09:07:14.000Z</time>
      </trkpt>
      <trkpt lat="49.91259" lon="1.02013">
        <ele>46</ele>
        <time>2014-10-25T09:07:17.000Z</time>
      </trkpt>
      <trkpt lat="49.91255" lon="1.02016">
        <ele>46</ele>
        <time>2014-10-25T09:07:18.000Z</time>
      </trkpt>
      <trkpt lat="49.91245" lon="1.02025">
        <ele>48</ele>
        <time>2014-10-25T09:07:21.000Z</time>
      </trkpt>
      <trkpt lat="49.91242" lon="1.02028">
        <ele>48</ele>
        <time>2014-10-25T09:07:22.000Z</time>
      </trkpt>
      <trkpt lat="49.91231" lon="1.02037">
        <ele>48</ele>
        <time>2014-10-25T09:07:25.000Z</time>
      </trkpt>
      <trkpt lat="49.91227" lon="1.02039">
        <ele>48</ele>
        <time>2014-10-25T09:07:26.000Z</time>
      </trkpt>
      <trkpt lat="49.91217" lon="1.02048">
        <ele>48</ele>
        <time>2014-10-25T09:07:29.000Z</time>
      </trkpt>
      <trkpt lat="49.91213" lon="1.0205">
        <ele>48</ele>
        <time>2014-10-25T09:07:30.000Z</time>
      </trkpt>
      <trkpt lat="49.91204" lon="1.02059">
        <ele>48</ele>
        <time>2014-10-25T09:07:33.000Z</time>
      </trkpt>
      <trkpt lat="49.91201" lon="1.02062">
        <ele>48</ele>
        <time>2014-10-25T09:07:34.000Z</time>
      </trkpt>
      <trkpt lat="49.91198" lon="1.02078">
        <ele>48</ele>
        <time>2014-10-25T09:07:38.000Z</time>
      </trkpt>
      <trkpt lat="49.912" lon="1.0208">
        <ele>48</ele>
        <time>2014-10-25T09:07:39.000Z</time>
      </trkpt>
      <trkpt lat="49.91211" lon="1.02081">
        <ele>48</ele>
        <time>2014-10-25T09:07:43.000Z</time>
      </trkpt>
      <trkpt lat="49.91214" lon="1.02079">
        <ele>48</ele>
        <time>2014-10-25T09:07:44.000Z</time>
      </trkpt>
      <trkpt lat="49.91224" lon="1.02074">
        <ele>49</ele>
        <time>2014-10-25T09:07:47.000Z</time>
      </trkpt>
      <trkpt lat="49.91227" lon="1.02072">
        <ele>49</ele>
        <time>2014-10-25T09:07:48.000Z</time>
      </trkpt>
      <trkpt lat="49.91238" lon="1.02067">
        <ele>49</ele>
        <time>2014-10-25T09:07:51.000Z</time>
      </trkpt>
      <trkpt lat="49.91243" lon="1.02065">
        <ele>49</ele>
        <time>2014-10-25T09:07:52.000Z</time>
      </trkpt>
      <trkpt lat="49.91247" lon="1.02063">
        <ele>49</ele>
        <time>2014-10-25T09:07:53.000Z</time>
      </trkpt>
      <trkpt lat="49.91251" lon="1.02061">
        <ele>49</ele>
        <time>2014-10-25T09:07:54.000Z</time>
      </trkpt>
      <trkpt lat="49.91256" lon="1.02059">
        <ele>49</ele>
        <time>2014-10-25T09:07:55.000Z</time>
      </trkpt>
      <trkpt lat="49.9126" lon="1.02057">
        <ele>49</ele>
        <time>2014-10-25T09:07:56.000Z</time>
      </trkpt>
      <trkpt lat="49.91265" lon="1.02055">
        <ele>49</ele>
        <time>2014-10-25T09:07:57.000Z</time>
      </trkpt>
      <trkpt lat="49.91269" lon="1.02053">
        <ele>49</ele>
        <time>2014-10-25T09:07:58.000Z</time>
      </trkpt>
      <trkpt lat="49.91274" lon="1.02051">
        <ele>50</ele>
        <time>2014-10-25T09:07:59.000Z</time>
      </trkpt>
      <trkpt lat="49.91279" lon="1.0205">
        <ele>50</ele>
        <time>2014-10-25T09:08:00.000Z</time>
      </trkpt>
      <trkpt lat="49.91283" lon="1.02049">
        <ele>50</ele>
        <time>2014-10-25T09:08:01.000Z</time>
      </trkpt>
      <trkpt lat="49.91288" lon="1.02048">
        <ele>51</ele>
        <time>2014-10-25T09:08:02.000Z</time>
      </trkpt>
      <trkpt lat="49.91293" lon="1.02048">
        <ele>51</ele>
        <time>2014-10-25T09:08:03.000Z</time>
      </trkpt>
      <trkpt lat="49.91297" lon="1.02047">
        <ele>51</ele>
        <time>2014-10-25T09:08:04.000Z</time>
      </trkpt>
      <trkpt lat="49.91302" lon="1.02047">
        <ele>50</ele>
        <time>2014-10-25T09:08:05.000Z</time>
      </trkpt>
      <trkpt lat="49.91314" lon="1.02047">
        <ele>50</ele>
        <time>2014-10-25T09:08:08.000Z</time>
      </trkpt>
      <trkpt lat="49.91319" lon="1.02048">
        <ele>50</ele>
        <time>2014-10-25T09:08:09.000Z</time>
      </trkpt>
      <trkpt lat="49.91328" lon="1.02048">
        <ele>50</ele>
        <time>2014-10-25T09:08:11.000Z</time>
      </trkpt>
      <trkpt lat="49.91333" lon="1.02048">
        <ele>49</ele>
        <time>2014-10-25T09:08:12.000Z</time>
      </trkpt>
      <trkpt lat="49.91338" lon="1.02049">
        <ele>49</ele>
        <time>2014-10-25T09:08:13.000Z</time>
      </trkpt>
      <trkpt lat="49.91343" lon="1.0205">
        <ele>49</ele>
        <time>2014-10-25T09:08:14.000Z</time>
      </trkpt>
      <trkpt lat="49.91348" lon="1.02052">
        <ele>49</ele>
        <time>2014-10-25T09:08:15.000Z</time>
      </trkpt>
      <trkpt lat="49.91353" lon="1.02054">
        <ele>48</ele>
        <time>2014-10-25T09:08:16.000Z</time>
      </trkpt>
      <trkpt lat="49.91357" lon="1.02055">
        <ele>48</ele>
        <time>2014-10-25T09:08:17.000Z</time>
      </trkpt>
      <trkpt lat="49.91367" lon="1.02061">
        <ele>48</ele>
        <time>2014-10-25T09:08:20.000Z</time>
      </trkpt>
      <trkpt lat="49.91369" lon="1.02062">
        <ele>47</ele>
        <time>2014-10-25T09:08:21.000Z</time>
      </trkpt>
      <trkpt lat="49.9138" lon="1.02068">
        <ele>47</ele>
        <time>2014-10-25T09:08:25.000Z</time>
      </trkpt>
      <trkpt lat="49.91384" lon="1.02071">
        <ele>47</ele>
        <time>2014-10-25T09:08:26.000Z</time>
      </trkpt>
      <trkpt lat="49.91395" lon="1.02083">
        <ele>46</ele>
        <time>2014-10-25T09:08:29.000Z</time>
      </trkpt>
      <trkpt lat="49.91399" lon="1.02088">
        <ele>46</ele>
        <time>2014-10-25T09:08:30.000Z</time>
      </trkpt>
      <trkpt lat="49.91406" lon="1.02097">
        <ele>45</ele>
        <time>2014-10-25T09:08:32.000Z</time>
      </trkpt>
      <trkpt lat="49.9141" lon="1.02102">
        <ele>45</ele>
        <time>2014-10-25T09:08:33.000Z</time>
      </trkpt>
      <trkpt lat="49.91414" lon="1.02107">
        <ele>45</ele>
        <time>2014-10-25T09:08:34.000Z</time>
      </trkpt>
      <trkpt lat="49.91418" lon="1.02112">
        <ele>45</ele>
        <time>2014-10-25T09:08:35.000Z</time>
      </trkpt>
      <trkpt lat="49.91422" lon="1.02117">
        <ele>46</ele>
        <time>2014-10-25T09:08:36.000Z</time>
      </trkpt>
      <trkpt lat="49.91426" lon="1.02122">
        <ele>46</ele>
        <time>2014-10-25T09:08:37.000Z</time>
      </trkpt>
      <trkpt lat="49.91429" lon="1.02127">
        <ele>46</ele>
        <time>2014-10-25T09:08:38.000Z</time>
      </trkpt>
      <trkpt lat="49.91433" lon="1.02132">
        <ele>46</ele>
        <time>2014-10-25T09:08:39.000Z</time>
      </trkpt>
      <trkpt lat="49.91437" lon="1.02136">
        <ele>47</ele>
        <time>2014-10-25T09:08:40.000Z</time>
      </trkpt>
      <trkpt lat="49.91446" lon="1.0215">
        <ele>47</ele>
        <time>2014-10-25T09:08:43.000Z</time>
      </trkpt>
      <trkpt lat="49.91449" lon="1.02153">
        <ele>47</ele>
        <time>2014-10-25T09:08:44.000Z</time>
      </trkpt>
      <trkpt lat="49.91456" lon="1.02165">
        <ele>48</ele>
        <time>2014-10-25T09:08:47.000Z</time>
      </trkpt>
      <trkpt lat="49.91458" lon="1.02168">
        <ele>48</ele>
        <time>2014-10-25T09:08:48.000Z</time>
      </trkpt>
      <trkpt lat="49.91467" lon="1.02178">
        <ele>48</ele>
        <time>2014-10-25T09:08:51.000Z</time>
      </trkpt>
      <trkpt lat="49.91469" lon="1.02182">
        <ele>48</ele>
        <time>2014-10-25T09:08:52.000Z</time>
      </trkpt>
      <trkpt lat="49.91478" lon="1.02194">
        <ele>49</ele>
        <time>2014-10-25T09:08:55.000Z</time>
      </trkpt>
      <trkpt lat="49.91481" lon="1.02198">
        <ele>49</ele>
        <time>2014-10-25T09:08:56.000Z</time>
      </trkpt>
      <trkpt lat="49.91489" lon="1.02209">
        <ele>49</ele>
        <time>2014-10-25T09:08:59.000Z</time>
      </trkpt>
      <trkpt lat="49.91491" lon="1.02213">
        <ele>49</ele>
        <time>2014-10-25T09:09:00.000Z</time>
      </trkpt>
      <trkpt lat="49.91499" lon="1.02226">
        <ele>49</ele>
        <time>2014-10-25T09:09:03.000Z</time>
      </trkpt>
      <trkpt lat="49.91501" lon="1.02229">
        <ele>49</ele>
        <time>2014-10-25T09:09:04.000Z</time>
      </trkpt>
      <trkpt lat="49.91509" lon="1.02241">
        <ele>48</ele>
        <time>2014-10-25T09:09:07.000Z</time>
      </trkpt>
      <trkpt lat="49.91511" lon="1.02245">
        <ele>48</ele>
        <time>2014-10-25T09:09:08.000Z</time>
      </trkpt>
      <trkpt lat="49.91518" lon="1.02259">
        <ele>47</ele>
        <time>2014-10-25T09:09:11.000Z</time>
      </trkpt>
      <trkpt lat="49.9152" lon="1.02265">
        <ele>47</ele>
        <time>2014-10-25T09:09:12.000Z</time>
      </trkpt>
      <trkpt lat="49.91524" lon="1.02278">
        <ele>47</ele>
        <time>2014-10-25T09:09:14.000Z</time>
      </trkpt>
      <trkpt lat="49.91526" lon="1.02285">
        <ele>46</ele>
        <time>2014-10-25T09:09:15.000Z</time>
      </trkpt>
      <trkpt lat="49.91527" lon="1.02292">
        <ele>46</ele>
        <time>2014-10-25T09:09:16.000Z</time>
      </trkpt>
      <trkpt lat="49.91529" lon="1.02299">
        <ele>46</ele>
        <time>2014-10-25T09:09:17.000Z</time>
      </trkpt>
      <trkpt lat="49.9153" lon="1.02306">
        <ele>46</ele>
        <time>2014-10-25T09:09:18.000Z</time>
      </trkpt>
      <trkpt lat="49.91531" lon="1.02314">
        <ele>45</ele>
        <time>2014-10-25T09:09:19.000Z</time>
      </trkpt>
      <trkpt lat="49.91532" lon="1.02321">
        <ele>45</ele>
        <time>2014-10-25T09:09:20.000Z</time>
      </trkpt>
      <trkpt lat="49.91533" lon="1.02328">
        <ele>45</ele>
        <time>2014-10-25T09:09:21.000Z</time>
      </trkpt>
      <trkpt lat="49.91534" lon="1.02335">
        <ele>45</ele>
        <time>2014-10-25T09:09:22.000Z</time>
      </trkpt>
      <trkpt lat="49.91536" lon="1.02343">
        <ele>45</ele>
        <time>2014-10-25T09:09:23.000Z</time>
      </trkpt>
      <trkpt lat="49.91537" lon="1.0235">
        <ele>44</ele>
        <time>2014-10-25T09:09:24.000Z</time>
      </trkpt>
      <trkpt lat="49.91538" lon="1.02357">
        <ele>44</ele>
        <time>2014-10-25T09:09:25.000Z</time>
      </trkpt>
      <trkpt lat="49.91539" lon="1.02364">
        <ele>44</ele>
        <time>2014-10-25T09:09:26.000Z</time>
      </trkpt>
      <trkpt lat="49.91539" lon="1.02371">
        <ele>43</ele>
        <time>2014-10-25T09:09:27.000Z</time>
      </trkpt>
      <trkpt lat="49.91542" lon="1.02391">
        <ele>43</ele>
        <time>2014-10-25T09:09:30.000Z</time>
      </trkpt>
      <trkpt lat="49.91543" lon="1.02399">
        <ele>43</ele>
        <time>2014-10-25T09:09:31.000Z</time>
      </trkpt>
      <trkpt lat="49.91544" lon="1.02406">
        <ele>43</ele>
        <time>2014-10-25T09:09:32.000Z</time>
      </trkpt>
      <trkpt lat="49.91545" lon="1.02413">
        <ele>42</ele>
        <time>2014-10-25T09:09:33.000Z</time>
      </trkpt>
      <trkpt lat="49.91546" lon="1.02419">
        <ele>42</ele>
        <time>2014-10-25T09:09:34.000Z</time>
      </trkpt>
      <trkpt lat="49.91548" lon="1.02433">
        <ele>42</ele>
        <time>2014-10-25T09:09:36.000Z</time>
      </trkpt>
      <trkpt lat="49.91549" lon="1.0244">
        <ele>42</ele>
        <time>2014-10-25T09:09:37.000Z</time>
      </trkpt>
      <trkpt lat="49.9155" lon="1.02447">
        <ele>42</ele>
        <time>2014-10-25T09:09:38.000Z</time>
      </trkpt>
      <trkpt lat="49.91551" lon="1.02467">
        <ele>41</ele>
        <time>2014-10-25T09:09:41.000Z</time>
      </trkpt>
      <trkpt lat="49.91552" lon="1.02473">
        <ele>41</ele>
        <time>2014-10-25T09:09:42.000Z</time>
      </trkpt>
      <trkpt lat="49.91552" lon="1.02492">
        <ele>41</ele>
        <time>2014-10-25T09:09:45.000Z</time>
      </trkpt>
      <trkpt lat="49.91553" lon="1.02498">
        <ele>41</ele>
        <time>2014-10-25T09:09:46.000Z</time>
      </trkpt>
      <trkpt lat="49.91554" lon="1.02517">
        <ele>41</ele>
        <time>2014-10-25T09:09:49.000Z</time>
      </trkpt>
      <trkpt lat="49.91555" lon="1.02523">
        <ele>41</ele>
        <time>2014-10-25T09:09:50.000Z</time>
      </trkpt>
      <trkpt lat="49.91557" lon="1.0253">
        <ele>41</ele>
        <time>2014-10-25T09:09:51.000Z</time>
      </trkpt>
      <trkpt lat="49.91559" lon="1.02547">
        <ele>40</ele>
        <time>2014-10-25T09:09:54.000Z</time>
      </trkpt>
      <trkpt lat="49.91559" lon="1.02552">
        <ele>40</ele>
        <time>2014-10-25T09:09:55.000Z</time>
      </trkpt>
      <trkpt lat="49.91559" lon="1.02567">
        <ele>39</ele>
        <time>2014-10-25T09:09:59.000Z</time>
      </trkpt>
      <trkpt lat="49.91559" lon="1.0257">
        <ele>39</ele>
        <time>2014-10-25T09:10:00.000Z</time>
      </trkpt>
      <trkpt lat="49.9156" lon="1.02586">
        <ele>39</ele>
        <time>2014-10-25T09:10:03.000Z</time>
      </trkpt>
      <trkpt lat="49.9156" lon="1.02592">
        <ele>38</ele>
        <time>2014-10-25T09:10:04.000Z</time>
      </trkpt>
      <trkpt lat="49.9156" lon="1.02611">
        <ele>38</ele>
        <time>2014-10-25T09:10:07.000Z</time>
      </trkpt>
      <trkpt lat="49.91561" lon="1.02618">
        <ele>37</ele>
        <time>2014-10-25T09:10:08.000Z</time>
      </trkpt>
      <trkpt lat="49.91563" lon="1.02625">
        <ele>37</ele>
        <time>2014-10-25T09:10:09.000Z</time>
      </trkpt>
      <trkpt lat="49.91564" lon="1.02634">
        <ele>36</ele>
        <time>2014-10-25T09:10:10.000Z</time>
      </trkpt>
      <trkpt lat="49.91565" lon="1.02643">
        <ele>35</ele>
        <time>2014-10-25T09:10:11.000Z</time>
      </trkpt>
      <trkpt lat="49.91565" lon="1.02652">
        <ele>35</ele>
        <time>2014-10-25T09:10:12.000Z</time>
      </trkpt>
      <trkpt lat="49.91566" lon="1.02662">
        <ele>34</ele>
        <time>2014-10-25T09:10:13.000Z</time>
      </trkpt>
      <trkpt lat="49.91566" lon="1.02671">
        <ele>33</ele>
        <time>2014-10-25T09:10:14.000Z</time>
      </trkpt>
      <trkpt lat="49.91566" lon="1.02681">
        <ele>32</ele>
        <time>2014-10-25T09:10:15.000Z</time>
      </trkpt>
      <trkpt lat="49.91566" lon="1.02691">
        <ele>31</ele>
        <time>2014-10-25T09:10:16.000Z</time>
      </trkpt>
      <trkpt lat="49.91567" lon="1.02699">
        <ele>31</ele>
        <time>2014-10-25T09:10:17.000Z</time>
      </trkpt>
      <trkpt lat="49.91568" lon="1.02707">
        <ele>30</ele>
        <time>2014-10-25T09:10:18.000Z</time>
      </trkpt>
      <trkpt lat="49.91568" lon="1.02713">
        <ele>29</ele>
        <time>2014-10-25T09:10:19.000Z</time>
      </trkpt>
      <trkpt lat="49.9157" lon="1.02729">
        <ele>26</ele>
        <time>2014-10-25T09:10:23.000Z</time>
      </trkpt>
      <trkpt lat="49.9157" lon="1.0273">
        <ele>26</ele>
        <time>2014-10-25T09:10:24.000Z</time>
      </trkpt>
      <trkpt lat="49.91579" lon="1.02733">
        <ele>24</ele>
        <time>2014-10-25T09:10:33.000Z</time>
      </trkpt>
      <trkpt lat="49.91582" lon="1.02733">
        <ele>24</ele>
        <time>2014-10-25T09:10:34.000Z</time>
      </trkpt>
      <trkpt lat="49.91591" lon="1.02736">
        <ele>24</ele>
        <time>2014-10-25T09:10:37.000Z</time>
      </trkpt>
      <trkpt lat="49.91594" lon="1.02739">
        <ele>24</ele>
        <time>2014-10-25T09:10:38.000Z</time>
      </trkpt>
      <trkpt lat="49.91603" lon="1.02747">
        <ele>23</ele>
        <time>2014-10-25T09:10:42.000Z</time>
      </trkpt>
      <trkpt lat="49.91605" lon="1.0275">
        <ele>23</ele>
        <time>2014-10-25T09:10:43.000Z</time>
      </trkpt>
      <trkpt lat="49.9161" lon="1.02763">
        <ele>22</ele>
        <time>2014-10-25T09:10:46.000Z</time>
      </trkpt>
      <trkpt lat="49.9161" lon="1.02768">
        <ele>21</ele>
        <time>2014-10-25T09:10:47.000Z</time>
      </trkpt>
      <trkpt lat="49.9161" lon="1.02786">
        <ele>18</ele>
        <time>2014-10-25T09:10:50.000Z</time>
      </trkpt>
      <trkpt lat="49.91611" lon="1.02792">
        <ele>18</ele>
        <time>2014-10-25T09:10:51.000Z</time>
      </trkpt>
      <trkpt lat="49.91613" lon="1.02809">
        <ele>15</ele>
        <time>2014-10-25T09:10:54.000Z</time>
      </trkpt>
      <trkpt lat="49.91615" lon="1.02814">
        <ele>14</ele>
        <time>2014-10-25T09:10:55.000Z</time>
      </trkpt>
      <trkpt lat="49.9162" lon="1.02827">
        <ele>11</ele>
        <time>2014-10-25T09:10:59.000Z</time>
      </trkpt>
      <trkpt lat="49.91622" lon="1.02829">
        <ele>11</ele>
        <time>2014-10-25T09:11:00.000Z</time>
      </trkpt>
      <trkpt lat="49.91629" lon="1.02841">
        <ele>10</ele>
        <time>2014-10-25T09:11:06.000Z</time>
      </trkpt>
      <trkpt lat="49.91632" lon="1.02843">
        <ele>10</ele>
        <time>2014-10-25T09:11:07.000Z</time>
      </trkpt>
      <trkpt lat="49.9164" lon="1.02854">
        <ele>10</ele>
        <time>2014-10-25T09:11:11.000Z</time>
      </trkpt>
      <trkpt lat="49.91641" lon="1.02857">
        <ele>10</ele>
        <time>2014-10-25T09:11:12.000Z</time>
      </trkpt>
      <trkpt lat="49.91642" lon="1.02874">
        <ele>10</ele>
        <time>2014-10-25T09:11:16.000Z</time>
      </trkpt>
      <trkpt lat="49.91641" lon="1.02879">
        <ele>10</ele>
        <time>2014-10-25T09:11:17.000Z</time>
      </trkpt>
      <trkpt lat="49.91636" lon="1.02892">
        <ele>10</ele>
        <time>2014-10-25T09:11:20.000Z</time>
      </trkpt>
      <trkpt lat="49.91636" lon="1.02896">
        <ele>10</ele>
        <time>2014-10-25T09:11:21.000Z</time>
      </trkpt>
      <trkpt lat="49.91641" lon="1.02908">
        <ele>10</ele>
        <time>2014-10-25T09:11:24.000Z</time>
      </trkpt>
      <trkpt lat="49.91643" lon="1.02913">
        <ele>10</ele>
        <time>2014-10-25T09:11:25.000Z</time>
      </trkpt>
      <trkpt lat="49.91652" lon="1.02926">
        <ele>10</ele>
        <time>2014-10-25T09:11:28.000Z</time>
      </trkpt>
      <trkpt lat="49.91655" lon="1.02931">
        <ele>10</ele>
        <time>2014-10-25T09:11:29.000Z</time>
      </trkpt>
      <trkpt lat="49.91664" lon="1.02945">
        <ele>10</ele>
        <time>2014-10-25T09:11:32.000Z</time>
      </trkpt>
      <trkpt lat="49.91667" lon="1.0295">
        <ele>10</ele>
        <time>2014-10-25T09:11:33.000Z</time>
      </trkpt>
      <trkpt lat="49.91674" lon="1.02964">
        <ele>10</ele>
        <time>2014-10-25T09:11:36.000Z</time>
      </trkpt>
      <trkpt lat="49.91676" lon="1.02968">
        <ele>10</ele>
        <time>2014-10-25T09:11:37.000Z</time>
      </trkpt>
      <trkpt lat="49.91668" lon="1.02981">
        <ele>9</ele>
        <time>2014-10-25T09:11:41.000Z</time>
      </trkpt>
      <trkpt lat="49.91665" lon="1.02984">
        <ele>9</ele>
        <time>2014-10-25T09:11:42.000Z</time>
      </trkpt>
      <trkpt lat="49.91656" lon="1.02993">
        <ele>9</ele>
        <time>2014-10-25T09:11:45.000Z</time>
      </trkpt>
      <trkpt lat="49.91654" lon="1.02996">
        <ele>9</ele>
        <time>2014-10-25T09:11:46.000Z</time>
      </trkpt>
      <trkpt lat="49.91651" lon="1.03011">
        <ele>9</ele>
        <time>2014-10-25T09:11:49.000Z</time>
      </trkpt>
      <trkpt lat="49.91652" lon="1.03016">
        <ele>9</ele>
        <time>2014-10-25T09:11:50.000Z</time>
      </trkpt>
      <trkpt lat="49.91658" lon="1.03034">
        <ele>9</ele>
        <time>2014-10-25T09:11:53.000Z</time>
      </trkpt>
      <trkpt lat="49.9166" lon="1.0304">
        <ele>9</ele>
        <time>2014-10-25T09:11:54.000Z</time>
      </trkpt>
      <trkpt lat="49.91663" lon="1.03046">
        <ele>9</ele>
        <time>2014-10-25T09:11:55.000Z</time>
      </trkpt>
      <trkpt lat="49.91665" lon="1.03052">
        <ele>9</ele>
        <time>2014-10-25T09:11:56.000Z</time>
      </trkpt>
      <trkpt lat="49.91668" lon="1.03059">
        <ele>9</ele>
        <time>2014-10-25T09:11:57.000Z</time>
      </trkpt>
      <trkpt lat="49.9167" lon="1.03065">
        <ele>10</ele>
        <time>2014-10-25T09:11:58.000Z</time>
      </trkpt>
      <trkpt lat="49.91673" lon="1.03072">
        <ele>10</ele>
        <time>2014-10-25T09:11:59.000Z</time>
      </trkpt>
      <trkpt lat="49.91675" lon="1.03078">
        <ele>10</ele>
        <time>2014-10-25T09:12:00.000Z</time>
      </trkpt>
      <trkpt lat="49.91678" lon="1.03084">
        <ele>10</ele>
        <time>2014-10-25T09:12:01.000Z</time>
      </trkpt>
      <trkpt lat="49.9168" lon="1.0309">
        <ele>10</ele>
        <time>2014-10-25T09:12:02.000Z</time>
      </trkpt>
      <trkpt lat="49.91684" lon="1.03104">
        <ele>10</ele>
        <time>2014-10-25T09:12:05.000Z</time>
      </trkpt>
      <trkpt lat="49.91684" lon="1.03108">
        <ele>10</ele>
        <time>2014-10-25T09:12:06.000Z</time>
      </trkpt>
      <trkpt lat="49.91678" lon="1.03117">
        <ele>10</ele>
        <time>2014-10-25T09:12:09.000Z</time>
      </trkpt>
      <trkpt lat="49.91675" lon="1.03121">
        <ele>10</ele>
        <time>2014-10-25T09:12:10.000Z</time>
      </trkpt>
      <trkpt lat="49.91667" lon="1.03129">
        <ele>9</ele>
        <time>2014-10-25T09:12:12.000Z</time>
      </trkpt>
      <trkpt lat="49.91662" lon="1.03134">
        <ele>9</ele>
        <time>2014-10-25T09:12:13.000Z</time>
      </trkpt>
      <trkpt lat="49.91657" lon="1.03139">
        <ele>8</ele>
        <time>2014-10-25T09:12:14.000Z</time>
      </trkpt>
      <trkpt lat="49.91652" lon="1.03143">
        <ele>8</ele>
        <time>2014-10-25T09:12:15.000Z</time>
      </trkpt>
      <trkpt lat="49.91647" lon="1.03148">
        <ele>8</ele>
        <time>2014-10-25T09:12:16.000Z</time>
      </trkpt>
      <trkpt lat="49.91642" lon="1.03152">
        <ele>7</ele>
        <time>2014-10-25T09:12:17.000Z</time>
      </trkpt>
      <trkpt lat="49.91637" lon="1.03156">
        <ele>7</ele>
        <time>2014-10-25T09:12:18.000Z</time>
      </trkpt>
      <trkpt lat="49.91633" lon="1.0316">
        <ele>7</ele>
        <time>2014-10-25T09:12:19.000Z</time>
      </trkpt>
      <trkpt lat="49.91628" lon="1.03163">
        <ele>6</ele>
        <time>2014-10-25T09:12:20.000Z</time>
      </trkpt>
      <trkpt lat="49.91623" lon="1.03167">
        <ele>6</ele>
        <time>2014-10-25T09:12:21.000Z</time>
      </trkpt>
      <trkpt lat="49.91618" lon="1.03171">
        <ele>6</ele>
        <time>2014-10-25T09:12:22.000Z</time>
      </trkpt>
      <trkpt lat="49.91613" lon="1.03175">
        <ele>6</ele>
        <time>2014-10-25T09:12:23.000Z</time>
      </trkpt>
      <trkpt lat="49.91608" lon="1.03179">
        <ele>6</ele>
        <time>2014-10-25T09:12:24.000Z</time>
      </trkpt>
      <trkpt lat="49.91604" lon="1.03183">
        <ele>6</ele>
        <time>2014-10-25T09:12:25.000Z</time>
      </trkpt>
      <trkpt lat="49.91599" lon="1.03186">
        <ele>6</ele>
        <time>2014-10-25T09:12:26.000Z</time>
      </trkpt>
      <trkpt lat="49.91593" lon="1.03187">
        <ele>6</ele>
        <time>2014-10-25T09:12:27.000Z</time>
      </trkpt>
      <trkpt lat="49.91587" lon="1.03188">
        <ele>5</ele>
        <time>2014-10-25T09:12:28.000Z</time>
      </trkpt>
      <trkpt lat="49.91581" lon="1.03188">
        <ele>5</ele>
        <time>2014-10-25T09:12:29.000Z</time>
      </trkpt>
      <trkpt lat="49.91576" lon="1.03187">
        <ele>5</ele>
        <time>2014-10-25T09:12:30.000Z</time>
      </trkpt>
      <trkpt lat="49.9157" lon="1.03186">
        <ele>5</ele>
        <time>2014-10-25T09:12:31.000Z</time>
      </trkpt>
      <trkpt lat="49.91565" lon="1.03184">
        <ele>5</ele>
        <time>2014-10-25T09:12:32.000Z</time>
      </trkpt>
      <trkpt lat="49.91559" lon="1.03183">
        <ele>5</ele>
        <time>2014-10-25T09:12:33.000Z</time>
      </trkpt>
      <trkpt lat="49.91554" lon="1.03181">
        <ele>5</ele>
        <time>2014-10-25T09:12:34.000Z</time>
      </trkpt>
      <trkpt lat="49.91549" lon="1.03178">
        <ele>5</ele>
        <time>2014-10-25T09:12:35.000Z</time>
      </trkpt>
      <trkpt lat="49.91544" lon="1.03174">
        <ele>5</ele>
        <time>2014-10-25T09:12:36.000Z</time>
      </trkpt>
      <trkpt lat="49.91539" lon="1.03169">
        <ele>6</ele>
        <time>2014-10-25T09:12:37.000Z</time>
      </trkpt>
      <trkpt lat="49.91534" lon="1.03164">
        <ele>6</ele>
        <time>2014-10-25T09:12:38.000Z</time>
      </trkpt>
      <trkpt lat="49.9153" lon="1.03159">
        <ele>6</ele>
        <time>2014-10-25T09:12:39.000Z</time>
      </trkpt>
      <trkpt lat="49.91526" lon="1.03155">
        <ele>6</ele>
        <time>2014-10-25T09:12:40.000Z</time>
      </trkpt>
      <trkpt lat="49.91522" lon="1.03152">
        <ele>6</ele>
        <time>2014-10-25T09:12:41.000Z</time>
      </trkpt>
      <trkpt lat="49.91518" lon="1.03149">
        <ele>6</ele>
        <time>2014-10-25T09:12:42.000Z</time>
      </trkpt>
      <trkpt lat="49.91507" lon="1.03145">
        <ele>6</ele>
        <time>2014-10-25T09:12:45.000Z</time>
      </trkpt>
      <trkpt lat="49.91504" lon="1.03148">
        <ele>6</ele>
        <time>2014-10-25T09:12:46.000Z</time>
      </trkpt>
      <trkpt lat="49.91497" lon="1.03161">
        <ele>7</ele>
        <time>2014-10-25T09:12:49.000Z</time>
      </trkpt>
      <trkpt lat="49.91494" lon="1.03166">
        <ele>7</ele>
        <time>2014-10-25T09:12:50.000Z</time>
      </trkpt>
      <trkpt lat="49.91491" lon="1.03171">
        <ele>7</ele>
        <time>2014-10-25T09:12:51.000Z</time>
      </trkpt>
      <trkpt lat="49.91488" lon="1.03177">
        <ele>7</ele>
        <time>2014-10-25T09:12:52.000Z</time>
      </trkpt>
      <trkpt lat="49.91485" lon="1.03183">
        <ele>7</ele>
        <time>2014-10-25T09:12:53.000Z</time>
      </trkpt>
      <trkpt lat="49.91481" lon="1.0319">
        <ele>7</ele>
        <time>2014-10-25T09:12:54.000Z</time>
      </trkpt>
      <trkpt lat="49.91478" lon="1.03197">
        <ele>7</ele>
        <time>2014-10-25T09:12:55.000Z</time>
      </trkpt>
      <trkpt lat="49.91475" lon="1.03204">
        <ele>6</ele>
        <time>2014-10-25T09:12:56.000Z</time>
      </trkpt>
      <trkpt lat="49.91473" lon="1.03212">
        <ele>6</ele>
        <time>2014-10-25T09:12:57.000Z</time>
      </trkpt>
      <trkpt lat="49.9147" lon="1.03219">
        <ele>6</ele>
        <time>2014-10-25T09:12:58.000Z</time>
      </trkpt>
      <trkpt lat="49.91468" lon="1.03227">
        <ele>6</ele>
        <time>2014-10-25T09:12:59.000Z</time>
      </trkpt>
      <trkpt lat="49.91465" lon="1.03235">
        <ele>6</ele>
        <time>2014-10-25T09:13:00.000Z</time>
      </trkpt>
      <trkpt lat="49.91463" lon="1.03242">
        <ele>6</ele>
        <time>2014-10-25T09:13:01.000Z</time>
      </trkpt>
      <trkpt lat="49.9146" lon="1.03249">
        <ele>6</ele>
        <time>2014-10-25T09:13:02.000Z</time>
      </trkpt>
      <trkpt lat="49.91457" lon="1.03256">
        <ele>6</ele>
        <time>2014-10-25T09:13:03.000Z</time>
      </trkpt>
      <trkpt lat="49.91455" lon="1.03263">
        <ele>6</ele>
        <time>2014-10-25T09:13:04.000Z</time>
      </trkpt>
      <trkpt lat="49.91452" lon="1.0327">
        <ele>6</ele>
        <time>2014-10-25T09:13:05.000Z</time>
      </trkpt>
      <trkpt lat="49.91451" lon="1.03278">
        <ele>6</ele>
        <time>2014-10-25T09:13:06.000Z</time>
      </trkpt>
      <trkpt lat="49.91448" lon="1.03286">
        <ele>5</ele>
        <time>2014-10-25T09:13:07.000Z</time>
      </trkpt>
      <trkpt lat="49.91446" lon="1.03294">
        <ele>5</ele>
        <time>2014-10-25T09:13:08.000Z</time>
      </trkpt>
      <trkpt lat="49.91444" lon="1.03303">
        <ele>5</ele>
        <time>2014-10-25T09:13:09.000Z</time>
      </trkpt>
      <trkpt lat="49.91442" lon="1.03311">
        <ele>5</ele>
        <time>2014-10-25T09:13:10.000Z</time>
      </trkpt>
      <trkpt lat="49.9144" lon="1.0332">
        <ele>5</ele>
        <time>2014-10-25T09:13:11.000Z</time>
      </trkpt>
      <trkpt lat="49.91438" lon="1.03328">
        <ele>5</ele>
        <time>2014-10-25T09:13:12.000Z</time>
      </trkpt>
      <trkpt lat="49.91436" lon="1.03336">
        <ele>5</ele>
        <time>2014-10-25T09:13:13.000Z</time>
      </trkpt>
      <trkpt lat="49.91433" lon="1.03345">
        <ele>5</ele>
        <time>2014-10-25T09:13:14.000Z</time>
      </trkpt>
      <trkpt lat="49.91432" lon="1.03353">
        <ele>5</ele>
        <time>2014-10-25T09:13:15.000Z</time>
      </trkpt>
      <trkpt lat="49.9143" lon="1.0336">
        <ele>5</ele>
        <time>2014-10-25T09:13:16.000Z</time>
      </trkpt>
      <trkpt lat="49.91428" lon="1.03367">
        <ele>5</ele>
        <time>2014-10-25T09:13:17.000Z</time>
      </trkpt>
      <trkpt lat="49.91426" lon="1.03373">
        <ele>5</ele>
        <time>2014-10-25T09:13:18.000Z</time>
      </trkpt>
      <trkpt lat="49.91419" lon="1.03389">
        <ele>6</ele>
        <time>2014-10-25T09:13:21.000Z</time>
      </trkpt>
      <trkpt lat="49.91417" lon="1.03392">
        <ele>6</ele>
        <time>2014-10-25T09:13:22.000Z</time>
      </trkpt>
      <trkpt lat="49.9141" lon="1.0338">
        <ele>6</ele>
        <time>2014-10-25T09:13:28.000Z</time>
      </trkpt>
      <trkpt lat="49.91408" lon="1.03382">
        <ele>6</ele>
        <time>2014-10-25T09:13:29.000Z</time>
      </trkpt>
      <trkpt lat="49.914" lon="1.03373">
        <ele>7</ele>
        <time>2014-10-25T09:13:36.000Z</time>
      </trkpt>
      <trkpt lat="49.91398" lon="1.03373">
        <ele>8</ele>
        <time>2014-10-25T09:13:37.000Z</time>
      </trkpt>
      <trkpt lat="49.91389" lon="1.03375">
        <ele>9</ele>
        <time>2014-10-25T09:13:42.000Z</time>
      </trkpt>
      <trkpt lat="49.91389" lon="1.03371">
        <ele>9</ele>
        <time>2014-10-25T09:13:43.000Z</time>
      </trkpt>
      <trkpt lat="49.91379" lon="1.03368">
        <ele>10</ele>
        <time>2014-10-25T09:13:49.000Z</time>
      </trkpt>
      <trkpt lat="49.91377" lon="1.0337">
        <ele>10</ele>
        <time>2014-10-25T09:13:50.000Z</time>
      </trkpt>
      <trkpt lat="49.91371" lon="1.0338">
        <ele>10</ele>
        <time>2014-10-25T09:13:53.000Z</time>
      </trkpt>
      <trkpt lat="49.91368" lon="1.03384">
        <ele>10</ele>
        <time>2014-10-25T09:13:54.000Z</time>
      </trkpt>
      <trkpt lat="49.91359" lon="1.03398">
        <ele>11</ele>
        <time>2014-10-25T09:13:57.000Z</time>
      </trkpt>
      <trkpt lat="49.91356" lon="1.03403">
        <ele>11</ele>
        <time>2014-10-25T09:13:58.000Z</time>
      </trkpt>
      <trkpt lat="49.91348" lon="1.03415">
        <ele>11</ele>
        <time>2014-10-25T09:14:01.000Z</time>
      </trkpt>
      <trkpt lat="49.91346" lon="1.03419">
        <ele>11</ele>
        <time>2014-10-25T09:14:02.000Z</time>
      </trkpt>
      <trkpt lat="49.91337" lon="1.03425">
        <ele>10</ele>
        <time>2014-10-25T09:14:07.000Z</time>
      </trkpt>
      <trkpt lat="49.91335" lon="1.03424">
        <ele>10</ele>
        <time>2014-10-25T09:14:08.000Z</time>
      </trkpt>
      <trkpt lat="49.91325" lon="1.03419">
        <ele>11</ele>
        <time>2014-10-25T09:14:11.000Z</time>
      </trkpt>
      <trkpt lat="49.91322" lon="1.0342">
        <ele>11</ele>
        <time>2014-10-25T09:14:12.000Z</time>
      </trkpt>
      <trkpt lat="49.91312" lon="1.03428">
        <ele>11</ele>
        <time>2014-10-25T09:14:15.000Z</time>
      </trkpt>
      <trkpt lat="49.91308" lon="1.03431">
        <ele>11</ele>
        <time>2014-10-25T09:14:16.000Z</time>
      </trkpt>
      <trkpt lat="49.91296" lon="1.03435">
        <ele>12</ele>
        <time>2014-10-25T09:14:19.000Z</time>
      </trkpt>
      <trkpt lat="49.91292" lon="1.03436">
        <ele>12</ele>
        <time>2014-10-25T09:14:20.000Z</time>
      </trkpt>
      <trkpt lat="49.91283" lon="1.03437">
        <ele>12</ele>
        <time>2014-10-25T09:14:22.000Z</time>
      </trkpt>
      <trkpt lat="49.91279" lon="1.03438">
        <ele>12</ele>
        <time>2014-10-25T09:14:23.000Z</time>
      </trkpt>
      <trkpt lat="49.91269" lon="1.03438">
        <ele>13</ele>
        <time>2014-10-25T09:14:25.000Z</time>
      </trkpt>
      <trkpt lat="49.91265" lon="1.03437">
        <ele>13</ele>
        <time>2014-10-25T09:14:26.000Z</time>
      </trkpt>
      <trkpt lat="49.9126" lon="1.03436">
        <ele>13</ele>
        <time>2014-10-25T09:14:27.000Z</time>
      </trkpt>
      <trkpt lat="49.91248" lon="1.03432">
        <ele>13</ele>
        <time>2014-10-25T09:14:30.000Z</time>
      </trkpt>
      <trkpt lat="49.91243" lon="1.03431">
        <ele>14</ele>
        <time>2014-10-25T09:14:31.000Z</time>
      </trkpt>
      <trkpt lat="49.9123" lon="1.03427">
        <ele>15</ele>
        <time>2014-10-25T09:14:34.000Z</time>
      </trkpt>
      <trkpt lat="49.91226" lon="1.03427">
        <ele>15</ele>
        <time>2014-10-25T09:14:35.000Z</time>
      </trkpt>
      <trkpt lat="49.91213" lon="1.03425">
        <ele>16</ele>
        <time>2014-10-25T09:14:38.000Z</time>
      </trkpt>
      <trkpt lat="49.91209" lon="1.03425">
        <ele>17</ele>
        <time>2014-10-25T09:14:39.000Z</time>
      </trkpt>
      <trkpt lat="49.91198" lon="1.03426">
        <ele>18</ele>
        <time>2014-10-25T09:14:42.000Z</time>
      </trkpt>
      <trkpt lat="49.91194" lon="1.03427">
        <ele>18</ele>
        <time>2014-10-25T09:14:43.000Z</time>
      </trkpt>
      <trkpt lat="49.91185" lon="1.03429">
        <ele>19</ele>
        <time>2014-10-25T09:14:46.000Z</time>
      </trkpt>
      <trkpt lat="49.91182" lon="1.0343">
        <ele>19</ele>
        <time>2014-10-25T09:14:47.000Z</time>
      </trkpt>
      <trkpt lat="49.91172" lon="1.03433">
        <ele>20</ele>
        <time>2014-10-25T09:14:52.000Z</time>
      </trkpt>
      <trkpt lat="49.9117" lon="1.03434">
        <ele>20</ele>
        <time>2014-10-25T09:14:53.000Z</time>
      </trkpt>
      <trkpt lat="49.9116" lon="1.03436">
        <ele>21</ele>
        <time>2014-10-25T09:14:58.000Z</time>
      </trkpt>
      <trkpt lat="49.91159" lon="1.03437">
        <ele>21</ele>
        <time>2014-10-25T09:14:59.000Z</time>
      </trkpt>
      <trkpt lat="49.91149" lon="1.03437">
        <ele>23</ele>
        <time>2014-10-25T09:15:06.000Z</time>
      </trkpt>
      <trkpt lat="49.91148" lon="1.03436">
        <ele>23</ele>
        <time>2014-10-25T09:15:07.000Z</time>
      </trkpt>
      <trkpt lat="49.91138" lon="1.03432">
        <ele>25</ele>
        <time>2014-10-25T09:15:13.000Z</time>
      </trkpt>
      <trkpt lat="49.91137" lon="1.03431">
        <ele>25</ele>
        <time>2014-10-25T09:15:14.000Z</time>
      </trkpt>
      <trkpt lat="49.91127" lon="1.03426">
        <ele>28</ele>
        <time>2014-10-25T09:15:19.000Z</time>
      </trkpt>
      <trkpt lat="49.91124" lon="1.03425">
        <ele>28</ele>
        <time>2014-10-25T09:15:20.000Z</time>
      </trkpt>
      <trkpt lat="49.91115" lon="1.03419">
        <ele>31</ele>
        <time>2014-10-25T09:15:24.000Z</time>
      </trkpt>
      <trkpt lat="49.91113" lon="1.03418">
        <ele>31</ele>
        <time>2014-10-25T09:15:25.000Z</time>
      </trkpt>
      <trkpt lat="49.91104" lon="1.03408">
        <ele>33</ele>
        <time>2014-10-25T09:15:29.000Z</time>
      </trkpt>
      <trkpt lat="49.91102" lon="1.03406">
        <ele>34</ele>
        <time>2014-10-25T09:15:30.000Z</time>
      </trkpt>
      <trkpt lat="49.91093" lon="1.03394">
        <ele>34</ele>
        <time>2014-10-25T09:15:34.000Z</time>
      </trkpt>
      <trkpt lat="49.91091" lon="1.03391">
        <ele>33</ele>
        <time>2014-10-25T09:15:35.000Z</time>
      </trkpt>
      <trkpt lat="49.91084" lon="1.03382">
        <ele>32</ele>
        <time>2014-10-25T09:15:38.000Z</time>
      </trkpt>
      <trkpt lat="49.91082" lon="1.03379">
        <ele>32</ele>
        <time>2014-10-25T09:15:39.000Z</time>
      </trkpt>
      <trkpt lat="49.91073" lon="1.03367">
        <ele>30</ele>
        <time>2014-10-25T09:15:43.000Z</time>
      </trkpt>
      <trkpt lat="49.91071" lon="1.03364">
        <ele>29</ele>
        <time>2014-10-25T09:15:44.000Z</time>
      </trkpt>
      <trkpt lat="49.91064" lon="1.03353">
        <ele>27</ele>
        <time>2014-10-25T09:15:48.000Z</time>
      </trkpt>
      <trkpt lat="49.91062" lon="1.03351">
        <ele>26</ele>
        <time>2014-10-25T09:15:49.000Z</time>
      </trkpt>
      <trkpt lat="49.91054" lon="1.03343">
        <ele>24</ele>
        <time>2014-10-25T09:15:53.000Z</time>
      </trkpt>
      <trkpt lat="49.91053" lon="1.0334">
        <ele>24</ele>
        <time>2014-10-25T09:15:54.000Z</time>
      </trkpt>
      <trkpt lat="49.91047" lon="1.03328">
        <ele>21</ele>
        <time>2014-10-25T09:15:58.000Z</time>
      </trkpt>
      <trkpt lat="49.91045" lon="1.03324">
        <ele>21</ele>
        <time>2014-10-25T09:15:59.000Z</time>
      </trkpt>
      <trkpt lat="49.91039" lon="1.03311">
        <ele>23</ele>
        <time>2014-10-25T09:16:02.000Z</time>
      </trkpt>
      <trkpt lat="49.91037" lon="1.03306">
        <ele>24</ele>
        <time>2014-10-25T09:16:03.000Z</time>
      </trkpt>
      <trkpt lat="49.91033" lon="1.03293">
        <ele>27</ele>
        <time>2014-10-25T09:16:06.000Z</time>
      </trkpt>
      <trkpt lat="49.91032" lon="1.03289">
        <ele>28</ele>
        <time>2014-10-25T09:16:07.000Z</time>
      </trkpt>
      <trkpt lat="49.91028" lon="1.03273">
        <ele>32</ele>
        <time>2014-10-25T09:16:11.000Z</time>
      </trkpt>
      <trkpt lat="49.91027" lon="1.0327">
        <ele>33</ele>
        <time>2014-10-25T09:16:12.000Z</time>
      </trkpt>
      <trkpt lat="49.91021" lon="1.03258">
        <ele>42</ele>
        <time>2014-10-25T09:16:23.000Z</time>
      </trkpt>
      <trkpt lat="49.91021" lon="1.03257">
        <ele>42</ele>
        <time>2014-10-25T09:16:24.000Z</time>
      </trkpt>
      <trkpt lat="49.91019" lon="1.03243">
        <ele>47</ele>
        <time>2014-10-25T09:16:41.000Z</time>
      </trkpt>
      <trkpt lat="49.91019" lon="1.03242">
        <ele>48</ele>
        <time>2014-10-25T09:16:42.000Z</time>
      </trkpt>
      <trkpt lat="49.91015" lon="1.03229">
        <ele>49</ele>
        <time>2014-10-25T09:16:51.000Z</time>
      </trkpt>
      <trkpt lat="49.91015" lon="1.03229">
        <ele>49</ele>
        <time>2014-10-25T09:16:52.000Z</time>
      </trkpt>
      <trkpt lat="49.91011" lon="1.03215">
        <ele>43</ele>
        <time>2014-10-25T09:17:04.000Z</time>
      </trkpt>
      <trkpt lat="49.91011" lon="1.03213">
        <ele>43</ele>
        <time>2014-10-25T09:17:05.000Z</time>
      </trkpt>
      <trkpt lat="49.91007" lon="1.03198">
        <ele>42</ele>
        <time>2014-10-25T09:17:10.000Z</time>
      </trkpt>
      <trkpt lat="49.91008" lon="1.03196">
        <ele>41</ele>
        <time>2014-10-25T09:17:11.000Z</time>
      </trkpt>
      <trkpt lat="49.91007" lon="1.03181">
        <ele>39</ele>
        <time>2014-10-25T09:17:16.000Z</time>
      </trkpt>
      <trkpt lat="49.91006" lon="1.03178">
        <ele>39</ele>
        <time>2014-10-25T09:17:17.000Z</time>
      </trkpt>
      <trkpt lat="49.91005" lon="1.03162">
        <ele>41</ele>
        <time>2014-10-25T09:17:23.000Z</time>
      </trkpt>
      <trkpt lat="49.91005" lon="1.03159">
        <ele>42</ele>
        <time>2014-10-25T09:17:24.000Z</time>
      </trkpt>
      <trkpt lat="49.91001" lon="1.03146">
        <ele>42</ele>
        <time>2014-10-25T09:17:28.000Z</time>
      </trkpt>
      <trkpt lat="49.90999" lon="1.03142">
        <ele>43</ele>
        <time>2014-10-25T09:17:29.000Z</time>
      </trkpt>
      <trkpt lat="49.90994" lon="1.03127">
        <ele>45</ele>
        <time>2014-10-25T09:17:34.000Z</time>
      </trkpt>
      <trkpt lat="49.90994" lon="1.03125">
        <ele>45</ele>
        <time>2014-10-25T09:17:35.000Z</time>
      </trkpt>
      <trkpt lat="49.9099" lon="1.03111">
        <ele>47</ele>
        <time>2014-10-25T09:17:39.000Z</time>
      </trkpt>
      <trkpt lat="49.90989" lon="1.03108">
        <ele>47</ele>
        <time>2014-10-25T09:17:40.000Z</time>
      </trkpt>
      <trkpt lat="49.90981" lon="1.03098">
        <ele>45</ele>
        <time>2014-10-25T09:17:46.000Z</time>
      </trkpt>
      <trkpt lat="49.90978" lon="1.03097">
        <ele>44</ele>
        <time>2014-10-25T09:17:47.000Z</time>
      </trkpt>
      <trkpt lat="49.9097" lon="1.03088">
        <ele>42</ele>
        <time>2014-10-25T09:17:52.000Z</time>
      </trkpt>
      <trkpt lat="49.90969" lon="1.03085">
        <ele>42</ele>
        <time>2014-10-25T09:17:53.000Z</time>
      </trkpt>
      <trkpt lat="49.90963" lon="1.03072">
        <ele>40</ele>
        <time>2014-10-25T09:18:01.000Z</time>
      </trkpt>
      <trkpt lat="49.90961" lon="1.03071">
        <ele>40</ele>
        <time>2014-10-25T09:18:02.000Z</time>
      </trkpt>
      <trkpt lat="49.90953" lon="1.0306">
        <ele>37</ele>
        <time>2014-10-25T09:18:08.000Z</time>
      </trkpt>
      <trkpt lat="49.90951" lon="1.03058">
        <ele>37</ele>
        <time>2014-10-25T09:18:09.000Z</time>
      </trkpt>
      <trkpt lat="49.90945" lon="1.03046">
        <ele>36</ele>
        <time>2014-10-25T09:18:14.000Z</time>
      </trkpt>
      <trkpt lat="49.90943" lon="1.03043">
        <ele>36</ele>
        <time>2014-10-25T09:18:15.000Z</time>
      </trkpt>
      <trkpt lat="49.90937" lon="1.0303">
        <ele>36</ele>
        <time>2014-10-25T09:18:20.000Z</time>
      </trkpt>
      <trkpt lat="49.90936" lon="1.03028">
        <ele>36</ele>
        <time>2014-10-25T09:18:21.000Z</time>
      </trkpt>
      <trkpt lat="49.90931" lon="1.03014">
        <ele>36</ele>
        <time>2014-10-25T09:18:27.000Z</time>
      </trkpt>
      <trkpt lat="49.90931" lon="1.03013">
        <ele>36</ele>
        <time>2014-10-25T09:18:28.000Z</time>
      </trkpt>
      <trkpt lat="49.90926" lon="1.03001">
        <ele>36</ele>
        <time>2014-10-25T09:18:34.000Z</time>
      </trkpt>
      <trkpt lat="49.90925" lon="1.02999">
        <ele>36</ele>
        <time>2014-10-25T09:18:35.000Z</time>
      </trkpt>
      <trkpt lat="49.90919" lon="1.02986">
        <ele>36</ele>
        <time>2014-10-25T09:18:42.000Z</time>
      </trkpt>
      <trkpt lat="49.90918" lon="1.02984">
        <ele>36</ele>
        <time>2014-10-25T09:18:43.000Z</time>
      </trkpt>
      <trkpt lat="49.9091" lon="1.02976">
        <ele>38</ele>
        <time>2014-10-25T09:18:48.000Z</time>
      </trkpt>
      <trkpt lat="49.90908" lon="1.02974">
        <ele>39</ele>
        <time>2014-10-25T09:18:49.000Z</time>
      </trkpt>
      <trkpt lat="49.90902" lon="1.02964">
        <ele>44</ele>
        <time>2014-10-25T09:18:55.000Z</time>
      </trkpt>
      <trkpt lat="49.90902" lon="1.02963">
        <ele>44</ele>
        <time>2014-10-25T09:18:56.000Z</time>
      </trkpt>
      <trkpt lat="49.90895" lon="1.02953">
        <ele>44</ele>
        <time>2014-10-25T09:19:10.000Z</time>
      </trkpt>
      <trkpt lat="49.90895" lon="1.02952">
        <ele>44</ele>
        <time>2014-10-25T09:19:11.000Z</time>
      </trkpt>
      <trkpt lat="49.90891" lon="1.02938">
        <ele>43</ele>
        <time>2014-10-25T09:19:18.000Z</time>
      </trkpt>
      <trkpt lat="49.9089" lon="1.02936">
        <ele>44</ele>
        <time>2014-10-25T09:19:19.000Z</time>
      </trkpt>
      <trkpt lat="49.90887" lon="1.02923">
        <ele>45</ele>
        <time>2014-10-25T09:19:26.000Z</time>
      </trkpt>
      <trkpt lat="49.90886" lon="1.0292">
        <ele>45</ele>
        <time>2014-10-25T09:19:27.000Z</time>
      </trkpt>
      <trkpt lat="49.90885" lon="1.02906">
        <ele>45</ele>
        <time>2014-10-25T09:19:33.000Z</time>
      </trkpt>
      <trkpt lat="49.90885" lon="1.02904">
        <ele>45</ele>
        <time>2014-10-25T09:19:34.000Z</time>
      </trkpt>
      <trkpt lat="49.90882" lon="1.0289">
        <ele>46</ele>
        <time>2014-10-25T09:19:41.000Z</time>
      </trkpt>
      <trkpt lat="49.90883" lon="1.02887">
        <ele>46</ele>
        <time>2014-10-25T09:19:42.000Z</time>
      </trkpt>
      <trkpt lat="49.90883" lon="1.02873">
        <ele>51</ele>
        <time>2014-10-25T09:19:49.000Z</time>
      </trkpt>
      <trkpt lat="49.90883" lon="1.02871">
        <ele>52</ele>
        <time>2014-10-25T09:19:50.000Z</time>
      </trkpt>
      <trkpt lat="49.90879" lon="1.02856">
        <ele>55</ele>
        <time>2014-10-25T09:19:56.000Z</time>
      </trkpt>
      <trkpt lat="49.90878" lon="1.02854">
        <ele>55</ele>
        <time>2014-10-25T09:19:57.000Z</time>
      </trkpt>
      <trkpt lat="49.90871" lon="1.02842">
        <ele>58</ele>
        <time>2014-10-25T09:20:03.000Z</time>
      </trkpt>
      <trkpt lat="49.9087" lon="1.0284">
        <ele>58</ele>
        <time>2014-10-25T09:20:04.000Z</time>
      </trkpt>
      <trkpt lat="49.90863" lon="1.0283">
        <ele>57</ele>
        <time>2014-10-25T09:20:10.000Z</time>
      </trkpt>
      <trkpt lat="49.90863" lon="1.02829">
        <ele>57</ele>
        <time>2014-10-25T09:20:11.000Z</time>
      </trkpt>
      <trkpt lat="49.90856" lon="1.02819">
        <ele>57</ele>
        <time>2014-10-25T09:20:21.000Z</time>
      </trkpt>
      <trkpt lat="49.90856" lon="1.02818">
        <ele>57</ele>
        <time>2014-10-25T09:20:22.000Z</time>
      </trkpt>
      <trkpt lat="49.90847" lon="1.02818">
        <ele>67</ele>
        <time>2014-10-25T09:20:46.000Z</time>
      </trkpt>
      <trkpt lat="49.90847" lon="1.02818">
        <ele>68</ele>
        <time>2014-10-25T09:20:47.000Z</time>
      </trkpt>
      <trkpt lat="49.90844" lon="1.02832">
        <ele>70</ele>
        <time>2014-10-25T09:21:03.000Z</time>
      </trkpt>
      <trkpt lat="49.90844" lon="1.02832">
        <ele>70</ele>
        <time>2014-10-25T09:21:04.000Z</time>
      </trkpt>
      <trkpt lat="49.90842" lon="1.02846">
        <ele>68</ele>
        <time>2014-10-25T09:21:24.000Z</time>
      </trkpt>
      <trkpt lat="49.90842" lon="1.02846">
        <ele>68</ele>
        <time>2014-10-25T09:21:25.000Z</time>
      </trkpt>
      <trkpt lat="49.90836" lon="1.02858">
        <ele>61</ele>
        <time>2014-10-25T09:21:41.000Z</time>
      </trkpt>
      <trkpt lat="49.90835" lon="1.02859">
        <ele>61</ele>
        <time>2014-10-25T09:21:42.000Z</time>
      </trkpt>
      <trkpt lat="49.90836" lon="1.02874">
        <ele>66</ele>
        <time>2014-10-25T09:21:53.000Z</time>
      </trkpt>
      <trkpt lat="49.90836" lon="1.02876">
        <ele>66</ele>
        <time>2014-10-25T09:21:54.000Z</time>
      </trkpt>
      <trkpt lat="49.90828" lon="1.02884">
        <ele>66</ele>
        <time>2014-10-25T09:22:05.000Z</time>
      </trkpt>
      <trkpt lat="49.90828" lon="1.02884">
        <ele>67</ele>
        <time>2014-10-25T09:22:06.000Z</time>
      </trkpt>
      <trkpt lat="49.90819" lon="1.02891">
        <ele>72</ele>
        <time>2014-10-25T09:22:23.000Z</time>
      </trkpt>
      <trkpt lat="49.90818" lon="1.02892">
        <ele>72</ele>
        <time>2014-10-25T09:22:24.000Z</time>
      </trkpt>
      <trkpt lat="49.90809" lon="1.02893">
        <ele>71</ele>
        <time>2014-10-25T09:22:34.000Z</time>
      </trkpt>
      <trkpt lat="49.90808" lon="1.02893">
        <ele>72</ele>
        <time>2014-10-25T09:22:35.000Z</time>
      </trkpt>
      <trkpt lat="49.90799" lon="1.02892">
        <ele>75</ele>
        <time>2014-10-25T09:22:42.000Z</time>
      </trkpt>
      <trkpt lat="49.90797" lon="1.02892">
        <ele>75</ele>
        <time>2014-10-25T09:22:43.000Z</time>
      </trkpt>
      <trkpt lat="49.90788" lon="1.02888">
        <ele>80</ele>
        <time>2014-10-25T09:22:50.000Z</time>
      </trkpt>
      <trkpt lat="49.90786" lon="1.02887">
        <ele>81</ele>
        <time>2014-10-25T09:22:51.000Z</time>
      </trkpt>
      <trkpt lat="49.90777" lon="1.02881">
        <ele>81</ele>
        <time>2014-10-25T09:22:57.000Z</time>
      </trkpt>
      <trkpt lat="49.90776" lon="1.0288">
        <ele>81</ele>
        <time>2014-10-25T09:22:58.000Z</time>
      </trkpt>
      <trkpt lat="49.90766" lon="1.02875">
        <ele>81</ele>
        <time>2014-10-25T09:23:06.000Z</time>
      </trkpt>
      <trkpt lat="49.90764" lon="1.02874">
        <ele>80</ele>
        <time>2014-10-25T09:23:07.000Z</time>
      </trkpt>
      <trkpt lat="49.90754" lon="1.02871">
        <ele>78</ele>
        <time>2014-10-25T09:23:16.000Z</time>
      </trkpt>
      <trkpt lat="49.90752" lon="1.0287">
        <ele>78</ele>
        <time>2014-10-25T09:23:17.000Z</time>
      </trkpt>
      <trkpt lat="49.90744" lon="1.02865">
        <ele>77</ele>
        <time>2014-10-25T09:23:23.000Z</time>
      </trkpt>
      <trkpt lat="49.90743" lon="1.02864">
        <ele>77</ele>
        <time>2014-10-25T09:23:24.000Z</time>
      </trkpt>
      <trkpt lat="49.90734" lon="1.02857">
        <ele>75</ele>
        <time>2014-10-25T09:23:29.000Z</time>
      </trkpt>
      <trkpt lat="49.90732" lon="1.02856">
        <ele>75</ele>
        <time>2014-10-25T09:23:30.000Z</time>
      </trkpt>
      <trkpt lat="49.90724" lon="1.02848">
        <ele>75</ele>
        <time>2014-10-25T09:23:36.000Z</time>
      </trkpt>
      <trkpt lat="49.90723" lon="1.02847">
        <ele>75</ele>
        <time>2014-10-25T09:23:37.000Z</time>
      </trkpt>
      <trkpt lat="49.90714" lon="1.02837">
        <ele>78</ele>
        <time>2014-10-25T09:23:43.000Z</time>
      </trkpt>
      <trkpt lat="49.90712" lon="1.02836">
        <ele>78</ele>
        <time>2014-10-25T09:23:44.000Z</time>
      </trkpt>
      <trkpt lat="49.90703" lon="1.02827">
        <ele>79</ele>
        <time>2014-10-25T09:23:49.000Z</time>
      </trkpt>
      <trkpt lat="49.90702" lon="1.02824">
        <ele>79</ele>
        <time>2014-10-25T09:23:50.000Z</time>
      </trkpt>
      <trkpt lat="49.90694" lon="1.02816">
        <ele>80</ele>
        <time>2014-10-25T09:23:54.000Z</time>
      </trkpt>
      <trkpt lat="49.90693" lon="1.02814">
        <ele>80</ele>
        <time>2014-10-25T09:23:55.000Z</time>
      </trkpt>
      <trkpt lat="49.90685" lon="1.02805">
        <ele>82</ele>
        <time>2014-10-25T09:24:01.000Z</time>
      </trkpt>
      <trkpt lat="49.90683" lon="1.02804">
        <ele>83</ele>
        <time>2014-10-25T09:24:02.000Z</time>
      </trkpt>
      <trkpt lat="49.90676" lon="1.02795">
        <ele>85</ele>
        <time>2014-10-25T09:24:07.000Z</time>
      </trkpt>
      <trkpt lat="49.90674" lon="1.02793">
        <ele>85</ele>
        <time>2014-10-25T09:24:08.000Z</time>
      </trkpt>
      <trkpt lat="49.90666" lon="1.02784">
        <ele>86</ele>
        <time>2014-10-25T09:24:13.000Z</time>
      </trkpt>
      <trkpt lat="49.90664" lon="1.02783">
        <ele>86</ele>
        <time>2014-10-25T09:24:14.000Z</time>
      </trkpt>
      <trkpt lat="49.90654" lon="1.02774">
        <ele>88</ele>
        <time>2014-10-25T09:24:19.000Z</time>
      </trkpt>
      <trkpt lat="49.90652" lon="1.02773">
        <ele>89</ele>
        <time>2014-10-25T09:24:20.000Z</time>
      </trkpt>
      <trkpt lat="49.90642" lon="1.02761">
        <ele>88</ele>
        <time>2014-10-25T09:24:34.000Z</time>
      </trkpt>
      <trkpt lat="49.90641" lon="1.0276">
        <ele>88</ele>
        <time>2014-10-25T09:24:35.000Z</time>
      </trkpt>
      <trkpt lat="49.90633" lon="1.02751">
        <ele>86</ele>
        <time>2014-10-25T09:24:42.000Z</time>
      </trkpt>
      <trkpt lat="49.90632" lon="1.02749">
        <ele>86</ele>
        <time>2014-10-25T09:24:43.000Z</time>
      </trkpt>
      <trkpt lat="49.90625" lon="1.02741">
        <ele>85</ele>
        <time>2014-10-25T09:24:48.000Z</time>
      </trkpt>
      <trkpt lat="49.90624" lon="1.02739">
        <ele>85</ele>
        <time>2014-10-25T09:24:49.000Z</time>
      </trkpt>
      <trkpt lat="49.90616" lon="1.02729">
        <ele>85</ele>
        <time>2014-10-25T09:24:55.000Z</time>
      </trkpt>
      <trkpt lat="49.90614" lon="1.02728">
        <ele>85</ele>
        <time>2014-10-25T09:24:56.000Z</time>
      </trkpt>
      <trkpt lat="49.90604" lon="1.0272">
        <ele>86</ele>
        <time>2014-10-25T09:25:01.000Z</time>
      </trkpt>
      <trkpt lat="49.90602" lon="1.02718">
        <ele>86</ele>
        <time>2014-10-25T09:25:02.000Z</time>
      </trkpt>
      <trkpt lat="49.90593" lon="1.02712">
        <ele>87</ele>
        <time>2014-10-25T09:25:06.000Z</time>
      </trkpt>
      <trkpt lat="49.90591" lon="1.02711">
        <ele>87</ele>
        <time>2014-10-25T09:25:07.000Z</time>
      </trkpt>
      <trkpt lat="49.90582" lon="1.02704">
        <ele>89</ele>
        <time>2014-10-25T09:25:12.000Z</time>
      </trkpt>
      <trkpt lat="49.9058" lon="1.02704">
        <ele>90</ele>
        <time>2014-10-25T09:25:13.000Z</time>
      </trkpt>
      <trkpt lat="49.90571" lon="1.02709">
        <ele>91</ele>
        <time>2014-10-25T09:25:18.000Z</time>
      </trkpt>
      <trkpt lat="49.90569" lon="1.02711">
        <ele>91</ele>
        <time>2014-10-25T09:25:19.000Z</time>
      </trkpt>
      <trkpt lat="49.90562" lon="1.02723">
        <ele>90</ele>
        <time>2014-10-25T09:25:24.000Z</time>
      </trkpt>
      <trkpt lat="49.90561" lon="1.02726">
        <ele>89</ele>
        <time>2014-10-25T09:25:25.000Z</time>
      </trkpt>
      <trkpt lat="49.90558" lon="1.02742">
        <ele>88</ele>
        <time>2014-10-25T09:25:30.000Z</time>
      </trkpt>
      <trkpt lat="49.90557" lon="1.02745">
        <ele>88</ele>
        <time>2014-10-25T09:25:31.000Z</time>
      </trkpt>
      <trkpt lat="49.90553" lon="1.02763">
        <ele>88</ele>
        <time>2014-10-25T09:25:36.000Z</time>
      </trkpt>
      <trkpt lat="49.90553" lon="1.02767">
        <ele>88</ele>
        <time>2014-10-25T09:25:37.000Z</time>
      </trkpt>
      <trkpt lat="49.9055" lon="1.02784">
        <ele>86</ele>
        <time>2014-10-25T09:25:42.000Z</time>
      </trkpt>
      <trkpt lat="49.90549" lon="1.02788">
        <ele>85</ele>
        <time>2014-10-25T09:25:43.000Z</time>
      </trkpt>
      <trkpt lat="49.90542" lon="1.02803">
        <ele>81</ele>
        <time>2014-10-25T09:25:47.000Z</time>
      </trkpt>
      <trkpt lat="49.9054" lon="1.02805">
        <ele>79</ele>
        <time>2014-10-25T09:25:48.000Z</time>
      </trkpt>
      <trkpt lat="49.9053" lon="1.02816">
        <ele>77</ele>
        <time>2014-10-25T09:25:52.000Z</time>
      </trkpt>
      <trkpt lat="49.90528" lon="1.02818">
        <ele>76</ele>
        <time>2014-10-25T09:25:53.000Z</time>
      </trkpt>
      <trkpt lat="49.90519" lon="1.02823">
        <ele>75</ele>
        <time>2014-10-25T09:25:57.000Z</time>
      </trkpt>
      <trkpt lat="49.90517" lon="1.02823">
        <ele>75</ele>
        <time>2014-10-25T09:25:58.000Z</time>
      </trkpt>
      <trkpt lat="49.90507" lon="1.02824">
        <ele>76</ele>
        <time>2014-10-25T09:26:02.000Z</time>
      </trkpt>
      <trkpt lat="49.90505" lon="1.02825">
        <ele>77</ele>
        <time>2014-10-25T09:26:03.000Z</time>
      </trkpt>
      <trkpt lat="49.90492" lon="1.02825">
        <ele>79</ele>
        <time>2014-10-25T09:26:07.000Z</time>
      </trkpt>
      <trkpt lat="49.90489" lon="1.02826">
        <ele>80</ele>
        <time>2014-10-25T09:26:08.000Z</time>
      </trkpt>
      <trkpt lat="49.90479" lon="1.02826">
        <ele>82</ele>
        <time>2014-10-25T09:26:11.000Z</time>
      </trkpt>
      <trkpt lat="49.90474" lon="1.02826">
        <ele>83</ele>
        <time>2014-10-25T09:26:12.000Z</time>
      </trkpt>
      <trkpt lat="49.90462" lon="1.02825">
        <ele>85</ele>
        <time>2014-10-25T09:26:15.000Z</time>
      </trkpt>
      <trkpt lat="49.90458" lon="1.02825">
        <ele>86</ele>
        <time>2014-10-25T09:26:16.000Z</time>
      </trkpt>
      <trkpt lat="49.90447" lon="1.02824">
        <ele>87</ele>
        <time>2014-10-25T09:26:19.000Z</time>
      </trkpt>
      <trkpt lat="49.90443" lon="1.02824">
        <ele>88</ele>
        <time>2014-10-25T09:26:20.000Z</time>
      </trkpt>
      <trkpt lat="49.90433" lon="1.02823">
        <ele>89</ele>
        <time>2014-10-25T09:26:24.000Z</time>
      </trkpt>
      <trkpt lat="49.90432" lon="1.02823">
        <ele>89</ele>
        <time>2014-10-25T09:26:25.000Z</time>
      </trkpt>
      <trkpt lat="49.90421" lon="1.0282">
        <ele>88</ele>
        <time>2014-10-25T09:26:30.000Z</time>
      </trkpt>
      <trkpt lat="49.90418" lon="1.0282">
        <ele>88</ele>
        <time>2014-10-25T09:26:31.000Z</time>
      </trkpt>
      <trkpt lat="49.90409" lon="1.02823">
        <ele>86</ele>
        <time>2014-10-25T09:26:35.000Z</time>
      </trkpt>
      <trkpt lat="49.90406" lon="1.02825">
        <ele>86</ele>
        <time>2014-10-25T09:26:36.000Z</time>
      </trkpt>
      <trkpt lat="49.90396" lon="1.02828">
        <ele>85</ele>
        <time>2014-10-25T09:26:39.000Z</time>
      </trkpt>
      <trkpt lat="49.90393" lon="1.02829">
        <ele>85</ele>
        <time>2014-10-25T09:26:40.000Z</time>
      </trkpt>
      <trkpt lat="49.90385" lon="1.02832">
        <ele>86</ele>
        <time>2014-10-25T09:26:44.000Z</time>
      </trkpt>
      <trkpt lat="49.90384" lon="1.02832">
        <ele>86</ele>
        <time>2014-10-25T09:26:45.000Z</time>
      </trkpt>
      <trkpt lat="49.90373" lon="1.0283">
        <ele>96</ele>
        <time>2014-10-25T09:27:00.000Z</time>
      </trkpt>
      <trkpt lat="49.90372" lon="1.02829">
        <ele>97</ele>
        <time>2014-10-25T09:27:01.000Z</time>
      </trkpt>
      <trkpt lat="49.90363" lon="1.02824">
        <ele>98</ele>
        <time>2014-10-25T09:27:05.000Z</time>
      </trkpt>
      <trkpt lat="49.9036" lon="1.02823">
        <ele>97</ele>
        <time>2014-10-25T09:27:06.000Z</time>
      </trkpt>
      <trkpt lat="49.90349" lon="1.02817">
        <ele>96</ele>
        <time>2014-10-25T09:27:10.000Z</time>
      </trkpt>
      <trkpt lat="49.90347" lon="1.02815">
        <ele>95</ele>
        <time>2014-10-25T09:27:11.000Z</time>
      </trkpt>
      <trkpt lat="49.90337" lon="1.02811">
        <ele>93</ele>
        <time>2014-10-25T09:27:15.000Z</time>
      </trkpt>
      <trkpt lat="49.90335" lon="1.02812">
        <ele>93</ele>
        <time>2014-10-25T09:27:16.000Z</time>
      </trkpt>
      <trkpt lat="49.90328" lon="1.02821">
        <ele>85</ele>
        <time>2014-10-25T09:27:22.000Z</time>
      </trkpt>
      <trkpt lat="49.90327" lon="1.02823">
        <ele>84</ele>
        <time>2014-10-25T09:27:23.000Z</time>
      </trkpt>
      <trkpt lat="49.9032" lon="1.02833">
        <ele>80</ele>
        <time>2014-10-25T09:27:28.000Z</time>
      </trkpt>
      <trkpt lat="49.90318" lon="1.02835">
        <ele>79</ele>
        <time>2014-10-25T09:27:29.000Z</time>
      </trkpt>
      <trkpt lat="49.90311" lon="1.02845">
        <ele>77</ele>
        <time>2014-10-25T09:27:33.000Z</time>
      </trkpt>
      <trkpt lat="49.90309" lon="1.02848">
        <ele>77</ele>
        <time>2014-10-25T09:27:34.000Z</time>
      </trkpt>
      <trkpt lat="49.90302" lon="1.02858">
        <ele>75</ele>
        <time>2014-10-25T09:27:38.000Z</time>
      </trkpt>
      <trkpt lat="49.90299" lon="1.02861">
        <ele>75</ele>
        <time>2014-10-25T09:27:39.000Z</time>
      </trkpt>
      <trkpt lat="49.90295" lon="1.02874">
        <ele>74</ele>
        <time>2014-10-25T09:27:45.000Z</time>
      </trkpt>
      <trkpt lat="49.90297" lon="1.02876">
        <ele>75</ele>
        <time>2014-10-25T09:27:46.000Z</time>
      </trkpt>
      <trkpt lat="49.90304" lon="1.02886">
        <ele>74</ele>
        <time>2014-10-25T09:27:52.000Z</time>
      </trkpt>
      <trkpt lat="49.90305" lon="1.02888">
        <ele>74</ele>
        <time>2014-10-25T09:27:53.000Z</time>
      </trkpt>
      <trkpt lat="49.90312" lon="1.02898">
        <ele>73</ele>
        <time>2014-10-25T09:28:00.000Z</time>
      </trkpt>
      <trkpt lat="49.90313" lon="1.02899">
        <ele>72</ele>
        <time>2014-10-25T09:28:01.000Z</time>
      </trkpt>
      <trkpt lat="49.90321" lon="1.02909">
        <ele>72</ele>
        <time>2014-10-25T09:28:07.000Z</time>
      </trkpt>
      <trkpt lat="49.90321" lon="1.02909">
        <ele>72</ele>
        <time>2014-10-25T09:28:08.000Z</time>
      </trkpt>
      <trkpt lat="49.90328" lon="1.02919">
        <ele>73</ele>
        <time>2014-10-25T09:28:15.000Z</time>
      </trkpt>
      <trkpt lat="49.90329" lon="1.02921">
        <ele>73</ele>
        <time>2014-10-25T09:28:16.000Z</time>
      </trkpt>
      <trkpt lat="49.90337" lon="1.02933">
        <ele>74</ele>
        <time>2014-10-25T09:28:22.000Z</time>
      </trkpt>
      <trkpt lat="49.90338" lon="1.02935">
        <ele>74</ele>
        <time>2014-10-25T09:28:23.000Z</time>
      </trkpt>
      <trkpt lat="49.90345" lon="1.02947">
        <ele>78</ele>
        <time>2014-10-25T09:28:28.000Z</time>
      </trkpt>
      <trkpt lat="49.90347" lon="1.02949">
        <ele>78</ele>
        <time>2014-10-25T09:28:29.000Z</time>
      </trkpt>
      <trkpt lat="49.90351" lon="1.02962">
        <ele>81</ele>
        <time>2014-10-25T09:28:34.000Z</time>
      </trkpt>
      <trkpt lat="49.90352" lon="1.02964">
        <ele>82</ele>
        <time>2014-10-25T09:28:35.000Z</time>
      </trkpt>
      <trkpt lat="49.90353" lon="1.02978">
        <ele>83</ele>
        <time>2014-10-25T09:28:42.000Z</time>
      </trkpt>
      <trkpt lat="49.90354" lon="1.0298">
        <ele>84</ele>
        <time>2014-10-25T09:28:43.000Z</time>
      </trkpt>
      <trkpt lat="49.90354" lon="1.02995">
        <ele>86</ele>
        <time>2014-10-25T09:28:49.000Z</time>
      </trkpt>
      <trkpt lat="49.90354" lon="1.02997">
        <ele>86</ele>
        <time>2014-10-25T09:28:50.000Z</time>
      </trkpt>
      <trkpt lat="49.90356" lon="1.03014">
        <ele>90</ele>
        <time>2014-10-25T09:28:57.000Z</time>
      </trkpt>
      <trkpt lat="49.90356" lon="1.03017">
        <ele>90</ele>
        <time>2014-10-25T09:28:58.000Z</time>
      </trkpt>
      <trkpt lat="49.90361" lon="1.0303">
        <ele>94</ele>
        <time>2014-10-25T09:29:05.000Z</time>
      </trkpt>
      <trkpt lat="49.90361" lon="1.03032">
        <ele>94</ele>
        <time>2014-10-25T09:29:06.000Z</time>
      </trkpt>
      <trkpt lat="49.90365" lon="1.03045">
        <ele>92</ele>
        <time>2014-10-25T09:29:11.000Z</time>
      </trkpt>
      <trkpt lat="49.90366" lon="1.03048">
        <ele>92</ele>
        <time>2014-10-25T09:29:12.000Z</time>
      </trkpt>
      <trkpt lat="49.90371" lon="1.03063">
        <ele>92</ele>
        <time>2014-10-25T09:29:17.000Z</time>
      </trkpt>
      <trkpt lat="49.90371" lon="1.03066">
        <ele>92</ele>
        <time>2014-10-25T09:29:18.000Z</time>
      </trkpt>
      <trkpt lat="49.90374" lon="1.0308">
        <ele>91</ele>
        <time>2014-10-25T09:29:23.000Z</time>
      </trkpt>
      <trkpt lat="49.90375" lon="1.03082">
        <ele>91</ele>
        <time>2014-10-25T09:29:24.000Z</time>
      </trkpt>
      <trkpt lat="49.90379" lon="1.03096">
        <ele>92</ele>
        <time>2014-10-25T09:29:28.000Z</time>
      </trkpt>
      <trkpt lat="49.9038" lon="1.031">
        <ele>92</ele>
        <time>2014-10-25T09:29:29.000Z</time>
      </trkpt>
      <trkpt lat="49.90381" lon="1.03116">
        <ele>91</ele>
        <time>2014-10-25T09:29:36.000Z</time>
      </trkpt>
      <trkpt lat="49.90381" lon="1.03119">
        <ele>91</ele>
        <time>2014-10-25T09:29:37.000Z</time>
      </trkpt>
      <trkpt lat="49.90374" lon="1.0313">
        <ele>90</ele>
        <time>2014-10-25T09:29:43.000Z</time>
      </trkpt>
      <trkpt lat="49.90372" lon="1.03131">
        <ele>90</ele>
        <time>2014-10-25T09:29:44.000Z</time>
      </trkpt>
      <trkpt lat="49.90364" lon="1.03137">
        <ele>90</ele>
        <time>2014-10-25T09:29:50.000Z</time>
      </trkpt>
      <trkpt lat="49.90362" lon="1.03139">
        <ele>90</ele>
        <time>2014-10-25T09:29:51.000Z</time>
      </trkpt>
      <trkpt lat="49.90354" lon="1.03147">
        <ele>93</ele>
        <time>2014-10-25T09:29:58.000Z</time>
      </trkpt>
      <trkpt lat="49.90352" lon="1.03149">
        <ele>93</ele>
        <time>2014-10-25T09:29:59.000Z</time>
      </trkpt>
      <trkpt lat="49.90345" lon="1.03158">
        <ele>96</ele>
        <time>2014-10-25T09:30:04.000Z</time>
      </trkpt>
      <trkpt lat="49.90343" lon="1.0316">
        <ele>97</ele>
        <time>2014-10-25T09:30:05.000Z</time>
      </trkpt>
      <trkpt lat="49.90337" lon="1.03172">
        <ele>99</ele>
        <time>2014-10-25T09:30:11.000Z</time>
      </trkpt>
      <trkpt lat="49.90336" lon="1.03175">
        <ele>99</ele>
        <time>2014-10-25T09:30:12.000Z</time>
      </trkpt>
      <trkpt lat="49.90332" lon="1.03188">
        <ele>101</ele>
        <time>2014-10-25T09:30:16.000Z</time>
      </trkpt>
      <trkpt lat="49.9033" lon="1.03191">
        <ele>102</ele>
        <time>2014-10-25T09:30:17.000Z</time>
      </trkpt>
      <trkpt lat="49.90326" lon="1.03204">
        <ele>103</ele>
        <time>2014-10-25T09:30:21.000Z</time>
      </trkpt>
      <trkpt lat="49.90325" lon="1.03207">
        <ele>103</ele>
        <time>2014-10-25T09:30:22.000Z</time>
      </trkpt>
      <trkpt lat="49.90323" lon="1.03221">
        <ele>103</ele>
        <time>2014-10-25T09:30:26.000Z</time>
      </trkpt>
      <trkpt lat="49.90321" lon="1.03224">
        <ele>103</ele>
        <time>2014-10-25T09:30:27.000Z</time>
      </trkpt>
      <trkpt lat="49.90314" lon="1.03235">
        <ele>103</ele>
        <time>2014-10-25T09:30:32.000Z</time>
      </trkpt>
      <trkpt lat="49.90313" lon="1.03237">
        <ele>103</ele>
        <time>2014-10-25T09:30:33.000Z</time>
      </trkpt>
      <trkpt lat="49.9031" lon="1.0325">
        <ele>104</ele>
        <time>2014-10-25T09:30:40.000Z</time>
      </trkpt>
      <trkpt lat="49.90309" lon="1.03252">
        <ele>103</ele>
        <time>2014-10-25T09:30:41.000Z</time>
      </trkpt>
      <trkpt lat="49.903" lon="1.03259">
        <ele>102</ele>
        <time>2014-10-25T09:30:48.000Z</time>
      </trkpt>
      <trkpt lat="49.90299" lon="1.03261">
        <ele>103</ele>
        <time>2014-10-25T09:30:49.000Z</time>
      </trkpt>
      <trkpt lat="49.90292" lon="1.03272">
        <ele>108</ele>
        <time>2014-10-25T09:30:58.000Z</time>
      </trkpt>
      <trkpt lat="49.90291" lon="1.03273">
        <ele>109</ele>
        <time>2014-10-25T09:30:59.000Z</time>
      </trkpt>
      <trkpt lat="49.90282" lon="1.03283">
        <ele>107</ele>
        <time>2014-10-25T09:31:05.000Z</time>
      </trkpt>
      <trkpt lat="49.9028" lon="1.03284">
        <ele>107</ele>
        <time>2014-10-25T09:31:06.000Z</time>
      </trkpt>
      <trkpt lat="49.90271" lon="1.03291">
        <ele>105</ele>
        <time>2014-10-25T09:31:12.000Z</time>
      </trkpt>
      <trkpt lat="49.9027" lon="1.03293">
        <ele>106</ele>
        <time>2014-10-25T09:31:13.000Z</time>
      </trkpt>
      <trkpt lat="49.90262" lon="1.03301">
        <ele>107</ele>
        <time>2014-10-25T09:31:18.000Z</time>
      </trkpt>
      <trkpt lat="49.90261" lon="1.03302">
        <ele>107</ele>
        <time>2014-10-25T09:31:19.000Z</time>
      </trkpt>
      <trkpt lat="49.90253" lon="1.0331">
        <ele>106</ele>
        <time>2014-10-25T09:31:25.000Z</time>
      </trkpt>
      <trkpt lat="49.90252" lon="1.03312">
        <ele>106</ele>
        <time>2014-10-25T09:31:26.000Z</time>
      </trkpt>
      <trkpt lat="49.90245" lon="1.03322">
        <ele>107</ele>
        <time>2014-10-25T09:31:31.000Z</time>
      </trkpt>
      <trkpt lat="49.90244" lon="1.03324">
        <ele>107</ele>
        <time>2014-10-25T09:31:32.000Z</time>
      </trkpt>
      <trkpt lat="49.90237" lon="1.03336">
        <ele>111</ele>
        <time>2014-10-25T09:31:39.000Z</time>
      </trkpt>
      <trkpt lat="49.90236" lon="1.03338">
        <ele>111</ele>
        <time>2014-10-25T09:31:40.000Z</time>
      </trkpt>
      <trkpt lat="49.90228" lon="1.03349">
        <ele>112</ele>
        <time>2014-10-25T09:31:44.000Z</time>
      </trkpt>
      <trkpt lat="49.90226" lon="1.03352">
        <ele>112</ele>
        <time>2014-10-25T09:31:45.000Z</time>
      </trkpt>
      <trkpt lat="49.90218" lon="1.0336">
        <ele>111</ele>
        <time>2014-10-25T09:31:49.000Z</time>
      </trkpt>
      <trkpt lat="49.90216" lon="1.03362">
        <ele>112</ele>
        <time>2014-10-25T09:31:50.000Z</time>
      </trkpt>
      <trkpt lat="49.90207" lon="1.03367">
        <ele>111</ele>
        <time>2014-10-25T09:31:54.000Z</time>
      </trkpt>
      <trkpt lat="49.90205" lon="1.03367">
        <ele>111</ele>
        <time>2014-10-25T09:31:55.000Z</time>
      </trkpt>
      <trkpt lat="49.90195" lon="1.03372">
        <ele>111</ele>
        <time>2014-10-25T09:31:59.000Z</time>
      </trkpt>
      <trkpt lat="49.90192" lon="1.03373">
        <ele>111</ele>
        <time>2014-10-25T09:32:00.000Z</time>
      </trkpt>
      <trkpt lat="49.90184" lon="1.03377">
        <ele>110</ele>
        <time>2014-10-25T09:32:04.000Z</time>
      </trkpt>
      <trkpt lat="49.90181" lon="1.03379">
        <ele>110</ele>
        <time>2014-10-25T09:32:05.000Z</time>
      </trkpt>
      <trkpt lat="49.90171" lon="1.03381">
        <ele>109</ele>
        <time>2014-10-25T09:32:09.000Z</time>
      </trkpt>
      <trkpt lat="49.90168" lon="1.03381">
        <ele>108</ele>
        <time>2014-10-25T09:32:10.000Z</time>
      </trkpt>
      <trkpt lat="49.90159" lon="1.03384">
        <ele>107</ele>
        <time>2014-10-25T09:32:13.000Z</time>
      </trkpt>
      <trkpt lat="49.90156" lon="1.03385">
        <ele>107</ele>
        <time>2014-10-25T09:32:14.000Z</time>
      </trkpt>
      <trkpt lat="49.90147" lon="1.03394">
        <ele>105</ele>
        <time>2014-10-25T09:32:18.000Z</time>
      </trkpt>
      <trkpt lat="49.90145" lon="1.03394">
        <ele>105</ele>
        <time>2014-10-25T09:32:19.000Z</time>
      </trkpt>
      <trkpt lat="49.90138" lon="1.03384">
        <ele>103</ele>
        <time>2014-10-25T09:32:23.000Z</time>
      </trkpt>
      <trkpt lat="49.90137" lon="1.0338">
        <ele>103</ele>
        <time>2014-10-25T09:32:24.000Z</time>
      </trkpt>
      <trkpt lat="49.90131" lon="1.03367">
        <ele>101</ele>
        <time>2014-10-25T09:32:27.000Z</time>
      </trkpt>
      <trkpt lat="49.9013" lon="1.03363">
        <ele>100</ele>
        <time>2014-10-25T09:32:28.000Z</time>
      </trkpt>
      <trkpt lat="49.90124" lon="1.03348">
        <ele>99</ele>
        <time>2014-10-25T09:32:31.000Z</time>
      </trkpt>
      <trkpt lat="49.90123" lon="1.03342">
        <ele>99</ele>
        <time>2014-10-25T09:32:32.000Z</time>
      </trkpt>
      <trkpt lat="49.90117" lon="1.03325">
        <ele>98</ele>
        <time>2014-10-25T09:32:35.000Z</time>
      </trkpt>
      <trkpt lat="49.90115" lon="1.0332">
        <ele>97</ele>
        <time>2014-10-25T09:32:36.000Z</time>
      </trkpt>
      <trkpt lat="49.90108" lon="1.03303">
        <ele>97</ele>
        <time>2014-10-25T09:32:39.000Z</time>
      </trkpt>
      <trkpt lat="49.90106" lon="1.03298">
        <ele>97</ele>
        <time>2014-10-25T09:32:40.000Z</time>
      </trkpt>
      <trkpt lat="49.90101" lon="1.03282">
        <ele>98</ele>
        <time>2014-10-25T09:32:43.000Z</time>
      </trkpt>
      <trkpt lat="49.90098" lon="1.03277">
        <ele>97</ele>
        <time>2014-10-25T09:32:44.000Z</time>
      </trkpt>
      <trkpt lat="49.90093" lon="1.03262">
        <ele>97</ele>
        <time>2014-10-25T09:32:47.000Z</time>
      </trkpt>
      <trkpt lat="49.90091" lon="1.03257">
        <ele>97</ele>
        <time>2014-10-25T09:32:48.000Z</time>
      </trkpt>
      <trkpt lat="49.90085" lon="1.03242">
        <ele>97</ele>
        <time>2014-10-25T09:32:51.000Z</time>
      </trkpt>
      <trkpt lat="49.90083" lon="1.03237">
        <ele>97</ele>
        <time>2014-10-25T09:32:52.000Z</time>
      </trkpt>
      <trkpt lat="49.90078" lon="1.03224">
        <ele>96</ele>
        <time>2014-10-25T09:32:55.000Z</time>
      </trkpt>
      <trkpt lat="49.90076" lon="1.0322">
        <ele>96</ele>
        <time>2014-10-25T09:32:56.000Z</time>
      </trkpt>
      <trkpt lat="49.90072" lon="1.03206">
        <ele>96</ele>
        <time>2014-10-25T09:32:59.000Z</time>
      </trkpt>
      <trkpt lat="49.90071" lon="1.03201">
        <ele>96</ele>
        <time>2014-10-25T09:33:00.000Z</time>
      </trkpt>
      <trkpt lat="49.90066" lon="1.03186">
        <ele>96</ele>
        <time>2014-10-25T09:33:03.000Z</time>
      </trkpt>
      <trkpt lat="49.90064" lon="1.03181">
        <ele>96</ele>
        <time>2014-10-25T09:33:04.000Z</time>
      </trkpt>
      <trkpt lat="49.90058" lon="1.03167">
        <ele>97</ele>
        <time>2014-10-25T09:33:07.000Z</time>
      </trkpt>
      <trkpt lat="49.90056" lon="1.03162">
        <ele>97</ele>
        <time>2014-10-25T09:33:08.000Z</time>
      </trkpt>
      <trkpt lat="49.9005" lon="1.03145">
        <ele>98</ele>
        <time>2014-10-25T09:33:11.000Z</time>
      </trkpt>
      <trkpt lat="49.90049" lon="1.0314">
        <ele>98</ele>
        <time>2014-10-25T09:33:12.000Z</time>
      </trkpt>
      <trkpt lat="49.90044" lon="1.03126">
        <ele>97</ele>
        <time>2014-10-25T09:33:16.000Z</time>
      </trkpt>
      <trkpt lat="49.90043" lon="1.03123">
        <ele>97</ele>
        <time>2014-10-25T09:33:17.000Z</time>
      </trkpt>
      <trkpt lat="49.90038" lon="1.03108">
        <ele>97</ele>
        <time>2014-10-25T09:33:21.000Z</time>
      </trkpt>
      <trkpt lat="49.90037" lon="1.03104">
        <ele>97</ele>
        <time>2014-10-25T09:33:22.000Z</time>
      </trkpt>
      <trkpt lat="49.90033" lon="1.03092">
        <ele>97</ele>
        <time>2014-10-25T09:33:25.000Z</time>
      </trkpt>
      <trkpt lat="49.90031" lon="1.03087">
        <ele>97</ele>
        <time>2014-10-25T09:33:26.000Z</time>
      </trkpt>
      <trkpt lat="49.90026" lon="1.03073">
        <ele>98</ele>
        <time>2014-10-25T09:33:30.000Z</time>
      </trkpt>
      <trkpt lat="49.90024" lon="1.03069">
        <ele>98</ele>
        <time>2014-10-25T09:33:31.000Z</time>
      </trkpt>
      <trkpt lat="49.90019" lon="1.03058">
        <ele>99</ele>
        <time>2014-10-25T09:33:34.000Z</time>
      </trkpt>
      <trkpt lat="49.90017" lon="1.03055">
        <ele>99</ele>
        <time>2014-10-25T09:33:35.000Z</time>
      </trkpt>
      <trkpt lat="49.90008" lon="1.03042">
        <ele>100</ele>
        <time>2014-10-25T09:33:39.000Z</time>
      </trkpt>
      <trkpt lat="49.90005" lon="1.03039">
        <ele>100</ele>
        <time>2014-10-25T09:33:40.000Z</time>
      </trkpt>
      <trkpt lat="49.89996" lon="1.03027">
        <ele>103</ele>
        <time>2014-10-25T09:33:44.000Z</time>
      </trkpt>
      <trkpt lat="49.89994" lon="1.03024">
        <ele>103</ele>
        <time>2014-10-25T09:33:45.000Z</time>
      </trkpt>
      <trkpt lat="49.89986" lon="1.03013">
        <ele>103</ele>
        <time>2014-10-25T09:33:49.000Z</time>
      </trkpt>
      <trkpt lat="49.89984" lon="1.0301">
        <ele>103</ele>
        <time>2014-10-25T09:33:50.000Z</time>
      </trkpt>
      <trkpt lat="49.89976" lon="1.03">
        <ele>103</ele>
        <time>2014-10-25T09:33:53.000Z</time>
      </trkpt>
      <trkpt lat="49.89974" lon="1.02997">
        <ele>103</ele>
        <time>2014-10-25T09:33:54.000Z</time>
      </trkpt>
      <trkpt lat="49.89966" lon="1.02988">
        <ele>101</ele>
        <time>2014-10-25T09:33:58.000Z</time>
      </trkpt>
      <trkpt lat="49.89964" lon="1.02985">
        <ele>101</ele>
        <time>2014-10-25T09:33:59.000Z</time>
      </trkpt>
      <trkpt lat="49.89954" lon="1.02973">
        <ele>101</ele>
        <time>2014-10-25T09:34:02.000Z</time>
      </trkpt>
      <trkpt lat="49.89951" lon="1.02968">
        <ele>101</ele>
        <time>2014-10-25T09:34:03.000Z</time>
      </trkpt>
      <trkpt lat="49.89943" lon="1.02953">
        <ele>100</ele>
        <time>2014-10-25T09:34:06.000Z</time>
      </trkpt>
      <trkpt lat="49.8994" lon="1.02947">
        <ele>100</ele>
        <time>2014-10-25T09:34:07.000Z</time>
      </trkpt>
      <trkpt lat="49.89937" lon="1.02941">
        <ele>100</ele>
        <time>2014-10-25T09:34:08.000Z</time>
      </trkpt>
      <trkpt lat="49.89933" lon="1.02935">
        <ele>99</ele>
        <time>2014-10-25T09:34:09.000Z</time>
      </trkpt>
      <trkpt lat="49.89929" lon="1.02929">
        <ele>99</ele>
        <time>2014-10-25T09:34:10.000Z</time>
      </trkpt>
      <trkpt lat="49.89926" lon="1.02923">
        <ele>99</ele>
        <time>2014-10-25T09:34:11.000Z</time>
      </trkpt>
      <trkpt lat="49.89922" lon="1.02917">
        <ele>99</ele>
        <time>2014-10-25T09:34:12.000Z</time>
      </trkpt>
      <trkpt lat="49.89917" lon="1.02911">
        <ele>99</ele>
        <time>2014-10-25T09:34:13.000Z</time>
      </trkpt>
      <trkpt lat="49.89913" lon="1.02905">
        <ele>99</ele>
        <time>2014-10-25T09:34:14.000Z</time>
      </trkpt>
      <trkpt lat="49.89911" lon="1.02899">
        <ele>98</ele>
        <time>2014-10-25T09:34:15.000Z</time>
      </trkpt>
      <trkpt lat="49.89908" lon="1.02893">
        <ele>98</ele>
        <time>2014-10-25T09:34:16.000Z</time>
      </trkpt>
      <trkpt lat="49.89904" lon="1.02887">
        <ele>98</ele>
        <time>2014-10-25T09:34:17.000Z</time>
      </trkpt>
      <trkpt lat="49.89901" lon="1.02881">
        <ele>98</ele>
        <time>2014-10-25T09:34:18.000Z</time>
      </trkpt>
      <trkpt lat="49.89899" lon="1.02875">
        <ele>98</ele>
        <time>2014-10-25T09:34:19.000Z</time>
      </trkpt>
      <trkpt lat="49.89892" lon="1.02861">
        <ele>99</ele>
        <time>2014-10-25T09:34:22.000Z</time>
      </trkpt>
      <trkpt lat="49.89889" lon="1.02856">
        <ele>99</ele>
        <time>2014-10-25T09:34:23.000Z</time>
      </trkpt>
      <trkpt lat="49.89883" lon="1.02841">
        <ele>101</ele>
        <time>2014-10-25T09:34:27.000Z</time>
      </trkpt>
      <trkpt lat="49.89882" lon="1.02838">
        <ele>102</ele>
        <time>2014-10-25T09:34:28.000Z</time>
      </trkpt>
      <trkpt lat="49.89886" lon="1.02821">
        <ele>104</ele>
        <time>2014-10-25T09:34:33.000Z</time>
      </trkpt>
      <trkpt lat="49.89888" lon="1.02816">
        <ele>104</ele>
        <time>2014-10-25T09:34:34.000Z</time>
      </trkpt>
      <trkpt lat="49.89897" lon="1.02802">
        <ele>104</ele>
        <time>2014-10-25T09:34:37.000Z</time>
      </trkpt>
      <trkpt lat="49.899" lon="1.02797">
        <ele>104</ele>
        <time>2014-10-25T09:34:38.000Z</time>
      </trkpt>
      <trkpt lat="49.89909" lon="1.02782">
        <ele>104</ele>
        <time>2014-10-25T09:34:41.000Z</time>
      </trkpt>
      <trkpt lat="49.89912" lon="1.02776">
        <ele>104</ele>
        <time>2014-10-25T09:34:42.000Z</time>
      </trkpt>
      <trkpt lat="49.89916" lon="1.0277">
        <ele>104</ele>
        <time>2014-10-25T09:34:43.000Z</time>
      </trkpt>
      <trkpt lat="49.89919" lon="1.02765">
        <ele>103</ele>
        <time>2014-10-25T09:34:44.000Z</time>
      </trkpt>
      <trkpt lat="49.89922" lon="1.0276">
        <ele>103</ele>
        <time>2014-10-25T09:34:45.000Z</time>
      </trkpt>
      <trkpt lat="49.89926" lon="1.02754">
        <ele>103</ele>
        <time>2014-10-25T09:34:46.000Z</time>
      </trkpt>
      <trkpt lat="49.89929" lon="1.02749">
        <ele>103</ele>
        <time>2014-10-25T09:34:47.000Z</time>
      </trkpt>
      <trkpt lat="49.89932" lon="1.02743">
        <ele>102</ele>
        <time>2014-10-25T09:34:48.000Z</time>
      </trkpt>
      <trkpt lat="49.89936" lon="1.02737">
        <ele>103</ele>
        <time>2014-10-25T09:34:49.000Z</time>
      </trkpt>
      <trkpt lat="49.89939" lon="1.02732">
        <ele>103</ele>
        <time>2014-10-25T09:34:50.000Z</time>
      </trkpt>
      <trkpt lat="49.89943" lon="1.02726">
        <ele>103</ele>
        <time>2014-10-25T09:34:51.000Z</time>
      </trkpt>
      <trkpt lat="49.89946" lon="1.0272">
        <ele>103</ele>
        <time>2014-10-25T09:34:52.000Z</time>
      </trkpt>
      <trkpt lat="49.89949" lon="1.02714">
        <ele>103</ele>
        <time>2014-10-25T09:34:53.000Z</time>
      </trkpt>
      <trkpt lat="49.89953" lon="1.02709">
        <ele>103</ele>
        <time>2014-10-25T09:34:54.000Z</time>
      </trkpt>
      <trkpt lat="49.89956" lon="1.02703">
        <ele>103</ele>
        <time>2014-10-25T09:34:55.000Z</time>
      </trkpt>
      <trkpt lat="49.89959" lon="1.02696">
        <ele>103</ele>
        <time>2014-10-25T09:34:56.000Z</time>
      </trkpt>
      <trkpt lat="49.89962" lon="1.02689">
        <ele>103</ele>
        <time>2014-10-25T09:34:57.000Z</time>
      </trkpt>
      <trkpt lat="49.89965" lon="1.02683">
        <ele>102</ele>
        <time>2014-10-25T09:34:58.000Z</time>
      </trkpt>
      <trkpt lat="49.89967" lon="1.02676">
        <ele>102</ele>
        <time>2014-10-25T09:34:59.000Z</time>
      </trkpt>
      <trkpt lat="49.8997" lon="1.02668">
        <ele>102</ele>
        <time>2014-10-25T09:35:00.000Z</time>
      </trkpt>
      <trkpt lat="49.89972" lon="1.02661">
        <ele>102</ele>
        <time>2014-10-25T09:35:01.000Z</time>
      </trkpt>
      <trkpt lat="49.89974" lon="1.02654">
        <ele>102</ele>
        <time>2014-10-25T09:35:02.000Z</time>
      </trkpt>
      <trkpt lat="49.89976" lon="1.02646">
        <ele>102</ele>
        <time>2014-10-25T09:35:03.000Z</time>
      </trkpt>
      <trkpt lat="49.89978" lon="1.02639">
        <ele>102</ele>
        <time>2014-10-25T09:35:04.000Z</time>
      </trkpt>
      <trkpt lat="49.8998" lon="1.02631">
        <ele>102</ele>
        <time>2014-10-25T09:35:05.000Z</time>
      </trkpt>
      <trkpt lat="49.89982" lon="1.02624">
        <ele>102</ele>
        <time>2014-10-25T09:35:06.000Z</time>
      </trkpt>
      <trkpt lat="49.89983" lon="1.02616">
        <ele>102</ele>
        <time>2014-10-25T09:35:07.000Z</time>
      </trkpt>
      <trkpt lat="49.89985" lon="1.02609">
        <ele>102</ele>
        <time>2014-10-25T09:35:08.000Z</time>
      </trkpt>
      <trkpt lat="49.89987" lon="1.02602">
        <ele>102</ele>
        <time>2014-10-25T09:35:09.000Z</time>
      </trkpt>
      <trkpt lat="49.8999" lon="1.02596">
        <ele>102</ele>
        <time>2014-10-25T09:35:10.000Z</time>
      </trkpt>
      <trkpt lat="49.89992" lon="1.02589">
        <ele>103</ele>
        <time>2014-10-25T09:35:11.000Z</time>
      </trkpt>
      <trkpt lat="49.89995" lon="1.02582">
        <ele>103</ele>
        <time>2014-10-25T09:35:12.000Z</time>
      </trkpt>
      <trkpt lat="49.89998" lon="1.02576">
        <ele>104</ele>
        <time>2014-10-25T09:35:13.000Z</time>
      </trkpt>
      <trkpt lat="49.90001" lon="1.02569">
        <ele>104</ele>
        <time>2014-10-25T09:35:14.000Z</time>
      </trkpt>
      <trkpt lat="49.90003" lon="1.02563">
        <ele>104</ele>
        <time>2014-10-25T09:35:15.000Z</time>
      </trkpt>
      <trkpt lat="49.90005" lon="1.02557">
        <ele>104</ele>
        <time>2014-10-25T09:35:16.000Z</time>
      </trkpt>
      <trkpt lat="49.90008" lon="1.02551">
        <ele>105</ele>
        <time>2014-10-25T09:35:17.000Z</time>
      </trkpt>
      <trkpt lat="49.90011" lon="1.02545">
        <ele>105</ele>
        <time>2014-10-25T09:35:18.000Z</time>
      </trkpt>
      <trkpt lat="49.90014" lon="1.02539">
        <ele>105</ele>
        <time>2014-10-25T09:35:19.000Z</time>
      </trkpt>
      <trkpt lat="49.90015" lon="1.02533">
        <ele>105</ele>
        <time>2014-10-25T09:35:20.000Z</time>
      </trkpt>
      <trkpt lat="49.90016" lon="1.02514">
        <ele>105</ele>
        <time>2014-10-25T09:35:23.000Z</time>
      </trkpt>
      <trkpt lat="49.90014" lon="1.02509">
        <ele>105</ele>
        <time>2014-10-25T09:35:24.000Z</time>
      </trkpt>
      <trkpt lat="49.90007" lon="1.02501">
        <ele>105</ele>
        <time>2014-10-25T09:35:26.000Z</time>
      </trkpt>
      <trkpt lat="49.90002" lon="1.02497">
        <ele>105</ele>
        <time>2014-10-25T09:35:27.000Z</time>
      </trkpt>
      <trkpt lat="49.89998" lon="1.02494">
        <ele>105</ele>
        <time>2014-10-25T09:35:28.000Z</time>
      </trkpt>
      <trkpt lat="49.89994" lon="1.0249">
        <ele>105</ele>
        <time>2014-10-25T09:35:29.000Z</time>
      </trkpt>
      <trkpt lat="49.8999" lon="1.02487">
        <ele>105</ele>
        <time>2014-10-25T09:35:30.000Z</time>
      </trkpt>
      <trkpt lat="49.89978" lon="1.02478">
        <ele>105</ele>
        <time>2014-10-25T09:35:33.000Z</time>
      </trkpt>
      <trkpt lat="49.89974" lon="1.02475">
        <ele>105</ele>
        <time>2014-10-25T09:35:34.000Z</time>
      </trkpt>
      <trkpt lat="49.89969" lon="1.02471">
        <ele>105</ele>
        <time>2014-10-25T09:35:35.000Z</time>
      </trkpt>
      <trkpt lat="49.89964" lon="1.02468">
        <ele>105</ele>
        <time>2014-10-25T09:35:36.000Z</time>
      </trkpt>
      <trkpt lat="49.89959" lon="1.02463">
        <ele>105</ele>
        <time>2014-10-25T09:35:37.000Z</time>
      </trkpt>
      <trkpt lat="49.89954" lon="1.02459">
        <ele>105</ele>
        <time>2014-10-25T09:35:38.000Z</time>
      </trkpt>
      <trkpt lat="49.89949" lon="1.02456">
        <ele>105</ele>
        <time>2014-10-25T09:35:39.000Z</time>
      </trkpt>
      <trkpt lat="49.89944" lon="1.02452">
        <ele>104</ele>
        <time>2014-10-25T09:35:40.000Z</time>
      </trkpt>
      <trkpt lat="49.89939" lon="1.02448">
        <ele>104</ele>
        <time>2014-10-25T09:35:41.000Z</time>
      </trkpt>
      <trkpt lat="49.89934" lon="1.02444">
        <ele>104</ele>
        <time>2014-10-25T09:35:42.000Z</time>
      </trkpt>
      <trkpt lat="49.8993" lon="1.02441">
        <ele>104</ele>
        <time>2014-10-25T09:35:43.000Z</time>
      </trkpt>
      <trkpt lat="49.89925" lon="1.02438">
        <ele>104</ele>
        <time>2014-10-25T09:35:44.000Z</time>
      </trkpt>
      <trkpt lat="49.89921" lon="1.02434">
        <ele>103</ele>
        <time>2014-10-25T09:35:45.000Z</time>
      </trkpt>
      <trkpt lat="49.89909" lon="1.02425">
        <ele>103</ele>
        <time>2014-10-25T09:35:48.000Z</time>
      </trkpt>
      <trkpt lat="49.89905" lon="1.02422">
        <ele>103</ele>
        <time>2014-10-25T09:35:49.000Z</time>
      </trkpt>
      <trkpt lat="49.89901" lon="1.02419">
        <ele>102</ele>
        <time>2014-10-25T09:35:50.000Z</time>
      </trkpt>
      <trkpt lat="49.89896" lon="1.02416">
        <ele>102</ele>
        <time>2014-10-25T09:35:51.000Z</time>
      </trkpt>
      <trkpt lat="49.89892" lon="1.02414">
        <ele>102</ele>
        <time>2014-10-25T09:35:52.000Z</time>
      </trkpt>
      <trkpt lat="49.89888" lon="1.02411">
        <ele>102</ele>
        <time>2014-10-25T09:35:53.000Z</time>
      </trkpt>
      <trkpt lat="49.89883" lon="1.02408">
        <ele>102</ele>
        <time>2014-10-25T09:35:54.000Z</time>
      </trkpt>
      <trkpt lat="49.89879" lon="1.02405">
        <ele>102</ele>
        <time>2014-10-25T09:35:55.000Z</time>
      </trkpt>
      <trkpt lat="49.89871" lon="1.02394">
        <ele>101</ele>
        <time>2014-10-25T09:35:58.000Z</time>
      </trkpt>
      <trkpt lat="49.89869" lon="1.02389">
        <ele>101</ele>
        <time>2014-10-25T09:35:59.000Z</time>
      </trkpt>
      <trkpt lat="49.89869" lon="1.02374">
        <ele>101</ele>
        <time>2014-10-25T09:36:01.000Z</time>
      </trkpt>
      <trkpt lat="49.89868" lon="1.02367">
        <ele>101</ele>
        <time>2014-10-25T09:36:02.000Z</time>
      </trkpt>
      <trkpt lat="49.89867" lon="1.0236">
        <ele>101</ele>
        <time>2014-10-25T09:36:03.000Z</time>
      </trkpt>
      <trkpt lat="49.89867" lon="1.02352">
        <ele>101</ele>
        <time>2014-10-25T09:36:04.000Z</time>
      </trkpt>
      <trkpt lat="49.89867" lon="1.02345">
        <ele>101</ele>
        <time>2014-10-25T09:36:05.000Z</time>
      </trkpt>
      <trkpt lat="49.89866" lon="1.02336">
        <ele>101</ele>
        <time>2014-10-25T09:36:06.000Z</time>
      </trkpt>
      <trkpt lat="49.89864" lon="1.02328">
        <ele>101</ele>
        <time>2014-10-25T09:36:07.000Z</time>
      </trkpt>
      <trkpt lat="49.89863" lon="1.0232">
        <ele>101</ele>
        <time>2014-10-25T09:36:08.000Z</time>
      </trkpt>
      <trkpt lat="49.89861" lon="1.02311">
        <ele>100</ele>
        <time>2014-10-25T09:36:09.000Z</time>
      </trkpt>
      <trkpt lat="49.89859" lon="1.02303">
        <ele>100</ele>
        <time>2014-10-25T09:36:10.000Z</time>
      </trkpt>
      <trkpt lat="49.89857" lon="1.02294">
        <ele>100</ele>
        <time>2014-10-25T09:36:11.000Z</time>
      </trkpt>
      <trkpt lat="49.89854" lon="1.02286">
        <ele>100</ele>
        <time>2014-10-25T09:36:12.000Z</time>
      </trkpt>
      <trkpt lat="49.89852" lon="1.02277">
        <ele>99</ele>
        <time>2014-10-25T09:36:13.000Z</time>
      </trkpt>
      <trkpt lat="49.8985" lon="1.02269">
        <ele>99</ele>
        <time>2014-10-25T09:36:14.000Z</time>
      </trkpt>
      <trkpt lat="49.89847" lon="1.02261">
        <ele>99</ele>
        <time>2014-10-25T09:36:15.000Z</time>
      </trkpt>
      <trkpt lat="49.89844" lon="1.02253">
        <ele>99</ele>
        <time>2014-10-25T09:36:16.000Z</time>
      </trkpt>
      <trkpt lat="49.89841" lon="1.02245">
        <ele>99</ele>
        <time>2014-10-25T09:36:17.000Z</time>
      </trkpt>
      <trkpt lat="49.89838" lon="1.02237">
        <ele>98</ele>
        <time>2014-10-25T09:36:18.000Z</time>
      </trkpt>
      <trkpt lat="49.89836" lon="1.0223">
        <ele>98</ele>
        <time>2014-10-25T09:36:19.000Z</time>
      </trkpt>
      <trkpt lat="49.89833" lon="1.02222">
        <ele>98</ele>
        <time>2014-10-25T09:36:20.000Z</time>
      </trkpt>
      <trkpt lat="49.89831" lon="1.02214">
        <ele>98</ele>
        <time>2014-10-25T09:36:21.000Z</time>
      </trkpt>
      <trkpt lat="49.89828" lon="1.02207">
        <ele>98</ele>
        <time>2014-10-25T09:36:22.000Z</time>
      </trkpt>
      <trkpt lat="49.89825" lon="1.022">
        <ele>98</ele>
        <time>2014-10-25T09:36:23.000Z</time>
      </trkpt>
      <trkpt lat="49.89823" lon="1.02193">
        <ele>98</ele>
        <time>2014-10-25T09:36:24.000Z</time>
      </trkpt>
      <trkpt lat="49.89821" lon="1.02185">
        <ele>98</ele>
        <time>2014-10-25T09:36:25.000Z</time>
      </trkpt>
      <trkpt lat="49.89818" lon="1.02178">
        <ele>98</ele>
        <time>2014-10-25T09:36:26.000Z</time>
      </trkpt>
      <trkpt lat="49.89816" lon="1.0217">
        <ele>98</ele>
        <time>2014-10-25T09:36:27.000Z</time>
      </trkpt>
      <trkpt lat="49.89814" lon="1.02163">
        <ele>98</ele>
        <time>2014-10-25T09:36:28.000Z</time>
      </trkpt>
      <trkpt lat="49.89811" lon="1.02155">
        <ele>98</ele>
        <time>2014-10-25T09:36:29.000Z</time>
      </trkpt>
      <trkpt lat="49.89809" lon="1.02148">
        <ele>98</ele>
        <time>2014-10-25T09:36:30.000Z</time>
      </trkpt>
      <trkpt lat="49.89806" lon="1.0214">
        <ele>98</ele>
        <time>2014-10-25T09:36:31.000Z</time>
      </trkpt>
      <trkpt lat="49.89804" lon="1.02133">
        <ele>98</ele>
        <time>2014-10-25T09:36:32.000Z</time>
      </trkpt>
      <trkpt lat="49.89802" lon="1.02125">
        <ele>98</ele>
        <time>2014-10-25T09:36:33.000Z</time>
      </trkpt>
      <trkpt lat="49.89799" lon="1.02117">
        <ele>98</ele>
        <time>2014-10-25T09:36:34.000Z</time>
      </trkpt>
      <trkpt lat="49.89798" lon="1.0211">
        <ele>98</ele>
        <time>2014-10-25T09:36:35.000Z</time>
      </trkpt>
      <trkpt lat="49.89795" lon="1.02102">
        <ele>99</ele>
        <time>2014-10-25T09:36:36.000Z</time>
      </trkpt>
      <trkpt lat="49.89793" lon="1.02095">
        <ele>99</ele>
        <time>2014-10-25T09:36:37.000Z</time>
      </trkpt>
      <trkpt lat="49.89792" lon="1.02087">
        <ele>99</ele>
        <time>2014-10-25T09:36:38.000Z</time>
      </trkpt>
      <trkpt lat="49.89789" lon="1.0208">
        <ele>99</ele>
        <time>2014-10-25T09:36:39.000Z</time>
      </trkpt>
      <trkpt lat="49.89787" lon="1.02073">
        <ele>99</ele>
        <time>2014-10-25T09:36:40.000Z</time>
      </trkpt>
      <trkpt lat="49.89785" lon="1.02065">
        <ele>99</ele>
        <time>2014-10-25T09:36:41.000Z</time>
      </trkpt>
      <trkpt lat="49.89784" lon="1.02058">
        <ele>100</ele>
        <time>2014-10-25T09:36:42.000Z</time>
      </trkpt>
      <trkpt lat="49.89781" lon="1.02051">
        <ele>100</ele>
        <time>2014-10-25T09:36:43.000Z</time>
      </trkpt>
      <trkpt lat="49.8978" lon="1.02044">
        <ele>100</ele>
        <time>2014-10-25T09:36:44.000Z</time>
      </trkpt>
      <trkpt lat="49.89778" lon="1.02036">
        <ele>100</ele>
        <time>2014-10-25T09:36:45.000Z</time>
      </trkpt>
      <trkpt lat="49.89776" lon="1.02028">
        <ele>100</ele>
        <time>2014-10-25T09:36:46.000Z</time>
      </trkpt>
      <trkpt lat="49.89774" lon="1.02021">
        <ele>100</ele>
        <time>2014-10-25T09:36:47.000Z</time>
      </trkpt>
      <trkpt lat="49.89772" lon="1.02013">
        <ele>100</ele>
        <time>2014-10-25T09:36:48.000Z</time>
      </trkpt>
      <trkpt lat="49.8977" lon="1.02005">
        <ele>100</ele>
        <time>2014-10-25T09:36:49.000Z</time>
      </trkpt>
      <trkpt lat="49.89768" lon="1.01998">
        <ele>100</ele>
        <time>2014-10-25T09:36:50.000Z</time>
      </trkpt>
      <trkpt lat="49.89766" lon="1.0199">
        <ele>100</ele>
        <time>2014-10-25T09:36:51.000Z</time>
      </trkpt>
      <trkpt lat="49.89765" lon="1.01982">
        <ele>100</ele>
        <time>2014-10-25T09:36:52.000Z</time>
      </trkpt>
      <trkpt lat="49.89763" lon="1.01974">
        <ele>100</ele>
        <time>2014-10-25T09:36:53.000Z</time>
      </trkpt>
      <trkpt lat="49.89761" lon="1.01966">
        <ele>100</ele>
        <time>2014-10-25T09:36:54.000Z</time>
      </trkpt>
      <trkpt lat="49.8976" lon="1.01957">
        <ele>100</ele>
        <time>2014-10-25T09:36:55.000Z</time>
      </trkpt>
      <trkpt lat="49.89758" lon="1.01948">
        <ele>100</ele>
        <time>2014-10-25T09:36:56.000Z</time>
      </trkpt>
      <trkpt lat="49.89756" lon="1.0194">
        <ele>100</ele>
        <time>2014-10-25T09:36:57.000Z</time>
      </trkpt>
      <trkpt lat="49.89755" lon="1.01931">
        <ele>100</ele>
        <time>2014-10-25T09:36:58.000Z</time>
      </trkpt>
      <trkpt lat="49.89753" lon="1.01922">
        <ele>100</ele>
        <time>2014-10-25T09:36:59.000Z</time>
      </trkpt>
      <trkpt lat="49.89752" lon="1.01913">
        <ele>100</ele>
        <time>2014-10-25T09:37:00.000Z</time>
      </trkpt>
      <trkpt lat="49.8975" lon="1.01903">
        <ele>100</ele>
        <time>2014-10-25T09:37:01.000Z</time>
      </trkpt>
      <trkpt lat="49.89749" lon="1.01894">
        <ele>100</ele>
        <time>2014-10-25T09:37:02.000Z</time>
      </trkpt>
      <trkpt lat="49.89748" lon="1.01885">
        <ele>99</ele>
        <time>2014-10-25T09:37:03.000Z</time>
      </trkpt>
      <trkpt lat="49.89747" lon="1.01876">
        <ele>99</ele>
        <time>2014-10-25T09:37:04.000Z</time>
      </trkpt>
      <trkpt lat="49.89745" lon="1.01867">
        <ele>99</ele>
        <time>2014-10-25T09:37:05.000Z</time>
      </trkpt>
      <trkpt lat="49.89744" lon="1.01858">
        <ele>99</ele>
        <time>2014-10-25T09:37:06.000Z</time>
      </trkpt>
      <trkpt lat="49.89743" lon="1.01849">
        <ele>99</ele>
        <time>2014-10-25T09:37:07.000Z</time>
      </trkpt>
      <trkpt lat="49.89742" lon="1.0184">
        <ele>99</ele>
        <time>2014-10-25T09:37:08.000Z</time>
      </trkpt>
      <trkpt lat="49.89741" lon="1.01831">
        <ele>99</ele>
        <time>2014-10-25T09:37:09.000Z</time>
      </trkpt>
      <trkpt lat="49.8974" lon="1.01821">
        <ele>99</ele>
        <time>2014-10-25T09:37:10.000Z</time>
      </trkpt>
      <trkpt lat="49.89739" lon="1.01812">
        <ele>99</ele>
        <time>2014-10-25T09:37:11.000Z</time>
      </trkpt>
      <trkpt lat="49.89737" lon="1.01803">
        <ele>99</ele>
        <time>2014-10-25T09:37:12.000Z</time>
      </trkpt>
      <trkpt lat="49.89735" lon="1.01794">
        <ele>98</ele>
        <time>2014-10-25T09:37:13.000Z</time>
      </trkpt>
      <trkpt lat="49.89734" lon="1.01785">
        <ele>98</ele>
        <time>2014-10-25T09:37:14.000Z</time>
      </trkpt>
      <trkpt lat="49.89732" lon="1.01777">
        <ele>98</ele>
        <time>2014-10-25T09:37:15.000Z</time>
      </trkpt>
      <trkpt lat="49.8973" lon="1.01768">
        <ele>98</ele>
        <time>2014-10-25T09:37:16.000Z</time>
      </trkpt>
      <trkpt lat="49.89728" lon="1.01759">
        <ele>98</ele>
        <time>2014-10-25T09:37:17.000Z</time>
      </trkpt>
      <trkpt lat="49.89726" lon="1.01751">
        <ele>97</ele>
        <time>2014-10-25T09:37:18.000Z</time>
      </trkpt>
      <trkpt lat="49.89723" lon="1.01742">
        <ele>97</ele>
        <time>2014-10-25T09:37:19.000Z</time>
      </trkpt>
      <trkpt lat="49.89721" lon="1.01734">
        <ele>96</ele>
        <time>2014-10-25T09:37:20.000Z</time>
      </trkpt>
      <trkpt lat="49.89718" lon="1.01727">
        <ele>96</ele>
        <time>2014-10-25T09:37:21.000Z</time>
      </trkpt>
      <trkpt lat="49.89716" lon="1.01718">
        <ele>96</ele>
        <time>2014-10-25T09:37:22.000Z</time>
      </trkpt>
      <trkpt lat="49.89713" lon="1.0171">
        <ele>95</ele>
        <time>2014-10-25T09:37:23.000Z</time>
      </trkpt>
      <trkpt lat="49.89711" lon="1.01702">
        <ele>95</ele>
        <time>2014-10-25T09:37:24.000Z</time>
      </trkpt>
      <trkpt lat="49.89708" lon="1.01693">
        <ele>95</ele>
        <time>2014-10-25T09:37:25.000Z</time>
      </trkpt>
      <trkpt lat="49.89705" lon="1.01684">
        <ele>94</ele>
        <time>2014-10-25T09:37:26.000Z</time>
      </trkpt>
      <trkpt lat="49.89702" lon="1.01675">
        <ele>94</ele>
        <time>2014-10-25T09:37:27.000Z</time>
      </trkpt>
      <trkpt lat="49.89699" lon="1.01667">
        <ele>94</ele>
        <time>2014-10-25T09:37:28.000Z</time>
      </trkpt>
      <trkpt lat="49.89696" lon="1.01658">
        <ele>94</ele>
        <time>2014-10-25T09:37:29.000Z</time>
      </trkpt>
      <trkpt lat="49.89694" lon="1.0165">
        <ele>93</ele>
        <time>2014-10-25T09:37:30.000Z</time>
      </trkpt>
      <trkpt lat="49.89692" lon="1.01642">
        <ele>93</ele>
        <time>2014-10-25T09:37:31.000Z</time>
      </trkpt>
      <trkpt lat="49.89689" lon="1.01634">
        <ele>93</ele>
        <time>2014-10-25T09:37:32.000Z</time>
      </trkpt>
      <trkpt lat="49.89687" lon="1.01625">
        <ele>93</ele>
        <time>2014-10-25T09:37:33.000Z</time>
      </trkpt>
      <trkpt lat="49.89685" lon="1.01617">
        <ele>92</ele>
        <time>2014-10-25T09:37:34.000Z</time>
      </trkpt>
      <trkpt lat="49.89683" lon="1.01609">
        <ele>92</ele>
        <time>2014-10-25T09:37:35.000Z</time>
      </trkpt>
      <trkpt lat="49.89682" lon="1.016">
        <ele>92</ele>
        <time>2014-10-25T09:37:36.000Z</time>
      </trkpt>
      <trkpt lat="49.89681" lon="1.01591">
        <ele>92</ele>
        <time>2014-10-25T09:37:37.000Z</time>
      </trkpt>
      <trkpt lat="49.8968" lon="1.01583">
        <ele>91</ele>
        <time>2014-10-25T09:37:38.000Z</time>
      </trkpt>
      <trkpt lat="49.89679" lon="1.01574">
        <ele>91</ele>
        <time>2014-10-25T09:37:39.000Z</time>
      </trkpt>
      <trkpt lat="49.89679" lon="1.01565">
        <ele>91</ele>
        <time>2014-10-25T09:37:40.000Z</time>
      </trkpt>
      <trkpt lat="49.89678" lon="1.01557">
        <ele>91</ele>
        <time>2014-10-25T09:37:41.000Z</time>
      </trkpt>
      <trkpt lat="49.89678" lon="1.01548">
        <ele>90</ele>
        <time>2014-10-25T09:37:42.000Z</time>
      </trkpt>
      <trkpt lat="49.89678" lon="1.0154">
        <ele>90</ele>
        <time>2014-10-25T09:37:43.000Z</time>
      </trkpt>
      <trkpt lat="49.89678" lon="1.01532">
        <ele>90</ele>
        <time>2014-10-25T09:37:44.000Z</time>
      </trkpt>
      <trkpt lat="49.89679" lon="1.01523">
        <ele>90</ele>
        <time>2014-10-25T09:37:45.000Z</time>
      </trkpt>
      <trkpt lat="49.8968" lon="1.01516">
        <ele>90</ele>
        <time>2014-10-25T09:37:46.000Z</time>
      </trkpt>
      <trkpt lat="49.89681" lon="1.01509">
        <ele>90</ele>
        <time>2014-10-25T09:37:47.000Z</time>
      </trkpt>
      <trkpt lat="49.89684" lon="1.01491">
        <ele>90</ele>
        <time>2014-10-25T09:37:50.000Z</time>
      </trkpt>
      <trkpt lat="49.89684" lon="1.01484">
        <ele>90</ele>
        <time>2014-10-25T09:37:51.000Z</time>
      </trkpt>
      <trkpt lat="49.89683" lon="1.0147">
        <ele>90</ele>
        <time>2014-10-25T09:37:53.000Z</time>
      </trkpt>
      <trkpt lat="49.89683" lon="1.01462">
        <ele>90</ele>
        <time>2014-10-25T09:37:54.000Z</time>
      </trkpt>
      <trkpt lat="49.89682" lon="1.01454">
        <ele>90</ele>
        <time>2014-10-25T09:37:55.000Z</time>
      </trkpt>
      <trkpt lat="49.8968" lon="1.01445">
        <ele>91</ele>
        <time>2014-10-25T09:37:56.000Z</time>
      </trkpt>
      <trkpt lat="49.89678" lon="1.01437">
        <ele>91</ele>
        <time>2014-10-25T09:37:57.000Z</time>
      </trkpt>
      <trkpt lat="49.89676" lon="1.0143">
        <ele>92</ele>
        <time>2014-10-25T09:37:58.000Z</time>
      </trkpt>
      <trkpt lat="49.89673" lon="1.01422">
        <ele>92</ele>
        <time>2014-10-25T09:37:59.000Z</time>
      </trkpt>
      <trkpt lat="49.89671" lon="1.01415">
        <ele>93</ele>
        <time>2014-10-25T09:38:00.000Z</time>
      </trkpt>
      <trkpt lat="49.89669" lon="1.01408">
        <ele>93</ele>
        <time>2014-10-25T09:38:01.000Z</time>
      </trkpt>
      <trkpt lat="49.89666" lon="1.01401">
        <ele>93</ele>
        <time>2014-10-25T09:38:02.000Z</time>
      </trkpt>
      <trkpt lat="49.89664" lon="1.01394">
        <ele>93</ele>
        <time>2014-10-25T09:38:03.000Z</time>
      </trkpt>
      <trkpt lat="49.89662" lon="1.01387">
        <ele>93</ele>
        <time>2014-10-25T09:38:04.000Z</time>
      </trkpt>
      <trkpt lat="49.8966" lon="1.01379">
        <ele>93</ele>
        <time>2014-10-25T09:38:05.000Z</time>
      </trkpt>
      <trkpt lat="49.89658" lon="1.01372">
        <ele>92</ele>
        <time>2014-10-25T09:38:06.000Z</time>
      </trkpt>
      <trkpt lat="49.89656" lon="1.01364">
        <ele>92</ele>
        <time>2014-10-25T09:38:07.000Z</time>
      </trkpt>
      <trkpt lat="49.89654" lon="1.01356">
        <ele>91</ele>
        <time>2014-10-25T09:38:08.000Z</time>
      </trkpt>
      <trkpt lat="49.89653" lon="1.01348">
        <ele>90</ele>
        <time>2014-10-25T09:38:09.000Z</time>
      </trkpt>
      <trkpt lat="49.8965" lon="1.0134">
        <ele>90</ele>
        <time>2014-10-25T09:38:10.000Z</time>
      </trkpt>
      <trkpt lat="49.89648" lon="1.01332">
        <ele>89</ele>
        <time>2014-10-25T09:38:11.000Z</time>
      </trkpt>
      <trkpt lat="49.89646" lon="1.01324">
        <ele>89</ele>
        <time>2014-10-25T09:38:12.000Z</time>
      </trkpt>
      <trkpt lat="49.89644" lon="1.01316">
        <ele>88</ele>
        <time>2014-10-25T09:38:13.000Z</time>
      </trkpt>
      <trkpt lat="49.89642" lon="1.01307">
        <ele>87</ele>
        <time>2014-10-25T09:38:14.000Z</time>
      </trkpt>
      <trkpt lat="49.8964" lon="1.01298">
        <ele>87</ele>
        <time>2014-10-25T09:38:15.000Z</time>
      </trkpt>
      <trkpt lat="49.89637" lon="1.01289">
        <ele>86</ele>
        <time>2014-10-25T09:38:16.000Z</time>
      </trkpt>
      <trkpt lat="49.89635" lon="1.0128">
        <ele>85</ele>
        <time>2014-10-25T09:38:17.000Z</time>
      </trkpt>
      <trkpt lat="49.89633" lon="1.01271">
        <ele>85</ele>
        <time>2014-10-25T09:38:18.000Z</time>
      </trkpt>
      <trkpt lat="49.89631" lon="1.01262">
        <ele>84</ele>
        <time>2014-10-25T09:38:19.000Z</time>
      </trkpt>
      <trkpt lat="49.89629" lon="1.01254">
        <ele>83</ele>
        <time>2014-10-25T09:38:20.000Z</time>
      </trkpt>
      <trkpt lat="49.89627" lon="1.01245">
        <ele>83</ele>
        <time>2014-10-25T09:38:21.000Z</time>
      </trkpt>
      <trkpt lat="49.89624" lon="1.01237">
        <ele>82</ele>
        <time>2014-10-25T09:38:22.000Z</time>
      </trkpt>
      <trkpt lat="49.89623" lon="1.01228">
        <ele>81</ele>
        <time>2014-10-25T09:38:23.000Z</time>
      </trkpt>
      <trkpt lat="49.8962" lon="1.0122">
        <ele>80</ele>
        <time>2014-10-25T09:38:24.000Z</time>
      </trkpt>
      <trkpt lat="49.89618" lon="1.01213">
        <ele>79</ele>
        <time>2014-10-25T09:38:25.000Z</time>
      </trkpt>
      <trkpt lat="49.89616" lon="1.01206">
        <ele>79</ele>
        <time>2014-10-25T09:38:26.000Z</time>
      </trkpt>
      <trkpt lat="49.89614" lon="1.01199">
        <ele>78</ele>
        <time>2014-10-25T09:38:27.000Z</time>
      </trkpt>
      <trkpt lat="49.89613" lon="1.01193">
        <ele>78</ele>
        <time>2014-10-25T09:38:28.000Z</time>
      </trkpt>
      <trkpt lat="49.89608" lon="1.01174">
        <ele>77</ele>
        <time>2014-10-25T09:38:31.000Z</time>
      </trkpt>
      <trkpt lat="49.89607" lon="1.01167">
        <ele>76</ele>
        <time>2014-10-25T09:38:32.000Z</time>
      </trkpt>
      <trkpt lat="49.89606" lon="1.01159">
        <ele>76</ele>
        <time>2014-10-25T09:38:33.000Z</time>
      </trkpt>
      <trkpt lat="49.89605" lon="1.01151">
        <ele>76</ele>
        <time>2014-10-25T09:38:34.000Z</time>
      </trkpt>
      <trkpt lat="49.89603" lon="1.01143">
        <ele>76</ele>
        <time>2014-10-25T09:38:35.000Z</time>
      </trkpt>
      <trkpt lat="49.89602" lon="1.01135">
        <ele>75</ele>
        <time>2014-10-25T09:38:36.000Z</time>
      </trkpt>
      <trkpt lat="49.896" lon="1.01127">
        <ele>75</ele>
        <time>2014-10-25T09:38:37.000Z</time>
      </trkpt>
      <trkpt lat="49.89599" lon="1.01118">
        <ele>75</ele>
        <time>2014-10-25T09:38:38.000Z</time>
      </trkpt>
      <trkpt lat="49.89597" lon="1.0111">
        <ele>75</ele>
        <time>2014-10-25T09:38:39.000Z</time>
      </trkpt>
      <trkpt lat="49.89596" lon="1.01101">
        <ele>74</ele>
        <time>2014-10-25T09:38:40.000Z</time>
      </trkpt>
      <trkpt lat="49.89595" lon="1.01093">
        <ele>74</ele>
        <time>2014-10-25T09:38:41.000Z</time>
      </trkpt>
      <trkpt lat="49.89593" lon="1.01084">
        <ele>74</ele>
        <time>2014-10-25T09:38:42.000Z</time>
      </trkpt>
      <trkpt lat="49.89592" lon="1.01076">
        <ele>74</ele>
        <time>2014-10-25T09:38:43.000Z</time>
      </trkpt>
      <trkpt lat="49.89591" lon="1.01069">
        <ele>74</ele>
        <time>2014-10-25T09:38:44.000Z</time>
      </trkpt>
      <trkpt lat="49.8959" lon="1.01062">
        <ele>74</ele>
        <time>2014-10-25T09:38:45.000Z</time>
      </trkpt>
      <trkpt lat="49.89589" lon="1.01054">
        <ele>74</ele>
        <time>2014-10-25T09:38:46.000Z</time>
      </trkpt>
      <trkpt lat="49.89587" lon="1.01047">
        <ele>73</ele>
        <time>2014-10-25T09:38:47.000Z</time>
      </trkpt>
      <trkpt lat="49.89586" lon="1.01041">
        <ele>73</ele>
        <time>2014-10-25T09:38:48.000Z</time>
      </trkpt>
      <trkpt lat="49.89585" lon="1.01034">
        <ele>73</ele>
        <time>2014-10-25T09:38:49.000Z</time>
      </trkpt>
      <trkpt lat="49.89584" lon="1.01027">
        <ele>73</ele>
        <time>2014-10-25T09:38:50.000Z</time>
      </trkpt>
      <trkpt lat="49.89583" lon="1.01019">
        <ele>73</ele>
        <time>2014-10-25T09:38:51.000Z</time>
      </trkpt>
      <trkpt lat="49.89582" lon="1.01011">
        <ele>73</ele>
        <time>2014-10-25T09:38:52.000Z</time>
      </trkpt>
      <trkpt lat="49.8958" lon="1.01004">
        <ele>73</ele>
        <time>2014-10-25T09:38:53.000Z</time>
      </trkpt>
      <trkpt lat="49.89579" lon="1.00996">
        <ele>73</ele>
        <time>2014-10-25T09:38:54.000Z</time>
      </trkpt>
      <trkpt lat="49.89578" lon="1.00988">
        <ele>73</ele>
        <time>2014-10-25T09:38:55.000Z</time>
      </trkpt>
      <trkpt lat="49.89576" lon="1.0098">
        <ele>73</ele>
        <time>2014-10-25T09:38:56.000Z</time>
      </trkpt>
      <trkpt lat="49.89575" lon="1.00972">
        <ele>73</ele>
        <time>2014-10-25T09:38:57.000Z</time>
      </trkpt>
      <trkpt lat="49.89574" lon="1.00964">
        <ele>73</ele>
        <time>2014-10-25T09:38:58.000Z</time>
      </trkpt>
      <trkpt lat="49.89572" lon="1.00955">
        <ele>73</ele>
        <time>2014-10-25T09:38:59.000Z</time>
      </trkpt>
      <trkpt lat="49.89571" lon="1.00947">
        <ele>73</ele>
        <time>2014-10-25T09:39:00.000Z</time>
      </trkpt>
      <trkpt lat="49.8957" lon="1.00939">
        <ele>73</ele>
        <time>2014-10-25T09:39:01.000Z</time>
      </trkpt>
      <trkpt lat="49.89568" lon="1.0093">
        <ele>73</ele>
        <time>2014-10-25T09:39:02.000Z</time>
      </trkpt>
      <trkpt lat="49.89566" lon="1.00922">
        <ele>73</ele>
        <time>2014-10-25T09:39:03.000Z</time>
      </trkpt>
      <trkpt lat="49.89565" lon="1.00913">
        <ele>73</ele>
        <time>2014-10-25T09:39:04.000Z</time>
      </trkpt>
      <trkpt lat="49.89563" lon="1.00905">
        <ele>73</ele>
        <time>2014-10-25T09:39:05.000Z</time>
      </trkpt>
      <trkpt lat="49.89562" lon="1.00896">
        <ele>73</ele>
        <time>2014-10-25T09:39:06.000Z</time>
      </trkpt>
      <trkpt lat="49.8956" lon="1.00887">
        <ele>73</ele>
        <time>2014-10-25T09:39:07.000Z</time>
      </trkpt>
      <trkpt lat="49.89559" lon="1.00879">
        <ele>73</ele>
        <time>2014-10-25T09:39:08.000Z</time>
      </trkpt>
      <trkpt lat="49.89558" lon="1.0087">
        <ele>73</ele>
        <time>2014-10-25T09:39:09.000Z</time>
      </trkpt>
      <trkpt lat="49.89556" lon="1.00862">
        <ele>73</ele>
        <time>2014-10-25T09:39:10.000Z</time>
      </trkpt>
      <trkpt lat="49.89554" lon="1.00854">
        <ele>73</ele>
        <time>2014-10-25T09:39:11.000Z</time>
      </trkpt>
      <trkpt lat="49.89553" lon="1.00845">
        <ele>73</ele>
        <time>2014-10-25T09:39:12.000Z</time>
      </trkpt>
      <trkpt lat="49.89551" lon="1.00837">
        <ele>73</ele>
        <time>2014-10-25T09:39:13.000Z</time>
      </trkpt>
      <trkpt lat="49.8955" lon="1.00828">
        <ele>73</ele>
        <time>2014-10-25T09:39:14.000Z</time>
      </trkpt>
      <trkpt lat="49.89549" lon="1.0082">
        <ele>72</ele>
        <time>2014-10-25T09:39:15.000Z</time>
      </trkpt>
      <trkpt lat="49.89547" lon="1.00811">
        <ele>72</ele>
        <time>2014-10-25T09:39:16.000Z</time>
      </trkpt>
      <trkpt lat="49.89545" lon="1.00802">
        <ele>72</ele>
        <time>2014-10-25T09:39:17.000Z</time>
      </trkpt>
      <trkpt lat="49.89544" lon="1.00794">
        <ele>72</ele>
        <time>2014-10-25T09:39:18.000Z</time>
      </trkpt>
      <trkpt lat="49.89542" lon="1.00785">
        <ele>72</ele>
        <time>2014-10-25T09:39:19.000Z</time>
      </trkpt>
      <trkpt lat="49.89541" lon="1.00777">
        <ele>72</ele>
        <time>2014-10-25T09:39:20.000Z</time>
      </trkpt>
      <trkpt lat="49.8954" lon="1.00768">
        <ele>72</ele>
        <time>2014-10-25T09:39:21.000Z</time>
      </trkpt>
      <trkpt lat="49.89538" lon="1.0076">
        <ele>72</ele>
        <time>2014-10-25T09:39:22.000Z</time>
      </trkpt>
      <trkpt lat="49.89537" lon="1.00751">
        <ele>72</ele>
        <time>2014-10-25T09:39:23.000Z</time>
      </trkpt>
      <trkpt lat="49.89535" lon="1.00743">
        <ele>72</ele>
        <time>2014-10-25T09:39:24.000Z</time>
      </trkpt>
      <trkpt lat="49.89534" lon="1.00734">
        <ele>72</ele>
        <time>2014-10-25T09:39:25.000Z</time>
      </trkpt>
      <trkpt lat="49.89533" lon="1.00726">
        <ele>72</ele>
        <time>2014-10-25T09:39:26.000Z</time>
      </trkpt>
      <trkpt lat="49.89531" lon="1.00718">
        <ele>71</ele>
        <time>2014-10-25T09:39:27.000Z</time>
      </trkpt>
      <trkpt lat="49.8953" lon="1.00711">
        <ele>71</ele>
        <time>2014-10-25T09:39:28.000Z</time>
      </trkpt>
      <trkpt lat="49.89529" lon="1.00703">
        <ele>71</ele>
        <time>2014-10-25T09:39:29.000Z</time>
      </trkpt>
      <trkpt lat="49.89527" lon="1.00697">
        <ele>71</ele>
        <time>2014-10-25T09:39:30.000Z</time>
      </trkpt>
      <trkpt lat="49.89514" lon="1.00692">
        <ele>71</ele>
        <time>2014-10-25T09:39:33.000Z</time>
      </trkpt>
      <trkpt lat="49.8951" lon="1.00694">
        <ele>71</ele>
        <time>2014-10-25T09:39:34.000Z</time>
      </trkpt>
      <trkpt lat="49.89505" lon="1.00696">
        <ele>71</ele>
        <time>2014-10-25T09:39:35.000Z</time>
      </trkpt>
      <trkpt lat="49.89499" lon="1.00699">
        <ele>70</ele>
        <time>2014-10-25T09:39:36.000Z</time>
      </trkpt>
      <trkpt lat="49.89494" lon="1.00702">
        <ele>70</ele>
        <time>2014-10-25T09:39:37.000Z</time>
      </trkpt>
      <trkpt lat="49.89489" lon="1.00704">
        <ele>70</ele>
        <time>2014-10-25T09:39:38.000Z</time>
      </trkpt>
      <trkpt lat="49.89485" lon="1.00707">
        <ele>70</ele>
        <time>2014-10-25T09:39:39.000Z</time>
      </trkpt>
      <trkpt lat="49.89481" lon="1.00709">
        <ele>70</ele>
        <time>2014-10-25T09:39:40.000Z</time>
      </trkpt>
      <trkpt lat="49.89477" lon="1.00712">
        <ele>70</ele>
        <time>2014-10-25T09:39:41.000Z</time>
      </trkpt>
      <trkpt lat="49.89465" lon="1.00718">
        <ele>70</ele>
        <time>2014-10-25T09:39:44.000Z</time>
      </trkpt>
      <trkpt lat="49.89461" lon="1.0072">
        <ele>70</ele>
        <time>2014-10-25T09:39:45.000Z</time>
      </trkpt>
      <trkpt lat="49.8945" lon="1.00727">
        <ele>70</ele>
        <time>2014-10-25T09:39:48.000Z</time>
      </trkpt>
      <trkpt lat="49.89446" lon="1.0073">
        <ele>71</ele>
        <time>2014-10-25T09:39:49.000Z</time>
      </trkpt>
      <trkpt lat="49.89434" lon="1.00734">
        <ele>71</ele>
        <time>2014-10-25T09:39:52.000Z</time>
      </trkpt>
      <trkpt lat="49.8943" lon="1.00734">
        <ele>71</ele>
        <time>2014-10-25T09:39:53.000Z</time>
      </trkpt>
      <trkpt lat="49.89423" lon="1.00721">
        <ele>70</ele>
        <time>2014-10-25T09:39:56.000Z</time>
      </trkpt>
      <trkpt lat="49.89421" lon="1.00715">
        <ele>70</ele>
        <time>2014-10-25T09:39:57.000Z</time>
      </trkpt>
      <trkpt lat="49.8942" lon="1.00708">
        <ele>70</ele>
        <time>2014-10-25T09:39:58.000Z</time>
      </trkpt>
      <trkpt lat="49.89418" lon="1.00701">
        <ele>69</ele>
        <time>2014-10-25T09:39:59.000Z</time>
      </trkpt>
      <trkpt lat="49.89417" lon="1.00693">
        <ele>69</ele>
        <time>2014-10-25T09:40:00.000Z</time>
      </trkpt>
      <trkpt lat="49.89415" lon="1.00685">
        <ele>69</ele>
        <time>2014-10-25T09:40:01.000Z</time>
      </trkpt>
      <trkpt lat="49.89414" lon="1.00677">
        <ele>68</ele>
        <time>2014-10-25T09:40:02.000Z</time>
      </trkpt>
      <trkpt lat="49.89413" lon="1.00669">
        <ele>68</ele>
        <time>2014-10-25T09:40:03.000Z</time>
      </trkpt>
      <trkpt lat="49.89411" lon="1.00661">
        <ele>68</ele>
        <time>2014-10-25T09:40:04.000Z</time>
      </trkpt>
      <trkpt lat="49.8941" lon="1.00652">
        <ele>68</ele>
        <time>2014-10-25T09:40:05.000Z</time>
      </trkpt>
      <trkpt lat="49.89408" lon="1.00644">
        <ele>67</ele>
        <time>2014-10-25T09:40:06.000Z</time>
      </trkpt>
      <trkpt lat="49.89407" lon="1.00635">
        <ele>67</ele>
        <time>2014-10-25T09:40:07.000Z</time>
      </trkpt>
      <trkpt lat="49.89405" lon="1.00626">
        <ele>67</ele>
        <time>2014-10-25T09:40:08.000Z</time>
      </trkpt>
      <trkpt lat="49.89403" lon="1.00618">
        <ele>66</ele>
        <time>2014-10-25T09:40:09.000Z</time>
      </trkpt>
      <trkpt lat="49.89402" lon="1.00609">
        <ele>66</ele>
        <time>2014-10-25T09:40:10.000Z</time>
      </trkpt>
      <trkpt lat="49.89401" lon="1.006">
        <ele>66</ele>
        <time>2014-10-25T09:40:11.000Z</time>
      </trkpt>
      <trkpt lat="49.89399" lon="1.0059">
        <ele>66</ele>
        <time>2014-10-25T09:40:12.000Z</time>
      </trkpt>
      <trkpt lat="49.89397" lon="1.00581">
        <ele>65</ele>
        <time>2014-10-25T09:40:13.000Z</time>
      </trkpt>
      <trkpt lat="49.89395" lon="1.00571">
        <ele>65</ele>
        <time>2014-10-25T09:40:14.000Z</time>
      </trkpt>
      <trkpt lat="49.89393" lon="1.00561">
        <ele>65</ele>
        <time>2014-10-25T09:40:15.000Z</time>
      </trkpt>
      <trkpt lat="49.89392" lon="1.00552">
        <ele>64</ele>
        <time>2014-10-25T09:40:16.000Z</time>
      </trkpt>
      <trkpt lat="49.8939" lon="1.00542">
        <ele>64</ele>
        <time>2014-10-25T09:40:17.000Z</time>
      </trkpt>
      <trkpt lat="49.89388" lon="1.00532">
        <ele>64</ele>
        <time>2014-10-25T09:40:18.000Z</time>
      </trkpt>
      <trkpt lat="49.89386" lon="1.00523">
        <ele>63</ele>
        <time>2014-10-25T09:40:19.000Z</time>
      </trkpt>
      <trkpt lat="49.89385" lon="1.00513">
        <ele>63</ele>
        <time>2014-10-25T09:40:20.000Z</time>
      </trkpt>
      <trkpt lat="49.89383" lon="1.00504">
        <ele>62</ele>
        <time>2014-10-25T09:40:21.000Z</time>
      </trkpt>
      <trkpt lat="49.89382" lon="1.00495">
        <ele>62</ele>
        <time>2014-10-25T09:40:22.000Z</time>
      </trkpt>
      <trkpt lat="49.8938" lon="1.00485">
        <ele>61</ele>
        <time>2014-10-25T09:40:23.000Z</time>
      </trkpt>
      <trkpt lat="49.89378" lon="1.00476">
        <ele>61</ele>
        <time>2014-10-25T09:40:24.000Z</time>
      </trkpt>
      <trkpt lat="49.89376" lon="1.00466">
        <ele>60</ele>
        <time>2014-10-25T09:40:25.000Z</time>
      </trkpt>
      <trkpt lat="49.89375" lon="1.00457">
        <ele>60</ele>
        <time>2014-10-25T09:40:26.000Z</time>
      </trkpt>
      <trkpt lat="49.89373" lon="1.00448">
        <ele>60</ele>
        <time>2014-10-25T09:40:27.000Z</time>
      </trkpt>
      <trkpt lat="49.89372" lon="1.00439">
        <ele>59</ele>
        <time>2014-10-25T09:40:28.000Z</time>
      </trkpt>
      <trkpt lat="49.8937" lon="1.0043">
        <ele>59</ele>
        <time>2014-10-25T09:40:29.000Z</time>
      </trkpt>
      <trkpt lat="49.89369" lon="1.00421">
        <ele>59</ele>
        <time>2014-10-25T09:40:30.000Z</time>
      </trkpt>
      <trkpt lat="49.89367" lon="1.00413">
        <ele>58</ele>
        <time>2014-10-25T09:40:31.000Z</time>
      </trkpt>
      <trkpt lat="49.89366" lon="1.00406">
        <ele>58</ele>
        <time>2014-10-25T09:40:32.000Z</time>
      </trkpt>
      <trkpt lat="49.89365" lon="1.00398">
        <ele>58</ele>
        <time>2014-10-25T09:40:33.000Z</time>
      </trkpt>
      <trkpt lat="49.89365" lon="1.00391">
        <ele>58</ele>
        <time>2014-10-25T09:40:34.000Z</time>
      </trkpt>
      <trkpt lat="49.89365" lon="1.00384">
        <ele>58</ele>
        <time>2014-10-25T09:40:35.000Z</time>
      </trkpt>
      <trkpt lat="49.89373" lon="1.0037">
        <ele>57</ele>
        <time>2014-10-25T09:40:38.000Z</time>
      </trkpt>
      <trkpt lat="49.89378" lon="1.00369">
        <ele>58</ele>
        <time>2014-10-25T09:40:39.000Z</time>
      </trkpt>
      <trkpt lat="49.89382" lon="1.00367">
        <ele>58</ele>
        <time>2014-10-25T09:40:40.000Z</time>
      </trkpt>
      <trkpt lat="49.89387" lon="1.00366">
        <ele>58</ele>
        <time>2014-10-25T09:40:41.000Z</time>
      </trkpt>
      <trkpt lat="49.89391" lon="1.00364">
        <ele>58</ele>
        <time>2014-10-25T09:40:42.000Z</time>
      </trkpt>
      <trkpt lat="49.89396" lon="1.00363">
        <ele>58</ele>
        <time>2014-10-25T09:40:43.000Z</time>
      </trkpt>
      <trkpt lat="49.89401" lon="1.00361">
        <ele>58</ele>
        <time>2014-10-25T09:40:44.000Z</time>
      </trkpt>
      <trkpt lat="49.89406" lon="1.0036">
        <ele>58</ele>
        <time>2014-10-25T09:40:45.000Z</time>
      </trkpt>
      <trkpt lat="49.89412" lon="1.00358">
        <ele>59</ele>
        <time>2014-10-25T09:40:46.000Z</time>
      </trkpt>
      <trkpt lat="49.89417" lon="1.00356">
        <ele>59</ele>
        <time>2014-10-25T09:40:47.000Z</time>
      </trkpt>
      <trkpt lat="49.89422" lon="1.00354">
        <ele>59</ele>
        <time>2014-10-25T09:40:48.000Z</time>
      </trkpt>
      <trkpt lat="49.89427" lon="1.00353">
        <ele>59</ele>
        <time>2014-10-25T09:40:49.000Z</time>
      </trkpt>
      <trkpt lat="49.89432" lon="1.0035">
        <ele>59</ele>
        <time>2014-10-25T09:40:50.000Z</time>
      </trkpt>
      <trkpt lat="49.89438" lon="1.00349">
        <ele>60</ele>
        <time>2014-10-25T09:40:51.000Z</time>
      </trkpt>
      <trkpt lat="49.89443" lon="1.00347">
        <ele>60</ele>
        <time>2014-10-25T09:40:52.000Z</time>
      </trkpt>
      <trkpt lat="49.89448" lon="1.00344">
        <ele>60</ele>
        <time>2014-10-25T09:40:53.000Z</time>
      </trkpt>
      <trkpt lat="49.89453" lon="1.00342">
        <ele>60</ele>
        <time>2014-10-25T09:40:54.000Z</time>
      </trkpt>
      <trkpt lat="49.89458" lon="1.00339">
        <ele>61</ele>
        <time>2014-10-25T09:40:55.000Z</time>
      </trkpt>
      <trkpt lat="49.89463" lon="1.00337">
        <ele>61</ele>
        <time>2014-10-25T09:40:56.000Z</time>
      </trkpt>
      <trkpt lat="49.89468" lon="1.00334">
        <ele>61</ele>
        <time>2014-10-25T09:40:57.000Z</time>
      </trkpt>
      <trkpt lat="49.89473" lon="1.00331">
        <ele>62</ele>
        <time>2014-10-25T09:40:58.000Z</time>
      </trkpt>
      <trkpt lat="49.89478" lon="1.00328">
        <ele>62</ele>
        <time>2014-10-25T09:40:59.000Z</time>
      </trkpt>
      <trkpt lat="49.89483" lon="1.00326">
        <ele>62</ele>
        <time>2014-10-25T09:41:00.000Z</time>
      </trkpt>
      <trkpt lat="49.89488" lon="1.00323">
        <ele>63</ele>
        <time>2014-10-25T09:41:01.000Z</time>
      </trkpt>
      <trkpt lat="49.89492" lon="1.00319">
        <ele>63</ele>
        <time>2014-10-25T09:41:02.000Z</time>
      </trkpt>
      <trkpt lat="49.89497" lon="1.00316">
        <ele>63</ele>
        <time>2014-10-25T09:41:03.000Z</time>
      </trkpt>
      <trkpt lat="49.89502" lon="1.00312">
        <ele>64</ele>
        <time>2014-10-25T09:41:04.000Z</time>
      </trkpt>
      <trkpt lat="49.89506" lon="1.00309">
        <ele>64</ele>
        <time>2014-10-25T09:41:05.000Z</time>
      </trkpt>
      <trkpt lat="49.8951" lon="1.00306">
        <ele>64</ele>
        <time>2014-10-25T09:41:06.000Z</time>
      </trkpt>
      <trkpt lat="49.89515" lon="1.00303">
        <ele>65</ele>
        <time>2014-10-25T09:41:07.000Z</time>
      </trkpt>
      <trkpt lat="49.89519" lon="1.003">
        <ele>65</ele>
        <time>2014-10-25T09:41:08.000Z</time>
      </trkpt>
      <trkpt lat="49.89523" lon="1.00298">
        <ele>66</ele>
        <time>2014-10-25T09:41:09.000Z</time>
      </trkpt>
      <trkpt lat="49.89528" lon="1.00295">
        <ele>66</ele>
        <time>2014-10-25T09:41:10.000Z</time>
      </trkpt>
      <trkpt lat="49.89531" lon="1.00292">
        <ele>66</ele>
        <time>2014-10-25T09:41:11.000Z</time>
      </trkpt>
      <trkpt lat="49.89543" lon="1.00283">
        <ele>67</ele>
        <time>2014-10-25T09:41:14.000Z</time>
      </trkpt>
      <trkpt lat="49.89547" lon="1.00281">
        <ele>68</ele>
        <time>2014-10-25T09:41:15.000Z</time>
      </trkpt>
      <trkpt lat="49.89558" lon="1.00273">
        <ele>69</ele>
        <time>2014-10-25T09:41:18.000Z</time>
      </trkpt>
      <trkpt lat="49.89562" lon="1.0027">
        <ele>69</ele>
        <time>2014-10-25T09:41:19.000Z</time>
      </trkpt>
      <trkpt lat="49.89573" lon="1.00261">
        <ele>70</ele>
        <time>2014-10-25T09:41:22.000Z</time>
      </trkpt>
      <trkpt lat="49.89577" lon="1.00258">
        <ele>70</ele>
        <time>2014-10-25T09:41:23.000Z</time>
      </trkpt>
      <trkpt lat="49.89587" lon="1.00252">
        <ele>71</ele>
        <time>2014-10-25T09:41:26.000Z</time>
      </trkpt>
      <trkpt lat="49.89591" lon="1.0025">
        <ele>71</ele>
        <time>2014-10-25T09:41:27.000Z</time>
      </trkpt>
      <trkpt lat="49.89601" lon="1.00242">
        <ele>72</ele>
        <time>2014-10-25T09:41:30.000Z</time>
      </trkpt>
      <trkpt lat="49.89604" lon="1.0024">
        <ele>72</ele>
        <time>2014-10-25T09:41:31.000Z</time>
      </trkpt>
      <trkpt lat="49.89614" lon="1.00232">
        <ele>72</ele>
        <time>2014-10-25T09:41:34.000Z</time>
      </trkpt>
      <trkpt lat="49.89616" lon="1.00229">
        <ele>72</ele>
        <time>2014-10-25T09:41:35.000Z</time>
      </trkpt>
      <trkpt lat="49.89626" lon="1.00222">
        <ele>73</ele>
        <time>2014-10-25T09:41:38.000Z</time>
      </trkpt>
      <trkpt lat="49.89629" lon="1.0022">
        <ele>73</ele>
        <time>2014-10-25T09:41:39.000Z</time>
      </trkpt>
      <trkpt lat="49.89638" lon="1.00213">
        <ele>74</ele>
        <time>2014-10-25T09:41:42.000Z</time>
      </trkpt>
      <trkpt lat="49.89641" lon="1.00211">
        <ele>74</ele>
        <time>2014-10-25T09:41:43.000Z</time>
      </trkpt>
      <trkpt lat="49.8965" lon="1.00205">
        <ele>75</ele>
        <time>2014-10-25T09:41:46.000Z</time>
      </trkpt>
      <trkpt lat="49.89653" lon="1.00203">
        <ele>75</ele>
        <time>2014-10-25T09:41:47.000Z</time>
      </trkpt>
      <trkpt lat="49.89662" lon="1.00197">
        <ele>75</ele>
        <time>2014-10-25T09:41:50.000Z</time>
      </trkpt>
      <trkpt lat="49.89665" lon="1.00195">
        <ele>75</ele>
        <time>2014-10-25T09:41:51.000Z</time>
      </trkpt>
      <trkpt lat="49.89673" lon="1.0019">
        <ele>76</ele>
        <time>2014-10-25T09:41:54.000Z</time>
      </trkpt>
      <trkpt lat="49.89676" lon="1.00189">
        <ele>76</ele>
        <time>2014-10-25T09:41:55.000Z</time>
      </trkpt>
      <trkpt lat="49.89685" lon="1.00184">
        <ele>76</ele>
        <time>2014-10-25T09:41:58.000Z</time>
      </trkpt>
      <trkpt lat="49.89689" lon="1.00183">
        <ele>76</ele>
        <time>2014-10-25T09:41:59.000Z</time>
      </trkpt>
      <trkpt lat="49.89698" lon="1.0018">
        <ele>77</ele>
        <time>2014-10-25T09:42:02.000Z</time>
      </trkpt>
      <trkpt lat="49.89701" lon="1.00179">
        <ele>77</ele>
        <time>2014-10-25T09:42:03.000Z</time>
      </trkpt>
      <trkpt lat="49.8971" lon="1.00177">
        <ele>77</ele>
        <time>2014-10-25T09:42:06.000Z</time>
      </trkpt>
      <trkpt lat="49.89714" lon="1.00176">
        <ele>77</ele>
        <time>2014-10-25T09:42:07.000Z</time>
      </trkpt>
      <trkpt lat="49.89723" lon="1.00173">
        <ele>78</ele>
        <time>2014-10-25T09:42:10.000Z</time>
      </trkpt>
      <trkpt lat="49.89726" lon="1.00172">
        <ele>78</ele>
        <time>2014-10-25T09:42:11.000Z</time>
      </trkpt>
      <trkpt lat="49.89737" lon="1.00169">
        <ele>78</ele>
        <time>2014-10-25T09:42:14.000Z</time>
      </trkpt>
      <trkpt lat="49.8974" lon="1.00168">
        <ele>78</ele>
        <time>2014-10-25T09:42:15.000Z</time>
      </trkpt>
      <trkpt lat="49.89751" lon="1.00165">
        <ele>79</ele>
        <time>2014-10-25T09:42:18.000Z</time>
      </trkpt>
      <trkpt lat="49.89755" lon="1.00165">
        <ele>79</ele>
        <time>2014-10-25T09:42:19.000Z</time>
      </trkpt>
      <trkpt lat="49.89765" lon="1.00163">
        <ele>79</ele>
        <time>2014-10-25T09:42:22.000Z</time>
      </trkpt>
      <trkpt lat="49.89769" lon="1.00162">
        <ele>80</ele>
        <time>2014-10-25T09:42:23.000Z</time>
      </trkpt>
      <trkpt lat="49.89779" lon="1.0016">
        <ele>80</ele>
        <time>2014-10-25T09:42:26.000Z</time>
      </trkpt>
      <trkpt lat="49.89782" lon="1.00159">
        <ele>81</ele>
        <time>2014-10-25T09:42:27.000Z</time>
      </trkpt>
      <trkpt lat="49.89792" lon="1.00156">
        <ele>81</ele>
        <time>2014-10-25T09:42:30.000Z</time>
      </trkpt>
      <trkpt lat="49.89795" lon="1.00154">
        <ele>81</ele>
        <time>2014-10-25T09:42:31.000Z</time>
      </trkpt>
      <trkpt lat="49.89806" lon="1.00148">
        <ele>82</ele>
        <time>2014-10-25T09:42:35.000Z</time>
      </trkpt>
      <trkpt lat="49.89808" lon="1.00146">
        <ele>82</ele>
        <time>2014-10-25T09:42:36.000Z</time>
      </trkpt>
      <trkpt lat="49.89806" lon="1.0013">
        <ele>82</ele>
        <time>2014-10-25T09:42:41.000Z</time>
      </trkpt>
      <trkpt lat="49.89806" lon="1.00127">
        <ele>82</ele>
        <time>2014-10-25T09:42:42.000Z</time>
      </trkpt>
      <trkpt lat="49.89803" lon="1.00113">
        <ele>82</ele>
        <time>2014-10-25T09:42:46.000Z</time>
      </trkpt>
      <trkpt lat="49.89802" lon="1.00109">
        <ele>82</ele>
        <time>2014-10-25T09:42:47.000Z</time>
      </trkpt>
      <trkpt lat="49.89799" lon="1.00096">
        <ele>81</ele>
        <time>2014-10-25T09:42:50.000Z</time>
      </trkpt>
      <trkpt lat="49.89799" lon="1.00091">
        <ele>80</ele>
        <time>2014-10-25T09:42:51.000Z</time>
      </trkpt>
      <trkpt lat="49.89798" lon="1.00076">
        <ele>81</ele>
        <time>2014-10-25T09:42:55.000Z</time>
      </trkpt>
      <trkpt lat="49.89798" lon="1.00073">
        <ele>81</ele>
        <time>2014-10-25T09:42:56.000Z</time>
      </trkpt>
      <trkpt lat="49.89797" lon="1.00058">
        <ele>80</ele>
        <time>2014-10-25T09:43:00.000Z</time>
      </trkpt>
      <trkpt lat="49.89796" lon="1.00053">
        <ele>79</ele>
        <time>2014-10-25T09:43:01.000Z</time>
      </trkpt>
      <trkpt lat="49.89795" lon="1.00038">
        <ele>79</ele>
        <time>2014-10-25T09:43:04.000Z</time>
      </trkpt>
      <trkpt lat="49.89794" lon="1.00033">
        <ele>80</ele>
        <time>2014-10-25T09:43:05.000Z</time>
      </trkpt>
      <trkpt lat="49.89793" lon="1.00015">
        <ele>85</ele>
        <time>2014-10-25T09:43:09.000Z</time>
      </trkpt>
      <trkpt lat="49.89793" lon="1.00011">
        <ele>86</ele>
        <time>2014-10-25T09:43:10.000Z</time>
      </trkpt>
      <trkpt lat="49.89791" lon="0.99997">
        <ele>87</ele>
        <time>2014-10-25T09:43:13.000Z</time>
      </trkpt>
      <trkpt lat="49.8979" lon="0.99992">
        <ele>87</ele>
        <time>2014-10-25T09:43:14.000Z</time>
      </trkpt>
      <trkpt lat="49.89789" lon="0.99974">
        <ele>89</ele>
        <time>2014-10-25T09:43:18.000Z</time>
      </trkpt>
      <trkpt lat="49.89788" lon="0.99968">
        <ele>88</ele>
        <time>2014-10-25T09:43:19.000Z</time>
      </trkpt>
      <trkpt lat="49.89786" lon="0.99952">
        <ele>89</ele>
        <time>2014-10-25T09:43:23.000Z</time>
      </trkpt>
      <trkpt lat="49.89786" lon="0.99949">
        <ele>89</ele>
        <time>2014-10-25T09:43:24.000Z</time>
      </trkpt>
      <trkpt lat="49.89784" lon="0.9993">
        <ele>91</ele>
        <time>2014-10-25T09:43:27.000Z</time>
      </trkpt>
      <trkpt lat="49.89783" lon="0.99924">
        <ele>91</ele>
        <time>2014-10-25T09:43:28.000Z</time>
      </trkpt>
      <trkpt lat="49.89781" lon="0.99907">
        <ele>92</ele>
        <time>2014-10-25T09:43:31.000Z</time>
      </trkpt>
      <trkpt lat="49.8978" lon="0.999">
        <ele>91</ele>
        <time>2014-10-25T09:43:32.000Z</time>
      </trkpt>
      <trkpt lat="49.89779" lon="0.99884">
        <ele>92</ele>
        <time>2014-10-25T09:43:35.000Z</time>
      </trkpt>
      <trkpt lat="49.8978" lon="0.99881">
        <ele>91</ele>
        <time>2014-10-25T09:43:36.000Z</time>
      </trkpt>
      <trkpt lat="49.8978" lon="0.99865">
        <ele>91</ele>
        <time>2014-10-25T09:43:39.000Z</time>
      </trkpt>
      <trkpt lat="49.8978" lon="0.9986">
        <ele>91</ele>
        <time>2014-10-25T09:43:40.000Z</time>
      </trkpt>
      <trkpt lat="49.8978" lon="0.99843">
        <ele>89</ele>
        <time>2014-10-25T09:43:44.000Z</time>
      </trkpt>
      <trkpt lat="49.8978" lon="0.9984">
        <ele>87</ele>
        <time>2014-10-25T09:43:45.000Z</time>
      </trkpt>
      <trkpt lat="49.8978" lon="0.99821">
        <ele>84</ele>
        <time>2014-10-25T09:43:49.000Z</time>
      </trkpt>
      <trkpt lat="49.89779" lon="0.99816">
        <ele>85</ele>
        <time>2014-10-25T09:43:50.000Z</time>
      </trkpt>
      <trkpt lat="49.89777" lon="0.998">
        <ele>86</ele>
        <time>2014-10-25T09:43:53.000Z</time>
      </trkpt>
      <trkpt lat="49.89777" lon="0.99796">
        <ele>85</ele>
        <time>2014-10-25T09:43:54.000Z</time>
      </trkpt>
      <trkpt lat="49.89776" lon="0.9978">
        <ele>88</ele>
        <time>2014-10-25T09:43:57.000Z</time>
      </trkpt>
      <trkpt lat="49.89776" lon="0.99775">
        <ele>89</ele>
        <time>2014-10-25T09:43:58.000Z</time>
      </trkpt>
      <trkpt lat="49.89775" lon="0.99757">
        <ele>90</ele>
        <time>2014-10-25T09:44:02.000Z</time>
      </trkpt>
      <trkpt lat="49.89776" lon="0.99753">
        <ele>89</ele>
        <time>2014-10-25T09:44:03.000Z</time>
      </trkpt>
      <trkpt lat="49.89774" lon="0.99738">
        <ele>87</ele>
        <time>2014-10-25T09:44:06.000Z</time>
      </trkpt>
      <trkpt lat="49.89773" lon="0.99734">
        <ele>88</ele>
        <time>2014-10-25T09:44:07.000Z</time>
      </trkpt>
      <trkpt lat="49.8977" lon="0.99714">
        <ele>87</ele>
        <time>2014-10-25T09:44:10.000Z</time>
      </trkpt>
      <trkpt lat="49.8977" lon="0.99707">
        <ele>87</ele>
        <time>2014-10-25T09:44:11.000Z</time>
      </trkpt>
      <trkpt lat="49.89769" lon="0.99691">
        <ele>86</ele>
        <time>2014-10-25T09:44:15.000Z</time>
      </trkpt>
      <trkpt lat="49.89769" lon="0.9969">
        <ele>85</ele>
        <time>2014-10-25T09:44:16.000Z</time>
      </trkpt>
      <trkpt lat="49.89776" lon="0.997">
        <ele>84</ele>
        <time>2014-10-25T09:45:15.000Z</time>
      </trkpt>
      <trkpt lat="49.89776" lon="0.997">
        <ele>84</ele>
        <time>2014-10-25T09:45:16.000Z</time>
      </trkpt>
      <trkpt lat="49.8977" lon="0.99687">
        <ele>83</ele>
        <time>2014-10-25T09:45:48.000Z</time>
      </trkpt>
      <trkpt lat="49.8977" lon="0.99685">
        <ele>83</ele>
        <time>2014-10-25T09:45:49.000Z</time>
      </trkpt>
      <trkpt lat="49.89769" lon="0.9967">
        <ele>84</ele>
        <time>2014-10-25T09:45:53.000Z</time>
      </trkpt>
      <trkpt lat="49.89769" lon="0.99667">
        <ele>84</ele>
        <time>2014-10-25T09:45:54.000Z</time>
      </trkpt>
      <trkpt lat="49.89767" lon="0.99652">
        <ele>86</ele>
        <time>2014-10-25T09:45:58.000Z</time>
      </trkpt>
      <trkpt lat="49.89766" lon="0.99648">
        <ele>87</ele>
        <time>2014-10-25T09:45:59.000Z</time>
      </trkpt>
      <trkpt lat="49.89764" lon="0.99634">
        <ele>88</ele>
        <time>2014-10-25T09:46:02.000Z</time>
      </trkpt>
      <trkpt lat="49.89763" lon="0.99629">
        <ele>88</ele>
        <time>2014-10-25T09:46:03.000Z</time>
      </trkpt>
      <trkpt lat="49.89761" lon="0.99613">
        <ele>89</ele>
        <time>2014-10-25T09:46:06.000Z</time>
      </trkpt>
      <trkpt lat="49.8976" lon="0.99607">
        <ele>90</ele>
        <time>2014-10-25T09:46:07.000Z</time>
      </trkpt>
      <trkpt lat="49.89757" lon="0.99591">
        <ele>91</ele>
        <time>2014-10-25T09:46:10.000Z</time>
      </trkpt>
      <trkpt lat="49.89757" lon="0.99587">
        <ele>92</ele>
        <time>2014-10-25T09:46:11.000Z</time>
      </trkpt>
      <trkpt lat="49.89757" lon="0.99572">
        <ele>89</ele>
        <time>2014-10-25T09:46:14.000Z</time>
      </trkpt>
      <trkpt lat="49.89756" lon="0.99567">
        <ele>89</ele>
        <time>2014-10-25T09:46:15.000Z</time>
      </trkpt>
      <trkpt lat="49.89756" lon="0.99552">
        <ele>88</ele>
        <time>2014-10-25T09:46:18.000Z</time>
      </trkpt>
      <trkpt lat="49.89756" lon="0.99548">
        <ele>87</ele>
        <time>2014-10-25T09:46:19.000Z</time>
      </trkpt>
      <trkpt lat="49.89755" lon="0.99532">
        <ele>85</ele>
        <time>2014-10-25T09:46:22.000Z</time>
      </trkpt>
      <trkpt lat="49.89756" lon="0.99529">
        <ele>84</ele>
        <time>2014-10-25T09:46:23.000Z</time>
      </trkpt>
      <trkpt lat="49.89755" lon="0.99514">
        <ele>82</ele>
        <time>2014-10-25T09:46:27.000Z</time>
      </trkpt>
      <trkpt lat="49.89755" lon="0.9951">
        <ele>83</ele>
        <time>2014-10-25T09:46:28.000Z</time>
      </trkpt>
      <trkpt lat="49.89752" lon="0.99495">
        <ele>83</ele>
        <time>2014-10-25T09:46:31.000Z</time>
      </trkpt>
      <trkpt lat="49.89752" lon="0.9949">
        <ele>83</ele>
        <time>2014-10-25T09:46:32.000Z</time>
      </trkpt>
      <trkpt lat="49.8975" lon="0.99474">
        <ele>84</ele>
        <time>2014-10-25T09:46:35.000Z</time>
      </trkpt>
      <trkpt lat="49.89749" lon="0.99468">
        <ele>84</ele>
        <time>2014-10-25T09:46:36.000Z</time>
      </trkpt>
      <trkpt lat="49.89748" lon="0.99451">
        <ele>86</ele>
        <time>2014-10-25T09:46:40.000Z</time>
      </trkpt>
      <trkpt lat="49.89747" lon="0.99446">
        <ele>87</ele>
        <time>2014-10-25T09:46:41.000Z</time>
      </trkpt>
      <trkpt lat="49.89745" lon="0.99429">
        <ele>88</ele>
        <time>2014-10-25T09:46:44.000Z</time>
      </trkpt>
      <trkpt lat="49.89744" lon="0.99424">
        <ele>88</ele>
        <time>2014-10-25T09:46:45.000Z</time>
      </trkpt>
      <trkpt lat="49.89743" lon="0.99407">
        <ele>89</ele>
        <time>2014-10-25T09:46:48.000Z</time>
      </trkpt>
      <trkpt lat="49.89743" lon="0.994">
        <ele>88</ele>
        <time>2014-10-25T09:46:49.000Z</time>
      </trkpt>
      <trkpt lat="49.89741" lon="0.99393">
        <ele>87</ele>
        <time>2014-10-25T09:46:50.000Z</time>
      </trkpt>
      <trkpt lat="49.8974" lon="0.99387">
        <ele>87</ele>
        <time>2014-10-25T09:46:51.000Z</time>
      </trkpt>
      <trkpt lat="49.89737" lon="0.9937">
        <ele>89</ele>
        <time>2014-10-25T09:46:54.000Z</time>
      </trkpt>
      <trkpt lat="49.89737" lon="0.99366">
        <ele>91</ele>
        <time>2014-10-25T09:46:55.000Z</time>
      </trkpt>
      <trkpt lat="49.89738" lon="0.99351">
        <ele>94</ele>
        <time>2014-10-25T09:46:59.000Z</time>
      </trkpt>
      <trkpt lat="49.89737" lon="0.99346">
        <ele>95</ele>
        <time>2014-10-25T09:47:00.000Z</time>
      </trkpt>
      <trkpt lat="49.89737" lon="0.99329">
        <ele>90</ele>
        <time>2014-10-25T09:47:04.000Z</time>
      </trkpt>
      <trkpt lat="49.89737" lon="0.99324">
        <ele>90</ele>
        <time>2014-10-25T09:47:05.000Z</time>
      </trkpt>
      <trkpt lat="49.89736" lon="0.99305">
        <ele>88</ele>
        <time>2014-10-25T09:47:08.000Z</time>
      </trkpt>
      <trkpt lat="49.89735" lon="0.99298">
        <ele>87</ele>
        <time>2014-10-25T09:47:09.000Z</time>
      </trkpt>
      <trkpt lat="49.89735" lon="0.9929">
        <ele>86</ele>
        <time>2014-10-25T09:47:10.000Z</time>
      </trkpt>
      <trkpt lat="49.89735" lon="0.99282">
        <ele>86</ele>
        <time>2014-10-25T09:47:11.000Z</time>
      </trkpt>
      <trkpt lat="49.89734" lon="0.99274">
        <ele>85</ele>
        <time>2014-10-25T09:47:12.000Z</time>
      </trkpt>
      <trkpt lat="49.89733" lon="0.99265">
        <ele>85</ele>
        <time>2014-10-25T09:47:13.000Z</time>
      </trkpt>
      <trkpt lat="49.89732" lon="0.99256">
        <ele>85</ele>
        <time>2014-10-25T09:47:14.000Z</time>
      </trkpt>
      <trkpt lat="49.89731" lon="0.99246">
        <ele>85</ele>
        <time>2014-10-25T09:47:15.000Z</time>
      </trkpt>
      <trkpt lat="49.89731" lon="0.99236">
        <ele>85</ele>
        <time>2014-10-25T09:47:16.000Z</time>
      </trkpt>
      <trkpt lat="49.8973" lon="0.99227">
        <ele>84</ele>
        <time>2014-10-25T09:47:17.000Z</time>
      </trkpt>
      <trkpt lat="49.89729" lon="0.99217">
        <ele>84</ele>
        <time>2014-10-25T09:47:18.000Z</time>
      </trkpt>
      <trkpt lat="49.89727" lon="0.99208">
        <ele>84</ele>
        <time>2014-10-25T09:47:19.000Z</time>
      </trkpt>
      <trkpt lat="49.89726" lon="0.99197">
        <ele>83</ele>
        <time>2014-10-25T09:47:20.000Z</time>
      </trkpt>
      <trkpt lat="49.89724" lon="0.99186">
        <ele>82</ele>
        <time>2014-10-25T09:47:21.000Z</time>
      </trkpt>
      <trkpt lat="49.89723" lon="0.99174">
        <ele>80</ele>
        <time>2014-10-25T09:47:22.000Z</time>
      </trkpt>
      <trkpt lat="49.89722" lon="0.99163">
        <ele>79</ele>
        <time>2014-10-25T09:47:23.000Z</time>
      </trkpt>
      <trkpt lat="49.89722" lon="0.99153">
        <ele>79</ele>
        <time>2014-10-25T09:47:24.000Z</time>
      </trkpt>
      <trkpt lat="49.89721" lon="0.99142">
        <ele>78</ele>
        <time>2014-10-25T09:47:25.000Z</time>
      </trkpt>
      <trkpt lat="49.89721" lon="0.99132">
        <ele>77</ele>
        <time>2014-10-25T09:47:26.000Z</time>
      </trkpt>
      <trkpt lat="49.8972" lon="0.99121">
        <ele>77</ele>
        <time>2014-10-25T09:47:27.000Z</time>
      </trkpt>
      <trkpt lat="49.89719" lon="0.9911">
        <ele>76</ele>
        <time>2014-10-25T09:47:28.000Z</time>
      </trkpt>
      <trkpt lat="49.89719" lon="0.99101">
        <ele>76</ele>
        <time>2014-10-25T09:47:29.000Z</time>
      </trkpt>
      <trkpt lat="49.89718" lon="0.99092">
        <ele>75</ele>
        <time>2014-10-25T09:47:30.000Z</time>
      </trkpt>
      <trkpt lat="49.89718" lon="0.99082">
        <ele>75</ele>
        <time>2014-10-25T09:47:31.000Z</time>
      </trkpt>
      <trkpt lat="49.89718" lon="0.99072">
        <ele>75</ele>
        <time>2014-10-25T09:47:32.000Z</time>
      </trkpt>
      <trkpt lat="49.89717" lon="0.99061">
        <ele>75</ele>
        <time>2014-10-25T09:47:33.000Z</time>
      </trkpt>
      <trkpt lat="49.89716" lon="0.99049">
        <ele>74</ele>
        <time>2014-10-25T09:47:34.000Z</time>
      </trkpt>
      <trkpt lat="49.89719" lon="0.9904">
        <ele>75</ele>
        <time>2014-10-25T09:47:35.000Z</time>
      </trkpt>
      <trkpt lat="49.89722" lon="0.99031">
        <ele>75</ele>
        <time>2014-10-25T09:47:36.000Z</time>
      </trkpt>
      <trkpt lat="49.89726" lon="0.99024">
        <ele>74</ele>
        <time>2014-10-25T09:47:37.000Z</time>
      </trkpt>
      <trkpt lat="49.89731" lon="0.99017">
        <ele>74</ele>
        <time>2014-10-25T09:47:38.000Z</time>
      </trkpt>
      <trkpt lat="49.89736" lon="0.9901">
        <ele>74</ele>
        <time>2014-10-25T09:47:39.000Z</time>
      </trkpt>
      <trkpt lat="49.89741" lon="0.99004">
        <ele>73</ele>
        <time>2014-10-25T09:47:40.000Z</time>
      </trkpt>
      <trkpt lat="49.89745" lon="0.98997">
        <ele>73</ele>
        <time>2014-10-25T09:47:41.000Z</time>
      </trkpt>
      <trkpt lat="49.8975" lon="0.9899">
        <ele>73</ele>
        <time>2014-10-25T09:47:42.000Z</time>
      </trkpt>
      <trkpt lat="49.89755" lon="0.98983">
        <ele>73</ele>
        <time>2014-10-25T09:47:43.000Z</time>
      </trkpt>
      <trkpt lat="49.89759" lon="0.98977">
        <ele>73</ele>
        <time>2014-10-25T09:47:44.000Z</time>
      </trkpt>
      <trkpt lat="49.89763" lon="0.98971">
        <ele>73</ele>
        <time>2014-10-25T09:47:45.000Z</time>
      </trkpt>
      <trkpt lat="49.89767" lon="0.98965">
        <ele>73</ele>
        <time>2014-10-25T09:47:46.000Z</time>
      </trkpt>
      <trkpt lat="49.89771" lon="0.98959">
        <ele>73</ele>
        <time>2014-10-25T09:47:47.000Z</time>
      </trkpt>
      <trkpt lat="49.89775" lon="0.98954">
        <ele>73</ele>
        <time>2014-10-25T09:47:48.000Z</time>
      </trkpt>
      <trkpt lat="49.89778" lon="0.98949">
        <ele>73</ele>
        <time>2014-10-25T09:47:49.000Z</time>
      </trkpt>
      <trkpt lat="49.89781" lon="0.98944">
        <ele>73</ele>
        <time>2014-10-25T09:47:50.000Z</time>
      </trkpt>
      <trkpt lat="49.8979" lon="0.98928">
        <ele>73</ele>
        <time>2014-10-25T09:47:53.000Z</time>
      </trkpt>
      <trkpt lat="49.89793" lon="0.98922">
        <ele>73</ele>
        <time>2014-10-25T09:47:54.000Z</time>
      </trkpt>
      <trkpt lat="49.89796" lon="0.98915">
        <ele>74</ele>
        <time>2014-10-25T09:47:55.000Z</time>
      </trkpt>
      <trkpt lat="49.89798" lon="0.98909">
        <ele>74</ele>
        <time>2014-10-25T09:47:56.000Z</time>
      </trkpt>
      <trkpt lat="49.89801" lon="0.98902">
        <ele>75</ele>
        <time>2014-10-25T09:47:57.000Z</time>
      </trkpt>
      <trkpt lat="49.89803" lon="0.98896">
        <ele>74</ele>
        <time>2014-10-25T09:47:58.000Z</time>
      </trkpt>
      <trkpt lat="49.89806" lon="0.98889">
        <ele>74</ele>
        <time>2014-10-25T09:47:59.000Z</time>
      </trkpt>
      <trkpt lat="49.89808" lon="0.98882">
        <ele>74</ele>
        <time>2014-10-25T09:48:00.000Z</time>
      </trkpt>
      <trkpt lat="49.8981" lon="0.98875">
        <ele>74</ele>
        <time>2014-10-25T09:48:01.000Z</time>
      </trkpt>
      <trkpt lat="49.89812" lon="0.98867">
        <ele>74</ele>
        <time>2014-10-25T09:48:02.000Z</time>
      </trkpt>
      <trkpt lat="49.89814" lon="0.9886">
        <ele>74</ele>
        <time>2014-10-25T09:48:03.000Z</time>
      </trkpt>
      <trkpt lat="49.89816" lon="0.98852">
        <ele>73</ele>
        <time>2014-10-25T09:48:04.000Z</time>
      </trkpt>
      <trkpt lat="49.89818" lon="0.98844">
        <ele>73</ele>
        <time>2014-10-25T09:48:05.000Z</time>
      </trkpt>
      <trkpt lat="49.8982" lon="0.98836">
        <ele>74</ele>
        <time>2014-10-25T09:48:06.000Z</time>
      </trkpt>
      <trkpt lat="49.89822" lon="0.98827">
        <ele>74</ele>
        <time>2014-10-25T09:48:07.000Z</time>
      </trkpt>
      <trkpt lat="49.89824" lon="0.98819">
        <ele>74</ele>
        <time>2014-10-25T09:48:08.000Z</time>
      </trkpt>
      <trkpt lat="49.89826" lon="0.9881">
        <ele>74</ele>
        <time>2014-10-25T09:48:09.000Z</time>
      </trkpt>
      <trkpt lat="49.89828" lon="0.98802">
        <ele>74</ele>
        <time>2014-10-25T09:48:10.000Z</time>
      </trkpt>
      <trkpt lat="49.89831" lon="0.98793">
        <ele>74</ele>
        <time>2014-10-25T09:48:11.000Z</time>
      </trkpt>
      <trkpt lat="49.89835" lon="0.98785">
        <ele>73</ele>
        <time>2014-10-25T09:48:12.000Z</time>
      </trkpt>
      <trkpt lat="49.89838" lon="0.98777">
        <ele>73</ele>
        <time>2014-10-25T09:48:13.000Z</time>
      </trkpt>
      <trkpt lat="49.89841" lon="0.98768">
        <ele>73</ele>
        <time>2014-10-25T09:48:14.000Z</time>
      </trkpt>
      <trkpt lat="49.89844" lon="0.98759">
        <ele>73</ele>
        <time>2014-10-25T09:48:15.000Z</time>
      </trkpt>
      <trkpt lat="49.89848" lon="0.98751">
        <ele>73</ele>
        <time>2014-10-25T09:48:16.000Z</time>
      </trkpt>
      <trkpt lat="49.89851" lon="0.98742">
        <ele>73</ele>
        <time>2014-10-25T09:48:17.000Z</time>
      </trkpt>
      <trkpt lat="49.89854" lon="0.98734">
        <ele>73</ele>
        <time>2014-10-25T09:48:18.000Z</time>
      </trkpt>
      <trkpt lat="49.89856" lon="0.98725">
        <ele>72</ele>
        <time>2014-10-25T09:48:19.000Z</time>
      </trkpt>
      <trkpt lat="49.89858" lon="0.98716">
        <ele>72</ele>
        <time>2014-10-25T09:48:20.000Z</time>
      </trkpt>
      <trkpt lat="49.8986" lon="0.98707">
        <ele>72</ele>
        <time>2014-10-25T09:48:21.000Z</time>
      </trkpt>
      <trkpt lat="49.89861" lon="0.98698">
        <ele>72</ele>
        <time>2014-10-25T09:48:22.000Z</time>
      </trkpt>
      <trkpt lat="49.89863" lon="0.9869">
        <ele>71</ele>
        <time>2014-10-25T09:48:23.000Z</time>
      </trkpt>
      <trkpt lat="49.89864" lon="0.9868">
        <ele>72</ele>
        <time>2014-10-25T09:48:24.000Z</time>
      </trkpt>
      <trkpt lat="49.89866" lon="0.98672">
        <ele>72</ele>
        <time>2014-10-25T09:48:25.000Z</time>
      </trkpt>
      <trkpt lat="49.89867" lon="0.98663">
        <ele>71</ele>
        <time>2014-10-25T09:48:26.000Z</time>
      </trkpt>
      <trkpt lat="49.89868" lon="0.98654">
        <ele>71</ele>
        <time>2014-10-25T09:48:27.000Z</time>
      </trkpt>
      <trkpt lat="49.89869" lon="0.98645">
        <ele>71</ele>
        <time>2014-10-25T09:48:28.000Z</time>
      </trkpt>
      <trkpt lat="49.8987" lon="0.98636">
        <ele>71</ele>
        <time>2014-10-25T09:48:29.000Z</time>
      </trkpt>
      <trkpt lat="49.89872" lon="0.98627">
        <ele>70</ele>
        <time>2014-10-25T09:48:30.000Z</time>
      </trkpt>
      <trkpt lat="49.89873" lon="0.98617">
        <ele>70</ele>
        <time>2014-10-25T09:48:31.000Z</time>
      </trkpt>
      <trkpt lat="49.89876" lon="0.98607">
        <ele>69</ele>
        <time>2014-10-25T09:48:32.000Z</time>
      </trkpt>
      <trkpt lat="49.89877" lon="0.98597">
        <ele>69</ele>
        <time>2014-10-25T09:48:33.000Z</time>
      </trkpt>
      <trkpt lat="49.89879" lon="0.98585">
        <ele>69</ele>
        <time>2014-10-25T09:48:34.000Z</time>
      </trkpt>
      <trkpt lat="49.8988" lon="0.98575">
        <ele>68</ele>
        <time>2014-10-25T09:48:35.000Z</time>
      </trkpt>
      <trkpt lat="49.89882" lon="0.98565">
        <ele>68</ele>
        <time>2014-10-25T09:48:36.000Z</time>
      </trkpt>
      <trkpt lat="49.89882" lon="0.98554">
        <ele>68</ele>
        <time>2014-10-25T09:48:37.000Z</time>
      </trkpt>
      <trkpt lat="49.89883" lon="0.98544">
        <ele>67</ele>
        <time>2014-10-25T09:48:38.000Z</time>
      </trkpt>
      <trkpt lat="49.89883" lon="0.98534">
        <ele>67</ele>
        <time>2014-10-25T09:48:39.000Z</time>
      </trkpt>
      <trkpt lat="49.89882" lon="0.98524">
        <ele>67</ele>
        <time>2014-10-25T09:48:40.000Z</time>
      </trkpt>
      <trkpt lat="49.89882" lon="0.98515">
        <ele>67</ele>
        <time>2014-10-25T09:48:41.000Z</time>
      </trkpt>
      <trkpt lat="49.89882" lon="0.98505">
        <ele>67</ele>
        <time>2014-10-25T09:48:42.000Z</time>
      </trkpt>
      <trkpt lat="49.89883" lon="0.98497">
        <ele>67</ele>
        <time>2014-10-25T09:48:43.000Z</time>
      </trkpt>
      <trkpt lat="49.89882" lon="0.98488">
        <ele>66</ele>
        <time>2014-10-25T09:48:44.000Z</time>
      </trkpt>
      <trkpt lat="49.89882" lon="0.98479">
        <ele>66</ele>
        <time>2014-10-25T09:48:45.000Z</time>
      </trkpt>
      <trkpt lat="49.89883" lon="0.98471">
        <ele>66</ele>
        <time>2014-10-25T09:48:46.000Z</time>
      </trkpt>
      <trkpt lat="49.89883" lon="0.98464">
        <ele>66</ele>
        <time>2014-10-25T09:48:47.000Z</time>
      </trkpt>
      <trkpt lat="49.89884" lon="0.98457">
        <ele>66</ele>
        <time>2014-10-25T09:48:48.000Z</time>
      </trkpt>
      <trkpt lat="49.89886" lon="0.98436">
        <ele>66</ele>
        <time>2014-10-25T09:48:51.000Z</time>
      </trkpt>
      <trkpt lat="49.89887" lon="0.98429">
        <ele>66</ele>
        <time>2014-10-25T09:48:52.000Z</time>
      </trkpt>
      <trkpt lat="49.89887" lon="0.98421">
        <ele>66</ele>
        <time>2014-10-25T09:48:53.000Z</time>
      </trkpt>
      <trkpt lat="49.89888" lon="0.98414">
        <ele>66</ele>
        <time>2014-10-25T09:48:54.000Z</time>
      </trkpt>
      <trkpt lat="49.89889" lon="0.98407">
        <ele>65</ele>
        <time>2014-10-25T09:48:55.000Z</time>
      </trkpt>
      <trkpt lat="49.8989" lon="0.984">
        <ele>65</ele>
        <time>2014-10-25T09:48:56.000Z</time>
      </trkpt>
      <trkpt lat="49.89891" lon="0.98392">
        <ele>65</ele>
        <time>2014-10-25T09:48:57.000Z</time>
      </trkpt>
      <trkpt lat="49.89891" lon="0.98385">
        <ele>65</ele>
        <time>2014-10-25T09:48:58.000Z</time>
      </trkpt>
      <trkpt lat="49.89893" lon="0.98378">
        <ele>65</ele>
        <time>2014-10-25T09:48:59.000Z</time>
      </trkpt>
      <trkpt lat="49.89894" lon="0.98372">
        <ele>65</ele>
        <time>2014-10-25T09:49:00.000Z</time>
      </trkpt>
      <trkpt lat="49.89895" lon="0.98365">
        <ele>65</ele>
        <time>2014-10-25T09:49:01.000Z</time>
      </trkpt>
      <trkpt lat="49.89896" lon="0.98358">
        <ele>65</ele>
        <time>2014-10-25T09:49:02.000Z</time>
      </trkpt>
      <trkpt lat="49.89898" lon="0.98351">
        <ele>65</ele>
        <time>2014-10-25T09:49:03.000Z</time>
      </trkpt>
      <trkpt lat="49.89899" lon="0.98344">
        <ele>65</ele>
        <time>2014-10-25T09:49:04.000Z</time>
      </trkpt>
      <trkpt lat="49.89903" lon="0.98331">
        <ele>65</ele>
        <time>2014-10-25T09:49:06.000Z</time>
      </trkpt>
      <trkpt lat="49.89905" lon="0.98325">
        <ele>65</ele>
        <time>2014-10-25T09:49:07.000Z</time>
      </trkpt>
      <trkpt lat="49.89907" lon="0.98318">
        <ele>65</ele>
        <time>2014-10-25T09:49:08.000Z</time>
      </trkpt>
      <trkpt lat="49.89909" lon="0.98311">
        <ele>65</ele>
        <time>2014-10-25T09:49:09.000Z</time>
      </trkpt>
      <trkpt lat="49.89912" lon="0.98305">
        <ele>66</ele>
        <time>2014-10-25T09:49:10.000Z</time>
      </trkpt>
      <trkpt lat="49.89914" lon="0.98298">
        <ele>66</ele>
        <time>2014-10-25T09:49:11.000Z</time>
      </trkpt>
      <trkpt lat="49.89917" lon="0.98292">
        <ele>66</ele>
        <time>2014-10-25T09:49:12.000Z</time>
      </trkpt>
      <trkpt lat="49.89919" lon="0.98286">
        <ele>66</ele>
        <time>2014-10-25T09:49:13.000Z</time>
      </trkpt>
      <trkpt lat="49.89922" lon="0.9828">
        <ele>65</ele>
        <time>2014-10-25T09:49:14.000Z</time>
      </trkpt>
      <trkpt lat="49.89924" lon="0.98274">
        <ele>65</ele>
        <time>2014-10-25T09:49:15.000Z</time>
      </trkpt>
      <trkpt lat="49.89927" lon="0.98268">
        <ele>65</ele>
        <time>2014-10-25T09:49:16.000Z</time>
      </trkpt>
      <trkpt lat="49.8993" lon="0.98261">
        <ele>65</ele>
        <time>2014-10-25T09:49:17.000Z</time>
      </trkpt>
      <trkpt lat="49.89932" lon="0.98255">
        <ele>65</ele>
        <time>2014-10-25T09:49:18.000Z</time>
      </trkpt>
      <trkpt lat="49.89935" lon="0.98248">
        <ele>65</ele>
        <time>2014-10-25T09:49:19.000Z</time>
      </trkpt>
      <trkpt lat="49.89937" lon="0.98242">
        <ele>65</ele>
        <time>2014-10-25T09:49:20.000Z</time>
      </trkpt>
      <trkpt lat="49.8994" lon="0.98236">
        <ele>66</ele>
        <time>2014-10-25T09:49:21.000Z</time>
      </trkpt>
      <trkpt lat="49.89943" lon="0.98231">
        <ele>65</ele>
        <time>2014-10-25T09:49:22.000Z</time>
      </trkpt>
      <trkpt lat="49.89946" lon="0.98225">
        <ele>66</ele>
        <time>2014-10-25T09:49:23.000Z</time>
      </trkpt>
      <trkpt lat="49.89949" lon="0.9822">
        <ele>66</ele>
        <time>2014-10-25T09:49:24.000Z</time>
      </trkpt>
      <trkpt lat="49.89952" lon="0.98214">
        <ele>66</ele>
        <time>2014-10-25T09:49:25.000Z</time>
      </trkpt>
      <trkpt lat="49.89955" lon="0.98208">
        <ele>66</ele>
        <time>2014-10-25T09:49:26.000Z</time>
      </trkpt>
      <trkpt lat="49.89956" lon="0.98201">
        <ele>66</ele>
        <time>2014-10-25T09:49:27.000Z</time>
      </trkpt>
      <trkpt lat="49.89957" lon="0.98194">
        <ele>66</ele>
        <time>2014-10-25T09:49:28.000Z</time>
      </trkpt>
      <trkpt lat="49.89956" lon="0.98187">
        <ele>66</ele>
        <time>2014-10-25T09:49:29.000Z</time>
      </trkpt>
      <trkpt lat="49.89953" lon="0.98181">
        <ele>66</ele>
        <time>2014-10-25T09:49:30.000Z</time>
      </trkpt>
      <trkpt lat="49.89949" lon="0.98176">
        <ele>66</ele>
        <time>2014-10-25T09:49:31.000Z</time>
      </trkpt>
      <trkpt lat="49.89945" lon="0.98171">
        <ele>66</ele>
        <time>2014-10-25T09:49:32.000Z</time>
      </trkpt>
      <trkpt lat="49.8994" lon="0.98166">
        <ele>66</ele>
        <time>2014-10-25T09:49:33.000Z</time>
      </trkpt>
      <trkpt lat="49.89935" lon="0.9816">
        <ele>66</ele>
        <time>2014-10-25T09:49:34.000Z</time>
      </trkpt>
      <trkpt lat="49.8993" lon="0.98155">
        <ele>66</ele>
        <time>2014-10-25T09:49:35.000Z</time>
      </trkpt>
      <trkpt lat="49.89926" lon="0.98149">
        <ele>65</ele>
        <time>2014-10-25T09:49:36.000Z</time>
      </trkpt>
      <trkpt lat="49.89921" lon="0.98143">
        <ele>65</ele>
        <time>2014-10-25T09:49:37.000Z</time>
      </trkpt>
      <trkpt lat="49.89917" lon="0.98137">
        <ele>65</ele>
        <time>2014-10-25T09:49:38.000Z</time>
      </trkpt>
      <trkpt lat="49.89913" lon="0.98131">
        <ele>65</ele>
        <time>2014-10-25T09:49:39.000Z</time>
      </trkpt>
      <trkpt lat="49.89908" lon="0.98125">
        <ele>65</ele>
        <time>2014-10-25T09:49:40.000Z</time>
      </trkpt>
      <trkpt lat="49.89904" lon="0.98119">
        <ele>65</ele>
        <time>2014-10-25T09:49:41.000Z</time>
      </trkpt>
      <trkpt lat="49.89899" lon="0.98113">
        <ele>65</ele>
        <time>2014-10-25T09:49:42.000Z</time>
      </trkpt>
      <trkpt lat="49.89895" lon="0.98107">
        <ele>65</ele>
        <time>2014-10-25T09:49:43.000Z</time>
      </trkpt>
      <trkpt lat="49.8989" lon="0.98101">
        <ele>65</ele>
        <time>2014-10-25T09:49:44.000Z</time>
      </trkpt>
      <trkpt lat="49.89885" lon="0.98095">
        <ele>65</ele>
        <time>2014-10-25T09:49:45.000Z</time>
      </trkpt>
      <trkpt lat="49.8988" lon="0.98089">
        <ele>65</ele>
        <time>2014-10-25T09:49:46.000Z</time>
      </trkpt>
      <trkpt lat="49.89876" lon="0.98083">
        <ele>65</ele>
        <time>2014-10-25T09:49:47.000Z</time>
      </trkpt>
      <trkpt lat="49.89871" lon="0.98076">
        <ele>65</ele>
        <time>2014-10-25T09:49:48.000Z</time>
      </trkpt>
      <trkpt lat="49.89867" lon="0.9807">
        <ele>65</ele>
        <time>2014-10-25T09:49:49.000Z</time>
      </trkpt>
      <trkpt lat="49.89862" lon="0.98064">
        <ele>65</ele>
        <time>2014-10-25T09:49:50.000Z</time>
      </trkpt>
      <trkpt lat="49.89857" lon="0.98058">
        <ele>65</ele>
        <time>2014-10-25T09:49:51.000Z</time>
      </trkpt>
      <trkpt lat="49.89853" lon="0.98052">
        <ele>65</ele>
        <time>2014-10-25T09:49:52.000Z</time>
      </trkpt>
      <trkpt lat="49.89848" lon="0.98046">
        <ele>65</ele>
        <time>2014-10-25T09:49:53.000Z</time>
      </trkpt>
      <trkpt lat="49.89843" lon="0.9804">
        <ele>65</ele>
        <time>2014-10-25T09:49:54.000Z</time>
      </trkpt>
      <trkpt lat="49.89838" lon="0.98034">
        <ele>64</ele>
        <time>2014-10-25T09:49:55.000Z</time>
      </trkpt>
      <trkpt lat="49.89833" lon="0.98029">
        <ele>64</ele>
        <time>2014-10-25T09:49:56.000Z</time>
      </trkpt>
      <trkpt lat="49.89829" lon="0.98023">
        <ele>64</ele>
        <time>2014-10-25T09:49:57.000Z</time>
      </trkpt>
      <trkpt lat="49.89825" lon="0.98018">
        <ele>64</ele>
        <time>2014-10-25T09:49:58.000Z</time>
      </trkpt>
      <trkpt lat="49.89821" lon="0.98012">
        <ele>64</ele>
        <time>2014-10-25T09:49:59.000Z</time>
      </trkpt>
      <trkpt lat="49.89816" lon="0.98007">
        <ele>64</ele>
        <time>2014-10-25T09:50:00.000Z</time>
      </trkpt>
      <trkpt lat="49.89813" lon="0.98002">
        <ele>64</ele>
        <time>2014-10-25T09:50:01.000Z</time>
      </trkpt>
      <trkpt lat="49.89809" lon="0.97997">
        <ele>64</ele>
        <time>2014-10-25T09:50:02.000Z</time>
      </trkpt>
      <trkpt lat="49.89805" lon="0.97992">
        <ele>64</ele>
        <time>2014-10-25T09:50:03.000Z</time>
      </trkpt>
      <trkpt lat="49.89802" lon="0.97985">
        <ele>64</ele>
        <time>2014-10-25T09:50:04.000Z</time>
      </trkpt>
      <trkpt lat="49.898" lon="0.97978">
        <ele>64</ele>
        <time>2014-10-25T09:50:05.000Z</time>
      </trkpt>
      <trkpt lat="49.89799" lon="0.9797">
        <ele>63</ele>
        <time>2014-10-25T09:50:06.000Z</time>
      </trkpt>
      <trkpt lat="49.898" lon="0.97962">
        <ele>63</ele>
        <time>2014-10-25T09:50:07.000Z</time>
      </trkpt>
      <trkpt lat="49.89802" lon="0.97954">
        <ele>63</ele>
        <time>2014-10-25T09:50:08.000Z</time>
      </trkpt>
      <trkpt lat="49.89804" lon="0.97946">
        <ele>62</ele>
        <time>2014-10-25T09:50:09.000Z</time>
      </trkpt>
      <trkpt lat="49.89807" lon="0.97937">
        <ele>62</ele>
        <time>2014-10-25T09:50:10.000Z</time>
      </trkpt>
      <trkpt lat="49.89809" lon="0.97929">
        <ele>62</ele>
        <time>2014-10-25T09:50:11.000Z</time>
      </trkpt>
      <trkpt lat="49.89812" lon="0.9792">
        <ele>61</ele>
        <time>2014-10-25T09:50:12.000Z</time>
      </trkpt>
      <trkpt lat="49.89814" lon="0.97911">
        <ele>61</ele>
        <time>2014-10-25T09:50:13.000Z</time>
      </trkpt>
      <trkpt lat="49.89817" lon="0.97902">
        <ele>61</ele>
        <time>2014-10-25T09:50:14.000Z</time>
      </trkpt>
      <trkpt lat="49.89819" lon="0.97894">
        <ele>60</ele>
        <time>2014-10-25T09:50:15.000Z</time>
      </trkpt>
      <trkpt lat="49.89822" lon="0.97885">
        <ele>60</ele>
        <time>2014-10-25T09:50:16.000Z</time>
      </trkpt>
      <trkpt lat="49.89824" lon="0.97877">
        <ele>60</ele>
        <time>2014-10-25T09:50:17.000Z</time>
      </trkpt>
      <trkpt lat="49.89827" lon="0.97868">
        <ele>59</ele>
        <time>2014-10-25T09:50:18.000Z</time>
      </trkpt>
      <trkpt lat="49.89829" lon="0.97859">
        <ele>59</ele>
        <time>2014-10-25T09:50:19.000Z</time>
      </trkpt>
      <trkpt lat="49.89832" lon="0.97851">
        <ele>58</ele>
        <time>2014-10-25T09:50:20.000Z</time>
      </trkpt>
      <trkpt lat="49.89834" lon="0.97842">
        <ele>58</ele>
        <time>2014-10-25T09:50:21.000Z</time>
      </trkpt>
      <trkpt lat="49.89836" lon="0.97833">
        <ele>57</ele>
        <time>2014-10-25T09:50:22.000Z</time>
      </trkpt>
      <trkpt lat="49.89838" lon="0.97824">
        <ele>57</ele>
        <time>2014-10-25T09:50:23.000Z</time>
      </trkpt>
      <trkpt lat="49.89841" lon="0.97815">
        <ele>56</ele>
        <time>2014-10-25T09:50:24.000Z</time>
      </trkpt>
      <trkpt lat="49.89843" lon="0.97806">
        <ele>56</ele>
        <time>2014-10-25T09:50:25.000Z</time>
      </trkpt>
      <trkpt lat="49.89846" lon="0.97796">
        <ele>56</ele>
        <time>2014-10-25T09:50:26.000Z</time>
      </trkpt>
      <trkpt lat="49.89848" lon="0.97787">
        <ele>55</ele>
        <time>2014-10-25T09:50:27.000Z</time>
      </trkpt>
      <trkpt lat="49.89851" lon="0.97778">
        <ele>55</ele>
        <time>2014-10-25T09:50:28.000Z</time>
      </trkpt>
      <trkpt lat="49.89853" lon="0.97768">
        <ele>55</ele>
        <time>2014-10-25T09:50:29.000Z</time>
      </trkpt>
      <trkpt lat="49.89856" lon="0.97759">
        <ele>54</ele>
        <time>2014-10-25T09:50:30.000Z</time>
      </trkpt>
      <trkpt lat="49.89858" lon="0.9775">
        <ele>54</ele>
        <time>2014-10-25T09:50:31.000Z</time>
      </trkpt>
      <trkpt lat="49.89861" lon="0.9774">
        <ele>54</ele>
        <time>2014-10-25T09:50:32.000Z</time>
      </trkpt>
      <trkpt lat="49.89864" lon="0.9773">
        <ele>53</ele>
        <time>2014-10-25T09:50:33.000Z</time>
      </trkpt>
      <trkpt lat="49.89866" lon="0.97721">
        <ele>53</ele>
        <time>2014-10-25T09:50:34.000Z</time>
      </trkpt>
      <trkpt lat="49.89869" lon="0.9771">
        <ele>52</ele>
        <time>2014-10-25T09:50:35.000Z</time>
      </trkpt>
      <trkpt lat="49.89872" lon="0.977">
        <ele>52</ele>
        <time>2014-10-25T09:50:36.000Z</time>
      </trkpt>
      <trkpt lat="49.89875" lon="0.9769">
        <ele>51</ele>
        <time>2014-10-25T09:50:37.000Z</time>
      </trkpt>
      <trkpt lat="49.89878" lon="0.9768">
        <ele>50</ele>
        <time>2014-10-25T09:50:38.000Z</time>
      </trkpt>
      <trkpt lat="49.8988" lon="0.97669">
        <ele>50</ele>
        <time>2014-10-25T09:50:39.000Z</time>
      </trkpt>
      <trkpt lat="49.89883" lon="0.97658">
        <ele>49</ele>
        <time>2014-10-25T09:50:40.000Z</time>
      </trkpt>
      <trkpt lat="49.89887" lon="0.97648">
        <ele>48</ele>
        <time>2014-10-25T09:50:41.000Z</time>
      </trkpt>
      <trkpt lat="49.89889" lon="0.97637">
        <ele>48</ele>
        <time>2014-10-25T09:50:42.000Z</time>
      </trkpt>
      <trkpt lat="49.89892" lon="0.97627">
        <ele>47</ele>
        <time>2014-10-25T09:50:43.000Z</time>
      </trkpt>
      <trkpt lat="49.89895" lon="0.97617">
        <ele>46</ele>
        <time>2014-10-25T09:50:44.000Z</time>
      </trkpt>
      <trkpt lat="49.89898" lon="0.97607">
        <ele>45</ele>
        <time>2014-10-25T09:50:45.000Z</time>
      </trkpt>
      <trkpt lat="49.899" lon="0.97596">
        <ele>45</ele>
        <time>2014-10-25T09:50:46.000Z</time>
      </trkpt>
      <trkpt lat="49.89903" lon="0.97584">
        <ele>44</ele>
        <time>2014-10-25T09:50:47.000Z</time>
      </trkpt>
      <trkpt lat="49.89906" lon="0.97573">
        <ele>43</ele>
        <time>2014-10-25T09:50:48.000Z</time>
      </trkpt>
      <trkpt lat="49.89909" lon="0.97562">
        <ele>43</ele>
        <time>2014-10-25T09:50:49.000Z</time>
      </trkpt>
      <trkpt lat="49.89912" lon="0.97552">
        <ele>43</ele>
        <time>2014-10-25T09:50:50.000Z</time>
      </trkpt>
      <trkpt lat="49.89914" lon="0.97542">
        <ele>43</ele>
        <time>2014-10-25T09:50:51.000Z</time>
      </trkpt>
      <trkpt lat="49.89917" lon="0.97534">
        <ele>43</ele>
        <time>2014-10-25T09:50:52.000Z</time>
      </trkpt>
      <trkpt lat="49.8992" lon="0.97526">
        <ele>43</ele>
        <time>2014-10-25T09:50:53.000Z</time>
      </trkpt>
      <trkpt lat="49.89922" lon="0.97519">
        <ele>43</ele>
        <time>2014-10-25T09:50:54.000Z</time>
      </trkpt>
      <trkpt lat="49.89924" lon="0.97512">
        <ele>42</ele>
        <time>2014-10-25T09:50:55.000Z</time>
      </trkpt>
      <trkpt lat="49.89923" lon="0.97492">
        <ele>42</ele>
        <time>2014-10-25T09:50:58.000Z</time>
      </trkpt>
      <trkpt lat="49.89922" lon="0.97485">
        <ele>42</ele>
        <time>2014-10-25T09:50:59.000Z</time>
      </trkpt>
      <trkpt lat="49.8992" lon="0.97465">
        <ele>43</ele>
        <time>2014-10-25T09:51:02.000Z</time>
      </trkpt>
      <trkpt lat="49.8992" lon="0.97459">
        <ele>43</ele>
        <time>2014-10-25T09:51:03.000Z</time>
      </trkpt>
      <trkpt lat="49.89919" lon="0.97452">
        <ele>43</ele>
        <time>2014-10-25T09:51:04.000Z</time>
      </trkpt>
      <trkpt lat="49.89918" lon="0.97445">
        <ele>43</ele>
        <time>2014-10-25T09:51:05.000Z</time>
      </trkpt>
      <trkpt lat="49.89916" lon="0.97424">
        <ele>44</ele>
        <time>2014-10-25T09:51:08.000Z</time>
      </trkpt>
      <trkpt lat="49.89916" lon="0.97418">
        <ele>44</ele>
        <time>2014-10-25T09:51:09.000Z</time>
      </trkpt>
      <trkpt lat="49.89914" lon="0.974">
        <ele>45</ele>
        <time>2014-10-25T09:51:12.000Z</time>
      </trkpt>
      <trkpt lat="49.89914" lon="0.97394">
        <ele>45</ele>
        <time>2014-10-25T09:51:13.000Z</time>
      </trkpt>
      <trkpt lat="49.89912" lon="0.97375">
        <ele>46</ele>
        <time>2014-10-25T09:51:16.000Z</time>
      </trkpt>
      <trkpt lat="49.89912" lon="0.97369">
        <ele>46</ele>
        <time>2014-10-25T09:51:17.000Z</time>
      </trkpt>
      <trkpt lat="49.89912" lon="0.97349">
        <ele>46</ele>
        <time>2014-10-25T09:51:20.000Z</time>
      </trkpt>
      <trkpt lat="49.89912" lon="0.97343">
        <ele>47</ele>
        <time>2014-10-25T09:51:21.000Z</time>
      </trkpt>
      <trkpt lat="49.89911" lon="0.97324">
        <ele>48</ele>
        <time>2014-10-25T09:51:24.000Z</time>
      </trkpt>
      <trkpt lat="49.89911" lon="0.97319">
        <ele>48</ele>
        <time>2014-10-25T09:51:25.000Z</time>
      </trkpt>
      <trkpt lat="49.89911" lon="0.97305">
        <ele>48</ele>
        <time>2014-10-25T09:51:28.000Z</time>
      </trkpt>
      <trkpt lat="49.89911" lon="0.97301">
        <ele>48</ele>
        <time>2014-10-25T09:51:29.000Z</time>
      </trkpt>
      <trkpt lat="49.89909" lon="0.97286">
        <ele>49</ele>
        <time>2014-10-25T09:51:33.000Z</time>
      </trkpt>
      <trkpt lat="49.89909" lon="0.97283">
        <ele>49</ele>
        <time>2014-10-25T09:51:34.000Z</time>
      </trkpt>
      <trkpt lat="49.89907" lon="0.97266">
        <ele>51</ele>
        <time>2014-10-25T09:51:39.000Z</time>
      </trkpt>
      <trkpt lat="49.89907" lon="0.97263">
        <ele>51</ele>
        <time>2014-10-25T09:51:40.000Z</time>
      </trkpt>
      <trkpt lat="49.89905" lon="0.97248">
        <ele>53</ele>
        <time>2014-10-25T09:51:45.000Z</time>
      </trkpt>
      <trkpt lat="49.89904" lon="0.97245">
        <ele>53</ele>
        <time>2014-10-25T09:51:46.000Z</time>
      </trkpt>
      <trkpt lat="49.89902" lon="0.97231">
        <ele>54</ele>
        <time>2014-10-25T09:51:51.000Z</time>
      </trkpt>
      <trkpt lat="49.89902" lon="0.97228">
        <ele>55</ele>
        <time>2014-10-25T09:51:52.000Z</time>
      </trkpt>
      <trkpt lat="49.89899" lon="0.97212">
        <ele>55</ele>
        <time>2014-10-25T09:51:57.000Z</time>
      </trkpt>
      <trkpt lat="49.89899" lon="0.97209">
        <ele>55</ele>
        <time>2014-10-25T09:51:58.000Z</time>
      </trkpt>
      <trkpt lat="49.89896" lon="0.97195">
        <ele>56</ele>
        <time>2014-10-25T09:52:02.000Z</time>
      </trkpt>
      <trkpt lat="49.89895" lon="0.97191">
        <ele>56</ele>
        <time>2014-10-25T09:52:03.000Z</time>
      </trkpt>
      <trkpt lat="49.89893" lon="0.97176">
        <ele>57</ele>
        <time>2014-10-25T09:52:07.000Z</time>
      </trkpt>
      <trkpt lat="49.89892" lon="0.97172">
        <ele>57</ele>
        <time>2014-10-25T09:52:08.000Z</time>
      </trkpt>
      <trkpt lat="49.89889" lon="0.97158">
        <ele>57</ele>
        <time>2014-10-25T09:52:12.000Z</time>
      </trkpt>
      <trkpt lat="49.89889" lon="0.97155">
        <ele>57</ele>
        <time>2014-10-25T09:52:13.000Z</time>
      </trkpt>
      <trkpt lat="49.89887" lon="0.97141">
        <ele>57</ele>
        <time>2014-10-25T09:52:18.000Z</time>
      </trkpt>
      <trkpt lat="49.89887" lon="0.97139">
        <ele>57</ele>
        <time>2014-10-25T09:52:19.000Z</time>
      </trkpt>
      <trkpt lat="49.89877" lon="0.97134">
        <ele>57</ele>
        <time>2014-10-25T09:52:26.000Z</time>
      </trkpt>
      <trkpt lat="49.89875" lon="0.97134">
        <ele>57</ele>
        <time>2014-10-25T09:52:27.000Z</time>
      </trkpt>
      <trkpt lat="49.89865" lon="0.97133">
        <ele>57</ele>
        <time>2014-10-25T09:52:31.000Z</time>
      </trkpt>
      <trkpt lat="49.89862" lon="0.97133">
        <ele>57</ele>
        <time>2014-10-25T09:52:32.000Z</time>
      </trkpt>
      <trkpt lat="49.89852" lon="0.9713">
        <ele>57</ele>
        <time>2014-10-25T09:52:36.000Z</time>
      </trkpt>
      <trkpt lat="49.89849" lon="0.9713">
        <ele>57</ele>
        <time>2014-10-25T09:52:37.000Z</time>
      </trkpt>
      <trkpt lat="49.89839" lon="0.97129">
        <ele>56</ele>
        <time>2014-10-25T09:52:40.000Z</time>
      </trkpt>
      <trkpt lat="49.89836" lon="0.97128">
        <ele>56</ele>
        <time>2014-10-25T09:52:41.000Z</time>
      </trkpt>
      <trkpt lat="49.89825" lon="0.97127">
        <ele>56</ele>
        <time>2014-10-25T09:52:44.000Z</time>
      </trkpt>
      <trkpt lat="49.89821" lon="0.97127">
        <ele>56</ele>
        <time>2014-10-25T09:52:45.000Z</time>
      </trkpt>
      <trkpt lat="49.89809" lon="0.97126">
        <ele>56</ele>
        <time>2014-10-25T09:52:48.000Z</time>
      </trkpt>
      <trkpt lat="49.89805" lon="0.97126">
        <ele>56</ele>
        <time>2014-10-25T09:52:49.000Z</time>
      </trkpt>
      <trkpt lat="49.89792" lon="0.97125">
        <ele>56</ele>
        <time>2014-10-25T09:52:52.000Z</time>
      </trkpt>
      <trkpt lat="49.89788" lon="0.97125">
        <ele>56</ele>
        <time>2014-10-25T09:52:53.000Z</time>
      </trkpt>
      <trkpt lat="49.89776" lon="0.97124">
        <ele>56</ele>
        <time>2014-10-25T09:52:56.000Z</time>
      </trkpt>
      <trkpt lat="49.89771" lon="0.97123">
        <ele>56</ele>
        <time>2014-10-25T09:52:57.000Z</time>
      </trkpt>
      <trkpt lat="49.8976" lon="0.97123">
        <ele>56</ele>
        <time>2014-10-25T09:53:00.000Z</time>
      </trkpt>
      <trkpt lat="49.89757" lon="0.97123">
        <ele>56</ele>
        <time>2014-10-25T09:53:01.000Z</time>
      </trkpt>
      <trkpt lat="49.89747" lon="0.97123">
        <ele>55</ele>
        <time>2014-10-25T09:53:04.000Z</time>
      </trkpt>
      <trkpt lat="49.89744" lon="0.97122">
        <ele>55</ele>
        <time>2014-10-25T09:53:05.000Z</time>
      </trkpt>
      <trkpt lat="49.89734" lon="0.97121">
        <ele>55</ele>
        <time>2014-10-25T09:53:08.000Z</time>
      </trkpt>
      <trkpt lat="49.89731" lon="0.97121">
        <ele>54</ele>
        <time>2014-10-25T09:53:09.000Z</time>
      </trkpt>
      <trkpt lat="49.89721" lon="0.9712">
        <ele>54</ele>
        <time>2014-10-25T09:53:12.000Z</time>
      </trkpt>
      <trkpt lat="49.89718" lon="0.97119">
        <ele>54</ele>
        <time>2014-10-25T09:53:13.000Z</time>
      </trkpt>
      <trkpt lat="49.89706" lon="0.97118">
        <ele>53</ele>
        <time>2014-10-25T09:53:17.000Z</time>
      </trkpt>
      <trkpt lat="49.89703" lon="0.97118">
        <ele>53</ele>
        <time>2014-10-25T09:53:18.000Z</time>
      </trkpt>
      <trkpt lat="49.89694" lon="0.97118">
        <ele>53</ele>
        <time>2014-10-25T09:53:21.000Z</time>
      </trkpt>
      <trkpt lat="49.89692" lon="0.97118">
        <ele>52</ele>
        <time>2014-10-25T09:53:22.000Z</time>
      </trkpt>
      <trkpt lat="49.89682" lon="0.97116">
        <ele>52</ele>
        <time>2014-10-25T09:53:25.000Z</time>
      </trkpt>
      <trkpt lat="49.89678" lon="0.97115">
        <ele>52</ele>
        <time>2014-10-25T09:53:26.000Z</time>
      </trkpt>
      <trkpt lat="49.89668" lon="0.97112">
        <ele>51</ele>
        <time>2014-10-25T09:53:29.000Z</time>
      </trkpt>
      <trkpt lat="49.89666" lon="0.97111">
        <ele>51</ele>
        <time>2014-10-25T09:53:30.000Z</time>
      </trkpt>
      <trkpt lat="49.89656" lon="0.97106">
        <ele>49</ele>
        <time>2014-10-25T09:53:33.000Z</time>
      </trkpt>
      <trkpt lat="49.89654" lon="0.97105">
        <ele>48</ele>
        <time>2014-10-25T09:53:34.000Z</time>
      </trkpt>
      <trkpt lat="49.89642" lon="0.97104">
        <ele>45</ele>
        <time>2014-10-25T09:53:38.000Z</time>
      </trkpt>
      <trkpt lat="49.89638" lon="0.97104">
        <ele>45</ele>
        <time>2014-10-25T09:53:39.000Z</time>
      </trkpt>
      <trkpt lat="49.89627" lon="0.97109">
        <ele>42</ele>
        <time>2014-10-25T09:53:42.000Z</time>
      </trkpt>
      <trkpt lat="49.89624" lon="0.97111">
        <ele>42</ele>
        <time>2014-10-25T09:53:43.000Z</time>
      </trkpt>
      <trkpt lat="49.89616" lon="0.9712">
        <ele>39</ele>
        <time>2014-10-25T09:53:46.000Z</time>
      </trkpt>
      <trkpt lat="49.89613" lon="0.97124">
        <ele>38</ele>
        <time>2014-10-25T09:53:47.000Z</time>
      </trkpt>
      <trkpt lat="49.89604" lon="0.97137">
        <ele>35</ele>
        <time>2014-10-25T09:53:50.000Z</time>
      </trkpt>
      <trkpt lat="49.89601" lon="0.97143">
        <ele>34</ele>
        <time>2014-10-25T09:53:51.000Z</time>
      </trkpt>
      <trkpt lat="49.89598" lon="0.97149">
        <ele>33</ele>
        <time>2014-10-25T09:53:52.000Z</time>
      </trkpt>
      <trkpt lat="49.89595" lon="0.97156">
        <ele>32</ele>
        <time>2014-10-25T09:53:53.000Z</time>
      </trkpt>
      <trkpt lat="49.89592" lon="0.97162">
        <ele>31</ele>
        <time>2014-10-25T09:53:54.000Z</time>
      </trkpt>
      <trkpt lat="49.89589" lon="0.97169">
        <ele>31</ele>
        <time>2014-10-25T09:53:55.000Z</time>
      </trkpt>
      <trkpt lat="49.89586" lon="0.97175">
        <ele>31</ele>
        <time>2014-10-25T09:53:56.000Z</time>
      </trkpt>
      <trkpt lat="49.89583" lon="0.97182">
        <ele>30</ele>
        <time>2014-10-25T09:53:57.000Z</time>
      </trkpt>
      <trkpt lat="49.89575" lon="0.97192">
        <ele>32</ele>
        <time>2014-10-25T09:53:58.000Z</time>
      </trkpt>
      <trkpt lat="49.89572" lon="0.97199">
        <ele>31</ele>
        <time>2014-10-25T09:53:59.000Z</time>
      </trkpt>
      <trkpt lat="49.8957" lon="0.97204">
        <ele>30</ele>
        <time>2014-10-25T09:54:00.000Z</time>
      </trkpt>
      <trkpt lat="49.89567" lon="0.97211">
        <ele>30</ele>
        <time>2014-10-25T09:54:01.000Z</time>
      </trkpt>
      <trkpt lat="49.89564" lon="0.97218">
        <ele>31</ele>
        <time>2014-10-25T09:54:02.000Z</time>
      </trkpt>
      <trkpt lat="49.89562" lon="0.97225">
        <ele>31</ele>
        <time>2014-10-25T09:54:03.000Z</time>
      </trkpt>
      <trkpt lat="49.8956" lon="0.97232">
        <ele>32</ele>
        <time>2014-10-25T09:54:04.000Z</time>
      </trkpt>
      <trkpt lat="49.89557" lon="0.97239">
        <ele>32</ele>
        <time>2014-10-25T09:54:05.000Z</time>
      </trkpt>
      <trkpt lat="49.89555" lon="0.97245">
        <ele>32</ele>
        <time>2014-10-25T09:54:06.000Z</time>
      </trkpt>
      <trkpt lat="49.89553" lon="0.97252">
        <ele>33</ele>
        <time>2014-10-25T09:54:07.000Z</time>
      </trkpt>
      <trkpt lat="49.8955" lon="0.97258">
        <ele>34</ele>
        <time>2014-10-25T09:54:08.000Z</time>
      </trkpt>
      <trkpt lat="49.89547" lon="0.97263">
        <ele>34</ele>
        <time>2014-10-25T09:54:09.000Z</time>
      </trkpt>
      <trkpt lat="49.8954" lon="0.97275">
        <ele>34</ele>
        <time>2014-10-25T09:54:12.000Z</time>
      </trkpt>
      <trkpt lat="49.89538" lon="0.97277">
        <ele>34</ele>
        <time>2014-10-25T09:54:13.000Z</time>
      </trkpt>
      <trkpt lat="49.89527" lon="0.97285">
        <ele>34</ele>
        <time>2014-10-25T09:54:17.000Z</time>
      </trkpt>
      <trkpt lat="49.89524" lon="0.97285">
        <ele>34</ele>
        <time>2014-10-25T09:54:18.000Z</time>
      </trkpt>
      <trkpt lat="49.89514" lon="0.97283">
        <ele>34</ele>
        <time>2014-10-25T09:54:21.000Z</time>
      </trkpt>
      <trkpt lat="49.89511" lon="0.97282">
        <ele>34</ele>
        <time>2014-10-25T09:54:22.000Z</time>
      </trkpt>
      <trkpt lat="49.89501" lon="0.97278">
        <ele>34</ele>
        <time>2014-10-25T09:54:25.000Z</time>
      </trkpt>
      <trkpt lat="49.89497" lon="0.97277">
        <ele>34</ele>
        <time>2014-10-25T09:54:26.000Z</time>
      </trkpt>
      <trkpt lat="49.89486" lon="0.97273">
        <ele>34</ele>
        <time>2014-10-25T09:54:29.000Z</time>
      </trkpt>
      <trkpt lat="49.89482" lon="0.97271">
        <ele>34</ele>
        <time>2014-10-25T09:54:30.000Z</time>
      </trkpt>
      <trkpt lat="49.89469" lon="0.97268">
        <ele>34</ele>
        <time>2014-10-25T09:54:33.000Z</time>
      </trkpt>
      <trkpt lat="49.89465" lon="0.97267">
        <ele>35</ele>
        <time>2014-10-25T09:54:34.000Z</time>
      </trkpt>
      <trkpt lat="49.89453" lon="0.97263">
        <ele>35</ele>
        <time>2014-10-25T09:54:37.000Z</time>
      </trkpt>
      <trkpt lat="49.89448" lon="0.97262">
        <ele>35</ele>
        <time>2014-10-25T09:54:38.000Z</time>
      </trkpt>
      <trkpt lat="49.89436" lon="0.97258">
        <ele>35</ele>
        <time>2014-10-25T09:54:41.000Z</time>
      </trkpt>
      <trkpt lat="49.89432" lon="0.97256">
        <ele>35</ele>
        <time>2014-10-25T09:54:42.000Z</time>
      </trkpt>
      <trkpt lat="49.8942" lon="0.97253">
        <ele>36</ele>
        <time>2014-10-25T09:54:45.000Z</time>
      </trkpt>
      <trkpt lat="49.89416" lon="0.97251">
        <ele>36</ele>
        <time>2014-10-25T09:54:46.000Z</time>
      </trkpt>
      <trkpt lat="49.89404" lon="0.97248">
        <ele>36</ele>
        <time>2014-10-25T09:54:49.000Z</time>
      </trkpt>
      <trkpt lat="49.89401" lon="0.97246">
        <ele>37</ele>
        <time>2014-10-25T09:54:50.000Z</time>
      </trkpt>
      <trkpt lat="49.89391" lon="0.97243">
        <ele>37</ele>
        <time>2014-10-25T09:54:53.000Z</time>
      </trkpt>
      <trkpt lat="49.89388" lon="0.97242">
        <ele>38</ele>
        <time>2014-10-25T09:54:54.000Z</time>
      </trkpt>
      <trkpt lat="49.89378" lon="0.97238">
        <ele>38</ele>
        <time>2014-10-25T09:54:58.000Z</time>
      </trkpt>
      <trkpt lat="49.89375" lon="0.97237">
        <ele>39</ele>
        <time>2014-10-25T09:54:59.000Z</time>
      </trkpt>
      <trkpt lat="49.89366" lon="0.97234">
        <ele>40</ele>
        <time>2014-10-25T09:55:03.000Z</time>
      </trkpt>
      <trkpt lat="49.89364" lon="0.97233">
        <ele>40</ele>
        <time>2014-10-25T09:55:04.000Z</time>
      </trkpt>
      <trkpt lat="49.89355" lon="0.97229">
        <ele>41</ele>
        <time>2014-10-25T09:55:09.000Z</time>
      </trkpt>
      <trkpt lat="49.89353" lon="0.97228">
        <ele>42</ele>
        <time>2014-10-25T09:55:10.000Z</time>
      </trkpt>
      <trkpt lat="49.89345" lon="0.97221">
        <ele>43</ele>
        <time>2014-10-25T09:55:15.000Z</time>
      </trkpt>
      <trkpt lat="49.89344" lon="0.9722">
        <ele>43</ele>
        <time>2014-10-25T09:55:16.000Z</time>
      </trkpt>
      <trkpt lat="49.89335" lon="0.97214">
        <ele>45</ele>
        <time>2014-10-25T09:55:22.000Z</time>
      </trkpt>
      <trkpt lat="49.89333" lon="0.97212">
        <ele>45</ele>
        <time>2014-10-25T09:55:23.000Z</time>
      </trkpt>
      <trkpt lat="49.89323" lon="0.97205">
        <ele>48</ele>
        <time>2014-10-25T09:55:29.000Z</time>
      </trkpt>
      <trkpt lat="49.89322" lon="0.97204">
        <ele>48</ele>
        <time>2014-10-25T09:55:30.000Z</time>
      </trkpt>
      <trkpt lat="49.89312" lon="0.97197">
        <ele>50</ele>
        <time>2014-10-25T09:55:36.000Z</time>
      </trkpt>
      <trkpt lat="49.89311" lon="0.97196">
        <ele>50</ele>
        <time>2014-10-25T09:55:37.000Z</time>
      </trkpt>
      <trkpt lat="49.89301" lon="0.9719">
        <ele>51</ele>
        <time>2014-10-25T09:55:43.000Z</time>
      </trkpt>
      <trkpt lat="49.89299" lon="0.97188">
        <ele>51</ele>
        <time>2014-10-25T09:55:44.000Z</time>
      </trkpt>
      <trkpt lat="49.89289" lon="0.97184">
        <ele>51</ele>
        <time>2014-10-25T09:55:51.000Z</time>
      </trkpt>
      <trkpt lat="49.89288" lon="0.97183">
        <ele>51</ele>
        <time>2014-10-25T09:55:52.000Z</time>
      </trkpt>
      <trkpt lat="49.89278" lon="0.9718">
        <ele>52</ele>
        <time>2014-10-25T09:55:58.000Z</time>
      </trkpt>
      <trkpt lat="49.89276" lon="0.9718">
        <ele>52</ele>
        <time>2014-10-25T09:55:59.000Z</time>
      </trkpt>
      <trkpt lat="49.89266" lon="0.97179">
        <ele>52</ele>
        <time>2014-10-25T09:56:04.000Z</time>
      </trkpt>
      <trkpt lat="49.89263" lon="0.97179">
        <ele>52</ele>
        <time>2014-10-25T09:56:05.000Z</time>
      </trkpt>
      <trkpt lat="49.89253" lon="0.97179">
        <ele>52</ele>
        <time>2014-10-25T09:56:09.000Z</time>
      </trkpt>
      <trkpt lat="49.89251" lon="0.9718">
        <ele>52</ele>
        <time>2014-10-25T09:56:10.000Z</time>
      </trkpt>
      <trkpt lat="49.8924" lon="0.97182">
        <ele>53</ele>
        <time>2014-10-25T09:56:14.000Z</time>
      </trkpt>
      <trkpt lat="49.89237" lon="0.97182">
        <ele>53</ele>
        <time>2014-10-25T09:56:15.000Z</time>
      </trkpt>
      <trkpt lat="49.89226" lon="0.97184">
        <ele>53</ele>
        <time>2014-10-25T09:56:19.000Z</time>
      </trkpt>
      <trkpt lat="49.89224" lon="0.97184">
        <ele>53</ele>
        <time>2014-10-25T09:56:20.000Z</time>
      </trkpt>
      <trkpt lat="49.89214" lon="0.97185">
        <ele>53</ele>
        <time>2014-10-25T09:56:24.000Z</time>
      </trkpt>
      <trkpt lat="49.89211" lon="0.97186">
        <ele>54</ele>
        <time>2014-10-25T09:56:25.000Z</time>
      </trkpt>
      <trkpt lat="49.89201" lon="0.97188">
        <ele>54</ele>
        <time>2014-10-25T09:56:29.000Z</time>
      </trkpt>
      <trkpt lat="49.89198" lon="0.97189">
        <ele>54</ele>
        <time>2014-10-25T09:56:30.000Z</time>
      </trkpt>
      <trkpt lat="49.89187" lon="0.97191">
        <ele>55</ele>
        <time>2014-10-25T09:56:34.000Z</time>
      </trkpt>
      <trkpt lat="49.89184" lon="0.97191">
        <ele>55</ele>
        <time>2014-10-25T09:56:35.000Z</time>
      </trkpt>
      <trkpt lat="49.89173" lon="0.97194">
        <ele>55</ele>
        <time>2014-10-25T09:56:39.000Z</time>
      </trkpt>
      <trkpt lat="49.8917" lon="0.97194">
        <ele>55</ele>
        <time>2014-10-25T09:56:40.000Z</time>
      </trkpt>
      <trkpt lat="49.89159" lon="0.97196">
        <ele>55</ele>
        <time>2014-10-25T09:56:44.000Z</time>
      </trkpt>
      <trkpt lat="49.89156" lon="0.97197">
        <ele>55</ele>
        <time>2014-10-25T09:56:45.000Z</time>
      </trkpt>
      <trkpt lat="49.89145" lon="0.972">
        <ele>55</ele>
        <time>2014-10-25T09:56:49.000Z</time>
      </trkpt>
      <trkpt lat="49.89142" lon="0.972">
        <ele>55</ele>
        <time>2014-10-25T09:56:50.000Z</time>
      </trkpt>
      <trkpt lat="49.8913" lon="0.97201">
        <ele>55</ele>
        <time>2014-10-25T09:56:54.000Z</time>
      </trkpt>
      <trkpt lat="49.89127" lon="0.97202">
        <ele>55</ele>
        <time>2014-10-25T09:56:55.000Z</time>
      </trkpt>
      <trkpt lat="49.89118" lon="0.97202">
        <ele>55</ele>
        <time>2014-10-25T09:56:58.000Z</time>
      </trkpt>
      <trkpt lat="49.89115" lon="0.97202">
        <ele>55</ele>
        <time>2014-10-25T09:56:59.000Z</time>
      </trkpt>
      <trkpt lat="49.89104" lon="0.97203">
        <ele>55</ele>
        <time>2014-10-25T09:57:02.000Z</time>
      </trkpt>
      <trkpt lat="49.891" lon="0.97203">
        <ele>56</ele>
        <time>2014-10-25T09:57:03.000Z</time>
      </trkpt>
      <trkpt lat="49.8909" lon="0.97203">
        <ele>56</ele>
        <time>2014-10-25T09:57:06.000Z</time>
      </trkpt>
      <trkpt lat="49.89087" lon="0.97204">
        <ele>56</ele>
        <time>2014-10-25T09:57:07.000Z</time>
      </trkpt>
      <trkpt lat="49.89077" lon="0.97205">
        <ele>56</ele>
        <time>2014-10-25T09:57:10.000Z</time>
      </trkpt>
      <trkpt lat="49.89073" lon="0.97206">
        <ele>56</ele>
        <time>2014-10-25T09:57:11.000Z</time>
      </trkpt>
      <trkpt lat="49.89063" lon="0.97207">
        <ele>56</ele>
        <time>2014-10-25T09:57:14.000Z</time>
      </trkpt>
      <trkpt lat="49.8906" lon="0.97208">
        <ele>56</ele>
        <time>2014-10-25T09:57:15.000Z</time>
      </trkpt>
      <trkpt lat="49.8905" lon="0.9721">
        <ele>56</ele>
        <time>2014-10-25T09:57:18.000Z</time>
      </trkpt>
      <trkpt lat="49.89047" lon="0.9721">
        <ele>56</ele>
        <time>2014-10-25T09:57:19.000Z</time>
      </trkpt>
      <trkpt lat="49.89036" lon="0.97212">
        <ele>56</ele>
        <time>2014-10-25T09:57:22.000Z</time>
      </trkpt>
      <trkpt lat="49.89032" lon="0.97213">
        <ele>56</ele>
        <time>2014-10-25T09:57:23.000Z</time>
      </trkpt>
      <trkpt lat="49.89022" lon="0.97215">
        <ele>56</ele>
        <time>2014-10-25T09:57:26.000Z</time>
      </trkpt>
      <trkpt lat="49.89018" lon="0.97216">
        <ele>56</ele>
        <time>2014-10-25T09:57:27.000Z</time>
      </trkpt>
      <trkpt lat="49.89007" lon="0.97219">
        <ele>56</ele>
        <time>2014-10-25T09:57:30.000Z</time>
      </trkpt>
      <trkpt lat="49.89003" lon="0.9722">
        <ele>56</ele>
        <time>2014-10-25T09:57:31.000Z</time>
      </trkpt>
      <trkpt lat="49.88992" lon="0.97224">
        <ele>56</ele>
        <time>2014-10-25T09:57:34.000Z</time>
      </trkpt>
      <trkpt lat="49.88989" lon="0.97225">
        <ele>56</ele>
        <time>2014-10-25T09:57:35.000Z</time>
      </trkpt>
      <trkpt lat="49.88977" lon="0.97228">
        <ele>56</ele>
        <time>2014-10-25T09:57:38.000Z</time>
      </trkpt>
      <trkpt lat="49.88974" lon="0.97229">
        <ele>56</ele>
        <time>2014-10-25T09:57:39.000Z</time>
      </trkpt>
      <trkpt lat="49.88963" lon="0.97232">
        <ele>56</ele>
        <time>2014-10-25T09:57:42.000Z</time>
      </trkpt>
      <trkpt lat="49.88959" lon="0.97233">
        <ele>56</ele>
        <time>2014-10-25T09:57:43.000Z</time>
      </trkpt>
      <trkpt lat="49.88948" lon="0.97236">
        <ele>56</ele>
        <time>2014-10-25T09:57:46.000Z</time>
      </trkpt>
      <trkpt lat="49.88944" lon="0.97237">
        <ele>56</ele>
        <time>2014-10-25T09:57:47.000Z</time>
      </trkpt>
      <trkpt lat="49.88933" lon="0.97239">
        <ele>56</ele>
        <time>2014-10-25T09:57:50.000Z</time>
      </trkpt>
      <trkpt lat="49.8893" lon="0.9724">
        <ele>56</ele>
        <time>2014-10-25T09:57:51.000Z</time>
      </trkpt>
      <trkpt lat="49.88919" lon="0.97242">
        <ele>56</ele>
        <time>2014-10-25T09:57:54.000Z</time>
      </trkpt>
      <trkpt lat="49.88915" lon="0.97242">
        <ele>56</ele>
        <time>2014-10-25T09:57:55.000Z</time>
      </trkpt>
      <trkpt lat="49.88906" lon="0.9724">
        <ele>56</ele>
        <time>2014-10-25T09:57:58.000Z</time>
      </trkpt>
      <trkpt lat="49.88903" lon="0.97238">
        <ele>56</ele>
        <time>2014-10-25T09:57:59.000Z</time>
      </trkpt>
      <trkpt lat="49.88894" lon="0.97239">
        <ele>56</ele>
        <time>2014-10-25T09:58:04.000Z</time>
      </trkpt>
      <trkpt lat="49.88894" lon="0.97243">
        <ele>56</ele>
        <time>2014-10-25T09:58:05.000Z</time>
      </trkpt>
      <trkpt lat="49.88894" lon="0.97258">
        <ele>56</ele>
        <time>2014-10-25T09:58:08.000Z</time>
      </trkpt>
      <trkpt lat="49.88892" lon="0.97263">
        <ele>56</ele>
        <time>2014-10-25T09:58:09.000Z</time>
      </trkpt>
      <trkpt lat="49.88883" lon="0.97268">
        <ele>55</ele>
        <time>2014-10-25T09:58:12.000Z</time>
      </trkpt>
      <trkpt lat="49.88879" lon="0.97269">
        <ele>55</ele>
        <time>2014-10-25T09:58:13.000Z</time>
      </trkpt>
      <trkpt lat="49.88868" lon="0.97272">
        <ele>55</ele>
        <time>2014-10-25T09:58:16.000Z</time>
      </trkpt>
      <trkpt lat="49.88865" lon="0.97273">
        <ele>55</ele>
        <time>2014-10-25T09:58:17.000Z</time>
      </trkpt>
      <trkpt lat="49.88853" lon="0.97277">
        <ele>56</ele>
        <time>2014-10-25T09:58:20.000Z</time>
      </trkpt>
      <trkpt lat="49.88849" lon="0.97278">
        <ele>56</ele>
        <time>2014-10-25T09:58:21.000Z</time>
      </trkpt>
      <trkpt lat="49.88837" lon="0.97283">
        <ele>56</ele>
        <time>2014-10-25T09:58:24.000Z</time>
      </trkpt>
      <trkpt lat="49.88834" lon="0.97285">
        <ele>56</ele>
        <time>2014-10-25T09:58:25.000Z</time>
      </trkpt>
      <trkpt lat="49.88823" lon="0.9729">
        <ele>56</ele>
        <time>2014-10-25T09:58:28.000Z</time>
      </trkpt>
      <trkpt lat="49.88818" lon="0.97291">
        <ele>56</ele>
        <time>2014-10-25T09:58:29.000Z</time>
      </trkpt>
      <trkpt lat="49.88807" lon="0.97295">
        <ele>56</ele>
        <time>2014-10-25T09:58:32.000Z</time>
      </trkpt>
      <trkpt lat="49.88803" lon="0.97297">
        <ele>56</ele>
        <time>2014-10-25T09:58:33.000Z</time>
      </trkpt>
      <trkpt lat="49.88792" lon="0.97302">
        <ele>57</ele>
        <time>2014-10-25T09:58:36.000Z</time>
      </trkpt>
      <trkpt lat="49.88789" lon="0.97304">
        <ele>57</ele>
        <time>2014-10-25T09:58:37.000Z</time>
      </trkpt>
      <trkpt lat="49.88777" lon="0.97309">
        <ele>57</ele>
        <time>2014-10-25T09:58:40.000Z</time>
      </trkpt>
      <trkpt lat="49.88774" lon="0.9731">
        <ele>57</ele>
        <time>2014-10-25T09:58:41.000Z</time>
      </trkpt>
      <trkpt lat="49.88763" lon="0.97315">
        <ele>57</ele>
        <time>2014-10-25T09:58:44.000Z</time>
      </trkpt>
      <trkpt lat="49.8876" lon="0.97316">
        <ele>58</ele>
        <time>2014-10-25T09:58:45.000Z</time>
      </trkpt>
      <trkpt lat="49.8875" lon="0.97314">
        <ele>58</ele>
        <time>2014-10-25T09:58:48.000Z</time>
      </trkpt>
      <trkpt lat="49.88747" lon="0.97311">
        <ele>58</ele>
        <time>2014-10-25T09:58:49.000Z</time>
      </trkpt>
      <trkpt lat="49.88742" lon="0.97296">
        <ele>58</ele>
        <time>2014-10-25T09:58:52.000Z</time>
      </trkpt>
      <trkpt lat="49.88742" lon="0.9729">
        <ele>57</ele>
        <time>2014-10-25T09:58:53.000Z</time>
      </trkpt>
      <trkpt lat="49.88738" lon="0.97272">
        <ele>57</ele>
        <time>2014-10-25T09:58:56.000Z</time>
      </trkpt>
      <trkpt lat="49.88737" lon="0.97265">
        <ele>57</ele>
        <time>2014-10-25T09:58:57.000Z</time>
      </trkpt>
      <trkpt lat="49.88733" lon="0.97247">
        <ele>57</ele>
        <time>2014-10-25T09:59:00.000Z</time>
      </trkpt>
      <trkpt lat="49.88732" lon="0.97241">
        <ele>57</ele>
        <time>2014-10-25T09:59:01.000Z</time>
      </trkpt>
      <trkpt lat="49.88728" lon="0.97223">
        <ele>57</ele>
        <time>2014-10-25T09:59:04.000Z</time>
      </trkpt>
      <trkpt lat="49.88728" lon="0.97217">
        <ele>57</ele>
        <time>2014-10-25T09:59:05.000Z</time>
      </trkpt>
      <trkpt lat="49.88724" lon="0.972">
        <ele>57</ele>
        <time>2014-10-25T09:59:08.000Z</time>
      </trkpt>
      <trkpt lat="49.88723" lon="0.97194">
        <ele>56</ele>
        <time>2014-10-25T09:59:09.000Z</time>
      </trkpt>
      <trkpt lat="49.8872" lon="0.97176">
        <ele>56</ele>
        <time>2014-10-25T09:59:12.000Z</time>
      </trkpt>
      <trkpt lat="49.88718" lon="0.9717">
        <ele>56</ele>
        <time>2014-10-25T09:59:13.000Z</time>
      </trkpt>
      <trkpt lat="49.88715" lon="0.97153">
        <ele>55</ele>
        <time>2014-10-25T09:59:16.000Z</time>
      </trkpt>
      <trkpt lat="49.88714" lon="0.97148">
        <ele>55</ele>
        <time>2014-10-25T09:59:17.000Z</time>
      </trkpt>
      <trkpt lat="49.8871" lon="0.97131">
        <ele>55</ele>
        <time>2014-10-25T09:59:20.000Z</time>
      </trkpt>
      <trkpt lat="49.88709" lon="0.97126">
        <ele>55</ele>
        <time>2014-10-25T09:59:21.000Z</time>
      </trkpt>
      <trkpt lat="49.88705" lon="0.9711">
        <ele>55</ele>
        <time>2014-10-25T09:59:24.000Z</time>
      </trkpt>
      <trkpt lat="49.88704" lon="0.97106">
        <ele>55</ele>
        <time>2014-10-25T09:59:25.000Z</time>
      </trkpt>
      <trkpt lat="49.88701" lon="0.97089">
        <ele>55</ele>
        <time>2014-10-25T09:59:29.000Z</time>
      </trkpt>
      <trkpt lat="49.887" lon="0.97084">
        <ele>55</ele>
        <time>2014-10-25T09:59:30.000Z</time>
      </trkpt>
      <trkpt lat="49.88697" lon="0.9707">
        <ele>55</ele>
        <time>2014-10-25T09:59:33.000Z</time>
      </trkpt>
      <trkpt lat="49.88697" lon="0.97066">
        <ele>55</ele>
        <time>2014-10-25T09:59:34.000Z</time>
      </trkpt>
      <trkpt lat="49.88694" lon="0.97052">
        <ele>56</ele>
        <time>2014-10-25T09:59:37.000Z</time>
      </trkpt>
      <trkpt lat="49.88694" lon="0.97048">
        <ele>56</ele>
        <time>2014-10-25T09:59:38.000Z</time>
      </trkpt>
      <trkpt lat="49.88691" lon="0.97032">
        <ele>57</ele>
        <time>2014-10-25T09:59:41.000Z</time>
      </trkpt>
      <trkpt lat="49.88689" lon="0.97026">
        <ele>57</ele>
        <time>2014-10-25T09:59:42.000Z</time>
      </trkpt>
      <trkpt lat="49.88685" lon="0.97007">
        <ele>58</ele>
        <time>2014-10-25T09:59:45.000Z</time>
      </trkpt>
      <trkpt lat="49.88684" lon="0.97">
        <ele>59</ele>
        <time>2014-10-25T09:59:46.000Z</time>
      </trkpt>
      <trkpt lat="49.8868" lon="0.9698">
        <ele>60</ele>
        <time>2014-10-25T09:59:49.000Z</time>
      </trkpt>
      <trkpt lat="49.88678" lon="0.96973">
        <ele>60</ele>
        <time>2014-10-25T09:59:50.000Z</time>
      </trkpt>
      <trkpt lat="49.88674" lon="0.96954">
        <ele>60</ele>
        <time>2014-10-25T09:59:53.000Z</time>
      </trkpt>
      <trkpt lat="49.88673" lon="0.96947">
        <ele>60</ele>
        <time>2014-10-25T09:59:54.000Z</time>
      </trkpt>
      <trkpt lat="49.88671" lon="0.96941">
        <ele>60</ele>
        <time>2014-10-25T09:59:55.000Z</time>
      </trkpt>
      <trkpt lat="49.8867" lon="0.96934">
        <ele>61</ele>
        <time>2014-10-25T09:59:56.000Z</time>
      </trkpt>
      <trkpt lat="49.88668" lon="0.96926">
        <ele>61</ele>
        <time>2014-10-25T09:59:57.000Z</time>
      </trkpt>
      <trkpt lat="49.88667" lon="0.96919">
        <ele>61</ele>
        <time>2014-10-25T09:59:58.000Z</time>
      </trkpt>
      <trkpt lat="49.88665" lon="0.96912">
        <ele>61</ele>
        <time>2014-10-25T09:59:59.000Z</time>
      </trkpt>
      <trkpt lat="49.88664" lon="0.96906">
        <ele>61</ele>
        <time>2014-10-25T10:00:00.000Z</time>
      </trkpt>
      <trkpt lat="49.88661" lon="0.96893">
        <ele>62</ele>
        <time>2014-10-25T10:00:02.000Z</time>
      </trkpt>
      <trkpt lat="49.8866" lon="0.96886">
        <ele>62</ele>
        <time>2014-10-25T10:00:03.000Z</time>
      </trkpt>
      <trkpt lat="49.88656" lon="0.96867">
        <ele>62</ele>
        <time>2014-10-25T10:00:06.000Z</time>
      </trkpt>
      <trkpt lat="49.88654" lon="0.9686">
        <ele>63</ele>
        <time>2014-10-25T10:00:07.000Z</time>
      </trkpt>
      <trkpt lat="49.88651" lon="0.96843">
        <ele>63</ele>
        <time>2014-10-25T10:00:10.000Z</time>
      </trkpt>
      <trkpt lat="49.8865" lon="0.96837">
        <ele>63</ele>
        <time>2014-10-25T10:00:11.000Z</time>
      </trkpt>
      <trkpt lat="49.88647" lon="0.96819">
        <ele>64</ele>
        <time>2014-10-25T10:00:14.000Z</time>
      </trkpt>
      <trkpt lat="49.88646" lon="0.96815">
        <ele>64</ele>
        <time>2014-10-25T10:00:15.000Z</time>
      </trkpt>
      <trkpt lat="49.88643" lon="0.968">
        <ele>66</ele>
        <time>2014-10-25T10:00:18.000Z</time>
      </trkpt>
      <trkpt lat="49.88642" lon="0.96796">
        <ele>67</ele>
        <time>2014-10-25T10:00:19.000Z</time>
      </trkpt>
      <trkpt lat="49.88639" lon="0.9678">
        <ele>68</ele>
        <time>2014-10-25T10:00:22.000Z</time>
      </trkpt>
      <trkpt lat="49.88637" lon="0.96774">
        <ele>69</ele>
        <time>2014-10-25T10:00:23.000Z</time>
      </trkpt>
      <trkpt lat="49.88633" lon="0.96754">
        <ele>70</ele>
        <time>2014-10-25T10:00:26.000Z</time>
      </trkpt>
      <trkpt lat="49.88632" lon="0.96748">
        <ele>70</ele>
        <time>2014-10-25T10:00:27.000Z</time>
      </trkpt>
      <trkpt lat="49.88628" lon="0.96729">
        <ele>70</ele>
        <time>2014-10-25T10:00:30.000Z</time>
      </trkpt>
      <trkpt lat="49.88627" lon="0.96722">
        <ele>69</ele>
        <time>2014-10-25T10:00:31.000Z</time>
      </trkpt>
      <trkpt lat="49.88624" lon="0.96706">
        <ele>69</ele>
        <time>2014-10-25T10:00:34.000Z</time>
      </trkpt>
      <trkpt lat="49.88623" lon="0.967">
        <ele>69</ele>
        <time>2014-10-25T10:00:35.000Z</time>
      </trkpt>
      <trkpt lat="49.88619" lon="0.96687">
        <ele>69</ele>
        <time>2014-10-25T10:00:37.000Z</time>
      </trkpt>
      <trkpt lat="49.88618" lon="0.9668">
        <ele>68</ele>
        <time>2014-10-25T10:00:38.000Z</time>
      </trkpt>
      <trkpt lat="49.88616" lon="0.96673">
        <ele>68</ele>
        <time>2014-10-25T10:00:39.000Z</time>
      </trkpt>
      <trkpt lat="49.88615" lon="0.96666">
        <ele>68</ele>
        <time>2014-10-25T10:00:40.000Z</time>
      </trkpt>
      <trkpt lat="49.88613" lon="0.96659">
        <ele>67</ele>
        <time>2014-10-25T10:00:41.000Z</time>
      </trkpt>
      <trkpt lat="49.88611" lon="0.96652">
        <ele>67</ele>
        <time>2014-10-25T10:00:42.000Z</time>
      </trkpt>
      <trkpt lat="49.88609" lon="0.96646">
        <ele>67</ele>
        <time>2014-10-25T10:00:43.000Z</time>
      </trkpt>
      <trkpt lat="49.88607" lon="0.96639">
        <ele>66</ele>
        <time>2014-10-25T10:00:44.000Z</time>
      </trkpt>
      <trkpt lat="49.88604" lon="0.96626">
        <ele>66</ele>
        <time>2014-10-25T10:00:46.000Z</time>
      </trkpt>
      <trkpt lat="49.88602" lon="0.9662">
        <ele>66</ele>
        <time>2014-10-25T10:00:47.000Z</time>
      </trkpt>
      <trkpt lat="49.88598" lon="0.96601">
        <ele>66</ele>
        <time>2014-10-25T10:00:50.000Z</time>
      </trkpt>
      <trkpt lat="49.88597" lon="0.96595">
        <ele>66</ele>
        <time>2014-10-25T10:00:51.000Z</time>
      </trkpt>
      <trkpt lat="49.88594" lon="0.96577">
        <ele>66</ele>
        <time>2014-10-25T10:00:54.000Z</time>
      </trkpt>
      <trkpt lat="49.88593" lon="0.96571">
        <ele>66</ele>
        <time>2014-10-25T10:00:55.000Z</time>
      </trkpt>
      <trkpt lat="49.88588" lon="0.96546">
        <ele>64</ele>
        <time>2014-10-25T10:00:58.000Z</time>
      </trkpt>
      <trkpt lat="49.88587" lon="0.9654">
        <ele>65</ele>
        <time>2014-10-25T10:00:59.000Z</time>
      </trkpt>
      <trkpt lat="49.88584" lon="0.96522">
        <ele>66</ele>
        <time>2014-10-25T10:01:02.000Z</time>
      </trkpt>
      <trkpt lat="49.88583" lon="0.96516">
        <ele>66</ele>
        <time>2014-10-25T10:01:03.000Z</time>
      </trkpt>
      <trkpt lat="49.8858" lon="0.96499">
        <ele>67</ele>
        <time>2014-10-25T10:01:06.000Z</time>
      </trkpt>
      <trkpt lat="49.88579" lon="0.96494">
        <ele>68</ele>
        <time>2014-10-25T10:01:07.000Z</time>
      </trkpt>
      <trkpt lat="49.88575" lon="0.96479">
        <ele>68</ele>
        <time>2014-10-25T10:01:10.000Z</time>
      </trkpt>
      <trkpt lat="49.88574" lon="0.96473">
        <ele>68</ele>
        <time>2014-10-25T10:01:11.000Z</time>
      </trkpt>
      <trkpt lat="49.88571" lon="0.96458">
        <ele>70</ele>
        <time>2014-10-25T10:01:14.000Z</time>
      </trkpt>
      <trkpt lat="49.8857" lon="0.96453">
        <ele>70</ele>
        <time>2014-10-25T10:01:15.000Z</time>
      </trkpt>
      <trkpt lat="49.88566" lon="0.96434">
        <ele>68</ele>
        <time>2014-10-25T10:01:18.000Z</time>
      </trkpt>
      <trkpt lat="49.88565" lon="0.96428">
        <ele>67</ele>
        <time>2014-10-25T10:01:19.000Z</time>
      </trkpt>
      <trkpt lat="49.88562" lon="0.96414">
        <ele>65</ele>
        <time>2014-10-25T10:01:21.000Z</time>
      </trkpt>
      <trkpt lat="49.88561" lon="0.96406">
        <ele>65</ele>
        <time>2014-10-25T10:01:22.000Z</time>
      </trkpt>
      <trkpt lat="49.88559" lon="0.96399">
        <ele>64</ele>
        <time>2014-10-25T10:01:23.000Z</time>
      </trkpt>
      <trkpt lat="49.88557" lon="0.96392">
        <ele>64</ele>
        <time>2014-10-25T10:01:24.000Z</time>
      </trkpt>
      <trkpt lat="49.88556" lon="0.96385">
        <ele>63</ele>
        <time>2014-10-25T10:01:25.000Z</time>
      </trkpt>
      <trkpt lat="49.88553" lon="0.96368">
        <ele>62</ele>
        <time>2014-10-25T10:01:28.000Z</time>
      </trkpt>
      <trkpt lat="49.88552" lon="0.96364">
        <ele>62</ele>
        <time>2014-10-25T10:01:29.000Z</time>
      </trkpt>
      <trkpt lat="49.8855" lon="0.96348">
        <ele>62</ele>
        <time>2014-10-25T10:01:33.000Z</time>
      </trkpt>
      <trkpt lat="49.8855" lon="0.96343">
        <ele>61</ele>
        <time>2014-10-25T10:01:34.000Z</time>
      </trkpt>
      <trkpt lat="49.88554" lon="0.96328">
        <ele>61</ele>
        <time>2014-10-25T10:01:37.000Z</time>
      </trkpt>
      <trkpt lat="49.88557" lon="0.96323">
        <ele>61</ele>
        <time>2014-10-25T10:01:38.000Z</time>
      </trkpt>
      <trkpt lat="49.88565" lon="0.96307">
        <ele>60</ele>
        <time>2014-10-25T10:01:41.000Z</time>
      </trkpt>
      <trkpt lat="49.88569" lon="0.96301">
        <ele>60</ele>
        <time>2014-10-25T10:01:42.000Z</time>
      </trkpt>
      <trkpt lat="49.88572" lon="0.96295">
        <ele>59</ele>
        <time>2014-10-25T10:01:43.000Z</time>
      </trkpt>
      <trkpt lat="49.88576" lon="0.96289">
        <ele>59</ele>
        <time>2014-10-25T10:01:44.000Z</time>
      </trkpt>
      <trkpt lat="49.8858" lon="0.96282">
        <ele>59</ele>
        <time>2014-10-25T10:01:45.000Z</time>
      </trkpt>
      <trkpt lat="49.88583" lon="0.96275">
        <ele>59</ele>
        <time>2014-10-25T10:01:46.000Z</time>
      </trkpt>
      <trkpt lat="49.88587" lon="0.96267">
        <ele>58</ele>
        <time>2014-10-25T10:01:47.000Z</time>
      </trkpt>
      <trkpt lat="49.8859" lon="0.9626">
        <ele>58</ele>
        <time>2014-10-25T10:01:48.000Z</time>
      </trkpt>
      <trkpt lat="49.88594" lon="0.96253">
        <ele>58</ele>
        <time>2014-10-25T10:01:49.000Z</time>
      </trkpt>
      <trkpt lat="49.88597" lon="0.96245">
        <ele>57</ele>
        <time>2014-10-25T10:01:50.000Z</time>
      </trkpt>
      <trkpt lat="49.88602" lon="0.96238">
        <ele>57</ele>
        <time>2014-10-25T10:01:51.000Z</time>
      </trkpt>
      <trkpt lat="49.88606" lon="0.9623">
        <ele>56</ele>
        <time>2014-10-25T10:01:52.000Z</time>
      </trkpt>
      <trkpt lat="49.88609" lon="0.96222">
        <ele>56</ele>
        <time>2014-10-25T10:01:53.000Z</time>
      </trkpt>
      <trkpt lat="49.88613" lon="0.96214">
        <ele>55</ele>
        <time>2014-10-25T10:01:54.000Z</time>
      </trkpt>
      <trkpt lat="49.88618" lon="0.96206">
        <ele>55</ele>
        <time>2014-10-25T10:01:55.000Z</time>
      </trkpt>
      <trkpt lat="49.88622" lon="0.96197">
        <ele>55</ele>
        <time>2014-10-25T10:01:56.000Z</time>
      </trkpt>
      <trkpt lat="49.88626" lon="0.96189">
        <ele>55</ele>
        <time>2014-10-25T10:01:57.000Z</time>
      </trkpt>
      <trkpt lat="49.88631" lon="0.96181">
        <ele>54</ele>
        <time>2014-10-25T10:01:58.000Z</time>
      </trkpt>
      <trkpt lat="49.88636" lon="0.96173">
        <ele>55</ele>
        <time>2014-10-25T10:01:59.000Z</time>
      </trkpt>
      <trkpt lat="49.8864" lon="0.96165">
        <ele>55</ele>
        <time>2014-10-25T10:02:00.000Z</time>
      </trkpt>
      <trkpt lat="49.88646" lon="0.96156">
        <ele>56</ele>
        <time>2014-10-25T10:02:01.000Z</time>
      </trkpt>
      <trkpt lat="49.8865" lon="0.96148">
        <ele>55</ele>
        <time>2014-10-25T10:02:02.000Z</time>
      </trkpt>
      <trkpt lat="49.88654" lon="0.9614">
        <ele>55</ele>
        <time>2014-10-25T10:02:03.000Z</time>
      </trkpt>
      <trkpt lat="49.88658" lon="0.96132">
        <ele>54</ele>
        <time>2014-10-25T10:02:04.000Z</time>
      </trkpt>
      <trkpt lat="49.88662" lon="0.96124">
        <ele>54</ele>
        <time>2014-10-25T10:02:05.000Z</time>
      </trkpt>
      <trkpt lat="49.88666" lon="0.96117">
        <ele>53</ele>
        <time>2014-10-25T10:02:06.000Z</time>
      </trkpt>
      <trkpt lat="49.8867" lon="0.96109">
        <ele>53</ele>
        <time>2014-10-25T10:02:07.000Z</time>
      </trkpt>
      <trkpt lat="49.88674" lon="0.96103">
        <ele>53</ele>
        <time>2014-10-25T10:02:08.000Z</time>
      </trkpt>
      <trkpt lat="49.88679" lon="0.96097">
        <ele>52</ele>
        <time>2014-10-25T10:02:09.000Z</time>
      </trkpt>
      <trkpt lat="49.88684" lon="0.96093">
        <ele>52</ele>
        <time>2014-10-25T10:02:10.000Z</time>
      </trkpt>
      <trkpt lat="49.88688" lon="0.96089">
        <ele>51</ele>
        <time>2014-10-25T10:02:11.000Z</time>
      </trkpt>
      <trkpt lat="49.88692" lon="0.96086">
        <ele>51</ele>
        <time>2014-10-25T10:02:12.000Z</time>
      </trkpt>
      <trkpt lat="49.887" lon="0.96076">
        <ele>49</ele>
        <time>2014-10-25T10:02:19.000Z</time>
      </trkpt>
      <trkpt lat="49.88702" lon="0.96074">
        <ele>49</ele>
        <time>2014-10-25T10:02:20.000Z</time>
      </trkpt>
      <trkpt lat="49.88701" lon="0.96057">
        <ele>48</ele>
        <time>2014-10-25T10:02:24.000Z</time>
      </trkpt>
      <trkpt lat="49.887" lon="0.96051">
        <ele>48</ele>
        <time>2014-10-25T10:02:25.000Z</time>
      </trkpt>
      <trkpt lat="49.887" lon="0.96029">
        <ele>47</ele>
        <time>2014-10-25T10:02:28.000Z</time>
      </trkpt>
      <trkpt lat="49.887" lon="0.96021">
        <ele>47</ele>
        <time>2014-10-25T10:02:29.000Z</time>
      </trkpt>
      <trkpt lat="49.88699" lon="0.96013">
        <ele>47</ele>
        <time>2014-10-25T10:02:30.000Z</time>
      </trkpt>
      <trkpt lat="49.88699" lon="0.96005">
        <ele>46</ele>
        <time>2014-10-25T10:02:31.000Z</time>
      </trkpt>
      <trkpt lat="49.88698" lon="0.95996">
        <ele>46</ele>
        <time>2014-10-25T10:02:32.000Z</time>
      </trkpt>
      <trkpt lat="49.88697" lon="0.95987">
        <ele>46</ele>
        <time>2014-10-25T10:02:33.000Z</time>
      </trkpt>
      <trkpt lat="49.88696" lon="0.95978">
        <ele>45</ele>
        <time>2014-10-25T10:02:34.000Z</time>
      </trkpt>
      <trkpt lat="49.88696" lon="0.95969">
        <ele>45</ele>
        <time>2014-10-25T10:02:35.000Z</time>
      </trkpt>
      <trkpt lat="49.88695" lon="0.95959">
        <ele>45</ele>
        <time>2014-10-25T10:02:36.000Z</time>
      </trkpt>
      <trkpt lat="49.88694" lon="0.95949">
        <ele>44</ele>
        <time>2014-10-25T10:02:37.000Z</time>
      </trkpt>
      <trkpt lat="49.88694" lon="0.9594">
        <ele>44</ele>
        <time>2014-10-25T10:02:38.000Z</time>
      </trkpt>
      <trkpt lat="49.88693" lon="0.9593">
        <ele>44</ele>
        <time>2014-10-25T10:02:39.000Z</time>
      </trkpt>
      <trkpt lat="49.88693" lon="0.95921">
        <ele>43</ele>
        <time>2014-10-25T10:02:40.000Z</time>
      </trkpt>
      <trkpt lat="49.88693" lon="0.95913">
        <ele>43</ele>
        <time>2014-10-25T10:02:41.000Z</time>
      </trkpt>
      <trkpt lat="49.88692" lon="0.95904">
        <ele>43</ele>
        <time>2014-10-25T10:02:42.000Z</time>
      </trkpt>
      <trkpt lat="49.88691" lon="0.95895">
        <ele>43</ele>
        <time>2014-10-25T10:02:43.000Z</time>
      </trkpt>
      <trkpt lat="49.8869" lon="0.95886">
        <ele>43</ele>
        <time>2014-10-25T10:02:44.000Z</time>
      </trkpt>
      <trkpt lat="49.88689" lon="0.95877">
        <ele>42</ele>
        <time>2014-10-25T10:02:45.000Z</time>
      </trkpt>
      <trkpt lat="49.88688" lon="0.95868">
        <ele>42</ele>
        <time>2014-10-25T10:02:46.000Z</time>
      </trkpt>
      <trkpt lat="49.88686" lon="0.95858">
        <ele>42</ele>
        <time>2014-10-25T10:02:47.000Z</time>
      </trkpt>
      <trkpt lat="49.88684" lon="0.95849">
        <ele>42</ele>
        <time>2014-10-25T10:02:48.000Z</time>
      </trkpt>
      <trkpt lat="49.88682" lon="0.9584">
        <ele>42</ele>
        <time>2014-10-25T10:02:49.000Z</time>
      </trkpt>
      <trkpt lat="49.8868" lon="0.95831">
        <ele>42</ele>
        <time>2014-10-25T10:02:50.000Z</time>
      </trkpt>
      <trkpt lat="49.88678" lon="0.95822">
        <ele>42</ele>
        <time>2014-10-25T10:02:51.000Z</time>
      </trkpt>
      <trkpt lat="49.88675" lon="0.95815">
        <ele>42</ele>
        <time>2014-10-25T10:02:52.000Z</time>
      </trkpt>
      <trkpt lat="49.88672" lon="0.95808">
        <ele>42</ele>
        <time>2014-10-25T10:02:53.000Z</time>
      </trkpt>
      <trkpt lat="49.88669" lon="0.95802">
        <ele>42</ele>
        <time>2014-10-25T10:02:54.000Z</time>
      </trkpt>
      <trkpt lat="49.88667" lon="0.95795">
        <ele>42</ele>
        <time>2014-10-25T10:02:55.000Z</time>
      </trkpt>
      <trkpt lat="49.88665" lon="0.95788">
        <ele>42</ele>
        <time>2014-10-25T10:02:56.000Z</time>
      </trkpt>
      <trkpt lat="49.88662" lon="0.95782">
        <ele>42</ele>
        <time>2014-10-25T10:02:57.000Z</time>
      </trkpt>
      <trkpt lat="49.88659" lon="0.95777">
        <ele>42</ele>
        <time>2014-10-25T10:02:58.000Z</time>
      </trkpt>
      <trkpt lat="49.88655" lon="0.95772">
        <ele>41</ele>
        <time>2014-10-25T10:02:59.000Z</time>
      </trkpt>
      <trkpt lat="49.88651" lon="0.95766">
        <ele>41</ele>
        <time>2014-10-25T10:03:00.000Z</time>
      </trkpt>
      <trkpt lat="49.88648" lon="0.9576">
        <ele>41</ele>
        <time>2014-10-25T10:03:01.000Z</time>
      </trkpt>
      <trkpt lat="49.88644" lon="0.95756">
        <ele>41</ele>
        <time>2014-10-25T10:03:02.000Z</time>
      </trkpt>
      <trkpt lat="49.88641" lon="0.95751">
        <ele>41</ele>
        <time>2014-10-25T10:03:03.000Z</time>
      </trkpt>
      <trkpt lat="49.88631" lon="0.95745">
        <ele>41</ele>
        <time>2014-10-25T10:03:06.000Z</time>
      </trkpt>
      <trkpt lat="49.88629" lon="0.95744">
        <ele>41</ele>
        <time>2014-10-25T10:03:07.000Z</time>
      </trkpt>
      <trkpt lat="49.88623" lon="0.95742">
        <ele>41</ele>
        <time>2014-10-25T10:03:23.000Z</time>
      </trkpt>
    </trkseg>
  </trk>
</gpx>